<?xml version="1.0" encoding="UTF-8" standalone="no" ?>
<gpx xmlns="http://www.topografix.com/GPX/1/1" xmlns:xsi="http://www.w3.org/2001/XMLSchema-instance" xsi:schemaLocation="http://www.topografix.com/GPX/1/1 http://www.topografix.com/GPX/1/1/gpx.xsd" version="1.1" creator="VisuGPX - https://www.visugpx.com">
  <metadata>
    <name>Rando Vtt St Benoît 2022</name>
    <desc><![CDATA[Bonne rando..... ]]></desc>
  </metadata>
  <trk>
    <name><![CDATA[Rando Vtt St Benoît 2022_1]]></name>
    <trkseg>
      <trkpt lat="46.5583" lon="0.34347">
        <ele>145.4</ele>
        <time>2022-01-16T07:37:52Z</time>
      </trkpt>
      <trkpt lat="46.55827" lon="0.34347">
        <ele>145.4</ele>
        <time>2022-01-16T07:38:02Z</time>
      </trkpt>
      <trkpt lat="46.55821" lon="0.34349">
        <ele>145.4</ele>
        <time>2022-01-16T07:38:09Z</time>
      </trkpt>
      <trkpt lat="46.55821" lon="0.34355">
        <ele>145.4</ele>
        <time>2022-01-16T07:38:15Z</time>
      </trkpt>
      <trkpt lat="46.55821" lon="0.34355">
        <ele>145.4</ele>
        <time>2022-01-16T07:38:16Z</time>
      </trkpt>
      <trkpt lat="46.55823" lon="0.34343">
        <ele>145.4</ele>
        <time>2022-01-16T07:38:21Z</time>
      </trkpt>
      <trkpt lat="46.55828" lon="0.34316">
        <ele>145.6</ele>
        <time>2022-01-16T07:38:27Z</time>
      </trkpt>
      <trkpt lat="46.5583" lon="0.34294">
        <ele>145.4</ele>
        <time>2022-01-16T07:38:33Z</time>
      </trkpt>
      <trkpt lat="46.5583" lon="0.34283">
        <ele>145.4</ele>
        <time>2022-01-16T07:38:39Z</time>
      </trkpt>
      <trkpt lat="46.55829" lon="0.34279">
        <ele>145.4</ele>
        <time>2022-01-16T07:38:41Z</time>
      </trkpt>
      <trkpt lat="46.55825" lon="0.34272">
        <ele>145.4</ele>
        <time>2022-01-16T07:38:44Z</time>
      </trkpt>
      <trkpt lat="46.55809" lon="0.34265">
        <ele>145.4</ele>
        <time>2022-01-16T07:38:48Z</time>
      </trkpt>
      <trkpt lat="46.55796" lon="0.34262">
        <ele>145.4</ele>
        <time>2022-01-16T07:38:51Z</time>
      </trkpt>
      <trkpt lat="46.55779" lon="0.34259">
        <ele>145.6</ele>
        <time>2022-01-16T07:38:55Z</time>
      </trkpt>
      <trkpt lat="46.55747" lon="0.34253">
        <ele>146</ele>
        <time>2022-01-16T07:39:02Z</time>
      </trkpt>
      <trkpt lat="46.55742" lon="0.34253">
        <ele>145.8</ele>
        <time>2022-01-16T07:39:03Z</time>
      </trkpt>
      <trkpt lat="46.55732" lon="0.34253">
        <ele>145.8</ele>
        <time>2022-01-16T07:39:05Z</time>
      </trkpt>
      <trkpt lat="46.55723" lon="0.34257">
        <ele>145.8</ele>
        <time>2022-01-16T07:39:07Z</time>
      </trkpt>
      <trkpt lat="46.55717" lon="0.34262">
        <ele>145.8</ele>
        <time>2022-01-16T07:39:09Z</time>
      </trkpt>
      <trkpt lat="46.55714" lon="0.34269">
        <ele>146</ele>
        <time>2022-01-16T07:39:11Z</time>
      </trkpt>
      <trkpt lat="46.55712" lon="0.34272">
        <ele>146</ele>
        <time>2022-01-16T07:39:12Z</time>
      </trkpt>
      <trkpt lat="46.55708" lon="0.34279">
        <ele>146.2</ele>
        <time>2022-01-16T07:39:14Z</time>
      </trkpt>
      <trkpt lat="46.55709" lon="0.34288">
        <ele>146.4</ele>
        <time>2022-01-16T07:39:16Z</time>
      </trkpt>
      <trkpt lat="46.55711" lon="0.34294">
        <ele>146.4</ele>
        <time>2022-01-16T07:39:18Z</time>
      </trkpt>
      <trkpt lat="46.55708" lon="0.34297">
        <ele>146.4</ele>
        <time>2022-01-16T07:39:20Z</time>
      </trkpt>
      <trkpt lat="46.55705" lon="0.34294">
        <ele>146.4</ele>
        <time>2022-01-16T07:39:22Z</time>
      </trkpt>
      <trkpt lat="46.55703" lon="0.34288">
        <ele>146.4</ele>
        <time>2022-01-16T07:39:24Z</time>
      </trkpt>
      <trkpt lat="46.55704" lon="0.3428">
        <ele>146.4</ele>
        <time>2022-01-16T07:39:26Z</time>
      </trkpt>
      <trkpt lat="46.55707" lon="0.34271">
        <ele>146.4</ele>
        <time>2022-01-16T07:39:28Z</time>
      </trkpt>
      <trkpt lat="46.55709" lon="0.34249">
        <ele>146.6</ele>
        <time>2022-01-16T07:39:32Z</time>
      </trkpt>
      <trkpt lat="46.55707" lon="0.34244">
        <ele>146.6</ele>
        <time>2022-01-16T07:39:33Z</time>
      </trkpt>
      <trkpt lat="46.55704" lon="0.3424">
        <ele>146.6</ele>
        <time>2022-01-16T07:39:34Z</time>
      </trkpt>
      <trkpt lat="46.55696" lon="0.34236">
        <ele>146.8</ele>
        <time>2022-01-16T07:39:36Z</time>
      </trkpt>
      <trkpt lat="46.55683" lon="0.3423">
        <ele>146.8</ele>
        <time>2022-01-16T07:39:39Z</time>
      </trkpt>
      <trkpt lat="46.5567" lon="0.34222">
        <ele>146.8</ele>
        <time>2022-01-16T07:39:42Z</time>
      </trkpt>
      <trkpt lat="46.55655" lon="0.34218">
        <ele>146.8</ele>
        <time>2022-01-16T07:39:45Z</time>
      </trkpt>
      <trkpt lat="46.55638" lon="0.34214">
        <ele>147.4</ele>
        <time>2022-01-16T07:39:49Z</time>
      </trkpt>
      <trkpt lat="46.55607" lon="0.34209">
        <ele>146.8</ele>
        <time>2022-01-16T07:39:57Z</time>
      </trkpt>
      <trkpt lat="46.55594" lon="0.3421">
        <ele>146.8</ele>
        <time>2022-01-16T07:40:00Z</time>
      </trkpt>
      <trkpt lat="46.55573" lon="0.34213">
        <ele>146.8</ele>
        <time>2022-01-16T07:40:04Z</time>
      </trkpt>
      <trkpt lat="46.5553" lon="0.34219">
        <ele>146.6</ele>
        <time>2022-01-16T07:40:12Z</time>
      </trkpt>
      <trkpt lat="46.55508" lon="0.34222">
        <ele>146.6</ele>
        <time>2022-01-16T07:40:16Z</time>
      </trkpt>
      <trkpt lat="46.55481" lon="0.34225">
        <ele>146.6</ele>
        <time>2022-01-16T07:40:21Z</time>
      </trkpt>
      <trkpt lat="46.55461" lon="0.34223">
        <ele>145.8</ele>
        <time>2022-01-16T07:40:25Z</time>
      </trkpt>
      <trkpt lat="46.55459" lon="0.34222">
        <ele>145.4</ele>
        <time>2022-01-16T07:40:26Z</time>
      </trkpt>
      <trkpt lat="46.55455" lon="0.34223">
        <ele>144.6</ele>
        <time>2022-01-16T07:40:28Z</time>
      </trkpt>
      <trkpt lat="46.55455" lon="0.34225">
        <ele>144.4</ele>
        <time>2022-01-16T07:40:29Z</time>
      </trkpt>
      <trkpt lat="46.55456" lon="0.34227">
        <ele>144.2</ele>
        <time>2022-01-16T07:40:30Z</time>
      </trkpt>
      <trkpt lat="46.55459" lon="0.34235">
        <ele>144.2</ele>
        <time>2022-01-16T07:40:33Z</time>
      </trkpt>
      <trkpt lat="46.55465" lon="0.34261">
        <ele>144.4</ele>
        <time>2022-01-16T07:40:38Z</time>
      </trkpt>
      <trkpt lat="46.55467" lon="0.34268">
        <ele>144.4</ele>
        <time>2022-01-16T07:40:39Z</time>
      </trkpt>
      <trkpt lat="46.55479" lon="0.34288">
        <ele>143.2</ele>
        <time>2022-01-16T07:40:42Z</time>
      </trkpt>
      <trkpt lat="46.55483" lon="0.34294">
        <ele>142.6</ele>
        <time>2022-01-16T07:40:43Z</time>
      </trkpt>
      <trkpt lat="46.5549" lon="0.34304">
        <ele>142</ele>
        <time>2022-01-16T07:40:45Z</time>
      </trkpt>
      <trkpt lat="46.55493" lon="0.34307">
        <ele>141.4</ele>
        <time>2022-01-16T07:40:46Z</time>
      </trkpt>
      <trkpt lat="46.55496" lon="0.34312">
        <ele>140.4</ele>
        <time>2022-01-16T07:40:48Z</time>
      </trkpt>
      <trkpt lat="46.55494" lon="0.34316">
        <ele>140</ele>
        <time>2022-01-16T07:40:50Z</time>
      </trkpt>
      <trkpt lat="46.55487" lon="0.34316">
        <ele>139.2</ele>
        <time>2022-01-16T07:40:53Z</time>
      </trkpt>
      <trkpt lat="46.55483" lon="0.34316">
        <ele>138.8</ele>
        <time>2022-01-16T07:40:54Z</time>
      </trkpt>
      <trkpt lat="46.55461" lon="0.34318">
        <ele>138.2</ele>
        <time>2022-01-16T07:41:00Z</time>
      </trkpt>
      <trkpt lat="46.55458" lon="0.34318">
        <ele>137.8</ele>
        <time>2022-01-16T07:41:02Z</time>
      </trkpt>
      <trkpt lat="46.55457" lon="0.34318">
        <ele>137.4</ele>
        <time>2022-01-16T07:41:03Z</time>
      </trkpt>
      <trkpt lat="46.55456" lon="0.34318">
        <ele>137.2</ele>
        <time>2022-01-16T07:41:04Z</time>
      </trkpt>
      <trkpt lat="46.55456" lon="0.34318">
        <ele>137.2</ele>
        <time>2022-01-16T07:41:05Z</time>
      </trkpt>
      <trkpt lat="46.55456" lon="0.34319">
        <ele>137</ele>
        <time>2022-01-16T07:41:08Z</time>
      </trkpt>
      <trkpt lat="46.55447" lon="0.34317">
        <ele>137.4</ele>
        <time>2022-01-16T07:41:13Z</time>
      </trkpt>
      <trkpt lat="46.55432" lon="0.34322">
        <ele>137.6</ele>
        <time>2022-01-16T07:41:17Z</time>
      </trkpt>
      <trkpt lat="46.55428" lon="0.34324">
        <ele>137.6</ele>
        <time>2022-01-16T07:41:18Z</time>
      </trkpt>
      <trkpt lat="46.55421" lon="0.34328">
        <ele>137</ele>
        <time>2022-01-16T07:41:20Z</time>
      </trkpt>
      <trkpt lat="46.5541" lon="0.34334">
        <ele>136.2</ele>
        <time>2022-01-16T07:41:23Z</time>
      </trkpt>
      <trkpt lat="46.55402" lon="0.34339">
        <ele>135.8</ele>
        <time>2022-01-16T07:41:25Z</time>
      </trkpt>
      <trkpt lat="46.55388" lon="0.34346">
        <ele>134.8</ele>
        <time>2022-01-16T07:41:29Z</time>
      </trkpt>
      <trkpt lat="46.55362" lon="0.3435">
        <ele>136</ele>
        <time>2022-01-16T07:41:34Z</time>
      </trkpt>
      <trkpt lat="46.55357" lon="0.3435">
        <ele>136.2</ele>
        <time>2022-01-16T07:41:35Z</time>
      </trkpt>
      <trkpt lat="46.55351" lon="0.3435">
        <ele>136.2</ele>
        <time>2022-01-16T07:41:36Z</time>
      </trkpt>
      <trkpt lat="46.55327" lon="0.34351">
        <ele>136</ele>
        <time>2022-01-16T07:41:40Z</time>
      </trkpt>
      <trkpt lat="46.55305" lon="0.3435">
        <ele>134.2</ele>
        <time>2022-01-16T07:41:43Z</time>
      </trkpt>
      <trkpt lat="46.55292" lon="0.3435">
        <ele>133.2</ele>
        <time>2022-01-16T07:41:45Z</time>
      </trkpt>
      <trkpt lat="46.55278" lon="0.34351">
        <ele>131.6</ele>
        <time>2022-01-16T07:41:47Z</time>
      </trkpt>
      <trkpt lat="46.55264" lon="0.34349">
        <ele>130</ele>
        <time>2022-01-16T07:41:49Z</time>
      </trkpt>
      <trkpt lat="46.55258" lon="0.34348">
        <ele>129.8</ele>
        <time>2022-01-16T07:41:50Z</time>
      </trkpt>
      <trkpt lat="46.55246" lon="0.34346">
        <ele>129</ele>
        <time>2022-01-16T07:41:52Z</time>
      </trkpt>
      <trkpt lat="46.55233" lon="0.34343">
        <ele>128.2</ele>
        <time>2022-01-16T07:41:55Z</time>
      </trkpt>
      <trkpt lat="46.55233" lon="0.34343">
        <ele>128</ele>
        <time>2022-01-16T07:41:57Z</time>
      </trkpt>
      <trkpt lat="46.55233" lon="0.34343">
        <ele>127.6</ele>
        <time>2022-01-16T07:41:59Z</time>
      </trkpt>
      <trkpt lat="46.552" lon="0.3434">
        <ele>127.2</ele>
        <time>2022-01-16T07:42:03Z</time>
      </trkpt>
      <trkpt lat="46.55194" lon="0.34338">
        <ele>126.8</ele>
        <time>2022-01-16T07:42:04Z</time>
      </trkpt>
      <trkpt lat="46.55173" lon="0.34331">
        <ele>126.4</ele>
        <time>2022-01-16T07:42:08Z</time>
      </trkpt>
      <trkpt lat="46.55163" lon="0.34323">
        <ele>126.4</ele>
        <time>2022-01-16T07:42:10Z</time>
      </trkpt>
      <trkpt lat="46.5515" lon="0.34308">
        <ele>126.6</ele>
        <time>2022-01-16T07:42:13Z</time>
      </trkpt>
      <trkpt lat="46.55141" lon="0.343">
        <ele>126.6</ele>
        <time>2022-01-16T07:42:15Z</time>
      </trkpt>
      <trkpt lat="46.5512" lon="0.34283">
        <ele>126</ele>
        <time>2022-01-16T07:42:19Z</time>
      </trkpt>
      <trkpt lat="46.55113" lon="0.3428">
        <ele>125.4</ele>
        <time>2022-01-16T07:42:20Z</time>
      </trkpt>
      <trkpt lat="46.551" lon="0.34275">
        <ele>124</ele>
        <time>2022-01-16T07:42:22Z</time>
      </trkpt>
      <trkpt lat="46.55088" lon="0.3427">
        <ele>123.2</ele>
        <time>2022-01-16T07:42:24Z</time>
      </trkpt>
      <trkpt lat="46.55083" lon="0.34269">
        <ele>122.4</ele>
        <time>2022-01-16T07:42:25Z</time>
      </trkpt>
      <trkpt lat="46.55079" lon="0.3427">
        <ele>121.4</ele>
        <time>2022-01-16T07:42:26Z</time>
      </trkpt>
      <trkpt lat="46.55077" lon="0.34274">
        <ele>120.8</ele>
        <time>2022-01-16T07:42:27Z</time>
      </trkpt>
      <trkpt lat="46.55075" lon="0.34279">
        <ele>120</ele>
        <time>2022-01-16T07:42:28Z</time>
      </trkpt>
      <trkpt lat="46.55075" lon="0.34285">
        <ele>119.4</ele>
        <time>2022-01-16T07:42:29Z</time>
      </trkpt>
      <trkpt lat="46.55077" lon="0.34294">
        <ele>118.2</ele>
        <time>2022-01-16T07:42:31Z</time>
      </trkpt>
      <trkpt lat="46.5508" lon="0.34302">
        <ele>116.8</ele>
        <time>2022-01-16T07:42:33Z</time>
      </trkpt>
      <trkpt lat="46.55085" lon="0.34312">
        <ele>115.4</ele>
        <time>2022-01-16T07:42:35Z</time>
      </trkpt>
      <trkpt lat="46.55088" lon="0.34316">
        <ele>115</ele>
        <time>2022-01-16T07:42:36Z</time>
      </trkpt>
      <trkpt lat="46.55092" lon="0.34321">
        <ele>114.8</ele>
        <time>2022-01-16T07:42:37Z</time>
      </trkpt>
      <trkpt lat="46.55099" lon="0.34328">
        <ele>114.2</ele>
        <time>2022-01-16T07:42:39Z</time>
      </trkpt>
      <trkpt lat="46.55104" lon="0.34331">
        <ele>113.8</ele>
        <time>2022-01-16T07:42:40Z</time>
      </trkpt>
      <trkpt lat="46.55108" lon="0.34334">
        <ele>113.4</ele>
        <time>2022-01-16T07:42:41Z</time>
      </trkpt>
      <trkpt lat="46.55118" lon="0.34342">
        <ele>113</ele>
        <time>2022-01-16T07:42:43Z</time>
      </trkpt>
      <trkpt lat="46.55127" lon="0.34349">
        <ele>111.8</ele>
        <time>2022-01-16T07:42:45Z</time>
      </trkpt>
      <trkpt lat="46.55131" lon="0.34353">
        <ele>111.4</ele>
        <time>2022-01-16T07:42:46Z</time>
      </trkpt>
      <trkpt lat="46.55148" lon="0.34365">
        <ele>110.6</ele>
        <time>2022-01-16T07:42:50Z</time>
      </trkpt>
      <trkpt lat="46.55161" lon="0.3437">
        <ele>109.6</ele>
        <time>2022-01-16T07:42:53Z</time>
      </trkpt>
      <trkpt lat="46.55166" lon="0.34371">
        <ele>109</ele>
        <time>2022-01-16T07:42:54Z</time>
      </trkpt>
      <trkpt lat="46.55173" lon="0.34374">
        <ele>107.4</ele>
        <time>2022-01-16T07:42:56Z</time>
      </trkpt>
      <trkpt lat="46.55181" lon="0.34377">
        <ele>106.8</ele>
        <time>2022-01-16T07:42:57Z</time>
      </trkpt>
      <trkpt lat="46.55184" lon="0.3438">
        <ele>106.4</ele>
        <time>2022-01-16T07:42:58Z</time>
      </trkpt>
      <trkpt lat="46.55182" lon="0.34383">
        <ele>105.6</ele>
        <time>2022-01-16T07:43:00Z</time>
      </trkpt>
      <trkpt lat="46.55177" lon="0.34382">
        <ele>105.4</ele>
        <time>2022-01-16T07:43:02Z</time>
      </trkpt>
      <trkpt lat="46.55173" lon="0.34382">
        <ele>105.2</ele>
        <time>2022-01-16T07:43:03Z</time>
      </trkpt>
      <trkpt lat="46.55142" lon="0.34377">
        <ele>105.2</ele>
        <time>2022-01-16T07:43:09Z</time>
      </trkpt>
      <trkpt lat="46.55112" lon="0.34366">
        <ele>105.6</ele>
        <time>2022-01-16T07:43:14Z</time>
      </trkpt>
      <trkpt lat="46.55107" lon="0.34362">
        <ele>105.8</ele>
        <time>2022-01-16T07:43:15Z</time>
      </trkpt>
      <trkpt lat="46.55079" lon="0.34348">
        <ele>105.6</ele>
        <time>2022-01-16T07:43:20Z</time>
      </trkpt>
      <trkpt lat="46.55051" lon="0.34334">
        <ele>104.4</ele>
        <time>2022-01-16T07:43:26Z</time>
      </trkpt>
      <trkpt lat="46.55049" lon="0.34334">
        <ele>104.2</ele>
        <time>2022-01-16T07:43:27Z</time>
      </trkpt>
      <trkpt lat="46.55049" lon="0.34336">
        <ele>103.6</ele>
        <time>2022-01-16T07:43:29Z</time>
      </trkpt>
      <trkpt lat="46.5505" lon="0.34342">
        <ele>102.8</ele>
        <time>2022-01-16T07:43:31Z</time>
      </trkpt>
      <trkpt lat="46.55052" lon="0.34346">
        <ele>102.6</ele>
        <time>2022-01-16T07:43:32Z</time>
      </trkpt>
      <trkpt lat="46.55052" lon="0.34351">
        <ele>102.4</ele>
        <time>2022-01-16T07:43:33Z</time>
      </trkpt>
      <trkpt lat="46.55052" lon="0.34357">
        <ele>102.2</ele>
        <time>2022-01-16T07:43:34Z</time>
      </trkpt>
      <trkpt lat="46.55051" lon="0.34367">
        <ele>101.8</ele>
        <time>2022-01-16T07:43:36Z</time>
      </trkpt>
      <trkpt lat="46.55051" lon="0.34372">
        <ele>101.8</ele>
        <time>2022-01-16T07:43:37Z</time>
      </trkpt>
      <trkpt lat="46.5505" lon="0.34385">
        <ele>101</ele>
        <time>2022-01-16T07:43:42Z</time>
      </trkpt>
      <trkpt lat="46.55047" lon="0.34387">
        <ele>100.8</ele>
        <time>2022-01-16T07:43:44Z</time>
      </trkpt>
      <trkpt lat="46.55047" lon="0.34385">
        <ele>100.8</ele>
        <time>2022-01-16T07:43:46Z</time>
      </trkpt>
      <trkpt lat="46.5505" lon="0.34385">
        <ele>100.8</ele>
        <time>2022-01-16T07:43:49Z</time>
      </trkpt>
      <trkpt lat="46.55052" lon="0.34386">
        <ele>100.8</ele>
        <time>2022-01-16T07:43:51Z</time>
      </trkpt>
      <trkpt lat="46.5506" lon="0.34394">
        <ele>101</ele>
        <time>2022-01-16T07:43:56Z</time>
      </trkpt>
      <trkpt lat="46.55059" lon="0.34412">
        <ele>101.2</ele>
        <time>2022-01-16T07:44:00Z</time>
      </trkpt>
      <trkpt lat="46.55054" lon="0.34431">
        <ele>101.8</ele>
        <time>2022-01-16T07:44:05Z</time>
      </trkpt>
      <trkpt lat="46.55053" lon="0.34433">
        <ele>102</ele>
        <time>2022-01-16T07:44:06Z</time>
      </trkpt>
      <trkpt lat="46.55044" lon="0.34439">
        <ele>103.4</ele>
        <time>2022-01-16T07:44:10Z</time>
      </trkpt>
      <trkpt lat="46.55041" lon="0.34439">
        <ele>103.8</ele>
        <time>2022-01-16T07:44:11Z</time>
      </trkpt>
      <trkpt lat="46.55036" lon="0.3444">
        <ele>105</ele>
        <time>2022-01-16T07:44:13Z</time>
      </trkpt>
      <trkpt lat="46.55032" lon="0.34442">
        <ele>106.2</ele>
        <time>2022-01-16T07:44:15Z</time>
      </trkpt>
      <trkpt lat="46.55025" lon="0.34443">
        <ele>106.8</ele>
        <time>2022-01-16T07:44:18Z</time>
      </trkpt>
      <trkpt lat="46.55021" lon="0.34443">
        <ele>107.6</ele>
        <time>2022-01-16T07:44:20Z</time>
      </trkpt>
      <trkpt lat="46.55018" lon="0.34443">
        <ele>108.6</ele>
        <time>2022-01-16T07:44:23Z</time>
      </trkpt>
      <trkpt lat="46.55016" lon="0.34442">
        <ele>109</ele>
        <time>2022-01-16T07:44:24Z</time>
      </trkpt>
      <trkpt lat="46.55015" lon="0.34441">
        <ele>109.4</ele>
        <time>2022-01-16T07:44:25Z</time>
      </trkpt>
      <trkpt lat="46.55014" lon="0.34441">
        <ele>109.8</ele>
        <time>2022-01-16T07:44:26Z</time>
      </trkpt>
      <trkpt lat="46.55012" lon="0.34442">
        <ele>110</ele>
        <time>2022-01-16T07:44:27Z</time>
      </trkpt>
      <trkpt lat="46.55012" lon="0.34446">
        <ele>110.4</ele>
        <time>2022-01-16T07:44:29Z</time>
      </trkpt>
      <trkpt lat="46.55013" lon="0.34448">
        <ele>110.8</ele>
        <time>2022-01-16T07:44:31Z</time>
      </trkpt>
      <trkpt lat="46.55015" lon="0.3445">
        <ele>111.6</ele>
        <time>2022-01-16T07:44:34Z</time>
      </trkpt>
      <trkpt lat="46.55016" lon="0.34452">
        <ele>112</ele>
        <time>2022-01-16T07:44:36Z</time>
      </trkpt>
      <trkpt lat="46.5502" lon="0.34456">
        <ele>112.8</ele>
        <time>2022-01-16T07:44:40Z</time>
      </trkpt>
      <trkpt lat="46.55023" lon="0.3446">
        <ele>113.2</ele>
        <time>2022-01-16T07:44:42Z</time>
      </trkpt>
      <trkpt lat="46.55027" lon="0.34467">
        <ele>113.8</ele>
        <time>2022-01-16T07:44:46Z</time>
      </trkpt>
      <trkpt lat="46.55033" lon="0.34474">
        <ele>114.4</ele>
        <time>2022-01-16T07:44:50Z</time>
      </trkpt>
      <trkpt lat="46.55035" lon="0.34476">
        <ele>114.8</ele>
        <time>2022-01-16T07:44:52Z</time>
      </trkpt>
      <trkpt lat="46.55041" lon="0.34483">
        <ele>115.4</ele>
        <time>2022-01-16T07:44:57Z</time>
      </trkpt>
      <trkpt lat="46.55044" lon="0.34486">
        <ele>115.8</ele>
        <time>2022-01-16T07:44:59Z</time>
      </trkpt>
      <trkpt lat="46.55048" lon="0.3449">
        <ele>116.4</ele>
        <time>2022-01-16T07:45:02Z</time>
      </trkpt>
      <trkpt lat="46.55052" lon="0.34496">
        <ele>116.8</ele>
        <time>2022-01-16T07:45:05Z</time>
      </trkpt>
      <trkpt lat="46.55055" lon="0.34499">
        <ele>117.6</ele>
        <time>2022-01-16T07:45:08Z</time>
      </trkpt>
      <trkpt lat="46.55059" lon="0.34504">
        <ele>118</ele>
        <time>2022-01-16T07:45:12Z</time>
      </trkpt>
      <trkpt lat="46.55064" lon="0.34509">
        <ele>118.6</ele>
        <time>2022-01-16T07:45:16Z</time>
      </trkpt>
      <trkpt lat="46.55069" lon="0.34514">
        <ele>119.6</ele>
        <time>2022-01-16T07:45:21Z</time>
      </trkpt>
      <trkpt lat="46.55073" lon="0.34522">
        <ele>120.4</ele>
        <time>2022-01-16T07:45:27Z</time>
      </trkpt>
      <trkpt lat="46.55074" lon="0.34523">
        <ele>120.8</ele>
        <time>2022-01-16T07:45:28Z</time>
      </trkpt>
      <trkpt lat="46.55077" lon="0.34526">
        <ele>121.6</ele>
        <time>2022-01-16T07:45:33Z</time>
      </trkpt>
      <trkpt lat="46.55078" lon="0.34527">
        <ele>122</ele>
        <time>2022-01-16T07:45:34Z</time>
      </trkpt>
      <trkpt lat="46.5508" lon="0.34528">
        <ele>122.2</ele>
        <time>2022-01-16T07:45:35Z</time>
      </trkpt>
      <trkpt lat="46.55085" lon="0.34533">
        <ele>123.2</ele>
        <time>2022-01-16T07:45:40Z</time>
      </trkpt>
      <trkpt lat="46.55087" lon="0.34536">
        <ele>123.6</ele>
        <time>2022-01-16T07:45:42Z</time>
      </trkpt>
      <trkpt lat="46.55093" lon="0.34542">
        <ele>124.4</ele>
        <time>2022-01-16T07:45:47Z</time>
      </trkpt>
      <trkpt lat="46.55098" lon="0.34547">
        <ele>125.6</ele>
        <time>2022-01-16T07:45:52Z</time>
      </trkpt>
      <trkpt lat="46.55098" lon="0.34548">
        <ele>125.6</ele>
        <time>2022-01-16T07:45:53Z</time>
      </trkpt>
      <trkpt lat="46.55103" lon="0.34554">
        <ele>126.6</ele>
        <time>2022-01-16T07:45:58Z</time>
      </trkpt>
      <trkpt lat="46.55109" lon="0.3456">
        <ele>127.8</ele>
        <time>2022-01-16T07:46:03Z</time>
      </trkpt>
      <trkpt lat="46.5511" lon="0.34562">
        <ele>128.2</ele>
        <time>2022-01-16T07:46:05Z</time>
      </trkpt>
      <trkpt lat="46.55114" lon="0.34568">
        <ele>129</ele>
        <time>2022-01-16T07:46:09Z</time>
      </trkpt>
      <trkpt lat="46.55119" lon="0.34573">
        <ele>130</ele>
        <time>2022-01-16T07:46:14Z</time>
      </trkpt>
      <trkpt lat="46.55123" lon="0.34578">
        <ele>131.2</ele>
        <time>2022-01-16T07:46:19Z</time>
      </trkpt>
      <trkpt lat="46.55125" lon="0.34586">
        <ele>132.4</ele>
        <time>2022-01-16T07:46:24Z</time>
      </trkpt>
      <trkpt lat="46.55123" lon="0.34593">
        <ele>133.8</ele>
        <time>2022-01-16T07:46:28Z</time>
      </trkpt>
      <trkpt lat="46.55122" lon="0.34594">
        <ele>134</ele>
        <time>2022-01-16T07:46:29Z</time>
      </trkpt>
      <trkpt lat="46.5512" lon="0.34599">
        <ele>134.8</ele>
        <time>2022-01-16T07:46:32Z</time>
      </trkpt>
      <trkpt lat="46.55115" lon="0.34608">
        <ele>136</ele>
        <time>2022-01-16T07:46:37Z</time>
      </trkpt>
      <trkpt lat="46.55112" lon="0.34616">
        <ele>136.4</ele>
        <time>2022-01-16T07:46:41Z</time>
      </trkpt>
      <trkpt lat="46.55105" lon="0.34626">
        <ele>137.2</ele>
        <time>2022-01-16T07:46:47Z</time>
      </trkpt>
      <trkpt lat="46.55099" lon="0.34634">
        <ele>137.8</ele>
        <time>2022-01-16T07:46:52Z</time>
      </trkpt>
      <trkpt lat="46.55097" lon="0.34636">
        <ele>138</ele>
        <time>2022-01-16T07:46:53Z</time>
      </trkpt>
      <trkpt lat="46.55094" lon="0.34639">
        <ele>138.2</ele>
        <time>2022-01-16T07:46:55Z</time>
      </trkpt>
      <trkpt lat="46.55088" lon="0.34649">
        <ele>139.2</ele>
        <time>2022-01-16T07:47:00Z</time>
      </trkpt>
      <trkpt lat="46.55086" lon="0.34653">
        <ele>139.8</ele>
        <time>2022-01-16T07:47:02Z</time>
      </trkpt>
      <trkpt lat="46.55084" lon="0.3466">
        <ele>140.4</ele>
        <time>2022-01-16T07:47:05Z</time>
      </trkpt>
      <trkpt lat="46.55084" lon="0.34666">
        <ele>140.6</ele>
        <time>2022-01-16T07:47:08Z</time>
      </trkpt>
      <trkpt lat="46.55083" lon="0.34673">
        <ele>141.4</ele>
        <time>2022-01-16T07:47:11Z</time>
      </trkpt>
      <trkpt lat="46.55082" lon="0.34684">
        <ele>141.8</ele>
        <time>2022-01-16T07:47:15Z</time>
      </trkpt>
      <trkpt lat="46.55085" lon="0.34705">
        <ele>142.4</ele>
        <time>2022-01-16T07:47:22Z</time>
      </trkpt>
      <trkpt lat="46.5509" lon="0.34727">
        <ele>142.8</ele>
        <time>2022-01-16T07:47:28Z</time>
      </trkpt>
      <trkpt lat="46.55091" lon="0.34747">
        <ele>143</ele>
        <time>2022-01-16T07:47:33Z</time>
      </trkpt>
      <trkpt lat="46.55083" lon="0.34762">
        <ele>143.4</ele>
        <time>2022-01-16T07:47:37Z</time>
      </trkpt>
      <trkpt lat="46.5508" lon="0.34765">
        <ele>143.6</ele>
        <time>2022-01-16T07:47:38Z</time>
      </trkpt>
      <trkpt lat="46.55059" lon="0.3479">
        <ele>144.6</ele>
        <time>2022-01-16T07:47:45Z</time>
      </trkpt>
      <trkpt lat="46.55035" lon="0.34814">
        <ele>145.4</ele>
        <time>2022-01-16T07:47:52Z</time>
      </trkpt>
      <trkpt lat="46.55021" lon="0.34826">
        <ele>145.6</ele>
        <time>2022-01-16T07:47:56Z</time>
      </trkpt>
      <trkpt lat="46.55009" lon="0.34834">
        <ele>146.4</ele>
        <time>2022-01-16T07:47:59Z</time>
      </trkpt>
      <trkpt lat="46.55002" lon="0.3484">
        <ele>146.8</ele>
        <time>2022-01-16T07:48:01Z</time>
      </trkpt>
      <trkpt lat="46.54976" lon="0.34852">
        <ele>147.2</ele>
        <time>2022-01-16T07:48:07Z</time>
      </trkpt>
      <trkpt lat="46.54967" lon="0.34856">
        <ele>147.2</ele>
        <time>2022-01-16T07:48:09Z</time>
      </trkpt>
      <trkpt lat="46.5495" lon="0.34869">
        <ele>147.8</ele>
        <time>2022-01-16T07:48:13Z</time>
      </trkpt>
      <trkpt lat="46.54946" lon="0.34873">
        <ele>147.8</ele>
        <time>2022-01-16T07:48:14Z</time>
      </trkpt>
      <trkpt lat="46.54914" lon="0.34896">
        <ele>148.4</ele>
        <time>2022-01-16T07:48:21Z</time>
      </trkpt>
      <trkpt lat="46.54866" lon="0.34924">
        <ele>148.6</ele>
        <time>2022-01-16T07:48:30Z</time>
      </trkpt>
      <trkpt lat="46.54811" lon="0.34959">
        <ele>148.4</ele>
        <time>2022-01-16T07:48:40Z</time>
      </trkpt>
      <trkpt lat="46.54794" lon="0.34967">
        <ele>148.6</ele>
        <time>2022-01-16T07:48:43Z</time>
      </trkpt>
      <trkpt lat="46.54764" lon="0.34982">
        <ele>148.4</ele>
        <time>2022-01-16T07:48:48Z</time>
      </trkpt>
      <trkpt lat="46.54731" lon="0.35">
        <ele>148.4</ele>
        <time>2022-01-16T07:48:54Z</time>
      </trkpt>
      <trkpt lat="46.54698" lon="0.35018">
        <ele>148</ele>
        <time>2022-01-16T07:49:00Z</time>
      </trkpt>
      <trkpt lat="46.54682" lon="0.35022">
        <ele>148</ele>
        <time>2022-01-16T07:49:03Z</time>
      </trkpt>
      <trkpt lat="46.54673" lon="0.35025">
        <ele>148</ele>
        <time>2022-01-16T07:49:05Z</time>
      </trkpt>
      <trkpt lat="46.54667" lon="0.35033">
        <ele>147.8</ele>
        <time>2022-01-16T07:49:07Z</time>
      </trkpt>
      <trkpt lat="46.54665" lon="0.35038">
        <ele>147.6</ele>
        <time>2022-01-16T07:49:08Z</time>
      </trkpt>
      <trkpt lat="46.54663" lon="0.35043">
        <ele>147.4</ele>
        <time>2022-01-16T07:49:09Z</time>
      </trkpt>
      <trkpt lat="46.54653" lon="0.35064">
        <ele>147</ele>
        <time>2022-01-16T07:49:12Z</time>
      </trkpt>
      <trkpt lat="46.54647" lon="0.3508">
        <ele>146.6</ele>
        <time>2022-01-16T07:49:14Z</time>
      </trkpt>
      <trkpt lat="46.54644" lon="0.35095">
        <ele>146</ele>
        <time>2022-01-16T07:49:16Z</time>
      </trkpt>
      <trkpt lat="46.54643" lon="0.35102">
        <ele>145.8</ele>
        <time>2022-01-16T07:49:17Z</time>
      </trkpt>
      <trkpt lat="46.54639" lon="0.35117">
        <ele>145.2</ele>
        <time>2022-01-16T07:49:19Z</time>
      </trkpt>
      <trkpt lat="46.54632" lon="0.35139">
        <ele>144</ele>
        <time>2022-01-16T07:49:22Z</time>
      </trkpt>
      <trkpt lat="46.5463" lon="0.35144">
        <ele>143.4</ele>
        <time>2022-01-16T07:49:23Z</time>
      </trkpt>
      <trkpt lat="46.54627" lon="0.35149">
        <ele>142.8</ele>
        <time>2022-01-16T07:49:25Z</time>
      </trkpt>
      <trkpt lat="46.54622" lon="0.3515">
        <ele>142.6</ele>
        <time>2022-01-16T07:49:27Z</time>
      </trkpt>
      <trkpt lat="46.54612" lon="0.35159">
        <ele>142.8</ele>
        <time>2022-01-16T07:49:31Z</time>
      </trkpt>
      <trkpt lat="46.54604" lon="0.35165">
        <ele>142.8</ele>
        <time>2022-01-16T07:49:33Z</time>
      </trkpt>
      <trkpt lat="46.54596" lon="0.35169">
        <ele>142.8</ele>
        <time>2022-01-16T07:49:35Z</time>
      </trkpt>
      <trkpt lat="46.54592" lon="0.35171">
        <ele>143</ele>
        <time>2022-01-16T07:49:36Z</time>
      </trkpt>
      <trkpt lat="46.54581" lon="0.35177">
        <ele>143.2</ele>
        <time>2022-01-16T07:49:39Z</time>
      </trkpt>
      <trkpt lat="46.54575" lon="0.35178">
        <ele>143.2</ele>
        <time>2022-01-16T07:49:41Z</time>
      </trkpt>
      <trkpt lat="46.54574" lon="0.35177">
        <ele>143.4</ele>
        <time>2022-01-16T07:49:42Z</time>
      </trkpt>
      <trkpt lat="46.54565" lon="0.35174">
        <ele>143.6</ele>
        <time>2022-01-16T07:49:45Z</time>
      </trkpt>
      <trkpt lat="46.54558" lon="0.35175">
        <ele>143.8</ele>
        <time>2022-01-16T07:49:47Z</time>
      </trkpt>
      <trkpt lat="46.54553" lon="0.35175">
        <ele>144</ele>
        <time>2022-01-16T07:49:49Z</time>
      </trkpt>
      <trkpt lat="46.5455" lon="0.35174">
        <ele>144.2</ele>
        <time>2022-01-16T07:49:50Z</time>
      </trkpt>
      <trkpt lat="46.5453" lon="0.35177">
        <ele>145</ele>
        <time>2022-01-16T07:49:56Z</time>
      </trkpt>
      <trkpt lat="46.54512" lon="0.35184">
        <ele>145</ele>
        <time>2022-01-16T07:50:01Z</time>
      </trkpt>
      <trkpt lat="46.545" lon="0.35189">
        <ele>145.6</ele>
        <time>2022-01-16T07:50:05Z</time>
      </trkpt>
      <trkpt lat="46.54484" lon="0.35193">
        <ele>145.8</ele>
        <time>2022-01-16T07:50:10Z</time>
      </trkpt>
      <trkpt lat="46.54472" lon="0.35195">
        <ele>146</ele>
        <time>2022-01-16T07:50:14Z</time>
      </trkpt>
      <trkpt lat="46.54468" lon="0.35199">
        <ele>146</ele>
        <time>2022-01-16T07:50:16Z</time>
      </trkpt>
      <trkpt lat="46.54463" lon="0.35201">
        <ele>146</ele>
        <time>2022-01-16T07:50:18Z</time>
      </trkpt>
      <trkpt lat="46.54457" lon="0.352">
        <ele>146</ele>
        <time>2022-01-16T07:50:20Z</time>
      </trkpt>
      <trkpt lat="46.54442" lon="0.35192">
        <ele>146.4</ele>
        <time>2022-01-16T07:50:25Z</time>
      </trkpt>
      <trkpt lat="46.5442" lon="0.35175">
        <ele>146.8</ele>
        <time>2022-01-16T07:50:31Z</time>
      </trkpt>
      <trkpt lat="46.54418" lon="0.35173">
        <ele>147</ele>
        <time>2022-01-16T07:50:32Z</time>
      </trkpt>
      <trkpt lat="46.54416" lon="0.3517">
        <ele>147</ele>
        <time>2022-01-16T07:50:33Z</time>
      </trkpt>
      <trkpt lat="46.54413" lon="0.35167">
        <ele>147</ele>
        <time>2022-01-16T07:50:34Z</time>
      </trkpt>
      <trkpt lat="46.54407" lon="0.35161">
        <ele>147.2</ele>
        <time>2022-01-16T07:50:36Z</time>
      </trkpt>
      <trkpt lat="46.54403" lon="0.35155">
        <ele>147.2</ele>
        <time>2022-01-16T07:50:38Z</time>
      </trkpt>
      <trkpt lat="46.54396" lon="0.35144">
        <ele>147.2</ele>
        <time>2022-01-16T07:50:41Z</time>
      </trkpt>
      <trkpt lat="46.54392" lon="0.35142">
        <ele>147.2</ele>
        <time>2022-01-16T07:50:42Z</time>
      </trkpt>
      <trkpt lat="46.54373" lon="0.35132">
        <ele>147.4</ele>
        <time>2022-01-16T07:50:47Z</time>
      </trkpt>
      <trkpt lat="46.5437" lon="0.35129">
        <ele>147.4</ele>
        <time>2022-01-16T07:50:48Z</time>
      </trkpt>
      <trkpt lat="46.54367" lon="0.35121">
        <ele>147.4</ele>
        <time>2022-01-16T07:50:50Z</time>
      </trkpt>
      <trkpt lat="46.54364" lon="0.35109">
        <ele>146.6</ele>
        <time>2022-01-16T07:50:53Z</time>
      </trkpt>
      <trkpt lat="46.54363" lon="0.351">
        <ele>146.4</ele>
        <time>2022-01-16T07:50:55Z</time>
      </trkpt>
      <trkpt lat="46.54354" lon="0.35082">
        <ele>146.2</ele>
        <time>2022-01-16T07:51:00Z</time>
      </trkpt>
      <trkpt lat="46.54351" lon="0.3508">
        <ele>146.2</ele>
        <time>2022-01-16T07:51:01Z</time>
      </trkpt>
      <trkpt lat="46.54345" lon="0.35076">
        <ele>146</ele>
        <time>2022-01-16T07:51:03Z</time>
      </trkpt>
      <trkpt lat="46.54335" lon="0.35073">
        <ele>146</ele>
        <time>2022-01-16T07:51:06Z</time>
      </trkpt>
      <trkpt lat="46.54316" lon="0.35068">
        <ele>146</ele>
        <time>2022-01-16T07:51:11Z</time>
      </trkpt>
      <trkpt lat="46.54313" lon="0.35067">
        <ele>145.6</ele>
        <time>2022-01-16T07:51:12Z</time>
      </trkpt>
      <trkpt lat="46.54303" lon="0.35061">
        <ele>145.4</ele>
        <time>2022-01-16T07:51:15Z</time>
      </trkpt>
      <trkpt lat="46.54293" lon="0.35055">
        <ele>145.2</ele>
        <time>2022-01-16T07:51:18Z</time>
      </trkpt>
      <trkpt lat="46.5429" lon="0.35054">
        <ele>145.2</ele>
        <time>2022-01-16T07:51:19Z</time>
      </trkpt>
      <trkpt lat="46.54287" lon="0.35053">
        <ele>144.8</ele>
        <time>2022-01-16T07:51:20Z</time>
      </trkpt>
      <trkpt lat="46.54277" lon="0.35046">
        <ele>143.8</ele>
        <time>2022-01-16T07:51:23Z</time>
      </trkpt>
      <trkpt lat="46.5427" lon="0.35041">
        <ele>143.6</ele>
        <time>2022-01-16T07:51:25Z</time>
      </trkpt>
      <trkpt lat="46.54258" lon="0.35026">
        <ele>142.6</ele>
        <time>2022-01-16T07:51:30Z</time>
      </trkpt>
      <trkpt lat="46.54257" lon="0.35023">
        <ele>142.4</ele>
        <time>2022-01-16T07:51:31Z</time>
      </trkpt>
      <trkpt lat="46.54259" lon="0.35012">
        <ele>142.2</ele>
        <time>2022-01-16T07:51:34Z</time>
      </trkpt>
      <trkpt lat="46.54258" lon="0.34992">
        <ele>142.4</ele>
        <time>2022-01-16T07:51:39Z</time>
      </trkpt>
      <trkpt lat="46.54259" lon="0.34989">
        <ele>142.6</ele>
        <time>2022-01-16T07:51:41Z</time>
      </trkpt>
      <trkpt lat="46.54262" lon="0.34991">
        <ele>142.6</ele>
        <time>2022-01-16T07:51:43Z</time>
      </trkpt>
      <trkpt lat="46.54268" lon="0.34993">
        <ele>142.8</ele>
        <time>2022-01-16T07:51:47Z</time>
      </trkpt>
      <trkpt lat="46.54271" lon="0.3499">
        <ele>143</ele>
        <time>2022-01-16T07:51:49Z</time>
      </trkpt>
      <trkpt lat="46.54275" lon="0.34983">
        <ele>143.6</ele>
        <time>2022-01-16T07:51:52Z</time>
      </trkpt>
      <trkpt lat="46.54277" lon="0.3498">
        <ele>143.6</ele>
        <time>2022-01-16T07:51:53Z</time>
      </trkpt>
      <trkpt lat="46.54284" lon="0.34976">
        <ele>144</ele>
        <time>2022-01-16T07:51:57Z</time>
      </trkpt>
      <trkpt lat="46.54292" lon="0.34975">
        <ele>144.4</ele>
        <time>2022-01-16T07:52:01Z</time>
      </trkpt>
      <trkpt lat="46.54294" lon="0.34971">
        <ele>144.6</ele>
        <time>2022-01-16T07:52:02Z</time>
      </trkpt>
      <trkpt lat="46.54296" lon="0.34953">
        <ele>144.6</ele>
        <time>2022-01-16T07:52:09Z</time>
      </trkpt>
      <trkpt lat="46.5429" lon="0.34941">
        <ele>144.6</ele>
        <time>2022-01-16T07:52:13Z</time>
      </trkpt>
      <trkpt lat="46.54287" lon="0.34932">
        <ele>144.8</ele>
        <time>2022-01-16T07:52:16Z</time>
      </trkpt>
      <trkpt lat="46.54287" lon="0.34928">
        <ele>144.8</ele>
        <time>2022-01-16T07:52:17Z</time>
      </trkpt>
      <trkpt lat="46.54286" lon="0.34924">
        <ele>145</ele>
        <time>2022-01-16T07:52:18Z</time>
      </trkpt>
      <trkpt lat="46.54277" lon="0.34907">
        <ele>145.2</ele>
        <time>2022-01-16T07:52:23Z</time>
      </trkpt>
      <trkpt lat="46.54272" lon="0.34903">
        <ele>145</ele>
        <time>2022-01-16T07:52:25Z</time>
      </trkpt>
      <trkpt lat="46.54266" lon="0.34896">
        <ele>145.4</ele>
        <time>2022-01-16T07:52:28Z</time>
      </trkpt>
      <trkpt lat="46.54253" lon="0.3487">
        <ele>145.8</ele>
        <time>2022-01-16T07:52:35Z</time>
      </trkpt>
      <trkpt lat="46.54254" lon="0.34846">
        <ele>145.6</ele>
        <time>2022-01-16T07:52:40Z</time>
      </trkpt>
      <trkpt lat="46.54255" lon="0.34828">
        <ele>145.6</ele>
        <time>2022-01-16T07:52:46Z</time>
      </trkpt>
      <trkpt lat="46.54255" lon="0.34821">
        <ele>145.6</ele>
        <time>2022-01-16T07:52:49Z</time>
      </trkpt>
      <trkpt lat="46.54256" lon="0.34814">
        <ele>145.6</ele>
        <time>2022-01-16T07:52:52Z</time>
      </trkpt>
      <trkpt lat="46.54263" lon="0.34792">
        <ele>145.4</ele>
        <time>2022-01-16T07:52:58Z</time>
      </trkpt>
      <trkpt lat="46.54265" lon="0.34779">
        <ele>145.2</ele>
        <time>2022-01-16T07:53:03Z</time>
      </trkpt>
      <trkpt lat="46.54265" lon="0.34777">
        <ele>145.2</ele>
        <time>2022-01-16T07:53:04Z</time>
      </trkpt>
      <trkpt lat="46.54265" lon="0.34773">
        <ele>145.4</ele>
        <time>2022-01-16T07:53:06Z</time>
      </trkpt>
      <trkpt lat="46.54261" lon="0.34768">
        <ele>145.4</ele>
        <time>2022-01-16T07:53:09Z</time>
      </trkpt>
      <trkpt lat="46.5426" lon="0.34766">
        <ele>145.4</ele>
        <time>2022-01-16T07:53:10Z</time>
      </trkpt>
      <trkpt lat="46.54259" lon="0.34755">
        <ele>145.4</ele>
        <time>2022-01-16T07:53:14Z</time>
      </trkpt>
      <trkpt lat="46.54261" lon="0.3474">
        <ele>144.8</ele>
        <time>2022-01-16T07:53:19Z</time>
      </trkpt>
      <trkpt lat="46.5426" lon="0.34736">
        <ele>144.8</ele>
        <time>2022-01-16T07:53:20Z</time>
      </trkpt>
      <trkpt lat="46.5426" lon="0.34729">
        <ele>144.6</ele>
        <time>2022-01-16T07:53:22Z</time>
      </trkpt>
      <trkpt lat="46.54262" lon="0.34721">
        <ele>144.4</ele>
        <time>2022-01-16T07:53:24Z</time>
      </trkpt>
      <trkpt lat="46.54267" lon="0.34709">
        <ele>144.6</ele>
        <time>2022-01-16T07:53:29Z</time>
      </trkpt>
      <trkpt lat="46.54276" lon="0.34699">
        <ele>144.6</ele>
        <time>2022-01-16T07:53:34Z</time>
      </trkpt>
      <trkpt lat="46.54286" lon="0.34681">
        <ele>144.4</ele>
        <time>2022-01-16T07:53:39Z</time>
      </trkpt>
      <trkpt lat="46.54296" lon="0.34663">
        <ele>144</ele>
        <time>2022-01-16T07:53:45Z</time>
      </trkpt>
      <trkpt lat="46.54303" lon="0.34649">
        <ele>143.8</ele>
        <time>2022-01-16T07:53:50Z</time>
      </trkpt>
      <trkpt lat="46.54313" lon="0.34639">
        <ele>144</ele>
        <time>2022-01-16T07:53:56Z</time>
      </trkpt>
      <trkpt lat="46.54324" lon="0.34629">
        <ele>144.4</ele>
        <time>2022-01-16T07:54:01Z</time>
      </trkpt>
      <trkpt lat="46.54334" lon="0.34613">
        <ele>144.8</ele>
        <time>2022-01-16T07:54:06Z</time>
      </trkpt>
      <trkpt lat="46.54345" lon="0.34597">
        <ele>145</ele>
        <time>2022-01-16T07:54:12Z</time>
      </trkpt>
      <trkpt lat="46.54347" lon="0.34595">
        <ele>145.2</ele>
        <time>2022-01-16T07:54:13Z</time>
      </trkpt>
      <trkpt lat="46.54354" lon="0.34596">
        <ele>145.4</ele>
        <time>2022-01-16T07:54:16Z</time>
      </trkpt>
      <trkpt lat="46.54357" lon="0.34595">
        <ele>145.4</ele>
        <time>2022-01-16T07:54:17Z</time>
      </trkpt>
      <trkpt lat="46.54365" lon="0.34589">
        <ele>145.8</ele>
        <time>2022-01-16T07:54:20Z</time>
      </trkpt>
      <trkpt lat="46.54369" lon="0.34587">
        <ele>145.8</ele>
        <time>2022-01-16T07:54:21Z</time>
      </trkpt>
      <trkpt lat="46.54376" lon="0.34574">
        <ele>145.8</ele>
        <time>2022-01-16T07:54:24Z</time>
      </trkpt>
      <trkpt lat="46.5438" lon="0.34554">
        <ele>145.6</ele>
        <time>2022-01-16T07:54:27Z</time>
      </trkpt>
      <trkpt lat="46.54382" lon="0.34547">
        <ele>145.6</ele>
        <time>2022-01-16T07:54:28Z</time>
      </trkpt>
      <trkpt lat="46.54384" lon="0.34542">
        <ele>145.6</ele>
        <time>2022-01-16T07:54:29Z</time>
      </trkpt>
      <trkpt lat="46.54393" lon="0.34532">
        <ele>145.6</ele>
        <time>2022-01-16T07:54:31Z</time>
      </trkpt>
      <trkpt lat="46.54397" lon="0.34527">
        <ele>145.6</ele>
        <time>2022-01-16T07:54:32Z</time>
      </trkpt>
      <trkpt lat="46.54401" lon="0.34521">
        <ele>145.4</ele>
        <time>2022-01-16T07:54:33Z</time>
      </trkpt>
      <trkpt lat="46.54408" lon="0.34506">
        <ele>145.2</ele>
        <time>2022-01-16T07:54:35Z</time>
      </trkpt>
      <trkpt lat="46.54409" lon="0.3449">
        <ele>145.2</ele>
        <time>2022-01-16T07:54:37Z</time>
      </trkpt>
      <trkpt lat="46.54408" lon="0.34482">
        <ele>145.2</ele>
        <time>2022-01-16T07:54:38Z</time>
      </trkpt>
      <trkpt lat="46.54406" lon="0.34474">
        <ele>145.2</ele>
        <time>2022-01-16T07:54:39Z</time>
      </trkpt>
      <trkpt lat="46.54396" lon="0.3444">
        <ele>145</ele>
        <time>2022-01-16T07:54:43Z</time>
      </trkpt>
      <trkpt lat="46.54372" lon="0.34375">
        <ele>144.8</ele>
        <time>2022-01-16T07:54:50Z</time>
      </trkpt>
      <trkpt lat="46.54356" lon="0.3434">
        <ele>144.8</ele>
        <time>2022-01-16T07:54:54Z</time>
      </trkpt>
      <trkpt lat="46.54341" lon="0.34309">
        <ele>144.8</ele>
        <time>2022-01-16T07:54:58Z</time>
      </trkpt>
      <trkpt lat="46.54336" lon="0.34303">
        <ele>145</ele>
        <time>2022-01-16T07:54:59Z</time>
      </trkpt>
      <trkpt lat="46.54325" lon="0.34296">
        <ele>145</ele>
        <time>2022-01-16T07:55:01Z</time>
      </trkpt>
      <trkpt lat="46.54305" lon="0.34295">
        <ele>145</ele>
        <time>2022-01-16T07:55:05Z</time>
      </trkpt>
      <trkpt lat="46.54301" lon="0.34295">
        <ele>145.2</ele>
        <time>2022-01-16T07:55:06Z</time>
      </trkpt>
      <trkpt lat="46.54278" lon="0.34289">
        <ele>145.6</ele>
        <time>2022-01-16T07:55:11Z</time>
      </trkpt>
      <trkpt lat="46.54258" lon="0.34282">
        <ele>145.8</ele>
        <time>2022-01-16T07:55:15Z</time>
      </trkpt>
      <trkpt lat="46.54248" lon="0.3428">
        <ele>146</ele>
        <time>2022-01-16T07:55:17Z</time>
      </trkpt>
      <trkpt lat="46.54221" lon="0.34271">
        <ele>146.2</ele>
        <time>2022-01-16T07:55:22Z</time>
      </trkpt>
      <trkpt lat="46.54216" lon="0.3427">
        <ele>146.2</ele>
        <time>2022-01-16T07:55:23Z</time>
      </trkpt>
      <trkpt lat="46.54206" lon="0.34269">
        <ele>146.2</ele>
        <time>2022-01-16T07:55:25Z</time>
      </trkpt>
      <trkpt lat="46.54189" lon="0.34269">
        <ele>146</ele>
        <time>2022-01-16T07:55:28Z</time>
      </trkpt>
      <trkpt lat="46.54177" lon="0.34271">
        <ele>145.6</ele>
        <time>2022-01-16T07:55:30Z</time>
      </trkpt>
      <trkpt lat="46.5416" lon="0.34276">
        <ele>144.6</ele>
        <time>2022-01-16T07:55:33Z</time>
      </trkpt>
      <trkpt lat="46.54155" lon="0.34278">
        <ele>144.4</ele>
        <time>2022-01-16T07:55:34Z</time>
      </trkpt>
      <trkpt lat="46.54147" lon="0.34286">
        <ele>143</ele>
        <time>2022-01-16T07:55:36Z</time>
      </trkpt>
      <trkpt lat="46.54139" lon="0.34294">
        <ele>142</ele>
        <time>2022-01-16T07:55:38Z</time>
      </trkpt>
      <trkpt lat="46.54135" lon="0.34298">
        <ele>141.8</ele>
        <time>2022-01-16T07:55:39Z</time>
      </trkpt>
      <trkpt lat="46.54131" lon="0.34301">
        <ele>141.8</ele>
        <time>2022-01-16T07:55:40Z</time>
      </trkpt>
      <trkpt lat="46.54118" lon="0.34313">
        <ele>140.2</ele>
        <time>2022-01-16T07:55:43Z</time>
      </trkpt>
      <trkpt lat="46.5411" lon="0.34321">
        <ele>139</ele>
        <time>2022-01-16T07:55:45Z</time>
      </trkpt>
      <trkpt lat="46.54105" lon="0.34325">
        <ele>137.4</ele>
        <time>2022-01-16T07:55:46Z</time>
      </trkpt>
      <trkpt lat="46.541" lon="0.3433">
        <ele>136</ele>
        <time>2022-01-16T07:55:47Z</time>
      </trkpt>
      <trkpt lat="46.54089" lon="0.34339">
        <ele>134.2</ele>
        <time>2022-01-16T07:55:49Z</time>
      </trkpt>
      <trkpt lat="46.54082" lon="0.34344">
        <ele>133</ele>
        <time>2022-01-16T07:55:50Z</time>
      </trkpt>
      <trkpt lat="46.54076" lon="0.34349">
        <ele>131.2</ele>
        <time>2022-01-16T07:55:51Z</time>
      </trkpt>
      <trkpt lat="46.54071" lon="0.34354">
        <ele>130.2</ele>
        <time>2022-01-16T07:55:52Z</time>
      </trkpt>
      <trkpt lat="46.54066" lon="0.3436">
        <ele>129.4</ele>
        <time>2022-01-16T07:55:53Z</time>
      </trkpt>
      <trkpt lat="46.54063" lon="0.34367">
        <ele>128.8</ele>
        <time>2022-01-16T07:55:54Z</time>
      </trkpt>
      <trkpt lat="46.54055" lon="0.34377">
        <ele>127.8</ele>
        <time>2022-01-16T07:55:56Z</time>
      </trkpt>
      <trkpt lat="46.54048" lon="0.34383">
        <ele>127.2</ele>
        <time>2022-01-16T07:55:58Z</time>
      </trkpt>
      <trkpt lat="46.5404" lon="0.34383">
        <ele>126.6</ele>
        <time>2022-01-16T07:56:00Z</time>
      </trkpt>
      <trkpt lat="46.54032" lon="0.34381">
        <ele>126.4</ele>
        <time>2022-01-16T07:56:02Z</time>
      </trkpt>
      <trkpt lat="46.54026" lon="0.3438">
        <ele>126</ele>
        <time>2022-01-16T07:56:06Z</time>
      </trkpt>
      <trkpt lat="46.54026" lon="0.34378">
        <ele>125.8</ele>
        <time>2022-01-16T07:56:07Z</time>
      </trkpt>
      <trkpt lat="46.54026" lon="0.34371">
        <ele>125.2</ele>
        <time>2022-01-16T07:56:09Z</time>
      </trkpt>
      <trkpt lat="46.54027" lon="0.34366">
        <ele>124.8</ele>
        <time>2022-01-16T07:56:10Z</time>
      </trkpt>
      <trkpt lat="46.54027" lon="0.34362">
        <ele>123.8</ele>
        <time>2022-01-16T07:56:11Z</time>
      </trkpt>
      <trkpt lat="46.54028" lon="0.34359">
        <ele>122.6</ele>
        <time>2022-01-16T07:56:12Z</time>
      </trkpt>
      <trkpt lat="46.54027" lon="0.34355">
        <ele>121</ele>
        <time>2022-01-16T07:56:14Z</time>
      </trkpt>
      <trkpt lat="46.54025" lon="0.3435">
        <ele>119.8</ele>
        <time>2022-01-16T07:56:16Z</time>
      </trkpt>
      <trkpt lat="46.54023" lon="0.34347">
        <ele>117.8</ele>
        <time>2022-01-16T07:56:17Z</time>
      </trkpt>
      <trkpt lat="46.54021" lon="0.34345">
        <ele>116.6</ele>
        <time>2022-01-16T07:56:18Z</time>
      </trkpt>
      <trkpt lat="46.54019" lon="0.34343">
        <ele>115.8</ele>
        <time>2022-01-16T07:56:19Z</time>
      </trkpt>
      <trkpt lat="46.54017" lon="0.34341">
        <ele>114</ele>
        <time>2022-01-16T07:56:20Z</time>
      </trkpt>
      <trkpt lat="46.54016" lon="0.34339">
        <ele>113</ele>
        <time>2022-01-16T07:56:21Z</time>
      </trkpt>
      <trkpt lat="46.54015" lon="0.34336">
        <ele>111</ele>
        <time>2022-01-16T07:56:22Z</time>
      </trkpt>
      <trkpt lat="46.54013" lon="0.34334">
        <ele>109.2</ele>
        <time>2022-01-16T07:56:23Z</time>
      </trkpt>
      <trkpt lat="46.54011" lon="0.34333">
        <ele>108.4</ele>
        <time>2022-01-16T07:56:24Z</time>
      </trkpt>
      <trkpt lat="46.54009" lon="0.34332">
        <ele>106.6</ele>
        <time>2022-01-16T07:56:25Z</time>
      </trkpt>
      <trkpt lat="46.54006" lon="0.34331">
        <ele>104.8</ele>
        <time>2022-01-16T07:56:26Z</time>
      </trkpt>
      <trkpt lat="46.54004" lon="0.34328">
        <ele>104</ele>
        <time>2022-01-16T07:56:27Z</time>
      </trkpt>
      <trkpt lat="46.54002" lon="0.34324">
        <ele>102.8</ele>
        <time>2022-01-16T07:56:28Z</time>
      </trkpt>
      <trkpt lat="46.54" lon="0.34321">
        <ele>102</ele>
        <time>2022-01-16T07:56:29Z</time>
      </trkpt>
      <trkpt lat="46.53998" lon="0.34321">
        <ele>101.2</ele>
        <time>2022-01-16T07:56:30Z</time>
      </trkpt>
      <trkpt lat="46.53996" lon="0.34322">
        <ele>100.8</ele>
        <time>2022-01-16T07:56:31Z</time>
      </trkpt>
      <trkpt lat="46.53992" lon="0.3433">
        <ele>100.4</ele>
        <time>2022-01-16T07:56:34Z</time>
      </trkpt>
      <trkpt lat="46.53988" lon="0.34332">
        <ele>100.6</ele>
        <time>2022-01-16T07:56:35Z</time>
      </trkpt>
      <trkpt lat="46.53963" lon="0.34354">
        <ele>102.2</ele>
        <time>2022-01-16T07:56:42Z</time>
      </trkpt>
      <trkpt lat="46.53949" lon="0.34366">
        <ele>103.4</ele>
        <time>2022-01-16T07:56:46Z</time>
      </trkpt>
      <trkpt lat="46.53941" lon="0.34374">
        <ele>103.6</ele>
        <time>2022-01-16T07:56:48Z</time>
      </trkpt>
      <trkpt lat="46.53924" lon="0.34393">
        <ele>104.6</ele>
        <time>2022-01-16T07:56:53Z</time>
      </trkpt>
      <trkpt lat="46.5392" lon="0.34402">
        <ele>105.2</ele>
        <time>2022-01-16T07:56:55Z</time>
      </trkpt>
      <trkpt lat="46.53917" lon="0.3441">
        <ele>105.8</ele>
        <time>2022-01-16T07:56:57Z</time>
      </trkpt>
      <trkpt lat="46.53916" lon="0.34422">
        <ele>107.4</ele>
        <time>2022-01-16T07:57:00Z</time>
      </trkpt>
      <trkpt lat="46.5392" lon="0.3444">
        <ele>108.6</ele>
        <time>2022-01-16T07:57:05Z</time>
      </trkpt>
      <trkpt lat="46.53921" lon="0.34443">
        <ele>109.2</ele>
        <time>2022-01-16T07:57:06Z</time>
      </trkpt>
      <trkpt lat="46.53923" lon="0.3445">
        <ele>110</ele>
        <time>2022-01-16T07:57:08Z</time>
      </trkpt>
      <trkpt lat="46.53925" lon="0.34462">
        <ele>111.4</ele>
        <time>2022-01-16T07:57:12Z</time>
      </trkpt>
      <trkpt lat="46.53926" lon="0.34469">
        <ele>111.8</ele>
        <time>2022-01-16T07:57:13Z</time>
      </trkpt>
      <trkpt lat="46.53924" lon="0.34473">
        <ele>112</ele>
        <time>2022-01-16T07:57:15Z</time>
      </trkpt>
      <trkpt lat="46.53922" lon="0.34477">
        <ele>112.4</ele>
        <time>2022-01-16T07:57:16Z</time>
      </trkpt>
      <trkpt lat="46.5392" lon="0.34479">
        <ele>112.6</ele>
        <time>2022-01-16T07:57:17Z</time>
      </trkpt>
      <trkpt lat="46.53909" lon="0.34484">
        <ele>113</ele>
        <time>2022-01-16T07:57:20Z</time>
      </trkpt>
      <trkpt lat="46.53885" lon="0.34492">
        <ele>113</ele>
        <time>2022-01-16T07:57:26Z</time>
      </trkpt>
      <trkpt lat="46.53868" lon="0.34493">
        <ele>113.6</ele>
        <time>2022-01-16T07:57:30Z</time>
      </trkpt>
      <trkpt lat="46.53856" lon="0.34494">
        <ele>114</ele>
        <time>2022-01-16T07:57:33Z</time>
      </trkpt>
      <trkpt lat="46.53834" lon="0.34487">
        <ele>114.8</ele>
        <time>2022-01-16T07:57:38Z</time>
      </trkpt>
      <trkpt lat="46.53799" lon="0.34476">
        <ele>114.4</ele>
        <time>2022-01-16T07:57:45Z</time>
      </trkpt>
      <trkpt lat="46.5376" lon="0.34463">
        <ele>114.2</ele>
        <time>2022-01-16T07:57:53Z</time>
      </trkpt>
      <trkpt lat="46.53734" lon="0.34453">
        <ele>113.8</ele>
        <time>2022-01-16T07:57:58Z</time>
      </trkpt>
      <trkpt lat="46.53723" lon="0.34448">
        <ele>113.6</ele>
        <time>2022-01-16T07:58:00Z</time>
      </trkpt>
      <trkpt lat="46.53683" lon="0.34426">
        <ele>113.2</ele>
        <time>2022-01-16T07:58:07Z</time>
      </trkpt>
      <trkpt lat="46.53677" lon="0.34423">
        <ele>113.2</ele>
        <time>2022-01-16T07:58:08Z</time>
      </trkpt>
      <trkpt lat="46.53647" lon="0.34411">
        <ele>112.6</ele>
        <time>2022-01-16T07:58:13Z</time>
      </trkpt>
      <trkpt lat="46.53622" lon="0.34404">
        <ele>112</ele>
        <time>2022-01-16T07:58:17Z</time>
      </trkpt>
      <trkpt lat="46.53609" lon="0.34404">
        <ele>111.8</ele>
        <time>2022-01-16T07:58:19Z</time>
      </trkpt>
      <trkpt lat="46.53597" lon="0.34405">
        <ele>111.6</ele>
        <time>2022-01-16T07:58:21Z</time>
      </trkpt>
      <trkpt lat="46.53591" lon="0.34405">
        <ele>111.6</ele>
        <time>2022-01-16T07:58:22Z</time>
      </trkpt>
      <trkpt lat="46.5358" lon="0.34403">
        <ele>111.6</ele>
        <time>2022-01-16T07:58:24Z</time>
      </trkpt>
      <trkpt lat="46.53574" lon="0.344">
        <ele>111.6</ele>
        <time>2022-01-16T07:58:25Z</time>
      </trkpt>
      <trkpt lat="46.53564" lon="0.34393">
        <ele>111.6</ele>
        <time>2022-01-16T07:58:27Z</time>
      </trkpt>
      <trkpt lat="46.53551" lon="0.3438">
        <ele>111.6</ele>
        <time>2022-01-16T07:58:30Z</time>
      </trkpt>
      <trkpt lat="46.53528" lon="0.34364">
        <ele>111.8</ele>
        <time>2022-01-16T07:58:36Z</time>
      </trkpt>
      <trkpt lat="46.53502" lon="0.34356">
        <ele>112.6</ele>
        <time>2022-01-16T07:58:42Z</time>
      </trkpt>
      <trkpt lat="46.53498" lon="0.34355">
        <ele>112.8</ele>
        <time>2022-01-16T07:58:43Z</time>
      </trkpt>
      <trkpt lat="46.53479" lon="0.34348">
        <ele>113.8</ele>
        <time>2022-01-16T07:58:47Z</time>
      </trkpt>
      <trkpt lat="46.53465" lon="0.34343">
        <ele>114</ele>
        <time>2022-01-16T07:58:50Z</time>
      </trkpt>
      <trkpt lat="46.53446" lon="0.34338">
        <ele>114.4</ele>
        <time>2022-01-16T07:58:54Z</time>
      </trkpt>
      <trkpt lat="46.53436" lon="0.34339">
        <ele>114.6</ele>
        <time>2022-01-16T07:58:56Z</time>
      </trkpt>
      <trkpt lat="46.53436" lon="0.34339">
        <ele>114.8</ele>
        <time>2022-01-16T07:58:58Z</time>
      </trkpt>
      <trkpt lat="46.53417" lon="0.3434">
        <ele>115.2</ele>
        <time>2022-01-16T07:59:00Z</time>
      </trkpt>
      <trkpt lat="46.53412" lon="0.34339">
        <ele>115.2</ele>
        <time>2022-01-16T07:59:01Z</time>
      </trkpt>
      <trkpt lat="46.53381" lon="0.34328">
        <ele>114.4</ele>
        <time>2022-01-16T07:59:07Z</time>
      </trkpt>
      <trkpt lat="46.53377" lon="0.34325">
        <ele>114.2</ele>
        <time>2022-01-16T07:59:08Z</time>
      </trkpt>
      <trkpt lat="46.53368" lon="0.34317">
        <ele>114</ele>
        <time>2022-01-16T07:59:11Z</time>
      </trkpt>
      <trkpt lat="46.53358" lon="0.34308">
        <ele>113.8</ele>
        <time>2022-01-16T07:59:15Z</time>
      </trkpt>
      <trkpt lat="46.53352" lon="0.34301">
        <ele>113.8</ele>
        <time>2022-01-16T07:59:17Z</time>
      </trkpt>
      <trkpt lat="46.53326" lon="0.34275">
        <ele>113.8</ele>
        <time>2022-01-16T07:59:24Z</time>
      </trkpt>
      <trkpt lat="46.53322" lon="0.34272">
        <ele>114</ele>
        <time>2022-01-16T07:59:25Z</time>
      </trkpt>
      <trkpt lat="46.53302" lon="0.34258">
        <ele>114.6</ele>
        <time>2022-01-16T07:59:30Z</time>
      </trkpt>
      <trkpt lat="46.53283" lon="0.34247">
        <ele>114.6</ele>
        <time>2022-01-16T07:59:36Z</time>
      </trkpt>
      <trkpt lat="46.53268" lon="0.34239">
        <ele>114.6</ele>
        <time>2022-01-16T07:59:41Z</time>
      </trkpt>
      <trkpt lat="46.53252" lon="0.34227">
        <ele>114.6</ele>
        <time>2022-01-16T07:59:47Z</time>
      </trkpt>
      <trkpt lat="46.53234" lon="0.34211">
        <ele>114.8</ele>
        <time>2022-01-16T07:59:52Z</time>
      </trkpt>
      <trkpt lat="46.53198" lon="0.34177">
        <ele>115.4</ele>
        <time>2022-01-16T08:00:00Z</time>
      </trkpt>
      <trkpt lat="46.53172" lon="0.34146">
        <ele>115</ele>
        <time>2022-01-16T08:00:06Z</time>
      </trkpt>
      <trkpt lat="46.53141" lon="0.34111">
        <ele>114.4</ele>
        <time>2022-01-16T08:00:12Z</time>
      </trkpt>
      <trkpt lat="46.53104" lon="0.34088">
        <ele>113.8</ele>
        <time>2022-01-16T08:00:19Z</time>
      </trkpt>
      <trkpt lat="46.53098" lon="0.34085">
        <ele>113.8</ele>
        <time>2022-01-16T08:00:20Z</time>
      </trkpt>
      <trkpt lat="46.53058" lon="0.3406">
        <ele>112.6</ele>
        <time>2022-01-16T08:00:27Z</time>
      </trkpt>
      <trkpt lat="46.53045" lon="0.34053">
        <ele>111.6</ele>
        <time>2022-01-16T08:00:29Z</time>
      </trkpt>
      <trkpt lat="46.53031" lon="0.34051">
        <ele>111</ele>
        <time>2022-01-16T08:00:31Z</time>
      </trkpt>
      <trkpt lat="46.53025" lon="0.34051">
        <ele>110.6</ele>
        <time>2022-01-16T08:00:32Z</time>
      </trkpt>
      <trkpt lat="46.53006" lon="0.34052">
        <ele>109.4</ele>
        <time>2022-01-16T08:00:35Z</time>
      </trkpt>
      <trkpt lat="46.52994" lon="0.34052">
        <ele>109</ele>
        <time>2022-01-16T08:00:37Z</time>
      </trkpt>
      <trkpt lat="46.52984" lon="0.34052">
        <ele>108.8</ele>
        <time>2022-01-16T08:00:39Z</time>
      </trkpt>
      <trkpt lat="46.52968" lon="0.34048">
        <ele>108.2</ele>
        <time>2022-01-16T08:00:42Z</time>
      </trkpt>
      <trkpt lat="46.52958" lon="0.34042">
        <ele>107.4</ele>
        <time>2022-01-16T08:00:44Z</time>
      </trkpt>
      <trkpt lat="46.52953" lon="0.34037">
        <ele>107.2</ele>
        <time>2022-01-16T08:00:45Z</time>
      </trkpt>
      <trkpt lat="46.52947" lon="0.34014">
        <ele>106.4</ele>
        <time>2022-01-16T08:00:48Z</time>
      </trkpt>
      <trkpt lat="46.52947" lon="0.33996">
        <ele>106</ele>
        <time>2022-01-16T08:00:50Z</time>
      </trkpt>
      <trkpt lat="46.52947" lon="0.33968">
        <ele>105.2</ele>
        <time>2022-01-16T08:00:53Z</time>
      </trkpt>
      <trkpt lat="46.52945" lon="0.33959">
        <ele>105</ele>
        <time>2022-01-16T08:00:54Z</time>
      </trkpt>
      <trkpt lat="46.52942" lon="0.33941">
        <ele>104.4</ele>
        <time>2022-01-16T08:00:56Z</time>
      </trkpt>
      <trkpt lat="46.52936" lon="0.33924">
        <ele>104</ele>
        <time>2022-01-16T08:00:58Z</time>
      </trkpt>
      <trkpt lat="46.52933" lon="0.33916">
        <ele>103.6</ele>
        <time>2022-01-16T08:00:59Z</time>
      </trkpt>
      <trkpt lat="46.52928" lon="0.3391">
        <ele>103.4</ele>
        <time>2022-01-16T08:01:00Z</time>
      </trkpt>
      <trkpt lat="46.52923" lon="0.33906">
        <ele>103.2</ele>
        <time>2022-01-16T08:01:01Z</time>
      </trkpt>
      <trkpt lat="46.52917" lon="0.33903">
        <ele>103</ele>
        <time>2022-01-16T08:01:02Z</time>
      </trkpt>
      <trkpt lat="46.52905" lon="0.33902">
        <ele>103</ele>
        <time>2022-01-16T08:01:04Z</time>
      </trkpt>
      <trkpt lat="46.52869" lon="0.33903">
        <ele>103</ele>
        <time>2022-01-16T08:01:10Z</time>
      </trkpt>
      <trkpt lat="46.52847" lon="0.33906">
        <ele>102.6</ele>
        <time>2022-01-16T08:01:14Z</time>
      </trkpt>
      <trkpt lat="46.52836" lon="0.33908">
        <ele>102.4</ele>
        <time>2022-01-16T08:01:16Z</time>
      </trkpt>
      <trkpt lat="46.5281" lon="0.33914">
        <ele>102.4</ele>
        <time>2022-01-16T08:01:21Z</time>
      </trkpt>
      <trkpt lat="46.52792" lon="0.33918">
        <ele>102.6</ele>
        <time>2022-01-16T08:01:25Z</time>
      </trkpt>
      <trkpt lat="46.52789" lon="0.33922">
        <ele>102.8</ele>
        <time>2022-01-16T08:01:26Z</time>
      </trkpt>
      <trkpt lat="46.52787" lon="0.33927">
        <ele>102.8</ele>
        <time>2022-01-16T08:01:27Z</time>
      </trkpt>
      <trkpt lat="46.52782" lon="0.33948">
        <ele>102.8</ele>
        <time>2022-01-16T08:01:30Z</time>
      </trkpt>
      <trkpt lat="46.52776" lon="0.33989">
        <ele>103.8</ele>
        <time>2022-01-16T08:01:36Z</time>
      </trkpt>
      <trkpt lat="46.52772" lon="0.34007">
        <ele>104.6</ele>
        <time>2022-01-16T08:01:39Z</time>
      </trkpt>
      <trkpt lat="46.5277" lon="0.34013">
        <ele>104.8</ele>
        <time>2022-01-16T08:01:40Z</time>
      </trkpt>
      <trkpt lat="46.52768" lon="0.34017">
        <ele>105.6</ele>
        <time>2022-01-16T08:01:41Z</time>
      </trkpt>
      <trkpt lat="46.52765" lon="0.3402">
        <ele>106.2</ele>
        <time>2022-01-16T08:01:42Z</time>
      </trkpt>
      <trkpt lat="46.5276" lon="0.34023">
        <ele>107.4</ele>
        <time>2022-01-16T08:01:44Z</time>
      </trkpt>
      <trkpt lat="46.52757" lon="0.34024">
        <ele>107.8</ele>
        <time>2022-01-16T08:01:45Z</time>
      </trkpt>
      <trkpt lat="46.52752" lon="0.34025">
        <ele>108.6</ele>
        <time>2022-01-16T08:01:47Z</time>
      </trkpt>
      <trkpt lat="46.52741" lon="0.3403">
        <ele>109.8</ele>
        <time>2022-01-16T08:01:51Z</time>
      </trkpt>
      <trkpt lat="46.52739" lon="0.3403">
        <ele>110.2</ele>
        <time>2022-01-16T08:01:52Z</time>
      </trkpt>
      <trkpt lat="46.5273" lon="0.34032">
        <ele>110.8</ele>
        <time>2022-01-16T08:01:55Z</time>
      </trkpt>
      <trkpt lat="46.52718" lon="0.34035">
        <ele>111.8</ele>
        <time>2022-01-16T08:01:59Z</time>
      </trkpt>
      <trkpt lat="46.527" lon="0.34034">
        <ele>112.2</ele>
        <time>2022-01-16T08:02:05Z</time>
      </trkpt>
      <trkpt lat="46.52678" lon="0.34032">
        <ele>112.6</ele>
        <time>2022-01-16T08:02:12Z</time>
      </trkpt>
      <trkpt lat="46.5267" lon="0.3403">
        <ele>113</ele>
        <time>2022-01-16T08:02:14Z</time>
      </trkpt>
      <trkpt lat="46.52661" lon="0.34028">
        <ele>113.4</ele>
        <time>2022-01-16T08:02:17Z</time>
      </trkpt>
      <trkpt lat="46.52639" lon="0.34027">
        <ele>113.6</ele>
        <time>2022-01-16T08:02:24Z</time>
      </trkpt>
      <trkpt lat="46.52625" lon="0.34026">
        <ele>114</ele>
        <time>2022-01-16T08:02:28Z</time>
      </trkpt>
      <trkpt lat="46.52618" lon="0.34027">
        <ele>114.2</ele>
        <time>2022-01-16T08:02:30Z</time>
      </trkpt>
      <trkpt lat="46.5261" lon="0.34028">
        <ele>115.2</ele>
        <time>2022-01-16T08:02:33Z</time>
      </trkpt>
      <trkpt lat="46.52598" lon="0.34029">
        <ele>115.8</ele>
        <time>2022-01-16T08:02:37Z</time>
      </trkpt>
      <trkpt lat="46.5259" lon="0.34029">
        <ele>116.4</ele>
        <time>2022-01-16T08:02:40Z</time>
      </trkpt>
      <trkpt lat="46.52582" lon="0.34029">
        <ele>117</ele>
        <time>2022-01-16T08:02:43Z</time>
      </trkpt>
      <trkpt lat="46.52571" lon="0.34032">
        <ele>117.8</ele>
        <time>2022-01-16T08:02:49Z</time>
      </trkpt>
      <trkpt lat="46.52563" lon="0.34035">
        <ele>118.8</ele>
        <time>2022-01-16T08:02:54Z</time>
      </trkpt>
      <trkpt lat="46.52561" lon="0.34035">
        <ele>119</ele>
        <time>2022-01-16T08:02:55Z</time>
      </trkpt>
      <trkpt lat="46.52549" lon="0.34038">
        <ele>119.8</ele>
        <time>2022-01-16T08:03:00Z</time>
      </trkpt>
      <trkpt lat="46.52546" lon="0.34039">
        <ele>120</ele>
        <time>2022-01-16T08:03:01Z</time>
      </trkpt>
      <trkpt lat="46.52534" lon="0.34045">
        <ele>121</ele>
        <time>2022-01-16T08:03:07Z</time>
      </trkpt>
      <trkpt lat="46.52532" lon="0.34046">
        <ele>121.2</ele>
        <time>2022-01-16T08:03:08Z</time>
      </trkpt>
      <trkpt lat="46.52525" lon="0.34051">
        <ele>122.2</ele>
        <time>2022-01-16T08:03:11Z</time>
      </trkpt>
      <trkpt lat="46.52517" lon="0.34058">
        <ele>123</ele>
        <time>2022-01-16T08:03:15Z</time>
      </trkpt>
      <trkpt lat="46.52513" lon="0.34064">
        <ele>123.6</ele>
        <time>2022-01-16T08:03:18Z</time>
      </trkpt>
      <trkpt lat="46.52508" lon="0.34074">
        <ele>124</ele>
        <time>2022-01-16T08:03:22Z</time>
      </trkpt>
      <trkpt lat="46.52506" lon="0.34079">
        <ele>124.6</ele>
        <time>2022-01-16T08:03:24Z</time>
      </trkpt>
      <trkpt lat="46.525" lon="0.34091">
        <ele>125.6</ele>
        <time>2022-01-16T08:03:29Z</time>
      </trkpt>
      <trkpt lat="46.52499" lon="0.34093">
        <ele>125.6</ele>
        <time>2022-01-16T08:03:30Z</time>
      </trkpt>
      <trkpt lat="46.52495" lon="0.34102">
        <ele>126.8</ele>
        <time>2022-01-16T08:03:34Z</time>
      </trkpt>
      <trkpt lat="46.52491" lon="0.3411">
        <ele>127.4</ele>
        <time>2022-01-16T08:03:38Z</time>
      </trkpt>
      <trkpt lat="46.52489" lon="0.34115">
        <ele>128</ele>
        <time>2022-01-16T08:03:40Z</time>
      </trkpt>
      <trkpt lat="46.52484" lon="0.34124">
        <ele>129</ele>
        <time>2022-01-16T08:03:45Z</time>
      </trkpt>
      <trkpt lat="46.52482" lon="0.34128">
        <ele>129.6</ele>
        <time>2022-01-16T08:03:47Z</time>
      </trkpt>
      <trkpt lat="46.5248" lon="0.34133">
        <ele>130.2</ele>
        <time>2022-01-16T08:03:50Z</time>
      </trkpt>
      <trkpt lat="46.52475" lon="0.34143">
        <ele>131.2</ele>
        <time>2022-01-16T08:03:55Z</time>
      </trkpt>
      <trkpt lat="46.52474" lon="0.34147">
        <ele>131.4</ele>
        <time>2022-01-16T08:03:57Z</time>
      </trkpt>
      <trkpt lat="46.52471" lon="0.34152">
        <ele>132.4</ele>
        <time>2022-01-16T08:04:00Z</time>
      </trkpt>
      <trkpt lat="46.52467" lon="0.34157">
        <ele>133.2</ele>
        <time>2022-01-16T08:04:03Z</time>
      </trkpt>
      <trkpt lat="46.52465" lon="0.3416">
        <ele>133.4</ele>
        <time>2022-01-16T08:04:05Z</time>
      </trkpt>
      <trkpt lat="46.52456" lon="0.34172">
        <ele>134.4</ele>
        <time>2022-01-16T08:04:11Z</time>
      </trkpt>
      <trkpt lat="46.52455" lon="0.34175">
        <ele>134.4</ele>
        <time>2022-01-16T08:04:12Z</time>
      </trkpt>
      <trkpt lat="46.52448" lon="0.34194">
        <ele>135.4</ele>
        <time>2022-01-16T08:04:18Z</time>
      </trkpt>
      <trkpt lat="46.52448" lon="0.34197">
        <ele>135.6</ele>
        <time>2022-01-16T08:04:19Z</time>
      </trkpt>
      <trkpt lat="46.52442" lon="0.34219">
        <ele>136.6</ele>
        <time>2022-01-16T08:04:26Z</time>
      </trkpt>
      <trkpt lat="46.52435" lon="0.34243">
        <ele>137</ele>
        <time>2022-01-16T08:04:34Z</time>
      </trkpt>
      <trkpt lat="46.5243" lon="0.34256">
        <ele>137</ele>
        <time>2022-01-16T08:04:39Z</time>
      </trkpt>
      <trkpt lat="46.52424" lon="0.34258">
        <ele>137</ele>
        <time>2022-01-16T08:04:41Z</time>
      </trkpt>
      <trkpt lat="46.5241" lon="0.34264">
        <ele>136.4</ele>
        <time>2022-01-16T08:04:45Z</time>
      </trkpt>
      <trkpt lat="46.52404" lon="0.34267">
        <ele>135.2</ele>
        <time>2022-01-16T08:04:47Z</time>
      </trkpt>
      <trkpt lat="46.52399" lon="0.3427">
        <ele>133.8</ele>
        <time>2022-01-16T08:04:49Z</time>
      </trkpt>
      <trkpt lat="46.52398" lon="0.34271">
        <ele>132.8</ele>
        <time>2022-01-16T08:04:50Z</time>
      </trkpt>
      <trkpt lat="46.52396" lon="0.34272">
        <ele>132.2</ele>
        <time>2022-01-16T08:04:51Z</time>
      </trkpt>
      <trkpt lat="46.52389" lon="0.34275">
        <ele>131.2</ele>
        <time>2022-01-16T08:04:54Z</time>
      </trkpt>
      <trkpt lat="46.52385" lon="0.34277">
        <ele>130.8</ele>
        <time>2022-01-16T08:04:55Z</time>
      </trkpt>
      <trkpt lat="46.52378" lon="0.34283">
        <ele>129.8</ele>
        <time>2022-01-16T08:04:57Z</time>
      </trkpt>
      <trkpt lat="46.52374" lon="0.34286">
        <ele>129.4</ele>
        <time>2022-01-16T08:04:58Z</time>
      </trkpt>
      <trkpt lat="46.5237" lon="0.34288">
        <ele>129.2</ele>
        <time>2022-01-16T08:04:59Z</time>
      </trkpt>
      <trkpt lat="46.52358" lon="0.34292">
        <ele>128.6</ele>
        <time>2022-01-16T08:05:02Z</time>
      </trkpt>
      <trkpt lat="46.52344" lon="0.34294">
        <ele>127.4</ele>
        <time>2022-01-16T08:05:05Z</time>
      </trkpt>
      <trkpt lat="46.52328" lon="0.34292">
        <ele>126</ele>
        <time>2022-01-16T08:05:08Z</time>
      </trkpt>
      <trkpt lat="46.52325" lon="0.34292">
        <ele>125.6</ele>
        <time>2022-01-16T08:05:09Z</time>
      </trkpt>
      <trkpt lat="46.52322" lon="0.34296">
        <ele>125</ele>
        <time>2022-01-16T08:05:11Z</time>
      </trkpt>
      <trkpt lat="46.52317" lon="0.34302">
        <ele>124.2</ele>
        <time>2022-01-16T08:05:13Z</time>
      </trkpt>
      <trkpt lat="46.52308" lon="0.34311">
        <ele>122.8</ele>
        <time>2022-01-16T08:05:15Z</time>
      </trkpt>
      <trkpt lat="46.52302" lon="0.34315">
        <ele>121.8</ele>
        <time>2022-01-16T08:05:16Z</time>
      </trkpt>
      <trkpt lat="46.5229" lon="0.34324">
        <ele>120.6</ele>
        <time>2022-01-16T08:05:18Z</time>
      </trkpt>
      <trkpt lat="46.52273" lon="0.34335">
        <ele>119.8</ele>
        <time>2022-01-16T08:05:21Z</time>
      </trkpt>
      <trkpt lat="46.52267" lon="0.34336">
        <ele>119.6</ele>
        <time>2022-01-16T08:05:22Z</time>
      </trkpt>
      <trkpt lat="46.52261" lon="0.34337">
        <ele>119</ele>
        <time>2022-01-16T08:05:23Z</time>
      </trkpt>
      <trkpt lat="46.52245" lon="0.34339">
        <ele>118.2</ele>
        <time>2022-01-16T08:05:26Z</time>
      </trkpt>
      <trkpt lat="46.5224" lon="0.34338">
        <ele>117.8</ele>
        <time>2022-01-16T08:05:27Z</time>
      </trkpt>
      <trkpt lat="46.52226" lon="0.34334">
        <ele>117.2</ele>
        <time>2022-01-16T08:05:30Z</time>
      </trkpt>
      <trkpt lat="46.52218" lon="0.34332">
        <ele>116.8</ele>
        <time>2022-01-16T08:05:32Z</time>
      </trkpt>
      <trkpt lat="46.52215" lon="0.34332">
        <ele>116.8</ele>
        <time>2022-01-16T08:05:33Z</time>
      </trkpt>
      <trkpt lat="46.52195" lon="0.34327">
        <ele>117</ele>
        <time>2022-01-16T08:05:38Z</time>
      </trkpt>
      <trkpt lat="46.52188" lon="0.34325">
        <ele>117</ele>
        <time>2022-01-16T08:05:40Z</time>
      </trkpt>
      <trkpt lat="46.52173" lon="0.34317">
        <ele>116.4</ele>
        <time>2022-01-16T08:05:43Z</time>
      </trkpt>
      <trkpt lat="46.52164" lon="0.34312">
        <ele>116</ele>
        <time>2022-01-16T08:05:45Z</time>
      </trkpt>
      <trkpt lat="46.52148" lon="0.34305">
        <ele>115.6</ele>
        <time>2022-01-16T08:05:48Z</time>
      </trkpt>
      <trkpt lat="46.52145" lon="0.34304">
        <ele>115.6</ele>
        <time>2022-01-16T08:05:49Z</time>
      </trkpt>
      <trkpt lat="46.52142" lon="0.34305">
        <ele>115.8</ele>
        <time>2022-01-16T08:05:50Z</time>
      </trkpt>
      <trkpt lat="46.52137" lon="0.34308">
        <ele>117.2</ele>
        <time>2022-01-16T08:05:53Z</time>
      </trkpt>
      <trkpt lat="46.52128" lon="0.34307">
        <ele>118.4</ele>
        <time>2022-01-16T08:05:56Z</time>
      </trkpt>
      <trkpt lat="46.52122" lon="0.34306">
        <ele>118.8</ele>
        <time>2022-01-16T08:05:58Z</time>
      </trkpt>
      <trkpt lat="46.52098" lon="0.34309">
        <ele>119</ele>
        <time>2022-01-16T08:06:04Z</time>
      </trkpt>
      <trkpt lat="46.52064" lon="0.34317">
        <ele>117.8</ele>
        <time>2022-01-16T08:06:10Z</time>
      </trkpt>
      <trkpt lat="46.52058" lon="0.34319">
        <ele>117.2</ele>
        <time>2022-01-16T08:06:11Z</time>
      </trkpt>
      <trkpt lat="46.52038" lon="0.34325">
        <ele>115.6</ele>
        <time>2022-01-16T08:06:14Z</time>
      </trkpt>
      <trkpt lat="46.52032" lon="0.34327">
        <ele>115.2</ele>
        <time>2022-01-16T08:06:15Z</time>
      </trkpt>
      <trkpt lat="46.52021" lon="0.34331">
        <ele>114.4</ele>
        <time>2022-01-16T08:06:17Z</time>
      </trkpt>
      <trkpt lat="46.52017" lon="0.34332">
        <ele>114</ele>
        <time>2022-01-16T08:06:18Z</time>
      </trkpt>
      <trkpt lat="46.52013" lon="0.34328">
        <ele>113.6</ele>
        <time>2022-01-16T08:06:20Z</time>
      </trkpt>
      <trkpt lat="46.52011" lon="0.34325">
        <ele>113.4</ele>
        <time>2022-01-16T08:06:21Z</time>
      </trkpt>
      <trkpt lat="46.52005" lon="0.34312">
        <ele>112.2</ele>
        <time>2022-01-16T08:06:24Z</time>
      </trkpt>
      <trkpt lat="46.52" lon="0.34301">
        <ele>111.2</ele>
        <time>2022-01-16T08:06:25Z</time>
      </trkpt>
      <trkpt lat="46.52" lon="0.34301">
        <ele>111.2</ele>
        <time>2022-01-16T08:06:26Z</time>
      </trkpt>
      <trkpt lat="46.51996" lon="0.34289">
        <ele>109.4</ele>
        <time>2022-01-16T08:06:28Z</time>
      </trkpt>
      <trkpt lat="46.51995" lon="0.34277">
        <ele>107.6</ele>
        <time>2022-01-16T08:06:30Z</time>
      </trkpt>
      <trkpt lat="46.51995" lon="0.34267">
        <ele>106</ele>
        <time>2022-01-16T08:06:32Z</time>
      </trkpt>
      <trkpt lat="46.51996" lon="0.34259">
        <ele>104.4</ele>
        <time>2022-01-16T08:06:34Z</time>
      </trkpt>
      <trkpt lat="46.51996" lon="0.34254">
        <ele>103.6</ele>
        <time>2022-01-16T08:06:36Z</time>
      </trkpt>
      <trkpt lat="46.51992" lon="0.34251">
        <ele>103.2</ele>
        <time>2022-01-16T08:06:38Z</time>
      </trkpt>
      <trkpt lat="46.51973" lon="0.34255">
        <ele>103.2</ele>
        <time>2022-01-16T08:06:44Z</time>
      </trkpt>
      <trkpt lat="46.51947" lon="0.34254">
        <ele>103.4</ele>
        <time>2022-01-16T08:06:50Z</time>
      </trkpt>
      <trkpt lat="46.51943" lon="0.34254">
        <ele>103.4</ele>
        <time>2022-01-16T08:06:51Z</time>
      </trkpt>
      <trkpt lat="46.5194" lon="0.34254">
        <ele>103.4</ele>
        <time>2022-01-16T08:06:52Z</time>
      </trkpt>
      <trkpt lat="46.51925" lon="0.34258">
        <ele>103.6</ele>
        <time>2022-01-16T08:06:56Z</time>
      </trkpt>
      <trkpt lat="46.51895" lon="0.3427">
        <ele>104.2</ele>
        <time>2022-01-16T08:07:03Z</time>
      </trkpt>
      <trkpt lat="46.51882" lon="0.34277">
        <ele>104.2</ele>
        <time>2022-01-16T08:07:06Z</time>
      </trkpt>
      <trkpt lat="46.51867" lon="0.34288">
        <ele>104.6</ele>
        <time>2022-01-16T08:07:10Z</time>
      </trkpt>
      <trkpt lat="46.51842" lon="0.34304">
        <ele>105.4</ele>
        <time>2022-01-16T08:07:16Z</time>
      </trkpt>
      <trkpt lat="46.51834" lon="0.34309">
        <ele>106</ele>
        <time>2022-01-16T08:07:18Z</time>
      </trkpt>
      <trkpt lat="46.51822" lon="0.34315">
        <ele>106.6</ele>
        <time>2022-01-16T08:07:21Z</time>
      </trkpt>
      <trkpt lat="46.5181" lon="0.34319">
        <ele>106.8</ele>
        <time>2022-01-16T08:07:24Z</time>
      </trkpt>
      <trkpt lat="46.51785" lon="0.34317">
        <ele>107.8</ele>
        <time>2022-01-16T08:07:31Z</time>
      </trkpt>
      <trkpt lat="46.51769" lon="0.34312">
        <ele>109</ele>
        <time>2022-01-16T08:07:36Z</time>
      </trkpt>
      <trkpt lat="46.51767" lon="0.34311">
        <ele>109.2</ele>
        <time>2022-01-16T08:07:37Z</time>
      </trkpt>
      <trkpt lat="46.51755" lon="0.34308">
        <ele>110</ele>
        <time>2022-01-16T08:07:41Z</time>
      </trkpt>
      <trkpt lat="46.51749" lon="0.34306">
        <ele>110.8</ele>
        <time>2022-01-16T08:07:43Z</time>
      </trkpt>
      <trkpt lat="46.51743" lon="0.34304">
        <ele>111.4</ele>
        <time>2022-01-16T08:07:45Z</time>
      </trkpt>
      <trkpt lat="46.51731" lon="0.34301">
        <ele>112.4</ele>
        <time>2022-01-16T08:07:49Z</time>
      </trkpt>
      <trkpt lat="46.51728" lon="0.343">
        <ele>112.6</ele>
        <time>2022-01-16T08:07:50Z</time>
      </trkpt>
      <trkpt lat="46.51705" lon="0.34293">
        <ele>112.8</ele>
        <time>2022-01-16T08:07:57Z</time>
      </trkpt>
      <trkpt lat="46.51685" lon="0.34279">
        <ele>112</ele>
        <time>2022-01-16T08:08:02Z</time>
      </trkpt>
      <trkpt lat="46.5168" lon="0.34276">
        <ele>111.4</ele>
        <time>2022-01-16T08:08:04Z</time>
      </trkpt>
      <trkpt lat="46.51677" lon="0.34278">
        <ele>111.2</ele>
        <time>2022-01-16T08:08:06Z</time>
      </trkpt>
      <trkpt lat="46.51676" lon="0.34283">
        <ele>111.2</ele>
        <time>2022-01-16T08:08:08Z</time>
      </trkpt>
      <trkpt lat="46.51677" lon="0.34288">
        <ele>111.4</ele>
        <time>2022-01-16T08:08:10Z</time>
      </trkpt>
      <trkpt lat="46.51675" lon="0.34305">
        <ele>112.4</ele>
        <time>2022-01-16T08:08:15Z</time>
      </trkpt>
      <trkpt lat="46.51674" lon="0.34311">
        <ele>113.2</ele>
        <time>2022-01-16T08:08:17Z</time>
      </trkpt>
      <trkpt lat="46.51673" lon="0.34314">
        <ele>113.6</ele>
        <time>2022-01-16T08:08:18Z</time>
      </trkpt>
      <trkpt lat="46.51667" lon="0.34325">
        <ele>114.8</ele>
        <time>2022-01-16T08:08:22Z</time>
      </trkpt>
      <trkpt lat="46.51665" lon="0.34331">
        <ele>115.4</ele>
        <time>2022-01-16T08:08:24Z</time>
      </trkpt>
      <trkpt lat="46.51661" lon="0.34336">
        <ele>116</ele>
        <time>2022-01-16T08:08:26Z</time>
      </trkpt>
      <trkpt lat="46.51652" lon="0.34344">
        <ele>117.4</ele>
        <time>2022-01-16T08:08:31Z</time>
      </trkpt>
      <trkpt lat="46.51644" lon="0.34351">
        <ele>118.6</ele>
        <time>2022-01-16T08:08:36Z</time>
      </trkpt>
      <trkpt lat="46.51638" lon="0.34358">
        <ele>119.8</ele>
        <time>2022-01-16T08:08:40Z</time>
      </trkpt>
      <trkpt lat="46.51637" lon="0.3436">
        <ele>120</ele>
        <time>2022-01-16T08:08:41Z</time>
      </trkpt>
      <trkpt lat="46.51632" lon="0.34365">
        <ele>121</ele>
        <time>2022-01-16T08:08:44Z</time>
      </trkpt>
      <trkpt lat="46.51625" lon="0.34372">
        <ele>121.6</ele>
        <time>2022-01-16T08:08:49Z</time>
      </trkpt>
      <trkpt lat="46.51623" lon="0.34375">
        <ele>122</ele>
        <time>2022-01-16T08:08:51Z</time>
      </trkpt>
      <trkpt lat="46.51618" lon="0.34383">
        <ele>123</ele>
        <time>2022-01-16T08:08:57Z</time>
      </trkpt>
      <trkpt lat="46.51618" lon="0.34384">
        <ele>123.2</ele>
        <time>2022-01-16T08:08:58Z</time>
      </trkpt>
      <trkpt lat="46.51617" lon="0.34387">
        <ele>123.4</ele>
        <time>2022-01-16T08:09:00Z</time>
      </trkpt>
      <trkpt lat="46.51615" lon="0.3439">
        <ele>123.8</ele>
        <time>2022-01-16T08:09:02Z</time>
      </trkpt>
      <trkpt lat="46.51612" lon="0.34394">
        <ele>124</ele>
        <time>2022-01-16T08:09:04Z</time>
      </trkpt>
      <trkpt lat="46.51611" lon="0.34396">
        <ele>124.2</ele>
        <time>2022-01-16T08:09:05Z</time>
      </trkpt>
      <trkpt lat="46.51597" lon="0.34413">
        <ele>124.8</ele>
        <time>2022-01-16T08:09:12Z</time>
      </trkpt>
      <trkpt lat="46.51589" lon="0.34422">
        <ele>125</ele>
        <time>2022-01-16T08:09:15Z</time>
      </trkpt>
      <trkpt lat="46.51582" lon="0.3443">
        <ele>125.4</ele>
        <time>2022-01-16T08:09:18Z</time>
      </trkpt>
      <trkpt lat="46.51567" lon="0.34449">
        <ele>126</ele>
        <time>2022-01-16T08:09:25Z</time>
      </trkpt>
      <trkpt lat="46.51564" lon="0.34454">
        <ele>126.2</ele>
        <time>2022-01-16T08:09:27Z</time>
      </trkpt>
      <trkpt lat="46.51553" lon="0.3447">
        <ele>126.8</ele>
        <time>2022-01-16T08:09:33Z</time>
      </trkpt>
      <trkpt lat="46.51546" lon="0.34478">
        <ele>127.2</ele>
        <time>2022-01-16T08:09:36Z</time>
      </trkpt>
      <trkpt lat="46.51536" lon="0.3449">
        <ele>127.6</ele>
        <time>2022-01-16T08:09:40Z</time>
      </trkpt>
      <trkpt lat="46.5152" lon="0.34511">
        <ele>127.8</ele>
        <time>2022-01-16T08:09:46Z</time>
      </trkpt>
      <trkpt lat="46.51514" lon="0.34524">
        <ele>128.2</ele>
        <time>2022-01-16T08:09:50Z</time>
      </trkpt>
      <trkpt lat="46.51512" lon="0.34528">
        <ele>128.4</ele>
        <time>2022-01-16T08:09:51Z</time>
      </trkpt>
      <trkpt lat="46.51502" lon="0.34557">
        <ele>127.8</ele>
        <time>2022-01-16T08:09:57Z</time>
      </trkpt>
      <trkpt lat="46.51497" lon="0.34573">
        <ele>127</ele>
        <time>2022-01-16T08:10:00Z</time>
      </trkpt>
      <trkpt lat="46.51494" lon="0.34581">
        <ele>127</ele>
        <time>2022-01-16T08:10:02Z</time>
      </trkpt>
      <trkpt lat="46.51491" lon="0.34595">
        <ele>128.2</ele>
        <time>2022-01-16T08:10:05Z</time>
      </trkpt>
      <trkpt lat="46.51487" lon="0.34612">
        <ele>129</ele>
        <time>2022-01-16T08:10:08Z</time>
      </trkpt>
      <trkpt lat="46.51482" lon="0.34623">
        <ele>129</ele>
        <time>2022-01-16T08:10:10Z</time>
      </trkpt>
      <trkpt lat="46.51473" lon="0.34647">
        <ele>129.6</ele>
        <time>2022-01-16T08:10:15Z</time>
      </trkpt>
      <trkpt lat="46.51461" lon="0.34681">
        <ele>130.6</ele>
        <time>2022-01-16T08:10:22Z</time>
      </trkpt>
      <trkpt lat="46.5146" lon="0.34686">
        <ele>130.8</ele>
        <time>2022-01-16T08:10:23Z</time>
      </trkpt>
      <trkpt lat="46.51444" lon="0.3472">
        <ele>131.4</ele>
        <time>2022-01-16T08:10:29Z</time>
      </trkpt>
      <trkpt lat="46.51435" lon="0.34746">
        <ele>132</ele>
        <time>2022-01-16T08:10:34Z</time>
      </trkpt>
      <trkpt lat="46.51432" lon="0.3476">
        <ele>132.6</ele>
        <time>2022-01-16T08:10:37Z</time>
      </trkpt>
      <trkpt lat="46.51431" lon="0.34765">
        <ele>133</ele>
        <time>2022-01-16T08:10:38Z</time>
      </trkpt>
      <trkpt lat="46.51425" lon="0.34784">
        <ele>134.4</ele>
        <time>2022-01-16T08:10:43Z</time>
      </trkpt>
      <trkpt lat="46.51417" lon="0.34809">
        <ele>135</ele>
        <time>2022-01-16T08:10:50Z</time>
      </trkpt>
      <trkpt lat="46.5141" lon="0.34832">
        <ele>135.2</ele>
        <time>2022-01-16T08:10:57Z</time>
      </trkpt>
      <trkpt lat="46.51407" lon="0.34838">
        <ele>135.4</ele>
        <time>2022-01-16T08:10:59Z</time>
      </trkpt>
      <trkpt lat="46.514" lon="0.34848">
        <ele>135.8</ele>
        <time>2022-01-16T08:11:03Z</time>
      </trkpt>
      <trkpt lat="46.51392" lon="0.34858">
        <ele>136.4</ele>
        <time>2022-01-16T08:11:06Z</time>
      </trkpt>
      <trkpt lat="46.51381" lon="0.34871">
        <ele>136.8</ele>
        <time>2022-01-16T08:11:10Z</time>
      </trkpt>
      <trkpt lat="46.51368" lon="0.34882">
        <ele>137</ele>
        <time>2022-01-16T08:11:15Z</time>
      </trkpt>
      <trkpt lat="46.51367" lon="0.34883">
        <ele>137.6</ele>
        <time>2022-01-16T08:11:16Z</time>
      </trkpt>
      <trkpt lat="46.51362" lon="0.34886">
        <ele>138.6</ele>
        <time>2022-01-16T08:11:19Z</time>
      </trkpt>
      <trkpt lat="46.51359" lon="0.34887">
        <ele>139.2</ele>
        <time>2022-01-16T08:11:21Z</time>
      </trkpt>
      <trkpt lat="46.51355" lon="0.34889">
        <ele>140</ele>
        <time>2022-01-16T08:11:23Z</time>
      </trkpt>
      <trkpt lat="46.51346" lon="0.34895">
        <ele>141</ele>
        <time>2022-01-16T08:11:27Z</time>
      </trkpt>
      <trkpt lat="46.51344" lon="0.34896">
        <ele>141.2</ele>
        <time>2022-01-16T08:11:28Z</time>
      </trkpt>
      <trkpt lat="46.51341" lon="0.34896">
        <ele>141.4</ele>
        <time>2022-01-16T08:11:29Z</time>
      </trkpt>
      <trkpt lat="46.51334" lon="0.34895">
        <ele>142.2</ele>
        <time>2022-01-16T08:11:33Z</time>
      </trkpt>
      <trkpt lat="46.51324" lon="0.34895">
        <ele>143.6</ele>
        <time>2022-01-16T08:11:37Z</time>
      </trkpt>
      <trkpt lat="46.51317" lon="0.34893">
        <ele>144.2</ele>
        <time>2022-01-16T08:11:40Z</time>
      </trkpt>
      <trkpt lat="46.51314" lon="0.34893">
        <ele>144.6</ele>
        <time>2022-01-16T08:11:42Z</time>
      </trkpt>
      <trkpt lat="46.51311" lon="0.34894">
        <ele>144.6</ele>
        <time>2022-01-16T08:11:44Z</time>
      </trkpt>
      <trkpt lat="46.51309" lon="0.34895">
        <ele>144.6</ele>
        <time>2022-01-16T08:11:45Z</time>
      </trkpt>
      <trkpt lat="46.51306" lon="0.34896">
        <ele>144.8</ele>
        <time>2022-01-16T08:11:47Z</time>
      </trkpt>
      <trkpt lat="46.51302" lon="0.34891">
        <ele>145.4</ele>
        <time>2022-01-16T08:11:51Z</time>
      </trkpt>
      <trkpt lat="46.51301" lon="0.34889">
        <ele>145.6</ele>
        <time>2022-01-16T08:11:52Z</time>
      </trkpt>
      <trkpt lat="46.51301" lon="0.34887">
        <ele>146</ele>
        <time>2022-01-16T08:11:53Z</time>
      </trkpt>
      <trkpt lat="46.51303" lon="0.34884">
        <ele>146.4</ele>
        <time>2022-01-16T08:11:55Z</time>
      </trkpt>
      <trkpt lat="46.51303" lon="0.34881">
        <ele>146.6</ele>
        <time>2022-01-16T08:11:57Z</time>
      </trkpt>
      <trkpt lat="46.51302" lon="0.34876">
        <ele>147</ele>
        <time>2022-01-16T08:11:59Z</time>
      </trkpt>
      <trkpt lat="46.51301" lon="0.34872">
        <ele>147.4</ele>
        <time>2022-01-16T08:12:01Z</time>
      </trkpt>
      <trkpt lat="46.51299" lon="0.34867">
        <ele>148</ele>
        <time>2022-01-16T08:12:04Z</time>
      </trkpt>
      <trkpt lat="46.51298" lon="0.34865">
        <ele>148.2</ele>
        <time>2022-01-16T08:12:05Z</time>
      </trkpt>
      <trkpt lat="46.51298" lon="0.3486">
        <ele>148.6</ele>
        <time>2022-01-16T08:12:07Z</time>
      </trkpt>
      <trkpt lat="46.51298" lon="0.34845">
        <ele>149</ele>
        <time>2022-01-16T08:12:13Z</time>
      </trkpt>
      <trkpt lat="46.51297" lon="0.34842">
        <ele>149.2</ele>
        <time>2022-01-16T08:12:15Z</time>
      </trkpt>
      <trkpt lat="46.51295" lon="0.34835">
        <ele>149.8</ele>
        <time>2022-01-16T08:12:18Z</time>
      </trkpt>
      <trkpt lat="46.51295" lon="0.34825">
        <ele>150.2</ele>
        <time>2022-01-16T08:12:22Z</time>
      </trkpt>
      <trkpt lat="46.51297" lon="0.34819">
        <ele>150.4</ele>
        <time>2022-01-16T08:12:24Z</time>
      </trkpt>
      <trkpt lat="46.51298" lon="0.3481">
        <ele>151</ele>
        <time>2022-01-16T08:12:27Z</time>
      </trkpt>
      <trkpt lat="46.51297" lon="0.34803">
        <ele>151.2</ele>
        <time>2022-01-16T08:12:29Z</time>
      </trkpt>
      <trkpt lat="46.51292" lon="0.34789">
        <ele>151.4</ele>
        <time>2022-01-16T08:12:33Z</time>
      </trkpt>
      <trkpt lat="46.51287" lon="0.34782">
        <ele>151.6</ele>
        <time>2022-01-16T08:12:35Z</time>
      </trkpt>
      <trkpt lat="46.51269" lon="0.34775">
        <ele>151.6</ele>
        <time>2022-01-16T08:12:41Z</time>
      </trkpt>
      <trkpt lat="46.51244" lon="0.34768">
        <ele>152.2</ele>
        <time>2022-01-16T08:12:49Z</time>
      </trkpt>
      <trkpt lat="46.51222" lon="0.34771">
        <ele>152.4</ele>
        <time>2022-01-16T08:12:56Z</time>
      </trkpt>
      <trkpt lat="46.51205" lon="0.34794">
        <ele>153.2</ele>
        <time>2022-01-16T08:13:03Z</time>
      </trkpt>
      <trkpt lat="46.512" lon="0.34823">
        <ele>152.8</ele>
        <time>2022-01-16T08:13:08Z</time>
      </trkpt>
      <trkpt lat="46.51195" lon="0.34851">
        <ele>152.6</ele>
        <time>2022-01-16T08:13:12Z</time>
      </trkpt>
      <trkpt lat="46.51192" lon="0.34857">
        <ele>152.8</ele>
        <time>2022-01-16T08:13:13Z</time>
      </trkpt>
      <trkpt lat="46.51188" lon="0.34861">
        <ele>152.8</ele>
        <time>2022-01-16T08:13:14Z</time>
      </trkpt>
      <trkpt lat="46.51176" lon="0.34869">
        <ele>152.8</ele>
        <time>2022-01-16T08:13:17Z</time>
      </trkpt>
      <trkpt lat="46.51162" lon="0.34875">
        <ele>152.4</ele>
        <time>2022-01-16T08:13:20Z</time>
      </trkpt>
      <trkpt lat="46.51154" lon="0.34878">
        <ele>152</ele>
        <time>2022-01-16T08:13:22Z</time>
      </trkpt>
      <trkpt lat="46.51148" lon="0.34885">
        <ele>151.8</ele>
        <time>2022-01-16T08:13:24Z</time>
      </trkpt>
      <trkpt lat="46.51146" lon="0.34891">
        <ele>151.6</ele>
        <time>2022-01-16T08:13:25Z</time>
      </trkpt>
      <trkpt lat="46.51145" lon="0.34896">
        <ele>151.4</ele>
        <time>2022-01-16T08:13:26Z</time>
      </trkpt>
      <trkpt lat="46.51144" lon="0.34918">
        <ele>150.4</ele>
        <time>2022-01-16T08:13:29Z</time>
      </trkpt>
      <trkpt lat="46.51144" lon="0.34925">
        <ele>150.2</ele>
        <time>2022-01-16T08:13:30Z</time>
      </trkpt>
      <trkpt lat="46.51144" lon="0.34947">
        <ele>148.8</ele>
        <time>2022-01-16T08:13:33Z</time>
      </trkpt>
      <trkpt lat="46.51144" lon="0.34955">
        <ele>148.2</ele>
        <time>2022-01-16T08:13:34Z</time>
      </trkpt>
      <trkpt lat="46.51144" lon="0.3497">
        <ele>147.4</ele>
        <time>2022-01-16T08:13:36Z</time>
      </trkpt>
      <trkpt lat="46.51143" lon="0.34977">
        <ele>146.6</ele>
        <time>2022-01-16T08:13:37Z</time>
      </trkpt>
      <trkpt lat="46.51142" lon="0.34983">
        <ele>145.8</ele>
        <time>2022-01-16T08:13:38Z</time>
      </trkpt>
      <trkpt lat="46.51138" lon="0.34994">
        <ele>145.2</ele>
        <time>2022-01-16T08:13:40Z</time>
      </trkpt>
      <trkpt lat="46.51135" lon="0.35003">
        <ele>144.6</ele>
        <time>2022-01-16T08:13:42Z</time>
      </trkpt>
      <trkpt lat="46.51132" lon="0.35018">
        <ele>144.6</ele>
        <time>2022-01-16T08:13:45Z</time>
      </trkpt>
      <trkpt lat="46.51129" lon="0.35034">
        <ele>145.4</ele>
        <time>2022-01-16T08:13:50Z</time>
      </trkpt>
      <trkpt lat="46.51127" lon="0.35039">
        <ele>146</ele>
        <time>2022-01-16T08:13:52Z</time>
      </trkpt>
      <trkpt lat="46.51123" lon="0.35047">
        <ele>147</ele>
        <time>2022-01-16T08:13:55Z</time>
      </trkpt>
      <trkpt lat="46.51118" lon="0.35055">
        <ele>148.2</ele>
        <time>2022-01-16T08:13:58Z</time>
      </trkpt>
      <trkpt lat="46.51117" lon="0.35057">
        <ele>148.4</ele>
        <time>2022-01-16T08:13:59Z</time>
      </trkpt>
      <trkpt lat="46.51115" lon="0.35058">
        <ele>148.6</ele>
        <time>2022-01-16T08:14:01Z</time>
      </trkpt>
      <trkpt lat="46.5111" lon="0.35059">
        <ele>148.8</ele>
        <time>2022-01-16T08:14:03Z</time>
      </trkpt>
      <trkpt lat="46.511" lon="0.35054">
        <ele>148.6</ele>
        <time>2022-01-16T08:14:07Z</time>
      </trkpt>
      <trkpt lat="46.51085" lon="0.35049">
        <ele>147.8</ele>
        <time>2022-01-16T08:14:12Z</time>
      </trkpt>
      <trkpt lat="46.51068" lon="0.35046">
        <ele>147.4</ele>
        <time>2022-01-16T08:14:18Z</time>
      </trkpt>
      <trkpt lat="46.51062" lon="0.35048">
        <ele>147.6</ele>
        <time>2022-01-16T08:14:21Z</time>
      </trkpt>
      <trkpt lat="46.51059" lon="0.35052">
        <ele>147.8</ele>
        <time>2022-01-16T08:14:23Z</time>
      </trkpt>
      <trkpt lat="46.51056" lon="0.35053">
        <ele>148.2</ele>
        <time>2022-01-16T08:14:25Z</time>
      </trkpt>
      <trkpt lat="46.51051" lon="0.35053">
        <ele>148.6</ele>
        <time>2022-01-16T08:14:27Z</time>
      </trkpt>
      <trkpt lat="46.51047" lon="0.35053">
        <ele>149.4</ele>
        <time>2022-01-16T08:14:29Z</time>
      </trkpt>
      <trkpt lat="46.51045" lon="0.35058">
        <ele>150</ele>
        <time>2022-01-16T08:14:31Z</time>
      </trkpt>
      <trkpt lat="46.51044" lon="0.35062">
        <ele>150.4</ele>
        <time>2022-01-16T08:14:33Z</time>
      </trkpt>
      <trkpt lat="46.51042" lon="0.35063">
        <ele>150.6</ele>
        <time>2022-01-16T08:14:34Z</time>
      </trkpt>
      <trkpt lat="46.51039" lon="0.35062">
        <ele>150.8</ele>
        <time>2022-01-16T08:14:35Z</time>
      </trkpt>
      <trkpt lat="46.51034" lon="0.35063">
        <ele>151</ele>
        <time>2022-01-16T08:14:37Z</time>
      </trkpt>
      <trkpt lat="46.51032" lon="0.35067">
        <ele>151.4</ele>
        <time>2022-01-16T08:14:39Z</time>
      </trkpt>
      <trkpt lat="46.51025" lon="0.35071">
        <ele>151.6</ele>
        <time>2022-01-16T08:14:43Z</time>
      </trkpt>
      <trkpt lat="46.51022" lon="0.35072">
        <ele>151.8</ele>
        <time>2022-01-16T08:14:44Z</time>
      </trkpt>
      <trkpt lat="46.51006" lon="0.35077">
        <ele>151.8</ele>
        <time>2022-01-16T08:14:49Z</time>
      </trkpt>
      <trkpt lat="46.5099" lon="0.35072">
        <ele>151.4</ele>
        <time>2022-01-16T08:14:54Z</time>
      </trkpt>
      <trkpt lat="46.50985" lon="0.35062">
        <ele>150.6</ele>
        <time>2022-01-16T08:14:56Z</time>
      </trkpt>
      <trkpt lat="46.50983" lon="0.35059">
        <ele>150</ele>
        <time>2022-01-16T08:14:57Z</time>
      </trkpt>
      <trkpt lat="46.50979" lon="0.35058">
        <ele>149.8</ele>
        <time>2022-01-16T08:14:58Z</time>
      </trkpt>
      <trkpt lat="46.50969" lon="0.35058">
        <ele>149.6</ele>
        <time>2022-01-16T08:15:00Z</time>
      </trkpt>
      <trkpt lat="46.50959" lon="0.35058">
        <ele>149.4</ele>
        <time>2022-01-16T08:15:02Z</time>
      </trkpt>
      <trkpt lat="46.50945" lon="0.35065">
        <ele>149.2</ele>
        <time>2022-01-16T08:15:05Z</time>
      </trkpt>
      <trkpt lat="46.50939" lon="0.35066">
        <ele>149</ele>
        <time>2022-01-16T08:15:06Z</time>
      </trkpt>
      <trkpt lat="46.50921" lon="0.35071">
        <ele>149.4</ele>
        <time>2022-01-16T08:15:09Z</time>
      </trkpt>
      <trkpt lat="46.5091" lon="0.35076">
        <ele>149.6</ele>
        <time>2022-01-16T08:15:11Z</time>
      </trkpt>
      <trkpt lat="46.50883" lon="0.35089">
        <ele>150.2</ele>
        <time>2022-01-16T08:15:16Z</time>
      </trkpt>
      <trkpt lat="46.50879" lon="0.35093">
        <ele>150.2</ele>
        <time>2022-01-16T08:15:17Z</time>
      </trkpt>
      <trkpt lat="46.50875" lon="0.35097">
        <ele>150.2</ele>
        <time>2022-01-16T08:15:18Z</time>
      </trkpt>
      <trkpt lat="46.50865" lon="0.35112">
        <ele>150.4</ele>
        <time>2022-01-16T08:15:21Z</time>
      </trkpt>
      <trkpt lat="46.50863" lon="0.35117">
        <ele>150.4</ele>
        <time>2022-01-16T08:15:22Z</time>
      </trkpt>
      <trkpt lat="46.50861" lon="0.35122">
        <ele>150.6</ele>
        <time>2022-01-16T08:15:23Z</time>
      </trkpt>
      <trkpt lat="46.50855" lon="0.3513">
        <ele>150.6</ele>
        <time>2022-01-16T08:15:25Z</time>
      </trkpt>
      <trkpt lat="46.50851" lon="0.35133">
        <ele>150.8</ele>
        <time>2022-01-16T08:15:26Z</time>
      </trkpt>
      <trkpt lat="46.50836" lon="0.35151">
        <ele>151.4</ele>
        <time>2022-01-16T08:15:31Z</time>
      </trkpt>
      <trkpt lat="46.50833" lon="0.35154">
        <ele>151.6</ele>
        <time>2022-01-16T08:15:32Z</time>
      </trkpt>
      <trkpt lat="46.50829" lon="0.35158">
        <ele>152.4</ele>
        <time>2022-01-16T08:15:34Z</time>
      </trkpt>
      <trkpt lat="46.50828" lon="0.3516">
        <ele>152.6</ele>
        <time>2022-01-16T08:15:35Z</time>
      </trkpt>
      <trkpt lat="46.50828" lon="0.35162">
        <ele>152.8</ele>
        <time>2022-01-16T08:15:36Z</time>
      </trkpt>
      <trkpt lat="46.50828" lon="0.35164">
        <ele>152.8</ele>
        <time>2022-01-16T08:15:37Z</time>
      </trkpt>
      <trkpt lat="46.50831" lon="0.35173">
        <ele>152.8</ele>
        <time>2022-01-16T08:15:41Z</time>
      </trkpt>
      <trkpt lat="46.50831" lon="0.35187">
        <ele>153.8</ele>
        <time>2022-01-16T08:15:46Z</time>
      </trkpt>
      <trkpt lat="46.5083" lon="0.35196">
        <ele>154.4</ele>
        <time>2022-01-16T08:15:49Z</time>
      </trkpt>
      <trkpt lat="46.5083" lon="0.35203">
        <ele>154.6</ele>
        <time>2022-01-16T08:15:52Z</time>
      </trkpt>
      <trkpt lat="46.50831" lon="0.35209">
        <ele>155</ele>
        <time>2022-01-16T08:15:54Z</time>
      </trkpt>
      <trkpt lat="46.5083" lon="0.3522">
        <ele>155.6</ele>
        <time>2022-01-16T08:15:58Z</time>
      </trkpt>
      <trkpt lat="46.50833" lon="0.35235">
        <ele>156.2</ele>
        <time>2022-01-16T08:16:03Z</time>
      </trkpt>
      <trkpt lat="46.50834" lon="0.35241">
        <ele>156.4</ele>
        <time>2022-01-16T08:16:05Z</time>
      </trkpt>
      <trkpt lat="46.50838" lon="0.3526">
        <ele>157.2</ele>
        <time>2022-01-16T08:16:11Z</time>
      </trkpt>
      <trkpt lat="46.50839" lon="0.35263">
        <ele>157.4</ele>
        <time>2022-01-16T08:16:12Z</time>
      </trkpt>
      <trkpt lat="46.50843" lon="0.3528">
        <ele>158</ele>
        <time>2022-01-16T08:16:17Z</time>
      </trkpt>
      <trkpt lat="46.50835" lon="0.35286">
        <ele>158.2</ele>
        <time>2022-01-16T08:16:21Z</time>
      </trkpt>
      <trkpt lat="46.5083" lon="0.35288">
        <ele>158.4</ele>
        <time>2022-01-16T08:16:23Z</time>
      </trkpt>
      <trkpt lat="46.5082" lon="0.3529">
        <ele>158.8</ele>
        <time>2022-01-16T08:16:27Z</time>
      </trkpt>
      <trkpt lat="46.50811" lon="0.35298">
        <ele>159</ele>
        <time>2022-01-16T08:16:31Z</time>
      </trkpt>
      <trkpt lat="46.50809" lon="0.35298">
        <ele>159</ele>
        <time>2022-01-16T08:16:32Z</time>
      </trkpt>
      <trkpt lat="46.50793" lon="0.353">
        <ele>159.2</ele>
        <time>2022-01-16T08:16:38Z</time>
      </trkpt>
      <trkpt lat="46.50783" lon="0.35298">
        <ele>159.4</ele>
        <time>2022-01-16T08:16:42Z</time>
      </trkpt>
      <trkpt lat="46.5078" lon="0.35298">
        <ele>159.4</ele>
        <time>2022-01-16T08:16:43Z</time>
      </trkpt>
      <trkpt lat="46.5077" lon="0.35299">
        <ele>159.2</ele>
        <time>2022-01-16T08:16:47Z</time>
      </trkpt>
      <trkpt lat="46.50769" lon="0.35301">
        <ele>159</ele>
        <time>2022-01-16T08:16:48Z</time>
      </trkpt>
      <trkpt lat="46.50768" lon="0.35304">
        <ele>159</ele>
        <time>2022-01-16T08:16:49Z</time>
      </trkpt>
      <trkpt lat="46.50768" lon="0.35317">
        <ele>159.4</ele>
        <time>2022-01-16T08:16:53Z</time>
      </trkpt>
      <trkpt lat="46.50763" lon="0.35334">
        <ele>160.6</ele>
        <time>2022-01-16T08:16:57Z</time>
      </trkpt>
      <trkpt lat="46.50759" lon="0.35347">
        <ele>161.6</ele>
        <time>2022-01-16T08:17:00Z</time>
      </trkpt>
      <trkpt lat="46.50759" lon="0.35352">
        <ele>161.8</ele>
        <time>2022-01-16T08:17:01Z</time>
      </trkpt>
      <trkpt lat="46.50755" lon="0.35376">
        <ele>162</ele>
        <time>2022-01-16T08:17:07Z</time>
      </trkpt>
      <trkpt lat="46.50747" lon="0.35404">
        <ele>162.8</ele>
        <time>2022-01-16T08:17:14Z</time>
      </trkpt>
      <trkpt lat="46.50735" lon="0.35436">
        <ele>163.8</ele>
        <time>2022-01-16T08:17:21Z</time>
      </trkpt>
      <trkpt lat="46.50732" lon="0.35442">
        <ele>163.8</ele>
        <time>2022-01-16T08:17:22Z</time>
      </trkpt>
      <trkpt lat="46.50718" lon="0.35466">
        <ele>164</ele>
        <time>2022-01-16T08:17:28Z</time>
      </trkpt>
      <trkpt lat="46.507" lon="0.35493">
        <ele>164.8</ele>
        <time>2022-01-16T08:17:35Z</time>
      </trkpt>
      <trkpt lat="46.50698" lon="0.35497">
        <ele>164.8</ele>
        <time>2022-01-16T08:17:36Z</time>
      </trkpt>
      <trkpt lat="46.5068" lon="0.35527">
        <ele>165</ele>
        <time>2022-01-16T08:17:43Z</time>
      </trkpt>
      <trkpt lat="46.50662" lon="0.35566">
        <ele>165.2</ele>
        <time>2022-01-16T08:17:52Z</time>
      </trkpt>
      <trkpt lat="46.50661" lon="0.35597">
        <ele>165.6</ele>
        <time>2022-01-16T08:17:58Z</time>
      </trkpt>
      <trkpt lat="46.50661" lon="0.35607">
        <ele>165.8</ele>
        <time>2022-01-16T08:18:00Z</time>
      </trkpt>
      <trkpt lat="46.5066" lon="0.35629">
        <ele>165.6</ele>
        <time>2022-01-16T08:18:04Z</time>
      </trkpt>
      <trkpt lat="46.50657" lon="0.35665">
        <ele>166.2</ele>
        <time>2022-01-16T08:18:11Z</time>
      </trkpt>
      <trkpt lat="46.50657" lon="0.35694">
        <ele>166.2</ele>
        <time>2022-01-16T08:18:17Z</time>
      </trkpt>
      <trkpt lat="46.50666" lon="0.35704">
        <ele>166.2</ele>
        <time>2022-01-16T08:18:20Z</time>
      </trkpt>
      <trkpt lat="46.50674" lon="0.35708">
        <ele>166.2</ele>
        <time>2022-01-16T08:18:22Z</time>
      </trkpt>
      <trkpt lat="46.50694" lon="0.35711">
        <ele>166.2</ele>
        <time>2022-01-16T08:18:27Z</time>
      </trkpt>
      <trkpt lat="46.50726" lon="0.35716">
        <ele>166</ele>
        <time>2022-01-16T08:18:34Z</time>
      </trkpt>
      <trkpt lat="46.50765" lon="0.35723">
        <ele>165.4</ele>
        <time>2022-01-16T08:18:41Z</time>
      </trkpt>
      <trkpt lat="46.50787" lon="0.35726">
        <ele>164.8</ele>
        <time>2022-01-16T08:18:45Z</time>
      </trkpt>
      <trkpt lat="46.50795" lon="0.35727">
        <ele>164.4</ele>
        <time>2022-01-16T08:18:47Z</time>
      </trkpt>
      <trkpt lat="46.50803" lon="0.35729">
        <ele>164</ele>
        <time>2022-01-16T08:18:51Z</time>
      </trkpt>
      <trkpt lat="46.50805" lon="0.35728">
        <ele>164</ele>
        <time>2022-01-16T08:18:53Z</time>
      </trkpt>
      <trkpt lat="46.50806" lon="0.35726">
        <ele>164</ele>
        <time>2022-01-16T08:18:56Z</time>
      </trkpt>
      <trkpt lat="46.50809" lon="0.35731">
        <ele>164.2</ele>
        <time>2022-01-16T08:18:59Z</time>
      </trkpt>
      <trkpt lat="46.50809" lon="0.35735">
        <ele>164.2</ele>
        <time>2022-01-16T08:19:00Z</time>
      </trkpt>
      <trkpt lat="46.50807" lon="0.35748">
        <ele>164.4</ele>
        <time>2022-01-16T08:19:02Z</time>
      </trkpt>
      <trkpt lat="46.50802" lon="0.35755">
        <ele>164.4</ele>
        <time>2022-01-16T08:19:05Z</time>
      </trkpt>
      <trkpt lat="46.50784" lon="0.35779">
        <ele>164.6</ele>
        <time>2022-01-16T08:19:11Z</time>
      </trkpt>
      <trkpt lat="46.5077" lon="0.35809">
        <ele>165</ele>
        <time>2022-01-16T08:19:17Z</time>
      </trkpt>
      <trkpt lat="46.50757" lon="0.3585">
        <ele>165</ele>
        <time>2022-01-16T08:19:24Z</time>
      </trkpt>
      <trkpt lat="46.50756" lon="0.35856">
        <ele>165</ele>
        <time>2022-01-16T08:19:25Z</time>
      </trkpt>
      <trkpt lat="46.50756" lon="0.35862">
        <ele>165</ele>
        <time>2022-01-16T08:19:26Z</time>
      </trkpt>
      <trkpt lat="46.5076" lon="0.35882">
        <ele>164.8</ele>
        <time>2022-01-16T08:19:29Z</time>
      </trkpt>
      <trkpt lat="46.50769" lon="0.35919">
        <ele>163.6</ele>
        <time>2022-01-16T08:19:34Z</time>
      </trkpt>
      <trkpt lat="46.5077" lon="0.35927">
        <ele>163.4</ele>
        <time>2022-01-16T08:19:35Z</time>
      </trkpt>
      <trkpt lat="46.50773" lon="0.35943">
        <ele>163</ele>
        <time>2022-01-16T08:19:37Z</time>
      </trkpt>
      <trkpt lat="46.50776" lon="0.35976">
        <ele>162.6</ele>
        <time>2022-01-16T08:19:41Z</time>
      </trkpt>
      <trkpt lat="46.50777" lon="0.35984">
        <ele>162.4</ele>
        <time>2022-01-16T08:19:42Z</time>
      </trkpt>
      <trkpt lat="46.5078" lon="0.36032">
        <ele>161</ele>
        <time>2022-01-16T08:19:47Z</time>
      </trkpt>
      <trkpt lat="46.5078" lon="0.36056">
        <ele>159.4</ele>
        <time>2022-01-16T08:19:50Z</time>
      </trkpt>
      <trkpt lat="46.50781" lon="0.36069">
        <ele>157.8</ele>
        <time>2022-01-16T08:19:52Z</time>
      </trkpt>
      <trkpt lat="46.50782" lon="0.36083">
        <ele>156.8</ele>
        <time>2022-01-16T08:19:54Z</time>
      </trkpt>
      <trkpt lat="46.50781" lon="0.3609">
        <ele>156.6</ele>
        <time>2022-01-16T08:19:55Z</time>
      </trkpt>
      <trkpt lat="46.50776" lon="0.36102">
        <ele>156.6</ele>
        <time>2022-01-16T08:19:57Z</time>
      </trkpt>
      <trkpt lat="46.5077" lon="0.36113">
        <ele>156.8</ele>
        <time>2022-01-16T08:19:59Z</time>
      </trkpt>
      <trkpt lat="46.50765" lon="0.36121">
        <ele>157.2</ele>
        <time>2022-01-16T08:20:01Z</time>
      </trkpt>
      <trkpt lat="46.5076" lon="0.3613">
        <ele>158</ele>
        <time>2022-01-16T08:20:03Z</time>
      </trkpt>
      <trkpt lat="46.50754" lon="0.36148">
        <ele>158.4</ele>
        <time>2022-01-16T08:20:06Z</time>
      </trkpt>
      <trkpt lat="46.50746" lon="0.36194">
        <ele>158.8</ele>
        <time>2022-01-16T08:20:13Z</time>
      </trkpt>
      <trkpt lat="46.50738" lon="0.36255">
        <ele>158.2</ele>
        <time>2022-01-16T08:20:21Z</time>
      </trkpt>
      <trkpt lat="46.50738" lon="0.36263">
        <ele>158</ele>
        <time>2022-01-16T08:20:22Z</time>
      </trkpt>
      <trkpt lat="46.50733" lon="0.36305">
        <ele>157</ele>
        <time>2022-01-16T08:20:27Z</time>
      </trkpt>
      <trkpt lat="46.5073" lon="0.36328">
        <ele>156.4</ele>
        <time>2022-01-16T08:20:30Z</time>
      </trkpt>
      <trkpt lat="46.50728" lon="0.36343">
        <ele>155.8</ele>
        <time>2022-01-16T08:20:32Z</time>
      </trkpt>
      <trkpt lat="46.50724" lon="0.36374">
        <ele>154.6</ele>
        <time>2022-01-16T08:20:36Z</time>
      </trkpt>
      <trkpt lat="46.50723" lon="0.36381">
        <ele>154.2</ele>
        <time>2022-01-16T08:20:37Z</time>
      </trkpt>
      <trkpt lat="46.50717" lon="0.36426">
        <ele>153.4</ele>
        <time>2022-01-16T08:20:42Z</time>
      </trkpt>
      <trkpt lat="46.50709" lon="0.36476">
        <ele>152.2</ele>
        <time>2022-01-16T08:20:47Z</time>
      </trkpt>
      <trkpt lat="46.50706" lon="0.36497">
        <ele>151.6</ele>
        <time>2022-01-16T08:20:49Z</time>
      </trkpt>
      <trkpt lat="46.50705" lon="0.36508">
        <ele>151.2</ele>
        <time>2022-01-16T08:20:50Z</time>
      </trkpt>
      <trkpt lat="46.507" lon="0.36552">
        <ele>150</ele>
        <time>2022-01-16T08:20:54Z</time>
      </trkpt>
      <trkpt lat="46.50696" lon="0.36571">
        <ele>149.6</ele>
        <time>2022-01-16T08:20:56Z</time>
      </trkpt>
      <trkpt lat="46.50694" lon="0.3658">
        <ele>149.6</ele>
        <time>2022-01-16T08:20:57Z</time>
      </trkpt>
      <trkpt lat="46.50689" lon="0.36592">
        <ele>149.6</ele>
        <time>2022-01-16T08:20:59Z</time>
      </trkpt>
      <trkpt lat="46.50688" lon="0.36596">
        <ele>149.8</ele>
        <time>2022-01-16T08:21:00Z</time>
      </trkpt>
      <trkpt lat="46.50672" lon="0.36611">
        <ele>151</ele>
        <time>2022-01-16T08:21:04Z</time>
      </trkpt>
      <trkpt lat="46.50663" lon="0.36619">
        <ele>151.4</ele>
        <time>2022-01-16T08:21:06Z</time>
      </trkpt>
      <trkpt lat="46.50656" lon="0.36637">
        <ele>152.2</ele>
        <time>2022-01-16T08:21:10Z</time>
      </trkpt>
      <trkpt lat="46.50654" lon="0.36642">
        <ele>152.6</ele>
        <time>2022-01-16T08:21:11Z</time>
      </trkpt>
      <trkpt lat="46.50653" lon="0.36653">
        <ele>153.4</ele>
        <time>2022-01-16T08:21:13Z</time>
      </trkpt>
      <trkpt lat="46.50652" lon="0.3667">
        <ele>154.6</ele>
        <time>2022-01-16T08:21:16Z</time>
      </trkpt>
      <trkpt lat="46.50651" lon="0.36676">
        <ele>154.8</ele>
        <time>2022-01-16T08:21:17Z</time>
      </trkpt>
      <trkpt lat="46.5065" lon="0.36691">
        <ele>155.6</ele>
        <time>2022-01-16T08:21:20Z</time>
      </trkpt>
      <trkpt lat="46.50647" lon="0.36715">
        <ele>156.8</ele>
        <time>2022-01-16T08:21:25Z</time>
      </trkpt>
      <trkpt lat="46.50646" lon="0.36734">
        <ele>158</ele>
        <time>2022-01-16T08:21:29Z</time>
      </trkpt>
      <trkpt lat="46.50643" lon="0.36746">
        <ele>158.4</ele>
        <time>2022-01-16T08:21:32Z</time>
      </trkpt>
      <trkpt lat="46.50639" lon="0.36757">
        <ele>159</ele>
        <time>2022-01-16T08:21:35Z</time>
      </trkpt>
      <trkpt lat="46.50633" lon="0.36762">
        <ele>159.2</ele>
        <time>2022-01-16T08:21:37Z</time>
      </trkpt>
      <trkpt lat="46.50614" lon="0.36773">
        <ele>160</ele>
        <time>2022-01-16T08:21:42Z</time>
      </trkpt>
      <trkpt lat="46.50606" lon="0.36776">
        <ele>160</ele>
        <time>2022-01-16T08:21:44Z</time>
      </trkpt>
      <trkpt lat="46.5059" lon="0.36776">
        <ele>160.6</ele>
        <time>2022-01-16T08:21:48Z</time>
      </trkpt>
      <trkpt lat="46.50577" lon="0.36775">
        <ele>160.4</ele>
        <time>2022-01-16T08:21:51Z</time>
      </trkpt>
      <trkpt lat="46.5057" lon="0.36773">
        <ele>160.2</ele>
        <time>2022-01-16T08:21:53Z</time>
      </trkpt>
      <trkpt lat="46.50561" lon="0.36768">
        <ele>160.2</ele>
        <time>2022-01-16T08:21:56Z</time>
      </trkpt>
      <trkpt lat="46.50553" lon="0.36764">
        <ele>160</ele>
        <time>2022-01-16T08:21:58Z</time>
      </trkpt>
      <trkpt lat="46.5055" lon="0.36763">
        <ele>160</ele>
        <time>2022-01-16T08:21:59Z</time>
      </trkpt>
      <trkpt lat="46.50546" lon="0.36763">
        <ele>159.8</ele>
        <time>2022-01-16T08:22:00Z</time>
      </trkpt>
      <trkpt lat="46.50539" lon="0.36763">
        <ele>159.6</ele>
        <time>2022-01-16T08:22:02Z</time>
      </trkpt>
      <trkpt lat="46.50536" lon="0.36761">
        <ele>159.6</ele>
        <time>2022-01-16T08:22:03Z</time>
      </trkpt>
      <trkpt lat="46.50532" lon="0.36759">
        <ele>159.4</ele>
        <time>2022-01-16T08:22:04Z</time>
      </trkpt>
      <trkpt lat="46.50525" lon="0.36757">
        <ele>159</ele>
        <time>2022-01-16T08:22:06Z</time>
      </trkpt>
      <trkpt lat="46.50519" lon="0.36753">
        <ele>158.8</ele>
        <time>2022-01-16T08:22:08Z</time>
      </trkpt>
      <trkpt lat="46.50513" lon="0.36751">
        <ele>158.2</ele>
        <time>2022-01-16T08:22:11Z</time>
      </trkpt>
      <trkpt lat="46.50511" lon="0.36749">
        <ele>158</ele>
        <time>2022-01-16T08:22:12Z</time>
      </trkpt>
      <trkpt lat="46.50508" lon="0.36747">
        <ele>157.8</ele>
        <time>2022-01-16T08:22:13Z</time>
      </trkpt>
      <trkpt lat="46.50498" lon="0.36741">
        <ele>157.8</ele>
        <time>2022-01-16T08:22:16Z</time>
      </trkpt>
      <trkpt lat="46.50478" lon="0.36733">
        <ele>157.8</ele>
        <time>2022-01-16T08:22:21Z</time>
      </trkpt>
      <trkpt lat="46.50468" lon="0.36727">
        <ele>157.8</ele>
        <time>2022-01-16T08:22:23Z</time>
      </trkpt>
      <trkpt lat="46.50454" lon="0.36722">
        <ele>157.8</ele>
        <time>2022-01-16T08:22:26Z</time>
      </trkpt>
      <trkpt lat="46.5043" lon="0.36722">
        <ele>158</ele>
        <time>2022-01-16T08:22:31Z</time>
      </trkpt>
      <trkpt lat="46.5041" lon="0.36718">
        <ele>158.6</ele>
        <time>2022-01-16T08:22:35Z</time>
      </trkpt>
      <trkpt lat="46.50401" lon="0.36714">
        <ele>158.8</ele>
        <time>2022-01-16T08:22:37Z</time>
      </trkpt>
      <trkpt lat="46.50384" lon="0.36703">
        <ele>158.6</ele>
        <time>2022-01-16T08:22:41Z</time>
      </trkpt>
      <trkpt lat="46.50377" lon="0.36698">
        <ele>158.6</ele>
        <time>2022-01-16T08:22:43Z</time>
      </trkpt>
      <trkpt lat="46.5036" lon="0.36693">
        <ele>158.6</ele>
        <time>2022-01-16T08:22:48Z</time>
      </trkpt>
      <trkpt lat="46.50359" lon="0.36691">
        <ele>158.6</ele>
        <time>2022-01-16T08:22:49Z</time>
      </trkpt>
      <trkpt lat="46.50359" lon="0.36685">
        <ele>158.4</ele>
        <time>2022-01-16T08:22:51Z</time>
      </trkpt>
      <trkpt lat="46.50356" lon="0.36669">
        <ele>158</ele>
        <time>2022-01-16T08:22:55Z</time>
      </trkpt>
      <trkpt lat="46.50355" lon="0.36666">
        <ele>158</ele>
        <time>2022-01-16T08:22:56Z</time>
      </trkpt>
      <trkpt lat="46.50349" lon="0.3666">
        <ele>157.6</ele>
        <time>2022-01-16T08:22:59Z</time>
      </trkpt>
      <trkpt lat="46.50347" lon="0.36659">
        <ele>157.6</ele>
        <time>2022-01-16T08:23:00Z</time>
      </trkpt>
      <trkpt lat="46.5034" lon="0.36657">
        <ele>157.4</ele>
        <time>2022-01-16T08:23:03Z</time>
      </trkpt>
      <trkpt lat="46.50338" lon="0.36658">
        <ele>157.4</ele>
        <time>2022-01-16T08:23:05Z</time>
      </trkpt>
      <trkpt lat="46.50337" lon="0.36659">
        <ele>157.4</ele>
        <time>2022-01-16T08:23:06Z</time>
      </trkpt>
      <trkpt lat="46.50336" lon="0.36662">
        <ele>157.6</ele>
        <time>2022-01-16T08:23:08Z</time>
      </trkpt>
      <trkpt lat="46.5033" lon="0.36667">
        <ele>158.2</ele>
        <time>2022-01-16T08:23:11Z</time>
      </trkpt>
      <trkpt lat="46.50324" lon="0.36669">
        <ele>158.4</ele>
        <time>2022-01-16T08:23:14Z</time>
      </trkpt>
      <trkpt lat="46.50317" lon="0.36666">
        <ele>158.8</ele>
        <time>2022-01-16T08:23:16Z</time>
      </trkpt>
      <trkpt lat="46.50315" lon="0.36663">
        <ele>158.8</ele>
        <time>2022-01-16T08:23:17Z</time>
      </trkpt>
      <trkpt lat="46.50308" lon="0.36654">
        <ele>158.8</ele>
        <time>2022-01-16T08:23:20Z</time>
      </trkpt>
      <trkpt lat="46.50303" lon="0.36648">
        <ele>158.8</ele>
        <time>2022-01-16T08:23:22Z</time>
      </trkpt>
      <trkpt lat="46.50294" lon="0.36648">
        <ele>158.6</ele>
        <time>2022-01-16T08:23:25Z</time>
      </trkpt>
      <trkpt lat="46.50286" lon="0.36652">
        <ele>158.8</ele>
        <time>2022-01-16T08:23:28Z</time>
      </trkpt>
      <trkpt lat="46.50282" lon="0.36657">
        <ele>159</ele>
        <time>2022-01-16T08:23:30Z</time>
      </trkpt>
      <trkpt lat="46.50272" lon="0.36668">
        <ele>159.4</ele>
        <time>2022-01-16T08:23:35Z</time>
      </trkpt>
      <trkpt lat="46.5027" lon="0.36668">
        <ele>159.4</ele>
        <time>2022-01-16T08:23:36Z</time>
      </trkpt>
      <trkpt lat="46.50262" lon="0.36665">
        <ele>159.6</ele>
        <time>2022-01-16T08:23:40Z</time>
      </trkpt>
      <trkpt lat="46.50255" lon="0.36655">
        <ele>159.4</ele>
        <time>2022-01-16T08:23:44Z</time>
      </trkpt>
      <trkpt lat="46.50245" lon="0.36644">
        <ele>159.2</ele>
        <time>2022-01-16T08:23:49Z</time>
      </trkpt>
      <trkpt lat="46.50234" lon="0.36639">
        <ele>159.2</ele>
        <time>2022-01-16T08:23:53Z</time>
      </trkpt>
      <trkpt lat="46.50231" lon="0.36636">
        <ele>159</ele>
        <time>2022-01-16T08:23:54Z</time>
      </trkpt>
      <trkpt lat="46.50227" lon="0.36636">
        <ele>159</ele>
        <time>2022-01-16T08:23:56Z</time>
      </trkpt>
      <trkpt lat="46.50225" lon="0.36636">
        <ele>159.2</ele>
        <time>2022-01-16T08:23:57Z</time>
      </trkpt>
      <trkpt lat="46.50216" lon="0.36643">
        <ele>159.6</ele>
        <time>2022-01-16T08:24:01Z</time>
      </trkpt>
      <trkpt lat="46.50205" lon="0.36638">
        <ele>159.6</ele>
        <time>2022-01-16T08:24:05Z</time>
      </trkpt>
      <trkpt lat="46.5019" lon="0.36627">
        <ele>159.4</ele>
        <time>2022-01-16T08:24:11Z</time>
      </trkpt>
      <trkpt lat="46.50182" lon="0.36619">
        <ele>159.6</ele>
        <time>2022-01-16T08:24:14Z</time>
      </trkpt>
      <trkpt lat="46.50175" lon="0.36617">
        <ele>159.6</ele>
        <time>2022-01-16T08:24:16Z</time>
      </trkpt>
      <trkpt lat="46.50168" lon="0.36619">
        <ele>159.6</ele>
        <time>2022-01-16T08:24:19Z</time>
      </trkpt>
      <trkpt lat="46.50166" lon="0.36621">
        <ele>159.6</ele>
        <time>2022-01-16T08:24:20Z</time>
      </trkpt>
      <trkpt lat="46.50159" lon="0.36627">
        <ele>159.8</ele>
        <time>2022-01-16T08:24:24Z</time>
      </trkpt>
      <trkpt lat="46.50153" lon="0.36627">
        <ele>160</ele>
        <time>2022-01-16T08:24:26Z</time>
      </trkpt>
      <trkpt lat="46.50143" lon="0.36637">
        <ele>160</ele>
        <time>2022-01-16T08:24:30Z</time>
      </trkpt>
      <trkpt lat="46.50137" lon="0.36649">
        <ele>160.2</ele>
        <time>2022-01-16T08:24:33Z</time>
      </trkpt>
      <trkpt lat="46.50134" lon="0.36651">
        <ele>160.4</ele>
        <time>2022-01-16T08:24:34Z</time>
      </trkpt>
      <trkpt lat="46.50127" lon="0.36663">
        <ele>160.4</ele>
        <time>2022-01-16T08:24:38Z</time>
      </trkpt>
      <trkpt lat="46.50118" lon="0.36678">
        <ele>160</ele>
        <time>2022-01-16T08:24:43Z</time>
      </trkpt>
      <trkpt lat="46.50115" lon="0.36706">
        <ele>160.2</ele>
        <time>2022-01-16T08:24:50Z</time>
      </trkpt>
      <trkpt lat="46.5012" lon="0.36724">
        <ele>160.4</ele>
        <time>2022-01-16T08:24:56Z</time>
      </trkpt>
      <trkpt lat="46.50128" lon="0.36736">
        <ele>160</ele>
        <time>2022-01-16T08:25:00Z</time>
      </trkpt>
      <trkpt lat="46.5013" lon="0.36736">
        <ele>160</ele>
        <time>2022-01-16T08:25:01Z</time>
      </trkpt>
      <trkpt lat="46.50141" lon="0.36741">
        <ele>160.2</ele>
        <time>2022-01-16T08:25:05Z</time>
      </trkpt>
      <trkpt lat="46.50143" lon="0.36741">
        <ele>160.2</ele>
        <time>2022-01-16T08:25:06Z</time>
      </trkpt>
      <trkpt lat="46.5015" lon="0.36742">
        <ele>160.2</ele>
        <time>2022-01-16T08:25:09Z</time>
      </trkpt>
      <trkpt lat="46.50153" lon="0.36743">
        <ele>160.2</ele>
        <time>2022-01-16T08:25:10Z</time>
      </trkpt>
      <trkpt lat="46.50168" lon="0.36757">
        <ele>160.6</ele>
        <time>2022-01-16T08:25:15Z</time>
      </trkpt>
      <trkpt lat="46.50179" lon="0.36762">
        <ele>160.6</ele>
        <time>2022-01-16T08:25:19Z</time>
      </trkpt>
      <trkpt lat="46.50182" lon="0.36762">
        <ele>160.4</ele>
        <time>2022-01-16T08:25:21Z</time>
      </trkpt>
      <trkpt lat="46.50186" lon="0.36767">
        <ele>160.4</ele>
        <time>2022-01-16T08:25:23Z</time>
      </trkpt>
      <trkpt lat="46.5019" lon="0.36772">
        <ele>160.2</ele>
        <time>2022-01-16T08:25:25Z</time>
      </trkpt>
      <trkpt lat="46.50195" lon="0.36772">
        <ele>160.2</ele>
        <time>2022-01-16T08:25:27Z</time>
      </trkpt>
      <trkpt lat="46.50209" lon="0.36775">
        <ele>160.2</ele>
        <time>2022-01-16T08:25:31Z</time>
      </trkpt>
      <trkpt lat="46.5021" lon="0.36778">
        <ele>160.2</ele>
        <time>2022-01-16T08:25:32Z</time>
      </trkpt>
      <trkpt lat="46.50212" lon="0.36792">
        <ele>160.2</ele>
        <time>2022-01-16T08:25:35Z</time>
      </trkpt>
      <trkpt lat="46.50214" lon="0.36808">
        <ele>160</ele>
        <time>2022-01-16T08:25:38Z</time>
      </trkpt>
      <trkpt lat="46.50214" lon="0.36816">
        <ele>160.4</ele>
        <time>2022-01-16T08:25:40Z</time>
      </trkpt>
      <trkpt lat="46.50211" lon="0.36823">
        <ele>160.6</ele>
        <time>2022-01-16T08:25:43Z</time>
      </trkpt>
      <trkpt lat="46.50213" lon="0.36825">
        <ele>160.4</ele>
        <time>2022-01-16T08:25:44Z</time>
      </trkpt>
      <trkpt lat="46.50215" lon="0.36833">
        <ele>160.4</ele>
        <time>2022-01-16T08:25:48Z</time>
      </trkpt>
      <trkpt lat="46.50216" lon="0.36833">
        <ele>160.2</ele>
        <time>2022-01-16T08:25:49Z</time>
      </trkpt>
      <trkpt lat="46.50227" lon="0.36832">
        <ele>160.4</ele>
        <time>2022-01-16T08:25:54Z</time>
      </trkpt>
      <trkpt lat="46.50243" lon="0.36828">
        <ele>160.8</ele>
        <time>2022-01-16T08:26:00Z</time>
      </trkpt>
      <trkpt lat="46.50253" lon="0.36835">
        <ele>160.8</ele>
        <time>2022-01-16T08:26:04Z</time>
      </trkpt>
      <trkpt lat="46.50265" lon="0.3684">
        <ele>160.8</ele>
        <time>2022-01-16T08:26:08Z</time>
      </trkpt>
      <trkpt lat="46.50268" lon="0.36847">
        <ele>160.4</ele>
        <time>2022-01-16T08:26:10Z</time>
      </trkpt>
      <trkpt lat="46.5027" lon="0.36856">
        <ele>160.2</ele>
        <time>2022-01-16T08:26:12Z</time>
      </trkpt>
      <trkpt lat="46.50271" lon="0.36861">
        <ele>160.2</ele>
        <time>2022-01-16T08:26:13Z</time>
      </trkpt>
      <trkpt lat="46.50272" lon="0.36876">
        <ele>160</ele>
        <time>2022-01-16T08:26:16Z</time>
      </trkpt>
      <trkpt lat="46.50273" lon="0.36879">
        <ele>160</ele>
        <time>2022-01-16T08:26:17Z</time>
      </trkpt>
      <trkpt lat="46.50274" lon="0.36883">
        <ele>160</ele>
        <time>2022-01-16T08:26:18Z</time>
      </trkpt>
      <trkpt lat="46.50277" lon="0.36894">
        <ele>159.8</ele>
        <time>2022-01-16T08:26:20Z</time>
      </trkpt>
      <trkpt lat="46.5028" lon="0.36905">
        <ele>160</ele>
        <time>2022-01-16T08:26:22Z</time>
      </trkpt>
      <trkpt lat="46.50285" lon="0.36915">
        <ele>160</ele>
        <time>2022-01-16T08:26:24Z</time>
      </trkpt>
      <trkpt lat="46.50291" lon="0.36925">
        <ele>159.8</ele>
        <time>2022-01-16T08:26:26Z</time>
      </trkpt>
      <trkpt lat="46.50295" lon="0.36936">
        <ele>159.8</ele>
        <time>2022-01-16T08:26:28Z</time>
      </trkpt>
      <trkpt lat="46.50298" lon="0.3695">
        <ele>159.8</ele>
        <time>2022-01-16T08:26:30Z</time>
      </trkpt>
      <trkpt lat="46.503" lon="0.36966">
        <ele>160</ele>
        <time>2022-01-16T08:26:32Z</time>
      </trkpt>
      <trkpt lat="46.50306" lon="0.37012">
        <ele>159.8</ele>
        <time>2022-01-16T08:26:38Z</time>
      </trkpt>
      <trkpt lat="46.50306" lon="0.37018">
        <ele>159.8</ele>
        <time>2022-01-16T08:26:39Z</time>
      </trkpt>
      <trkpt lat="46.50304" lon="0.37029">
        <ele>159.6</ele>
        <time>2022-01-16T08:26:41Z</time>
      </trkpt>
      <trkpt lat="46.50298" lon="0.37039">
        <ele>159.6</ele>
        <time>2022-01-16T08:26:43Z</time>
      </trkpt>
      <trkpt lat="46.5029" lon="0.37049">
        <ele>159.4</ele>
        <time>2022-01-16T08:26:45Z</time>
      </trkpt>
      <trkpt lat="46.50279" lon="0.37058">
        <ele>159.4</ele>
        <time>2022-01-16T08:26:47Z</time>
      </trkpt>
      <trkpt lat="46.5027" lon="0.37066">
        <ele>159.4</ele>
        <time>2022-01-16T08:26:49Z</time>
      </trkpt>
      <trkpt lat="46.5026" lon="0.3708">
        <ele>159.4</ele>
        <time>2022-01-16T08:26:52Z</time>
      </trkpt>
      <trkpt lat="46.50251" lon="0.37094">
        <ele>159.2</ele>
        <time>2022-01-16T08:26:55Z</time>
      </trkpt>
      <trkpt lat="46.50242" lon="0.371">
        <ele>159.2</ele>
        <time>2022-01-16T08:26:57Z</time>
      </trkpt>
      <trkpt lat="46.50233" lon="0.37099">
        <ele>159</ele>
        <time>2022-01-16T08:26:59Z</time>
      </trkpt>
      <trkpt lat="46.50224" lon="0.37096">
        <ele>159</ele>
        <time>2022-01-16T08:27:01Z</time>
      </trkpt>
      <trkpt lat="46.50214" lon="0.37094">
        <ele>158.8</ele>
        <time>2022-01-16T08:27:03Z</time>
      </trkpt>
      <trkpt lat="46.50206" lon="0.37096">
        <ele>158.8</ele>
        <time>2022-01-16T08:27:05Z</time>
      </trkpt>
      <trkpt lat="46.50203" lon="0.37099">
        <ele>158.6</ele>
        <time>2022-01-16T08:27:06Z</time>
      </trkpt>
      <trkpt lat="46.50203" lon="0.37103">
        <ele>158.6</ele>
        <time>2022-01-16T08:27:07Z</time>
      </trkpt>
      <trkpt lat="46.50204" lon="0.37113">
        <ele>158.4</ele>
        <time>2022-01-16T08:27:09Z</time>
      </trkpt>
      <trkpt lat="46.50209" lon="0.37156">
        <ele>158</ele>
        <time>2022-01-16T08:27:16Z</time>
      </trkpt>
      <trkpt lat="46.50216" lon="0.37199">
        <ele>157.8</ele>
        <time>2022-01-16T08:27:22Z</time>
      </trkpt>
      <trkpt lat="46.50223" lon="0.37255">
        <ele>157.6</ele>
        <time>2022-01-16T08:27:28Z</time>
      </trkpt>
      <trkpt lat="46.50235" lon="0.37298">
        <ele>157.4</ele>
        <time>2022-01-16T08:27:33Z</time>
      </trkpt>
      <trkpt lat="46.50241" lon="0.37311">
        <ele>157.2</ele>
        <time>2022-01-16T08:27:35Z</time>
      </trkpt>
      <trkpt lat="46.50252" lon="0.3733">
        <ele>156.8</ele>
        <time>2022-01-16T08:27:38Z</time>
      </trkpt>
      <trkpt lat="46.50256" lon="0.37337">
        <ele>156.6</ele>
        <time>2022-01-16T08:27:39Z</time>
      </trkpt>
      <trkpt lat="46.50284" lon="0.37382">
        <ele>155.8</ele>
        <time>2022-01-16T08:27:46Z</time>
      </trkpt>
      <trkpt lat="46.50288" lon="0.37389">
        <ele>155.6</ele>
        <time>2022-01-16T08:27:47Z</time>
      </trkpt>
      <trkpt lat="46.50315" lon="0.37442">
        <ele>155.2</ele>
        <time>2022-01-16T08:27:54Z</time>
      </trkpt>
      <trkpt lat="46.50343" lon="0.37492">
        <ele>154.2</ele>
        <time>2022-01-16T08:28:00Z</time>
      </trkpt>
      <trkpt lat="46.50364" lon="0.37519">
        <ele>153.2</ele>
        <time>2022-01-16T08:28:04Z</time>
      </trkpt>
      <trkpt lat="46.50374" lon="0.37529">
        <ele>153</ele>
        <time>2022-01-16T08:28:06Z</time>
      </trkpt>
      <trkpt lat="46.50385" lon="0.37542">
        <ele>152</ele>
        <time>2022-01-16T08:28:09Z</time>
      </trkpt>
      <trkpt lat="46.50388" lon="0.37545">
        <ele>151.8</ele>
        <time>2022-01-16T08:28:10Z</time>
      </trkpt>
      <trkpt lat="46.50393" lon="0.37542">
        <ele>151.2</ele>
        <time>2022-01-16T08:28:13Z</time>
      </trkpt>
      <trkpt lat="46.50394" lon="0.3754">
        <ele>151</ele>
        <time>2022-01-16T08:28:14Z</time>
      </trkpt>
      <trkpt lat="46.504" lon="0.37533">
        <ele>151</ele>
        <time>2022-01-16T08:28:18Z</time>
      </trkpt>
      <trkpt lat="46.50407" lon="0.37516">
        <ele>152.4</ele>
        <time>2022-01-16T08:28:23Z</time>
      </trkpt>
      <trkpt lat="46.50409" lon="0.37509">
        <ele>153.4</ele>
        <time>2022-01-16T08:28:25Z</time>
      </trkpt>
      <trkpt lat="46.50417" lon="0.37491">
        <ele>154.4</ele>
        <time>2022-01-16T08:28:29Z</time>
      </trkpt>
      <trkpt lat="46.50419" lon="0.37488">
        <ele>154.6</ele>
        <time>2022-01-16T08:28:30Z</time>
      </trkpt>
      <trkpt lat="46.50428" lon="0.37477">
        <ele>155.4</ele>
        <time>2022-01-16T08:28:34Z</time>
      </trkpt>
      <trkpt lat="46.50435" lon="0.37467">
        <ele>155.6</ele>
        <time>2022-01-16T08:28:37Z</time>
      </trkpt>
      <trkpt lat="46.50443" lon="0.37459">
        <ele>155.8</ele>
        <time>2022-01-16T08:28:40Z</time>
      </trkpt>
      <trkpt lat="46.50451" lon="0.37458">
        <ele>156.2</ele>
        <time>2022-01-16T08:28:44Z</time>
      </trkpt>
      <trkpt lat="46.50469" lon="0.37458">
        <ele>156.2</ele>
        <time>2022-01-16T08:28:50Z</time>
      </trkpt>
      <trkpt lat="46.50479" lon="0.37453">
        <ele>156.4</ele>
        <time>2022-01-16T08:28:53Z</time>
      </trkpt>
      <trkpt lat="46.50482" lon="0.3745">
        <ele>156.4</ele>
        <time>2022-01-16T08:28:54Z</time>
      </trkpt>
      <trkpt lat="46.5049" lon="0.37437">
        <ele>156.6</ele>
        <time>2022-01-16T08:28:57Z</time>
      </trkpt>
      <trkpt lat="46.50495" lon="0.37427">
        <ele>156.6</ele>
        <time>2022-01-16T08:28:59Z</time>
      </trkpt>
      <trkpt lat="46.50497" lon="0.37418">
        <ele>156.8</ele>
        <time>2022-01-16T08:29:01Z</time>
      </trkpt>
      <trkpt lat="46.50499" lon="0.37411">
        <ele>156.8</ele>
        <time>2022-01-16T08:29:03Z</time>
      </trkpt>
      <trkpt lat="46.50501" lon="0.37404">
        <ele>157.2</ele>
        <time>2022-01-16T08:29:06Z</time>
      </trkpt>
      <trkpt lat="46.505" lon="0.37402">
        <ele>157.2</ele>
        <time>2022-01-16T08:29:07Z</time>
      </trkpt>
      <trkpt lat="46.50499" lon="0.37398">
        <ele>157.2</ele>
        <time>2022-01-16T08:29:09Z</time>
      </trkpt>
      <trkpt lat="46.505" lon="0.3739">
        <ele>157.2</ele>
        <time>2022-01-16T08:29:11Z</time>
      </trkpt>
      <trkpt lat="46.50507" lon="0.37369">
        <ele>157.2</ele>
        <time>2022-01-16T08:29:15Z</time>
      </trkpt>
      <trkpt lat="46.50515" lon="0.37356">
        <ele>157</ele>
        <time>2022-01-16T08:29:18Z</time>
      </trkpt>
      <trkpt lat="46.50519" lon="0.37352">
        <ele>157</ele>
        <time>2022-01-16T08:29:19Z</time>
      </trkpt>
      <trkpt lat="46.50532" lon="0.37339">
        <ele>156.8</ele>
        <time>2022-01-16T08:29:22Z</time>
      </trkpt>
      <trkpt lat="46.50535" lon="0.37335">
        <ele>156.6</ele>
        <time>2022-01-16T08:29:23Z</time>
      </trkpt>
      <trkpt lat="46.50546" lon="0.3732">
        <ele>156.2</ele>
        <time>2022-01-16T08:29:26Z</time>
      </trkpt>
      <trkpt lat="46.50555" lon="0.37317">
        <ele>155.6</ele>
        <time>2022-01-16T08:29:28Z</time>
      </trkpt>
      <trkpt lat="46.50567" lon="0.37315">
        <ele>154.8</ele>
        <time>2022-01-16T08:29:31Z</time>
      </trkpt>
      <trkpt lat="46.50577" lon="0.37311">
        <ele>154.6</ele>
        <time>2022-01-16T08:29:33Z</time>
      </trkpt>
      <trkpt lat="46.50582" lon="0.37309">
        <ele>154</ele>
        <time>2022-01-16T08:29:34Z</time>
      </trkpt>
      <trkpt lat="46.50588" lon="0.37307">
        <ele>153.6</ele>
        <time>2022-01-16T08:29:35Z</time>
      </trkpt>
      <trkpt lat="46.50598" lon="0.37309">
        <ele>152.8</ele>
        <time>2022-01-16T08:29:37Z</time>
      </trkpt>
      <trkpt lat="46.50615" lon="0.37317">
        <ele>151.6</ele>
        <time>2022-01-16T08:29:40Z</time>
      </trkpt>
      <trkpt lat="46.50622" lon="0.37321">
        <ele>150.6</ele>
        <time>2022-01-16T08:29:41Z</time>
      </trkpt>
      <trkpt lat="46.50628" lon="0.37323">
        <ele>149.6</ele>
        <time>2022-01-16T08:29:42Z</time>
      </trkpt>
      <trkpt lat="46.50634" lon="0.37327">
        <ele>149</ele>
        <time>2022-01-16T08:29:43Z</time>
      </trkpt>
      <trkpt lat="46.50647" lon="0.37336">
        <ele>147.8</ele>
        <time>2022-01-16T08:29:45Z</time>
      </trkpt>
      <trkpt lat="46.50658" lon="0.37346">
        <ele>146.4</ele>
        <time>2022-01-16T08:29:47Z</time>
      </trkpt>
      <trkpt lat="46.5069" lon="0.37365">
        <ele>145.8</ele>
        <time>2022-01-16T08:29:52Z</time>
      </trkpt>
      <trkpt lat="46.50729" lon="0.37384">
        <ele>147.2</ele>
        <time>2022-01-16T08:29:59Z</time>
      </trkpt>
      <trkpt lat="46.50734" lon="0.37387">
        <ele>147.4</ele>
        <time>2022-01-16T08:30:00Z</time>
      </trkpt>
      <trkpt lat="46.50744" lon="0.37395">
        <ele>148.2</ele>
        <time>2022-01-16T08:30:03Z</time>
      </trkpt>
      <trkpt lat="46.50747" lon="0.37397">
        <ele>148.2</ele>
        <time>2022-01-16T08:30:04Z</time>
      </trkpt>
      <trkpt lat="46.5075" lon="0.37399">
        <ele>148.6</ele>
        <time>2022-01-16T08:30:05Z</time>
      </trkpt>
      <trkpt lat="46.50759" lon="0.37404">
        <ele>149.8</ele>
        <time>2022-01-16T08:30:08Z</time>
      </trkpt>
      <trkpt lat="46.50762" lon="0.37405">
        <ele>150</ele>
        <time>2022-01-16T08:30:09Z</time>
      </trkpt>
      <trkpt lat="46.50778" lon="0.37416">
        <ele>150.6</ele>
        <time>2022-01-16T08:30:15Z</time>
      </trkpt>
      <trkpt lat="46.50781" lon="0.37419">
        <ele>150.8</ele>
        <time>2022-01-16T08:30:16Z</time>
      </trkpt>
      <trkpt lat="46.50797" lon="0.37429">
        <ele>151.6</ele>
        <time>2022-01-16T08:30:21Z</time>
      </trkpt>
      <trkpt lat="46.50802" lon="0.37433">
        <ele>151.8</ele>
        <time>2022-01-16T08:30:23Z</time>
      </trkpt>
      <trkpt lat="46.50811" lon="0.37442">
        <ele>151.8</ele>
        <time>2022-01-16T08:30:27Z</time>
      </trkpt>
      <trkpt lat="46.50821" lon="0.37462">
        <ele>151.4</ele>
        <time>2022-01-16T08:30:32Z</time>
      </trkpt>
      <trkpt lat="46.50825" lon="0.3747">
        <ele>151.2</ele>
        <time>2022-01-16T08:30:34Z</time>
      </trkpt>
      <trkpt lat="46.50829" lon="0.37477">
        <ele>150.8</ele>
        <time>2022-01-16T08:30:36Z</time>
      </trkpt>
      <trkpt lat="46.50831" lon="0.37481">
        <ele>150.6</ele>
        <time>2022-01-16T08:30:37Z</time>
      </trkpt>
      <trkpt lat="46.50837" lon="0.37491">
        <ele>150.2</ele>
        <time>2022-01-16T08:30:40Z</time>
      </trkpt>
      <trkpt lat="46.50838" lon="0.37495">
        <ele>150</ele>
        <time>2022-01-16T08:30:41Z</time>
      </trkpt>
      <trkpt lat="46.50838" lon="0.37504">
        <ele>149.6</ele>
        <time>2022-01-16T08:30:43Z</time>
      </trkpt>
      <trkpt lat="46.50838" lon="0.37514">
        <ele>149</ele>
        <time>2022-01-16T08:30:45Z</time>
      </trkpt>
      <trkpt lat="46.50837" lon="0.3752">
        <ele>148.2</ele>
        <time>2022-01-16T08:30:46Z</time>
      </trkpt>
      <trkpt lat="46.50835" lon="0.37528">
        <ele>147</ele>
        <time>2022-01-16T08:30:47Z</time>
      </trkpt>
      <trkpt lat="46.5083" lon="0.37548">
        <ele>145.6</ele>
        <time>2022-01-16T08:30:49Z</time>
      </trkpt>
      <trkpt lat="46.50827" lon="0.37561">
        <ele>144.6</ele>
        <time>2022-01-16T08:30:50Z</time>
      </trkpt>
      <trkpt lat="46.50819" lon="0.37588">
        <ele>143.2</ele>
        <time>2022-01-16T08:30:52Z</time>
      </trkpt>
      <trkpt lat="46.50813" lon="0.3761">
        <ele>142</ele>
        <time>2022-01-16T08:30:54Z</time>
      </trkpt>
      <trkpt lat="46.50806" lon="0.37641">
        <ele>141</ele>
        <time>2022-01-16T08:30:58Z</time>
      </trkpt>
      <trkpt lat="46.50803" lon="0.3766">
        <ele>141.2</ele>
        <time>2022-01-16T08:31:02Z</time>
      </trkpt>
      <trkpt lat="46.50802" lon="0.37664">
        <ele>141.4</ele>
        <time>2022-01-16T08:31:03Z</time>
      </trkpt>
      <trkpt lat="46.50801" lon="0.37668">
        <ele>141.6</ele>
        <time>2022-01-16T08:31:04Z</time>
      </trkpt>
      <trkpt lat="46.50796" lon="0.37684">
        <ele>141.6</ele>
        <time>2022-01-16T08:31:07Z</time>
      </trkpt>
      <trkpt lat="46.50793" lon="0.37693">
        <ele>141.2</ele>
        <time>2022-01-16T08:31:09Z</time>
      </trkpt>
      <trkpt lat="46.50793" lon="0.377">
        <ele>140.8</ele>
        <time>2022-01-16T08:31:11Z</time>
      </trkpt>
      <trkpt lat="46.50793" lon="0.37707">
        <ele>140</ele>
        <time>2022-01-16T08:31:13Z</time>
      </trkpt>
      <trkpt lat="46.50793" lon="0.37708">
        <ele>139.8</ele>
        <time>2022-01-16T08:31:14Z</time>
      </trkpt>
      <trkpt lat="46.50797" lon="0.37702">
        <ele>139.8</ele>
        <time>2022-01-16T08:31:18Z</time>
      </trkpt>
      <trkpt lat="46.50815" lon="0.3768">
        <ele>139.6</ele>
        <time>2022-01-16T08:31:24Z</time>
      </trkpt>
      <trkpt lat="46.50825" lon="0.37667">
        <ele>139</ele>
        <time>2022-01-16T08:31:28Z</time>
      </trkpt>
      <trkpt lat="46.50826" lon="0.37665">
        <ele>139</ele>
        <time>2022-01-16T08:31:29Z</time>
      </trkpt>
      <trkpt lat="46.5083" lon="0.37664">
        <ele>139.2</ele>
        <time>2022-01-16T08:31:31Z</time>
      </trkpt>
      <trkpt lat="46.50831" lon="0.37665">
        <ele>139.4</ele>
        <time>2022-01-16T08:31:32Z</time>
      </trkpt>
      <trkpt lat="46.50831" lon="0.37667">
        <ele>139.6</ele>
        <time>2022-01-16T08:31:33Z</time>
      </trkpt>
      <trkpt lat="46.50834" lon="0.37672">
        <ele>140.4</ele>
        <time>2022-01-16T08:31:37Z</time>
      </trkpt>
      <trkpt lat="46.50835" lon="0.37673">
        <ele>140.6</ele>
        <time>2022-01-16T08:31:38Z</time>
      </trkpt>
      <trkpt lat="46.50839" lon="0.37679">
        <ele>140.8</ele>
        <time>2022-01-16T08:31:41Z</time>
      </trkpt>
      <trkpt lat="46.50841" lon="0.37681">
        <ele>141.4</ele>
        <time>2022-01-16T08:31:42Z</time>
      </trkpt>
      <trkpt lat="46.50845" lon="0.37684">
        <ele>142.2</ele>
        <time>2022-01-16T08:31:45Z</time>
      </trkpt>
      <trkpt lat="46.50848" lon="0.37688">
        <ele>142.8</ele>
        <time>2022-01-16T08:31:47Z</time>
      </trkpt>
      <trkpt lat="46.50848" lon="0.37691">
        <ele>142.8</ele>
        <time>2022-01-16T08:31:48Z</time>
      </trkpt>
      <trkpt lat="46.50852" lon="0.37701">
        <ele>143.2</ele>
        <time>2022-01-16T08:31:51Z</time>
      </trkpt>
      <trkpt lat="46.50855" lon="0.37707">
        <ele>143.4</ele>
        <time>2022-01-16T08:31:53Z</time>
      </trkpt>
      <trkpt lat="46.50862" lon="0.37725">
        <ele>144</ele>
        <time>2022-01-16T08:31:57Z</time>
      </trkpt>
      <trkpt lat="46.50862" lon="0.37731">
        <ele>144</ele>
        <time>2022-01-16T08:31:58Z</time>
      </trkpt>
      <trkpt lat="46.50864" lon="0.37763">
        <ele>143</ele>
        <time>2022-01-16T08:32:04Z</time>
      </trkpt>
      <trkpt lat="46.50866" lon="0.37781">
        <ele>142.6</ele>
        <time>2022-01-16T08:32:07Z</time>
      </trkpt>
      <trkpt lat="46.50867" lon="0.37787">
        <ele>142</ele>
        <time>2022-01-16T08:32:08Z</time>
      </trkpt>
      <trkpt lat="46.50869" lon="0.37792">
        <ele>141.6</ele>
        <time>2022-01-16T08:32:09Z</time>
      </trkpt>
      <trkpt lat="46.50873" lon="0.37807">
        <ele>140.4</ele>
        <time>2022-01-16T08:32:11Z</time>
      </trkpt>
      <trkpt lat="46.50881" lon="0.37829">
        <ele>139.6</ele>
        <time>2022-01-16T08:32:14Z</time>
      </trkpt>
      <trkpt lat="46.50883" lon="0.37837">
        <ele>139.2</ele>
        <time>2022-01-16T08:32:15Z</time>
      </trkpt>
      <trkpt lat="46.50889" lon="0.37861">
        <ele>138</ele>
        <time>2022-01-16T08:32:18Z</time>
      </trkpt>
      <trkpt lat="46.50897" lon="0.37873">
        <ele>136.8</ele>
        <time>2022-01-16T08:32:20Z</time>
      </trkpt>
      <trkpt lat="46.50908" lon="0.37899">
        <ele>135.8</ele>
        <time>2022-01-16T08:32:24Z</time>
      </trkpt>
      <trkpt lat="46.50912" lon="0.37905">
        <ele>135.6</ele>
        <time>2022-01-16T08:32:25Z</time>
      </trkpt>
      <trkpt lat="46.50922" lon="0.3792">
        <ele>134.8</ele>
        <time>2022-01-16T08:32:28Z</time>
      </trkpt>
      <trkpt lat="46.50928" lon="0.37926">
        <ele>134.2</ele>
        <time>2022-01-16T08:32:30Z</time>
      </trkpt>
      <trkpt lat="46.50949" lon="0.37936">
        <ele>134.2</ele>
        <time>2022-01-16T08:32:35Z</time>
      </trkpt>
      <trkpt lat="46.50964" lon="0.37942">
        <ele>134</ele>
        <time>2022-01-16T08:32:38Z</time>
      </trkpt>
      <trkpt lat="46.50973" lon="0.37944">
        <ele>133.8</ele>
        <time>2022-01-16T08:32:40Z</time>
      </trkpt>
      <trkpt lat="46.50977" lon="0.37945">
        <ele>133.6</ele>
        <time>2022-01-16T08:32:41Z</time>
      </trkpt>
      <trkpt lat="46.50986" lon="0.37945">
        <ele>133.2</ele>
        <time>2022-01-16T08:32:43Z</time>
      </trkpt>
      <trkpt lat="46.50997" lon="0.37946">
        <ele>132.8</ele>
        <time>2022-01-16T08:32:45Z</time>
      </trkpt>
      <trkpt lat="46.51002" lon="0.37946">
        <ele>132.6</ele>
        <time>2022-01-16T08:32:46Z</time>
      </trkpt>
      <trkpt lat="46.5103" lon="0.37941">
        <ele>132</ele>
        <time>2022-01-16T08:32:51Z</time>
      </trkpt>
      <trkpt lat="46.51043" lon="0.37939">
        <ele>132</ele>
        <time>2022-01-16T08:32:53Z</time>
      </trkpt>
      <trkpt lat="46.51066" lon="0.37938">
        <ele>131</ele>
        <time>2022-01-16T08:32:56Z</time>
      </trkpt>
      <trkpt lat="46.51099" lon="0.37942">
        <ele>130</ele>
        <time>2022-01-16T08:33:01Z</time>
      </trkpt>
      <trkpt lat="46.51104" lon="0.37944">
        <ele>129.8</ele>
        <time>2022-01-16T08:33:02Z</time>
      </trkpt>
      <trkpt lat="46.51131" lon="0.37949">
        <ele>128.6</ele>
        <time>2022-01-16T08:33:07Z</time>
      </trkpt>
      <trkpt lat="46.51137" lon="0.3795">
        <ele>128.4</ele>
        <time>2022-01-16T08:33:08Z</time>
      </trkpt>
      <trkpt lat="46.51146" lon="0.37951">
        <ele>128.2</ele>
        <time>2022-01-16T08:33:10Z</time>
      </trkpt>
      <trkpt lat="46.51165" lon="0.37952">
        <ele>129.4</ele>
        <time>2022-01-16T08:33:14Z</time>
      </trkpt>
      <trkpt lat="46.51175" lon="0.37953">
        <ele>129.8</ele>
        <time>2022-01-16T08:33:16Z</time>
      </trkpt>
      <trkpt lat="46.51193" lon="0.37958">
        <ele>130.2</ele>
        <time>2022-01-16T08:33:20Z</time>
      </trkpt>
      <trkpt lat="46.51197" lon="0.3796">
        <ele>130.2</ele>
        <time>2022-01-16T08:33:21Z</time>
      </trkpt>
      <trkpt lat="46.51214" lon="0.37971">
        <ele>130.2</ele>
        <time>2022-01-16T08:33:25Z</time>
      </trkpt>
      <trkpt lat="46.51241" lon="0.37982">
        <ele>130.2</ele>
        <time>2022-01-16T08:33:30Z</time>
      </trkpt>
      <trkpt lat="46.51259" lon="0.3799">
        <ele>130.6</ele>
        <time>2022-01-16T08:33:34Z</time>
      </trkpt>
      <trkpt lat="46.51262" lon="0.37993">
        <ele>130.6</ele>
        <time>2022-01-16T08:33:35Z</time>
      </trkpt>
      <trkpt lat="46.51268" lon="0.37998">
        <ele>130.2</ele>
        <time>2022-01-16T08:33:39Z</time>
      </trkpt>
      <trkpt lat="46.5128" lon="0.38009">
        <ele>129.8</ele>
        <time>2022-01-16T08:33:43Z</time>
      </trkpt>
      <trkpt lat="46.51292" lon="0.38026">
        <ele>129.6</ele>
        <time>2022-01-16T08:33:46Z</time>
      </trkpt>
      <trkpt lat="46.51296" lon="0.38031">
        <ele>129.4</ele>
        <time>2022-01-16T08:33:47Z</time>
      </trkpt>
      <trkpt lat="46.51302" lon="0.38035">
        <ele>129.2</ele>
        <time>2022-01-16T08:33:48Z</time>
      </trkpt>
      <trkpt lat="46.51316" lon="0.3804">
        <ele>129</ele>
        <time>2022-01-16T08:33:51Z</time>
      </trkpt>
      <trkpt lat="46.51326" lon="0.38041">
        <ele>128.8</ele>
        <time>2022-01-16T08:33:53Z</time>
      </trkpt>
      <trkpt lat="46.51338" lon="0.38041">
        <ele>129</ele>
        <time>2022-01-16T08:33:56Z</time>
      </trkpt>
      <trkpt lat="46.51361" lon="0.38041">
        <ele>129.4</ele>
        <time>2022-01-16T08:34:02Z</time>
      </trkpt>
      <trkpt lat="46.5137" lon="0.38041">
        <ele>129.4</ele>
        <time>2022-01-16T08:34:05Z</time>
      </trkpt>
      <trkpt lat="46.51378" lon="0.38043">
        <ele>129</ele>
        <time>2022-01-16T08:34:08Z</time>
      </trkpt>
      <trkpt lat="46.51379" lon="0.38044">
        <ele>128.6</ele>
        <time>2022-01-16T08:34:09Z</time>
      </trkpt>
      <trkpt lat="46.51385" lon="0.38047">
        <ele>127.2</ele>
        <time>2022-01-16T08:34:12Z</time>
      </trkpt>
      <trkpt lat="46.51386" lon="0.38048">
        <ele>126.6</ele>
        <time>2022-01-16T08:34:13Z</time>
      </trkpt>
      <trkpt lat="46.5139" lon="0.3805">
        <ele>125.8</ele>
        <time>2022-01-16T08:34:15Z</time>
      </trkpt>
      <trkpt lat="46.51395" lon="0.38051">
        <ele>124.6</ele>
        <time>2022-01-16T08:34:17Z</time>
      </trkpt>
      <trkpt lat="46.51399" lon="0.38052">
        <ele>124</ele>
        <time>2022-01-16T08:34:19Z</time>
      </trkpt>
      <trkpt lat="46.51399" lon="0.38052">
        <ele>123.4</ele>
        <time>2022-01-16T08:34:20Z</time>
      </trkpt>
      <trkpt lat="46.51412" lon="0.38055">
        <ele>123</ele>
        <time>2022-01-16T08:34:22Z</time>
      </trkpt>
      <trkpt lat="46.51416" lon="0.38062">
        <ele>122.6</ele>
        <time>2022-01-16T08:34:24Z</time>
      </trkpt>
      <trkpt lat="46.51418" lon="0.38066">
        <ele>122.2</ele>
        <time>2022-01-16T08:34:25Z</time>
      </trkpt>
      <trkpt lat="46.51424" lon="0.38075">
        <ele>121</ele>
        <time>2022-01-16T08:34:28Z</time>
      </trkpt>
      <trkpt lat="46.51427" lon="0.38079">
        <ele>120.6</ele>
        <time>2022-01-16T08:34:29Z</time>
      </trkpt>
      <trkpt lat="46.51434" lon="0.38082">
        <ele>120</ele>
        <time>2022-01-16T08:34:31Z</time>
      </trkpt>
      <trkpt lat="46.51445" lon="0.38087">
        <ele>119.8</ele>
        <time>2022-01-16T08:34:34Z</time>
      </trkpt>
      <trkpt lat="46.51472" lon="0.38097">
        <ele>120.4</ele>
        <time>2022-01-16T08:34:40Z</time>
      </trkpt>
      <trkpt lat="46.51497" lon="0.38104">
        <ele>121</ele>
        <time>2022-01-16T08:34:46Z</time>
      </trkpt>
      <trkpt lat="46.51524" lon="0.38113">
        <ele>121.4</ele>
        <time>2022-01-16T08:34:53Z</time>
      </trkpt>
      <trkpt lat="46.51548" lon="0.38117">
        <ele>122</ele>
        <time>2022-01-16T08:34:58Z</time>
      </trkpt>
      <trkpt lat="46.51552" lon="0.38116">
        <ele>122.2</ele>
        <time>2022-01-16T08:34:59Z</time>
      </trkpt>
      <trkpt lat="46.51559" lon="0.38115">
        <ele>122.2</ele>
        <time>2022-01-16T08:35:01Z</time>
      </trkpt>
      <trkpt lat="46.51568" lon="0.38114">
        <ele>122.4</ele>
        <time>2022-01-16T08:35:04Z</time>
      </trkpt>
      <trkpt lat="46.51572" lon="0.38113">
        <ele>122.4</ele>
        <time>2022-01-16T08:35:05Z</time>
      </trkpt>
      <trkpt lat="46.51575" lon="0.38113">
        <ele>122.6</ele>
        <time>2022-01-16T08:35:06Z</time>
      </trkpt>
      <trkpt lat="46.51588" lon="0.38114">
        <ele>123</ele>
        <time>2022-01-16T08:35:10Z</time>
      </trkpt>
      <trkpt lat="46.51594" lon="0.38114">
        <ele>123</ele>
        <time>2022-01-16T08:35:12Z</time>
      </trkpt>
      <trkpt lat="46.516" lon="0.38115">
        <ele>123</ele>
        <time>2022-01-16T08:35:14Z</time>
      </trkpt>
      <trkpt lat="46.51601" lon="0.38112">
        <ele>123</ele>
        <time>2022-01-16T08:35:16Z</time>
      </trkpt>
      <trkpt lat="46.51601" lon="0.38111">
        <ele>123</ele>
        <time>2022-01-16T08:35:18Z</time>
      </trkpt>
      <trkpt lat="46.51599" lon="0.38112">
        <ele>123</ele>
        <time>2022-01-16T08:35:20Z</time>
      </trkpt>
      <trkpt lat="46.51589" lon="0.38117">
        <ele>123.2</ele>
        <time>2022-01-16T08:35:24Z</time>
      </trkpt>
      <trkpt lat="46.51562" lon="0.38123">
        <ele>122.6</ele>
        <time>2022-01-16T08:35:31Z</time>
      </trkpt>
      <trkpt lat="46.51559" lon="0.38123">
        <ele>122.4</ele>
        <time>2022-01-16T08:35:32Z</time>
      </trkpt>
      <trkpt lat="46.51547" lon="0.38123">
        <ele>122</ele>
        <time>2022-01-16T08:35:35Z</time>
      </trkpt>
      <trkpt lat="46.51537" lon="0.38123">
        <ele>122</ele>
        <time>2022-01-16T08:35:37Z</time>
      </trkpt>
      <trkpt lat="46.51502" lon="0.38118">
        <ele>121.2</ele>
        <time>2022-01-16T08:35:43Z</time>
      </trkpt>
      <trkpt lat="46.51497" lon="0.38116">
        <ele>121.2</ele>
        <time>2022-01-16T08:35:44Z</time>
      </trkpt>
      <trkpt lat="46.51491" lon="0.38114">
        <ele>120.6</ele>
        <time>2022-01-16T08:35:45Z</time>
      </trkpt>
      <trkpt lat="46.51468" lon="0.38109">
        <ele>120</ele>
        <time>2022-01-16T08:35:49Z</time>
      </trkpt>
      <trkpt lat="46.51433" lon="0.38103">
        <ele>119.4</ele>
        <time>2022-01-16T08:35:55Z</time>
      </trkpt>
      <trkpt lat="46.5142" lon="0.38103">
        <ele>119</ele>
        <time>2022-01-16T08:35:57Z</time>
      </trkpt>
      <trkpt lat="46.51404" lon="0.38107">
        <ele>118.6</ele>
        <time>2022-01-16T08:36:00Z</time>
      </trkpt>
      <trkpt lat="46.51401" lon="0.3811">
        <ele>118.4</ele>
        <time>2022-01-16T08:36:01Z</time>
      </trkpt>
      <trkpt lat="46.514" lon="0.38114">
        <ele>118.2</ele>
        <time>2022-01-16T08:36:02Z</time>
      </trkpt>
      <trkpt lat="46.51399" lon="0.38118">
        <ele>118.2</ele>
        <time>2022-01-16T08:36:03Z</time>
      </trkpt>
      <trkpt lat="46.514" lon="0.38122">
        <ele>117.2</ele>
        <time>2022-01-16T08:36:04Z</time>
      </trkpt>
      <trkpt lat="46.51405" lon="0.38134">
        <ele>116.2</ele>
        <time>2022-01-16T08:36:07Z</time>
      </trkpt>
      <trkpt lat="46.51408" lon="0.38137">
        <ele>116.2</ele>
        <time>2022-01-16T08:36:08Z</time>
      </trkpt>
      <trkpt lat="46.51417" lon="0.38141">
        <ele>116.2</ele>
        <time>2022-01-16T08:36:11Z</time>
      </trkpt>
      <trkpt lat="46.51423" lon="0.38145">
        <ele>116.2</ele>
        <time>2022-01-16T08:36:13Z</time>
      </trkpt>
      <trkpt lat="46.51431" lon="0.38152">
        <ele>116.2</ele>
        <time>2022-01-16T08:36:15Z</time>
      </trkpt>
      <trkpt lat="46.51435" lon="0.38154">
        <ele>116.2</ele>
        <time>2022-01-16T08:36:16Z</time>
      </trkpt>
      <trkpt lat="46.5144" lon="0.38156">
        <ele>116.2</ele>
        <time>2022-01-16T08:36:17Z</time>
      </trkpt>
      <trkpt lat="46.5145" lon="0.38157">
        <ele>116.6</ele>
        <time>2022-01-16T08:36:19Z</time>
      </trkpt>
      <trkpt lat="46.51458" lon="0.38159">
        <ele>116.4</ele>
        <time>2022-01-16T08:36:21Z</time>
      </trkpt>
      <trkpt lat="46.51465" lon="0.38161">
        <ele>116.4</ele>
        <time>2022-01-16T08:36:23Z</time>
      </trkpt>
      <trkpt lat="46.51469" lon="0.3816">
        <ele>116.4</ele>
        <time>2022-01-16T08:36:25Z</time>
      </trkpt>
      <trkpt lat="46.51471" lon="0.38159">
        <ele>116.4</ele>
        <time>2022-01-16T08:36:26Z</time>
      </trkpt>
      <trkpt lat="46.51473" lon="0.38156">
        <ele>116.4</ele>
        <time>2022-01-16T08:36:28Z</time>
      </trkpt>
      <trkpt lat="46.51477" lon="0.38155">
        <ele>116.8</ele>
        <time>2022-01-16T08:36:31Z</time>
      </trkpt>
      <trkpt lat="46.51487" lon="0.38165">
        <ele>116.8</ele>
        <time>2022-01-16T08:36:36Z</time>
      </trkpt>
      <trkpt lat="46.51496" lon="0.38174">
        <ele>116.6</ele>
        <time>2022-01-16T08:36:40Z</time>
      </trkpt>
      <trkpt lat="46.51507" lon="0.38179">
        <ele>116.8</ele>
        <time>2022-01-16T08:36:44Z</time>
      </trkpt>
      <trkpt lat="46.51514" lon="0.38181">
        <ele>117</ele>
        <time>2022-01-16T08:36:46Z</time>
      </trkpt>
      <trkpt lat="46.51521" lon="0.38183">
        <ele>117</ele>
        <time>2022-01-16T08:36:48Z</time>
      </trkpt>
      <trkpt lat="46.51524" lon="0.38185">
        <ele>117</ele>
        <time>2022-01-16T08:36:49Z</time>
      </trkpt>
      <trkpt lat="46.51527" lon="0.38187">
        <ele>117</ele>
        <time>2022-01-16T08:36:50Z</time>
      </trkpt>
      <trkpt lat="46.51532" lon="0.38194">
        <ele>117</ele>
        <time>2022-01-16T08:36:52Z</time>
      </trkpt>
      <trkpt lat="46.51535" lon="0.38196">
        <ele>117</ele>
        <time>2022-01-16T08:36:53Z</time>
      </trkpt>
      <trkpt lat="46.51539" lon="0.38199">
        <ele>116.8</ele>
        <time>2022-01-16T08:36:54Z</time>
      </trkpt>
      <trkpt lat="46.51559" lon="0.38209">
        <ele>116.8</ele>
        <time>2022-01-16T08:36:58Z</time>
      </trkpt>
      <trkpt lat="46.51594" lon="0.38221">
        <ele>116.6</ele>
        <time>2022-01-16T08:37:05Z</time>
      </trkpt>
      <trkpt lat="46.51599" lon="0.38223">
        <ele>116.6</ele>
        <time>2022-01-16T08:37:06Z</time>
      </trkpt>
      <trkpt lat="46.5161" lon="0.3823">
        <ele>116.6</ele>
        <time>2022-01-16T08:37:09Z</time>
      </trkpt>
      <trkpt lat="46.51614" lon="0.38232">
        <ele>116.6</ele>
        <time>2022-01-16T08:37:10Z</time>
      </trkpt>
      <trkpt lat="46.51619" lon="0.38234">
        <ele>116.4</ele>
        <time>2022-01-16T08:37:12Z</time>
      </trkpt>
      <trkpt lat="46.51624" lon="0.38233">
        <ele>116.4</ele>
        <time>2022-01-16T08:37:14Z</time>
      </trkpt>
      <trkpt lat="46.51632" lon="0.38235">
        <ele>116.4</ele>
        <time>2022-01-16T08:37:17Z</time>
      </trkpt>
      <trkpt lat="46.5164" lon="0.38239">
        <ele>116.4</ele>
        <time>2022-01-16T08:37:19Z</time>
      </trkpt>
      <trkpt lat="46.5165" lon="0.38244">
        <ele>116.2</ele>
        <time>2022-01-16T08:37:21Z</time>
      </trkpt>
      <trkpt lat="46.51663" lon="0.38252">
        <ele>115.8</ele>
        <time>2022-01-16T08:37:24Z</time>
      </trkpt>
      <trkpt lat="46.51691" lon="0.38271">
        <ele>115.6</ele>
        <time>2022-01-16T08:37:30Z</time>
      </trkpt>
      <trkpt lat="46.51715" lon="0.38292">
        <ele>116.2</ele>
        <time>2022-01-16T08:37:36Z</time>
      </trkpt>
      <trkpt lat="46.51721" lon="0.38301">
        <ele>116.6</ele>
        <time>2022-01-16T08:37:38Z</time>
      </trkpt>
      <trkpt lat="46.51725" lon="0.3831">
        <ele>117.2</ele>
        <time>2022-01-16T08:37:40Z</time>
      </trkpt>
      <trkpt lat="46.51727" lon="0.38314">
        <ele>117.4</ele>
        <time>2022-01-16T08:37:41Z</time>
      </trkpt>
      <trkpt lat="46.51734" lon="0.3832">
        <ele>118</ele>
        <time>2022-01-16T08:37:45Z</time>
      </trkpt>
      <trkpt lat="46.51738" lon="0.38322">
        <ele>118.6</ele>
        <time>2022-01-16T08:37:47Z</time>
      </trkpt>
      <trkpt lat="46.51746" lon="0.38329">
        <ele>120</ele>
        <time>2022-01-16T08:37:52Z</time>
      </trkpt>
      <trkpt lat="46.51749" lon="0.38331">
        <ele>120.4</ele>
        <time>2022-01-16T08:37:53Z</time>
      </trkpt>
      <trkpt lat="46.51753" lon="0.38333">
        <ele>121.2</ele>
        <time>2022-01-16T08:37:55Z</time>
      </trkpt>
      <trkpt lat="46.5176" lon="0.38341">
        <ele>122.2</ele>
        <time>2022-01-16T08:38:00Z</time>
      </trkpt>
      <trkpt lat="46.51762" lon="0.38342">
        <ele>122.4</ele>
        <time>2022-01-16T08:38:01Z</time>
      </trkpt>
      <trkpt lat="46.51765" lon="0.38343">
        <ele>123</ele>
        <time>2022-01-16T08:38:03Z</time>
      </trkpt>
      <trkpt lat="46.51769" lon="0.38345">
        <ele>123.4</ele>
        <time>2022-01-16T08:38:05Z</time>
      </trkpt>
      <trkpt lat="46.51771" lon="0.38347">
        <ele>123.6</ele>
        <time>2022-01-16T08:38:06Z</time>
      </trkpt>
      <trkpt lat="46.51786" lon="0.38353">
        <ele>124.8</ele>
        <time>2022-01-16T08:38:12Z</time>
      </trkpt>
      <trkpt lat="46.51799" lon="0.3836">
        <ele>125.8</ele>
        <time>2022-01-16T08:38:18Z</time>
      </trkpt>
      <trkpt lat="46.51802" lon="0.38361">
        <ele>126</ele>
        <time>2022-01-16T08:38:19Z</time>
      </trkpt>
      <trkpt lat="46.51813" lon="0.38367">
        <ele>127</ele>
        <time>2022-01-16T08:38:24Z</time>
      </trkpt>
      <trkpt lat="46.51823" lon="0.38375">
        <ele>128.2</ele>
        <time>2022-01-16T08:38:30Z</time>
      </trkpt>
      <trkpt lat="46.51824" lon="0.38377">
        <ele>128.4</ele>
        <time>2022-01-16T08:38:31Z</time>
      </trkpt>
      <trkpt lat="46.51825" lon="0.38379">
        <ele>128.6</ele>
        <time>2022-01-16T08:38:32Z</time>
      </trkpt>
      <trkpt lat="46.51833" lon="0.3839">
        <ele>129.4</ele>
        <time>2022-01-16T08:38:37Z</time>
      </trkpt>
      <trkpt lat="46.51834" lon="0.38392">
        <ele>129.4</ele>
        <time>2022-01-16T08:38:38Z</time>
      </trkpt>
      <trkpt lat="46.5184" lon="0.38402">
        <ele>130.4</ele>
        <time>2022-01-16T08:38:42Z</time>
      </trkpt>
      <trkpt lat="46.51848" lon="0.38411">
        <ele>131</ele>
        <time>2022-01-16T08:38:46Z</time>
      </trkpt>
      <trkpt lat="46.5185" lon="0.38415">
        <ele>131.4</ele>
        <time>2022-01-16T08:38:48Z</time>
      </trkpt>
      <trkpt lat="46.51855" lon="0.38427">
        <ele>132.2</ele>
        <time>2022-01-16T08:38:54Z</time>
      </trkpt>
      <trkpt lat="46.51857" lon="0.38429">
        <ele>132.4</ele>
        <time>2022-01-16T08:38:55Z</time>
      </trkpt>
      <trkpt lat="46.51858" lon="0.38431">
        <ele>132.6</ele>
        <time>2022-01-16T08:38:56Z</time>
      </trkpt>
      <trkpt lat="46.51859" lon="0.38429">
        <ele>132.6</ele>
        <time>2022-01-16T08:38:58Z</time>
      </trkpt>
      <trkpt lat="46.51859" lon="0.38421">
        <ele>132.4</ele>
        <time>2022-01-16T08:39:01Z</time>
      </trkpt>
      <trkpt lat="46.51856" lon="0.38413">
        <ele>131.8</ele>
        <time>2022-01-16T08:39:03Z</time>
      </trkpt>
      <trkpt lat="46.51854" lon="0.38409">
        <ele>131.2</ele>
        <time>2022-01-16T08:39:04Z</time>
      </trkpt>
      <trkpt lat="46.51851" lon="0.384">
        <ele>129.8</ele>
        <time>2022-01-16T08:39:06Z</time>
      </trkpt>
      <trkpt lat="46.51848" lon="0.38391">
        <ele>128.6</ele>
        <time>2022-01-16T08:39:08Z</time>
      </trkpt>
      <trkpt lat="46.51848" lon="0.38386">
        <ele>127.4</ele>
        <time>2022-01-16T08:39:09Z</time>
      </trkpt>
      <trkpt lat="46.51848" lon="0.3838">
        <ele>126.6</ele>
        <time>2022-01-16T08:39:10Z</time>
      </trkpt>
      <trkpt lat="46.51849" lon="0.38374">
        <ele>125.6</ele>
        <time>2022-01-16T08:39:11Z</time>
      </trkpt>
      <trkpt lat="46.51856" lon="0.38361">
        <ele>123.8</ele>
        <time>2022-01-16T08:39:13Z</time>
      </trkpt>
      <trkpt lat="46.5186" lon="0.38354">
        <ele>122.6</ele>
        <time>2022-01-16T08:39:14Z</time>
      </trkpt>
      <trkpt lat="46.51868" lon="0.38342">
        <ele>121</ele>
        <time>2022-01-16T08:39:16Z</time>
      </trkpt>
      <trkpt lat="46.51871" lon="0.38336">
        <ele>120</ele>
        <time>2022-01-16T08:39:17Z</time>
      </trkpt>
      <trkpt lat="46.51875" lon="0.38331">
        <ele>118.8</ele>
        <time>2022-01-16T08:39:18Z</time>
      </trkpt>
      <trkpt lat="46.51879" lon="0.38327">
        <ele>118.2</ele>
        <time>2022-01-16T08:39:19Z</time>
      </trkpt>
      <trkpt lat="46.51882" lon="0.38322">
        <ele>118</ele>
        <time>2022-01-16T08:39:20Z</time>
      </trkpt>
      <trkpt lat="46.51885" lon="0.38317">
        <ele>117.8</ele>
        <time>2022-01-16T08:39:21Z</time>
      </trkpt>
      <trkpt lat="46.51893" lon="0.38302">
        <ele>117.2</ele>
        <time>2022-01-16T08:39:24Z</time>
      </trkpt>
      <trkpt lat="46.51911" lon="0.38263">
        <ele>117.2</ele>
        <time>2022-01-16T08:39:30Z</time>
      </trkpt>
      <trkpt lat="46.51923" lon="0.38237">
        <ele>117.2</ele>
        <time>2022-01-16T08:39:34Z</time>
      </trkpt>
      <trkpt lat="46.51929" lon="0.38223">
        <ele>117.6</ele>
        <time>2022-01-16T08:39:37Z</time>
      </trkpt>
      <trkpt lat="46.51942" lon="0.38191">
        <ele>117.2</ele>
        <time>2022-01-16T08:39:43Z</time>
      </trkpt>
      <trkpt lat="46.51954" lon="0.38161">
        <ele>117</ele>
        <time>2022-01-16T08:39:48Z</time>
      </trkpt>
      <trkpt lat="46.51959" lon="0.38148">
        <ele>116.6</ele>
        <time>2022-01-16T08:39:50Z</time>
      </trkpt>
      <trkpt lat="46.51964" lon="0.3813">
        <ele>116.6</ele>
        <time>2022-01-16T08:39:53Z</time>
      </trkpt>
      <trkpt lat="46.51969" lon="0.38113">
        <ele>116.4</ele>
        <time>2022-01-16T08:39:56Z</time>
      </trkpt>
      <trkpt lat="46.51972" lon="0.38107">
        <ele>116.4</ele>
        <time>2022-01-16T08:39:57Z</time>
      </trkpt>
      <trkpt lat="46.51977" lon="0.3809">
        <ele>116.4</ele>
        <time>2022-01-16T08:40:00Z</time>
      </trkpt>
      <trkpt lat="46.51978" lon="0.38084">
        <ele>116.4</ele>
        <time>2022-01-16T08:40:01Z</time>
      </trkpt>
      <trkpt lat="46.51985" lon="0.38044">
        <ele>116.4</ele>
        <time>2022-01-16T08:40:08Z</time>
      </trkpt>
      <trkpt lat="46.51994" lon="0.38005">
        <ele>116.6</ele>
        <time>2022-01-16T08:40:16Z</time>
      </trkpt>
      <trkpt lat="46.52002" lon="0.37991">
        <ele>116.6</ele>
        <time>2022-01-16T08:40:20Z</time>
      </trkpt>
      <trkpt lat="46.52005" lon="0.3799">
        <ele>116.6</ele>
        <time>2022-01-16T08:40:21Z</time>
      </trkpt>
      <trkpt lat="46.52009" lon="0.37991">
        <ele>116.4</ele>
        <time>2022-01-16T08:40:23Z</time>
      </trkpt>
      <trkpt lat="46.52013" lon="0.37993">
        <ele>116.8</ele>
        <time>2022-01-16T08:40:25Z</time>
      </trkpt>
      <trkpt lat="46.52022" lon="0.3799">
        <ele>117.8</ele>
        <time>2022-01-16T08:40:30Z</time>
      </trkpt>
      <trkpt lat="46.52023" lon="0.37991">
        <ele>118.4</ele>
        <time>2022-01-16T08:40:31Z</time>
      </trkpt>
      <trkpt lat="46.52025" lon="0.37992">
        <ele>118.8</ele>
        <time>2022-01-16T08:40:32Z</time>
      </trkpt>
      <trkpt lat="46.5203" lon="0.37995">
        <ele>119.6</ele>
        <time>2022-01-16T08:40:35Z</time>
      </trkpt>
      <trkpt lat="46.52033" lon="0.37997">
        <ele>120</ele>
        <time>2022-01-16T08:40:37Z</time>
      </trkpt>
      <trkpt lat="46.52037" lon="0.37999">
        <ele>121</ele>
        <time>2022-01-16T08:40:41Z</time>
      </trkpt>
      <trkpt lat="46.52038" lon="0.38">
        <ele>121.2</ele>
        <time>2022-01-16T08:40:42Z</time>
      </trkpt>
      <trkpt lat="46.52041" lon="0.38002">
        <ele>122.2</ele>
        <time>2022-01-16T08:40:45Z</time>
      </trkpt>
      <trkpt lat="46.52043" lon="0.38003">
        <ele>122.6</ele>
        <time>2022-01-16T08:40:46Z</time>
      </trkpt>
      <trkpt lat="46.52047" lon="0.38006">
        <ele>123.4</ele>
        <time>2022-01-16T08:40:50Z</time>
      </trkpt>
      <trkpt lat="46.52051" lon="0.38009">
        <ele>124.2</ele>
        <time>2022-01-16T08:40:53Z</time>
      </trkpt>
      <trkpt lat="46.52053" lon="0.38009">
        <ele>124.6</ele>
        <time>2022-01-16T08:40:54Z</time>
      </trkpt>
      <trkpt lat="46.52057" lon="0.38011">
        <ele>125.6</ele>
        <time>2022-01-16T08:40:57Z</time>
      </trkpt>
      <trkpt lat="46.52061" lon="0.38012">
        <ele>126.4</ele>
        <time>2022-01-16T08:41:00Z</time>
      </trkpt>
      <trkpt lat="46.52062" lon="0.38012">
        <ele>126.6</ele>
        <time>2022-01-16T08:41:01Z</time>
      </trkpt>
      <trkpt lat="46.52064" lon="0.38011">
        <ele>127.2</ele>
        <time>2022-01-16T08:41:03Z</time>
      </trkpt>
      <trkpt lat="46.52066" lon="0.38011">
        <ele>128</ele>
        <time>2022-01-16T08:41:05Z</time>
      </trkpt>
      <trkpt lat="46.52068" lon="0.38011">
        <ele>128.6</ele>
        <time>2022-01-16T08:41:06Z</time>
      </trkpt>
      <trkpt lat="46.5207" lon="0.38012">
        <ele>129.2</ele>
        <time>2022-01-16T08:41:08Z</time>
      </trkpt>
      <trkpt lat="46.52077" lon="0.38013">
        <ele>130.4</ele>
        <time>2022-01-16T08:41:13Z</time>
      </trkpt>
      <trkpt lat="46.52079" lon="0.38014">
        <ele>131</ele>
        <time>2022-01-16T08:41:15Z</time>
      </trkpt>
      <trkpt lat="46.52081" lon="0.38015">
        <ele>131.6</ele>
        <time>2022-01-16T08:41:17Z</time>
      </trkpt>
      <trkpt lat="46.52084" lon="0.38015">
        <ele>132.8</ele>
        <time>2022-01-16T08:41:20Z</time>
      </trkpt>
      <trkpt lat="46.52088" lon="0.38016">
        <ele>133.4</ele>
        <time>2022-01-16T08:41:23Z</time>
      </trkpt>
      <trkpt lat="46.52092" lon="0.38016">
        <ele>134.2</ele>
        <time>2022-01-16T08:41:25Z</time>
      </trkpt>
      <trkpt lat="46.52097" lon="0.38016">
        <ele>135</ele>
        <time>2022-01-16T08:41:28Z</time>
      </trkpt>
      <trkpt lat="46.52101" lon="0.38015">
        <ele>135.2</ele>
        <time>2022-01-16T08:41:30Z</time>
      </trkpt>
      <trkpt lat="46.52108" lon="0.38014">
        <ele>136.4</ele>
        <time>2022-01-16T08:41:35Z</time>
      </trkpt>
      <trkpt lat="46.52113" lon="0.38013">
        <ele>137.4</ele>
        <time>2022-01-16T08:41:39Z</time>
      </trkpt>
      <trkpt lat="46.52115" lon="0.38012">
        <ele>137.6</ele>
        <time>2022-01-16T08:41:40Z</time>
      </trkpt>
      <trkpt lat="46.52122" lon="0.38011">
        <ele>138.6</ele>
        <time>2022-01-16T08:41:45Z</time>
      </trkpt>
      <trkpt lat="46.52133" lon="0.38007">
        <ele>139.6</ele>
        <time>2022-01-16T08:41:52Z</time>
      </trkpt>
      <trkpt lat="46.52135" lon="0.38006">
        <ele>139.6</ele>
        <time>2022-01-16T08:41:53Z</time>
      </trkpt>
      <trkpt lat="46.52148" lon="0.38">
        <ele>140.4</ele>
        <time>2022-01-16T08:42:00Z</time>
      </trkpt>
      <trkpt lat="46.52156" lon="0.37996">
        <ele>140.6</ele>
        <time>2022-01-16T08:42:04Z</time>
      </trkpt>
      <trkpt lat="46.52163" lon="0.37992">
        <ele>141.4</ele>
        <time>2022-01-16T08:42:08Z</time>
      </trkpt>
      <trkpt lat="46.52168" lon="0.37987">
        <ele>141.6</ele>
        <time>2022-01-16T08:42:11Z</time>
      </trkpt>
      <trkpt lat="46.52176" lon="0.37978">
        <ele>141.8</ele>
        <time>2022-01-16T08:42:16Z</time>
      </trkpt>
      <trkpt lat="46.5219" lon="0.37964">
        <ele>142.2</ele>
        <time>2022-01-16T08:42:23Z</time>
      </trkpt>
      <trkpt lat="46.52198" lon="0.37956">
        <ele>142.4</ele>
        <time>2022-01-16T08:42:27Z</time>
      </trkpt>
      <trkpt lat="46.52202" lon="0.37955">
        <ele>142.4</ele>
        <time>2022-01-16T08:42:29Z</time>
      </trkpt>
      <trkpt lat="46.52203" lon="0.37954">
        <ele>142.4</ele>
        <time>2022-01-16T08:42:30Z</time>
      </trkpt>
      <trkpt lat="46.52207" lon="0.37953">
        <ele>141.8</ele>
        <time>2022-01-16T08:42:37Z</time>
      </trkpt>
      <trkpt lat="46.52207" lon="0.37953">
        <ele>141.8</ele>
        <time>2022-01-16T08:42:52Z</time>
      </trkpt>
      <trkpt lat="46.52213" lon="0.37943">
        <ele>141.8</ele>
        <time>2022-01-16T08:43:02Z</time>
      </trkpt>
      <trkpt lat="46.5222" lon="0.3793">
        <ele>141.8</ele>
        <time>2022-01-16T08:43:07Z</time>
      </trkpt>
      <trkpt lat="46.52232" lon="0.37917">
        <ele>141.2</ele>
        <time>2022-01-16T08:43:12Z</time>
      </trkpt>
      <trkpt lat="46.52252" lon="0.379">
        <ele>140.6</ele>
        <time>2022-01-16T08:43:19Z</time>
      </trkpt>
      <trkpt lat="46.5226" lon="0.37898">
        <ele>140.6</ele>
        <time>2022-01-16T08:43:21Z</time>
      </trkpt>
      <trkpt lat="46.5227" lon="0.379">
        <ele>140.6</ele>
        <time>2022-01-16T08:43:23Z</time>
      </trkpt>
      <trkpt lat="46.52277" lon="0.37906">
        <ele>140.6</ele>
        <time>2022-01-16T08:43:25Z</time>
      </trkpt>
      <trkpt lat="46.52288" lon="0.37916">
        <ele>140.6</ele>
        <time>2022-01-16T08:43:28Z</time>
      </trkpt>
      <trkpt lat="46.52293" lon="0.37923">
        <ele>141.2</ele>
        <time>2022-01-16T08:43:30Z</time>
      </trkpt>
      <trkpt lat="46.52302" lon="0.37931">
        <ele>141.6</ele>
        <time>2022-01-16T08:43:33Z</time>
      </trkpt>
      <trkpt lat="46.52308" lon="0.37936">
        <ele>142</ele>
        <time>2022-01-16T08:43:35Z</time>
      </trkpt>
      <trkpt lat="46.52322" lon="0.37946">
        <ele>142.4</ele>
        <time>2022-01-16T08:43:41Z</time>
      </trkpt>
      <trkpt lat="46.52324" lon="0.37936">
        <ele>142.4</ele>
        <time>2022-01-16T08:43:45Z</time>
      </trkpt>
      <trkpt lat="46.52323" lon="0.37907">
        <ele>141.2</ele>
        <time>2022-01-16T08:43:50Z</time>
      </trkpt>
      <trkpt lat="46.52323" lon="0.37893">
        <ele>140.2</ele>
        <time>2022-01-16T08:43:52Z</time>
      </trkpt>
      <trkpt lat="46.52324" lon="0.37882">
        <ele>139.2</ele>
        <time>2022-01-16T08:43:54Z</time>
      </trkpt>
      <trkpt lat="46.52326" lon="0.37879">
        <ele>138.8</ele>
        <time>2022-01-16T08:43:55Z</time>
      </trkpt>
      <trkpt lat="46.52329" lon="0.37875">
        <ele>137.8</ele>
        <time>2022-01-16T08:43:57Z</time>
      </trkpt>
      <trkpt lat="46.52335" lon="0.37874">
        <ele>137.4</ele>
        <time>2022-01-16T08:43:59Z</time>
      </trkpt>
      <trkpt lat="46.52352" lon="0.37875">
        <ele>136.8</ele>
        <time>2022-01-16T08:44:03Z</time>
      </trkpt>
      <trkpt lat="46.52358" lon="0.37875">
        <ele>136.8</ele>
        <time>2022-01-16T08:44:04Z</time>
      </trkpt>
      <trkpt lat="46.52394" lon="0.37874">
        <ele>135.4</ele>
        <time>2022-01-16T08:44:10Z</time>
      </trkpt>
      <trkpt lat="46.52405" lon="0.37873">
        <ele>134</ele>
        <time>2022-01-16T08:44:12Z</time>
      </trkpt>
      <trkpt lat="46.52415" lon="0.37873">
        <ele>133.4</ele>
        <time>2022-01-16T08:44:14Z</time>
      </trkpt>
      <trkpt lat="46.52419" lon="0.37876">
        <ele>133.2</ele>
        <time>2022-01-16T08:44:15Z</time>
      </trkpt>
      <trkpt lat="46.52423" lon="0.37878">
        <ele>133.2</ele>
        <time>2022-01-16T08:44:16Z</time>
      </trkpt>
      <trkpt lat="46.52433" lon="0.37888">
        <ele>133.8</ele>
        <time>2022-01-16T08:44:19Z</time>
      </trkpt>
      <trkpt lat="46.52448" lon="0.37902">
        <ele>134.6</ele>
        <time>2022-01-16T08:44:25Z</time>
      </trkpt>
      <trkpt lat="46.52457" lon="0.37908">
        <ele>135</ele>
        <time>2022-01-16T08:44:29Z</time>
      </trkpt>
      <trkpt lat="46.52462" lon="0.37912">
        <ele>136.2</ele>
        <time>2022-01-16T08:44:32Z</time>
      </trkpt>
      <trkpt lat="46.52475" lon="0.37916">
        <ele>137.4</ele>
        <time>2022-01-16T08:44:37Z</time>
      </trkpt>
      <trkpt lat="46.52483" lon="0.37915">
        <ele>138.4</ele>
        <time>2022-01-16T08:44:41Z</time>
      </trkpt>
      <trkpt lat="46.52485" lon="0.37916">
        <ele>138.6</ele>
        <time>2022-01-16T08:44:42Z</time>
      </trkpt>
      <trkpt lat="46.52488" lon="0.37915">
        <ele>139.4</ele>
        <time>2022-01-16T08:44:44Z</time>
      </trkpt>
      <trkpt lat="46.52493" lon="0.37914">
        <ele>140.2</ele>
        <time>2022-01-16T08:44:47Z</time>
      </trkpt>
      <trkpt lat="46.52495" lon="0.37913">
        <ele>140.4</ele>
        <time>2022-01-16T08:44:48Z</time>
      </trkpt>
      <trkpt lat="46.52502" lon="0.37908">
        <ele>141.6</ele>
        <time>2022-01-16T08:44:52Z</time>
      </trkpt>
      <trkpt lat="46.52506" lon="0.37906">
        <ele>142</ele>
        <time>2022-01-16T08:44:54Z</time>
      </trkpt>
      <trkpt lat="46.52512" lon="0.37903">
        <ele>142.6</ele>
        <time>2022-01-16T08:44:57Z</time>
      </trkpt>
      <trkpt lat="46.5252" lon="0.37898">
        <ele>143.6</ele>
        <time>2022-01-16T08:45:01Z</time>
      </trkpt>
      <trkpt lat="46.52522" lon="0.37897">
        <ele>143.8</ele>
        <time>2022-01-16T08:45:02Z</time>
      </trkpt>
      <trkpt lat="46.52537" lon="0.37891">
        <ele>144.6</ele>
        <time>2022-01-16T08:45:09Z</time>
      </trkpt>
      <trkpt lat="46.5254" lon="0.37888">
        <ele>145</ele>
        <time>2022-01-16T08:45:11Z</time>
      </trkpt>
      <trkpt lat="46.52546" lon="0.3788">
        <ele>145.4</ele>
        <time>2022-01-16T08:45:15Z</time>
      </trkpt>
      <trkpt lat="46.5255" lon="0.37872">
        <ele>146</ele>
        <time>2022-01-16T08:45:18Z</time>
      </trkpt>
      <trkpt lat="46.5256" lon="0.37859">
        <ele>146.8</ele>
        <time>2022-01-16T08:45:23Z</time>
      </trkpt>
      <trkpt lat="46.52567" lon="0.37851">
        <ele>147.2</ele>
        <time>2022-01-16T08:45:26Z</time>
      </trkpt>
      <trkpt lat="46.52579" lon="0.37838">
        <ele>147.4</ele>
        <time>2022-01-16T08:45:31Z</time>
      </trkpt>
      <trkpt lat="46.52594" lon="0.37819">
        <ele>147.6</ele>
        <time>2022-01-16T08:45:38Z</time>
      </trkpt>
      <trkpt lat="46.52612" lon="0.378">
        <ele>147.6</ele>
        <time>2022-01-16T08:45:44Z</time>
      </trkpt>
      <trkpt lat="46.5262" lon="0.37791">
        <ele>147.4</ele>
        <time>2022-01-16T08:45:47Z</time>
      </trkpt>
      <trkpt lat="46.52632" lon="0.37784">
        <ele>147</ele>
        <time>2022-01-16T08:45:51Z</time>
      </trkpt>
      <trkpt lat="46.52646" lon="0.37773">
        <ele>146.6</ele>
        <time>2022-01-16T08:45:55Z</time>
      </trkpt>
      <trkpt lat="46.52653" lon="0.37767">
        <ele>146</ele>
        <time>2022-01-16T08:45:57Z</time>
      </trkpt>
      <trkpt lat="46.52657" lon="0.37765">
        <ele>146</ele>
        <time>2022-01-16T08:45:58Z</time>
      </trkpt>
      <trkpt lat="46.52663" lon="0.37762">
        <ele>145.6</ele>
        <time>2022-01-16T08:46:00Z</time>
      </trkpt>
      <trkpt lat="46.52673" lon="0.3776">
        <ele>145</ele>
        <time>2022-01-16T08:46:03Z</time>
      </trkpt>
      <trkpt lat="46.52685" lon="0.37757">
        <ele>144.8</ele>
        <time>2022-01-16T08:46:06Z</time>
      </trkpt>
      <trkpt lat="46.52694" lon="0.37755">
        <ele>144.4</ele>
        <time>2022-01-16T08:46:08Z</time>
      </trkpt>
      <trkpt lat="46.52707" lon="0.37751">
        <ele>144</ele>
        <time>2022-01-16T08:46:11Z</time>
      </trkpt>
      <trkpt lat="46.52711" lon="0.37749">
        <ele>143.6</ele>
        <time>2022-01-16T08:46:12Z</time>
      </trkpt>
      <trkpt lat="46.52721" lon="0.37747">
        <ele>142.2</ele>
        <time>2022-01-16T08:46:14Z</time>
      </trkpt>
      <trkpt lat="46.52737" lon="0.37742">
        <ele>140.8</ele>
        <time>2022-01-16T08:46:17Z</time>
      </trkpt>
      <trkpt lat="46.52744" lon="0.37739">
        <ele>140.2</ele>
        <time>2022-01-16T08:46:18Z</time>
      </trkpt>
      <trkpt lat="46.5275" lon="0.37737">
        <ele>139.6</ele>
        <time>2022-01-16T08:46:19Z</time>
      </trkpt>
      <trkpt lat="46.52763" lon="0.37732">
        <ele>138.4</ele>
        <time>2022-01-16T08:46:22Z</time>
      </trkpt>
      <trkpt lat="46.52766" lon="0.37729">
        <ele>138.2</ele>
        <time>2022-01-16T08:46:23Z</time>
      </trkpt>
      <trkpt lat="46.52768" lon="0.37718">
        <ele>137.4</ele>
        <time>2022-01-16T08:46:25Z</time>
      </trkpt>
      <trkpt lat="46.52767" lon="0.37713">
        <ele>137</ele>
        <time>2022-01-16T08:46:26Z</time>
      </trkpt>
      <trkpt lat="46.52766" lon="0.37701">
        <ele>136.6</ele>
        <time>2022-01-16T08:46:28Z</time>
      </trkpt>
      <trkpt lat="46.52765" lon="0.37696">
        <ele>136</ele>
        <time>2022-01-16T08:46:29Z</time>
      </trkpt>
      <trkpt lat="46.52765" lon="0.3769">
        <ele>135.6</ele>
        <time>2022-01-16T08:46:30Z</time>
      </trkpt>
      <trkpt lat="46.52765" lon="0.37684">
        <ele>135</ele>
        <time>2022-01-16T08:46:31Z</time>
      </trkpt>
      <trkpt lat="46.52764" lon="0.37677">
        <ele>134</ele>
        <time>2022-01-16T08:46:32Z</time>
      </trkpt>
      <trkpt lat="46.52764" lon="0.37669">
        <ele>133</ele>
        <time>2022-01-16T08:46:33Z</time>
      </trkpt>
      <trkpt lat="46.52763" lon="0.37662">
        <ele>132.2</ele>
        <time>2022-01-16T08:46:34Z</time>
      </trkpt>
      <trkpt lat="46.52761" lon="0.37646">
        <ele>131</ele>
        <time>2022-01-16T08:46:36Z</time>
      </trkpt>
      <trkpt lat="46.5276" lon="0.37638">
        <ele>130.8</ele>
        <time>2022-01-16T08:46:37Z</time>
      </trkpt>
      <trkpt lat="46.52758" lon="0.3763">
        <ele>129.2</ele>
        <time>2022-01-16T08:46:38Z</time>
      </trkpt>
      <trkpt lat="46.52755" lon="0.37623">
        <ele>127.8</ele>
        <time>2022-01-16T08:46:39Z</time>
      </trkpt>
      <trkpt lat="46.52749" lon="0.37609">
        <ele>126</ele>
        <time>2022-01-16T08:46:41Z</time>
      </trkpt>
      <trkpt lat="46.52745" lon="0.37602">
        <ele>124.6</ele>
        <time>2022-01-16T08:46:42Z</time>
      </trkpt>
      <trkpt lat="46.5274" lon="0.37595">
        <ele>123.4</ele>
        <time>2022-01-16T08:46:43Z</time>
      </trkpt>
      <trkpt lat="46.52735" lon="0.37587">
        <ele>122.4</ele>
        <time>2022-01-16T08:46:44Z</time>
      </trkpt>
      <trkpt lat="46.52729" lon="0.37579">
        <ele>121.2</ele>
        <time>2022-01-16T08:46:45Z</time>
      </trkpt>
      <trkpt lat="46.52725" lon="0.3757">
        <ele>120.2</ele>
        <time>2022-01-16T08:46:46Z</time>
      </trkpt>
      <trkpt lat="46.52721" lon="0.37562">
        <ele>118.8</ele>
        <time>2022-01-16T08:46:47Z</time>
      </trkpt>
      <trkpt lat="46.5272" lon="0.37544">
        <ele>116</ele>
        <time>2022-01-16T08:46:49Z</time>
      </trkpt>
      <trkpt lat="46.5272" lon="0.37536">
        <ele>114.4</ele>
        <time>2022-01-16T08:46:50Z</time>
      </trkpt>
      <trkpt lat="46.5272" lon="0.3752">
        <ele>113</ele>
        <time>2022-01-16T08:46:52Z</time>
      </trkpt>
      <trkpt lat="46.5272" lon="0.37488">
        <ele>112</ele>
        <time>2022-01-16T08:46:56Z</time>
      </trkpt>
      <trkpt lat="46.52719" lon="0.3748">
        <ele>111.8</ele>
        <time>2022-01-16T08:46:57Z</time>
      </trkpt>
      <trkpt lat="46.52717" lon="0.37446">
        <ele>110.8</ele>
        <time>2022-01-16T08:47:01Z</time>
      </trkpt>
      <trkpt lat="46.52716" lon="0.37438">
        <ele>110.4</ele>
        <time>2022-01-16T08:47:02Z</time>
      </trkpt>
      <trkpt lat="46.52713" lon="0.37421">
        <ele>109.6</ele>
        <time>2022-01-16T08:47:05Z</time>
      </trkpt>
      <trkpt lat="46.52712" lon="0.37418">
        <ele>109.4</ele>
        <time>2022-01-16T08:47:06Z</time>
      </trkpt>
      <trkpt lat="46.52709" lon="0.37411">
        <ele>108.6</ele>
        <time>2022-01-16T08:47:10Z</time>
      </trkpt>
      <trkpt lat="46.52708" lon="0.3741">
        <ele>108.6</ele>
        <time>2022-01-16T08:47:11Z</time>
      </trkpt>
      <trkpt lat="46.52708" lon="0.3741">
        <ele>108.6</ele>
        <time>2022-01-16T08:47:12Z</time>
      </trkpt>
      <trkpt lat="46.52706" lon="0.37399">
        <ele>108</ele>
        <time>2022-01-16T08:50:52Z</time>
      </trkpt>
      <trkpt lat="46.52706" lon="0.37391">
        <ele>108</ele>
        <time>2022-01-16T08:50:54Z</time>
      </trkpt>
      <trkpt lat="46.52702" lon="0.37362">
        <ele>108.4</ele>
        <time>2022-01-16T08:50:59Z</time>
      </trkpt>
      <trkpt lat="46.52699" lon="0.37351">
        <ele>108.4</ele>
        <time>2022-01-16T08:51:01Z</time>
      </trkpt>
      <trkpt lat="46.52693" lon="0.37335">
        <ele>108</ele>
        <time>2022-01-16T08:51:04Z</time>
      </trkpt>
      <trkpt lat="46.52691" lon="0.37322">
        <ele>107.4</ele>
        <time>2022-01-16T08:51:06Z</time>
      </trkpt>
      <trkpt lat="46.5269" lon="0.37303">
        <ele>107</ele>
        <time>2022-01-16T08:51:09Z</time>
      </trkpt>
      <trkpt lat="46.52688" lon="0.37285">
        <ele>107</ele>
        <time>2022-01-16T08:51:12Z</time>
      </trkpt>
      <trkpt lat="46.52683" lon="0.37262">
        <ele>107</ele>
        <time>2022-01-16T08:51:16Z</time>
      </trkpt>
      <trkpt lat="46.52672" lon="0.37225">
        <ele>107.2</ele>
        <time>2022-01-16T08:51:22Z</time>
      </trkpt>
      <trkpt lat="46.52666" lon="0.37206">
        <ele>107.2</ele>
        <time>2022-01-16T08:51:25Z</time>
      </trkpt>
      <trkpt lat="46.52661" lon="0.37188">
        <ele>107.6</ele>
        <time>2022-01-16T08:51:28Z</time>
      </trkpt>
      <trkpt lat="46.52646" lon="0.37141">
        <ele>108</ele>
        <time>2022-01-16T08:51:35Z</time>
      </trkpt>
      <trkpt lat="46.52642" lon="0.37114">
        <ele>108.2</ele>
        <time>2022-01-16T08:51:39Z</time>
      </trkpt>
      <trkpt lat="46.52641" lon="0.37107">
        <ele>108.2</ele>
        <time>2022-01-16T08:51:40Z</time>
      </trkpt>
      <trkpt lat="46.52643" lon="0.37066">
        <ele>108.4</ele>
        <time>2022-01-16T08:51:47Z</time>
      </trkpt>
      <trkpt lat="46.52645" lon="0.37045">
        <ele>108.4</ele>
        <time>2022-01-16T08:51:51Z</time>
      </trkpt>
      <trkpt lat="46.52645" lon="0.37045">
        <ele>108.4</ele>
        <time>2022-01-16T08:51:52Z</time>
      </trkpt>
      <trkpt lat="46.52647" lon="0.37035">
        <ele>108.4</ele>
        <time>2022-01-16T08:51:53Z</time>
      </trkpt>
      <trkpt lat="46.52648" lon="0.37031">
        <ele>108.6</ele>
        <time>2022-01-16T08:51:54Z</time>
      </trkpt>
      <trkpt lat="46.52651" lon="0.37003">
        <ele>109.2</ele>
        <time>2022-01-16T08:52:00Z</time>
      </trkpt>
      <trkpt lat="46.52651" lon="0.36993">
        <ele>109.4</ele>
        <time>2022-01-16T08:52:02Z</time>
      </trkpt>
      <trkpt lat="46.52651" lon="0.36987">
        <ele>109.6</ele>
        <time>2022-01-16T08:52:03Z</time>
      </trkpt>
      <trkpt lat="46.52656" lon="0.36967">
        <ele>110.2</ele>
        <time>2022-01-16T08:52:07Z</time>
      </trkpt>
      <trkpt lat="46.52665" lon="0.36938">
        <ele>110.6</ele>
        <time>2022-01-16T08:52:14Z</time>
      </trkpt>
      <trkpt lat="46.52673" lon="0.36922">
        <ele>111.6</ele>
        <time>2022-01-16T08:52:18Z</time>
      </trkpt>
      <trkpt lat="46.52678" lon="0.3691">
        <ele>112.2</ele>
        <time>2022-01-16T08:52:21Z</time>
      </trkpt>
      <trkpt lat="46.52681" lon="0.36905">
        <ele>113</ele>
        <time>2022-01-16T08:52:23Z</time>
      </trkpt>
      <trkpt lat="46.52685" lon="0.36896">
        <ele>114.2</ele>
        <time>2022-01-16T08:52:26Z</time>
      </trkpt>
      <trkpt lat="46.52687" lon="0.36891">
        <ele>114.8</ele>
        <time>2022-01-16T08:52:28Z</time>
      </trkpt>
      <trkpt lat="46.52688" lon="0.36889">
        <ele>115.2</ele>
        <time>2022-01-16T08:52:29Z</time>
      </trkpt>
      <trkpt lat="46.52694" lon="0.36879">
        <ele>116.4</ele>
        <time>2022-01-16T08:52:33Z</time>
      </trkpt>
      <trkpt lat="46.52695" lon="0.36876">
        <ele>116.8</ele>
        <time>2022-01-16T08:52:34Z</time>
      </trkpt>
      <trkpt lat="46.527" lon="0.36866">
        <ele>117.8</ele>
        <time>2022-01-16T08:52:38Z</time>
      </trkpt>
      <trkpt lat="46.52704" lon="0.36859">
        <ele>118.6</ele>
        <time>2022-01-16T08:52:41Z</time>
      </trkpt>
      <trkpt lat="46.52705" lon="0.36857">
        <ele>119</ele>
        <time>2022-01-16T08:52:42Z</time>
      </trkpt>
      <trkpt lat="46.52712" lon="0.36849">
        <ele>120</ele>
        <time>2022-01-16T08:52:47Z</time>
      </trkpt>
      <trkpt lat="46.52716" lon="0.36844">
        <ele>121</ele>
        <time>2022-01-16T08:52:50Z</time>
      </trkpt>
      <trkpt lat="46.52718" lon="0.36843">
        <ele>121.4</ele>
        <time>2022-01-16T08:52:51Z</time>
      </trkpt>
      <trkpt lat="46.52725" lon="0.36836">
        <ele>122</ele>
        <time>2022-01-16T08:52:55Z</time>
      </trkpt>
      <trkpt lat="46.52727" lon="0.36834">
        <ele>122.2</ele>
        <time>2022-01-16T08:52:56Z</time>
      </trkpt>
      <trkpt lat="46.52733" lon="0.36829">
        <ele>123.2</ele>
        <time>2022-01-16T08:53:00Z</time>
      </trkpt>
      <trkpt lat="46.52742" lon="0.36821">
        <ele>124.2</ele>
        <time>2022-01-16T08:53:06Z</time>
      </trkpt>
      <trkpt lat="46.52746" lon="0.36818">
        <ele>125.2</ele>
        <time>2022-01-16T08:53:09Z</time>
      </trkpt>
      <trkpt lat="46.5276" lon="0.36809">
        <ele>126.4</ele>
        <time>2022-01-16T08:53:17Z</time>
      </trkpt>
      <trkpt lat="46.52762" lon="0.36808">
        <ele>126.6</ele>
        <time>2022-01-16T08:53:18Z</time>
      </trkpt>
      <trkpt lat="46.52769" lon="0.36804">
        <ele>127.6</ele>
        <time>2022-01-16T08:53:24Z</time>
      </trkpt>
      <trkpt lat="46.52775" lon="0.36802">
        <ele>128.4</ele>
        <time>2022-01-16T08:53:28Z</time>
      </trkpt>
      <trkpt lat="46.52779" lon="0.36801">
        <ele>128.6</ele>
        <time>2022-01-16T08:53:30Z</time>
      </trkpt>
      <trkpt lat="46.52781" lon="0.36801">
        <ele>128.8</ele>
        <time>2022-01-16T08:53:31Z</time>
      </trkpt>
      <trkpt lat="46.5279" lon="0.36799">
        <ele>129.8</ele>
        <time>2022-01-16T08:53:36Z</time>
      </trkpt>
      <trkpt lat="46.52801" lon="0.36799">
        <ele>130.8</ele>
        <time>2022-01-16T08:53:41Z</time>
      </trkpt>
      <trkpt lat="46.52803" lon="0.368">
        <ele>131</ele>
        <time>2022-01-16T08:53:42Z</time>
      </trkpt>
      <trkpt lat="46.52813" lon="0.36801">
        <ele>132</ele>
        <time>2022-01-16T08:53:47Z</time>
      </trkpt>
      <trkpt lat="46.52815" lon="0.36801">
        <ele>132.2</ele>
        <time>2022-01-16T08:53:48Z</time>
      </trkpt>
      <trkpt lat="46.52826" lon="0.36803">
        <ele>133</ele>
        <time>2022-01-16T08:53:53Z</time>
      </trkpt>
      <trkpt lat="46.52832" lon="0.36805">
        <ele>133.4</ele>
        <time>2022-01-16T08:53:56Z</time>
      </trkpt>
      <trkpt lat="46.52841" lon="0.36809">
        <ele>134.2</ele>
        <time>2022-01-16T08:54:00Z</time>
      </trkpt>
      <trkpt lat="46.52847" lon="0.36812">
        <ele>134.6</ele>
        <time>2022-01-16T08:54:03Z</time>
      </trkpt>
      <trkpt lat="46.5286" lon="0.36822">
        <ele>135.4</ele>
        <time>2022-01-16T08:54:09Z</time>
      </trkpt>
      <trkpt lat="46.52865" lon="0.36825">
        <ele>135.6</ele>
        <time>2022-01-16T08:54:11Z</time>
      </trkpt>
      <trkpt lat="46.52883" lon="0.3684">
        <ele>136</ele>
        <time>2022-01-16T08:54:19Z</time>
      </trkpt>
      <trkpt lat="46.52897" lon="0.36858">
        <ele>136.2</ele>
        <time>2022-01-16T08:54:26Z</time>
      </trkpt>
      <trkpt lat="46.52903" lon="0.36868">
        <ele>136.6</ele>
        <time>2022-01-16T08:54:29Z</time>
      </trkpt>
      <trkpt lat="46.52907" lon="0.36883">
        <ele>137</ele>
        <time>2022-01-16T08:54:33Z</time>
      </trkpt>
      <trkpt lat="46.52909" lon="0.36894">
        <ele>137.6</ele>
        <time>2022-01-16T08:54:36Z</time>
      </trkpt>
      <trkpt lat="46.52912" lon="0.36907">
        <ele>138</ele>
        <time>2022-01-16T08:54:39Z</time>
      </trkpt>
      <trkpt lat="46.52917" lon="0.36928">
        <ele>138.8</ele>
        <time>2022-01-16T08:54:44Z</time>
      </trkpt>
      <trkpt lat="46.52919" lon="0.36937">
        <ele>139.4</ele>
        <time>2022-01-16T08:54:46Z</time>
      </trkpt>
      <trkpt lat="46.52921" lon="0.36948">
        <ele>139.8</ele>
        <time>2022-01-16T08:54:48Z</time>
      </trkpt>
      <trkpt lat="46.52927" lon="0.36973">
        <ele>140.4</ele>
        <time>2022-01-16T08:54:53Z</time>
      </trkpt>
      <trkpt lat="46.52939" lon="0.37001">
        <ele>140.4</ele>
        <time>2022-01-16T08:54:59Z</time>
      </trkpt>
      <trkpt lat="46.52941" lon="0.37005">
        <ele>140.2</ele>
        <time>2022-01-16T08:55:00Z</time>
      </trkpt>
      <trkpt lat="46.52948" lon="0.37011">
        <ele>139.6</ele>
        <time>2022-01-16T08:55:02Z</time>
      </trkpt>
      <trkpt lat="46.52956" lon="0.37016">
        <ele>139</ele>
        <time>2022-01-16T08:55:04Z</time>
      </trkpt>
      <trkpt lat="46.52967" lon="0.37022">
        <ele>138.6</ele>
        <time>2022-01-16T08:55:06Z</time>
      </trkpt>
      <trkpt lat="46.52985" lon="0.37032">
        <ele>137.2</ele>
        <time>2022-01-16T08:55:09Z</time>
      </trkpt>
      <trkpt lat="46.53006" lon="0.37043">
        <ele>135.8</ele>
        <time>2022-01-16T08:55:12Z</time>
      </trkpt>
      <trkpt lat="46.53017" lon="0.37049">
        <ele>134.6</ele>
        <time>2022-01-16T08:55:14Z</time>
      </trkpt>
      <trkpt lat="46.53022" lon="0.37053">
        <ele>134.2</ele>
        <time>2022-01-16T08:55:15Z</time>
      </trkpt>
      <trkpt lat="46.53026" lon="0.37058">
        <ele>133.6</ele>
        <time>2022-01-16T08:55:16Z</time>
      </trkpt>
      <trkpt lat="46.53029" lon="0.37063">
        <ele>133.4</ele>
        <time>2022-01-16T08:55:17Z</time>
      </trkpt>
      <trkpt lat="46.53031" lon="0.37073">
        <ele>133</ele>
        <time>2022-01-16T08:55:19Z</time>
      </trkpt>
      <trkpt lat="46.53033" lon="0.37083">
        <ele>132.6</ele>
        <time>2022-01-16T08:55:21Z</time>
      </trkpt>
      <trkpt lat="46.53034" lon="0.37089">
        <ele>132.6</ele>
        <time>2022-01-16T08:55:22Z</time>
      </trkpt>
      <trkpt lat="46.53035" lon="0.37095">
        <ele>132.4</ele>
        <time>2022-01-16T08:55:23Z</time>
      </trkpt>
      <trkpt lat="46.53042" lon="0.37115">
        <ele>132.4</ele>
        <time>2022-01-16T08:55:26Z</time>
      </trkpt>
      <trkpt lat="46.53045" lon="0.37122">
        <ele>132.2</ele>
        <time>2022-01-16T08:55:27Z</time>
      </trkpt>
      <trkpt lat="46.53054" lon="0.37154">
        <ele>131.6</ele>
        <time>2022-01-16T08:55:32Z</time>
      </trkpt>
      <trkpt lat="46.53066" lon="0.37185">
        <ele>132</ele>
        <time>2022-01-16T08:55:39Z</time>
      </trkpt>
      <trkpt lat="46.53085" lon="0.37203">
        <ele>131.4</ele>
        <time>2022-01-16T08:55:45Z</time>
      </trkpt>
      <trkpt lat="46.53089" lon="0.37206">
        <ele>131.4</ele>
        <time>2022-01-16T08:55:46Z</time>
      </trkpt>
      <trkpt lat="46.53111" lon="0.37219">
        <ele>130.6</ele>
        <time>2022-01-16T08:55:51Z</time>
      </trkpt>
      <trkpt lat="46.53111" lon="0.37219">
        <ele>130.4</ele>
        <time>2022-01-16T08:55:52Z</time>
      </trkpt>
      <trkpt lat="46.53145" lon="0.37236">
        <ele>129.4</ele>
        <time>2022-01-16T08:55:59Z</time>
      </trkpt>
      <trkpt lat="46.53154" lon="0.3724">
        <ele>129.2</ele>
        <time>2022-01-16T08:56:01Z</time>
      </trkpt>
      <trkpt lat="46.53168" lon="0.37245">
        <ele>129.2</ele>
        <time>2022-01-16T08:56:04Z</time>
      </trkpt>
      <trkpt lat="46.53176" lon="0.37248">
        <ele>129.2</ele>
        <time>2022-01-16T08:56:06Z</time>
      </trkpt>
      <trkpt lat="46.5318" lon="0.3725">
        <ele>129.2</ele>
        <time>2022-01-16T08:56:07Z</time>
      </trkpt>
      <trkpt lat="46.53208" lon="0.37257">
        <ele>130</ele>
        <time>2022-01-16T08:56:14Z</time>
      </trkpt>
      <trkpt lat="46.53215" lon="0.37259">
        <ele>130.4</ele>
        <time>2022-01-16T08:56:16Z</time>
      </trkpt>
      <trkpt lat="46.53231" lon="0.37267">
        <ele>131.6</ele>
        <time>2022-01-16T08:56:21Z</time>
      </trkpt>
      <trkpt lat="46.53239" lon="0.37272">
        <ele>132.8</ele>
        <time>2022-01-16T08:56:24Z</time>
      </trkpt>
      <trkpt lat="46.53247" lon="0.37279">
        <ele>133.8</ele>
        <time>2022-01-16T08:56:27Z</time>
      </trkpt>
      <trkpt lat="46.53257" lon="0.3729">
        <ele>135</ele>
        <time>2022-01-16T08:56:31Z</time>
      </trkpt>
      <trkpt lat="46.53265" lon="0.37304">
        <ele>135.8</ele>
        <time>2022-01-16T08:56:35Z</time>
      </trkpt>
      <trkpt lat="46.53267" lon="0.37308">
        <ele>136.4</ele>
        <time>2022-01-16T08:56:36Z</time>
      </trkpt>
      <trkpt lat="46.5328" lon="0.37341">
        <ele>137</ele>
        <time>2022-01-16T08:56:43Z</time>
      </trkpt>
      <trkpt lat="46.53282" lon="0.37346">
        <ele>137.4</ele>
        <time>2022-01-16T08:56:44Z</time>
      </trkpt>
      <trkpt lat="46.53291" lon="0.37373">
        <ele>138.4</ele>
        <time>2022-01-16T08:56:50Z</time>
      </trkpt>
      <trkpt lat="46.53295" lon="0.37381">
        <ele>139</ele>
        <time>2022-01-16T08:56:52Z</time>
      </trkpt>
      <trkpt lat="46.53301" lon="0.374">
        <ele>139.4</ele>
        <time>2022-01-16T08:56:56Z</time>
      </trkpt>
      <trkpt lat="46.53305" lon="0.37409">
        <ele>139.6</ele>
        <time>2022-01-16T08:56:58Z</time>
      </trkpt>
      <trkpt lat="46.5331" lon="0.37427">
        <ele>140.6</ele>
        <time>2022-01-16T08:57:02Z</time>
      </trkpt>
      <trkpt lat="46.53313" lon="0.37436">
        <ele>141</ele>
        <time>2022-01-16T08:57:04Z</time>
      </trkpt>
      <trkpt lat="46.53322" lon="0.37458">
        <ele>141.8</ele>
        <time>2022-01-16T08:57:09Z</time>
      </trkpt>
      <trkpt lat="46.53327" lon="0.37471">
        <ele>142.4</ele>
        <time>2022-01-16T08:57:12Z</time>
      </trkpt>
      <trkpt lat="46.5333" lon="0.3748">
        <ele>142.8</ele>
        <time>2022-01-16T08:57:14Z</time>
      </trkpt>
      <trkpt lat="46.53342" lon="0.37504">
        <ele>143.6</ele>
        <time>2022-01-16T08:57:20Z</time>
      </trkpt>
      <trkpt lat="46.53351" lon="0.37526">
        <ele>143.8</ele>
        <time>2022-01-16T08:57:25Z</time>
      </trkpt>
      <trkpt lat="46.53355" lon="0.37537">
        <ele>144</ele>
        <time>2022-01-16T08:57:27Z</time>
      </trkpt>
      <trkpt lat="46.53374" lon="0.37585">
        <ele>144.2</ele>
        <time>2022-01-16T08:57:36Z</time>
      </trkpt>
      <trkpt lat="46.53397" lon="0.3764">
        <ele>143.8</ele>
        <time>2022-01-16T08:57:45Z</time>
      </trkpt>
      <trkpt lat="46.53408" lon="0.3767">
        <ele>142.6</ele>
        <time>2022-01-16T08:57:49Z</time>
      </trkpt>
      <trkpt lat="46.53415" lon="0.37686">
        <ele>142</ele>
        <time>2022-01-16T08:57:51Z</time>
      </trkpt>
      <trkpt lat="46.53421" lon="0.37702">
        <ele>141.4</ele>
        <time>2022-01-16T08:57:53Z</time>
      </trkpt>
      <trkpt lat="46.53438" lon="0.37746">
        <ele>140.4</ele>
        <time>2022-01-16T08:57:58Z</time>
      </trkpt>
      <trkpt lat="46.53452" lon="0.37772">
        <ele>139.4</ele>
        <time>2022-01-16T08:58:02Z</time>
      </trkpt>
      <trkpt lat="46.53456" lon="0.37779">
        <ele>139.2</ele>
        <time>2022-01-16T08:58:03Z</time>
      </trkpt>
      <trkpt lat="46.53472" lon="0.37803">
        <ele>139</ele>
        <time>2022-01-16T08:58:07Z</time>
      </trkpt>
      <trkpt lat="46.53476" lon="0.37808">
        <ele>139</ele>
        <time>2022-01-16T08:58:08Z</time>
      </trkpt>
      <trkpt lat="46.53489" lon="0.37821">
        <ele>138.8</ele>
        <time>2022-01-16T08:58:11Z</time>
      </trkpt>
      <trkpt lat="46.53505" lon="0.37831">
        <ele>138.2</ele>
        <time>2022-01-16T08:58:14Z</time>
      </trkpt>
      <trkpt lat="46.53533" lon="0.37844">
        <ele>137.2</ele>
        <time>2022-01-16T08:58:18Z</time>
      </trkpt>
      <trkpt lat="46.53541" lon="0.37848">
        <ele>136.6</ele>
        <time>2022-01-16T08:58:19Z</time>
      </trkpt>
      <trkpt lat="46.53558" lon="0.37855">
        <ele>136</ele>
        <time>2022-01-16T08:58:21Z</time>
      </trkpt>
      <trkpt lat="46.53581" lon="0.37869">
        <ele>133.8</ele>
        <time>2022-01-16T08:58:24Z</time>
      </trkpt>
      <trkpt lat="46.53588" lon="0.37873">
        <ele>133</ele>
        <time>2022-01-16T08:58:25Z</time>
      </trkpt>
      <trkpt lat="46.53594" lon="0.37877">
        <ele>131.6</ele>
        <time>2022-01-16T08:58:26Z</time>
      </trkpt>
      <trkpt lat="46.536" lon="0.37882">
        <ele>130.4</ele>
        <time>2022-01-16T08:58:27Z</time>
      </trkpt>
      <trkpt lat="46.53609" lon="0.37892">
        <ele>128.8</ele>
        <time>2022-01-16T08:58:29Z</time>
      </trkpt>
      <trkpt lat="46.53613" lon="0.37897">
        <ele>128</ele>
        <time>2022-01-16T08:58:30Z</time>
      </trkpt>
      <trkpt lat="46.53617" lon="0.37902">
        <ele>127.6</ele>
        <time>2022-01-16T08:58:31Z</time>
      </trkpt>
      <trkpt lat="46.53625" lon="0.37912">
        <ele>126.2</ele>
        <time>2022-01-16T08:58:33Z</time>
      </trkpt>
      <trkpt lat="46.53635" lon="0.37922">
        <ele>125.2</ele>
        <time>2022-01-16T08:58:35Z</time>
      </trkpt>
      <trkpt lat="46.53641" lon="0.37926">
        <ele>124.8</ele>
        <time>2022-01-16T08:58:36Z</time>
      </trkpt>
      <trkpt lat="46.53659" lon="0.37931">
        <ele>124.4</ele>
        <time>2022-01-16T08:58:39Z</time>
      </trkpt>
      <trkpt lat="46.53664" lon="0.37931">
        <ele>124.2</ele>
        <time>2022-01-16T08:58:40Z</time>
      </trkpt>
      <trkpt lat="46.53679" lon="0.37931">
        <ele>124.4</ele>
        <time>2022-01-16T08:58:43Z</time>
      </trkpt>
      <trkpt lat="46.53688" lon="0.37934">
        <ele>124.6</ele>
        <time>2022-01-16T08:58:45Z</time>
      </trkpt>
      <trkpt lat="46.53704" lon="0.37939">
        <ele>125.2</ele>
        <time>2022-01-16T08:58:49Z</time>
      </trkpt>
      <trkpt lat="46.53714" lon="0.37941">
        <ele>125.8</ele>
        <time>2022-01-16T08:58:52Z</time>
      </trkpt>
      <trkpt lat="46.5372" lon="0.37941">
        <ele>126.6</ele>
        <time>2022-01-16T08:58:54Z</time>
      </trkpt>
      <trkpt lat="46.53728" lon="0.37939">
        <ele>127.6</ele>
        <time>2022-01-16T08:58:57Z</time>
      </trkpt>
      <trkpt lat="46.53731" lon="0.37939">
        <ele>128.6</ele>
        <time>2022-01-16T08:58:58Z</time>
      </trkpt>
      <trkpt lat="46.53736" lon="0.37938">
        <ele>128.8</ele>
        <time>2022-01-16T08:59:00Z</time>
      </trkpt>
      <trkpt lat="46.53744" lon="0.37936">
        <ele>129.8</ele>
        <time>2022-01-16T08:59:03Z</time>
      </trkpt>
      <trkpt lat="46.53753" lon="0.37933">
        <ele>130.4</ele>
        <time>2022-01-16T08:59:06Z</time>
      </trkpt>
      <trkpt lat="46.53758" lon="0.37928">
        <ele>131</ele>
        <time>2022-01-16T08:59:08Z</time>
      </trkpt>
      <trkpt lat="46.53768" lon="0.37917">
        <ele>132</ele>
        <time>2022-01-16T08:59:12Z</time>
      </trkpt>
      <trkpt lat="46.53772" lon="0.3791">
        <ele>132.2</ele>
        <time>2022-01-16T08:59:14Z</time>
      </trkpt>
      <trkpt lat="46.53777" lon="0.379">
        <ele>133.2</ele>
        <time>2022-01-16T08:59:17Z</time>
      </trkpt>
      <trkpt lat="46.53782" lon="0.37887">
        <ele>134</ele>
        <time>2022-01-16T08:59:21Z</time>
      </trkpt>
      <trkpt lat="46.53784" lon="0.3788">
        <ele>134.4</ele>
        <time>2022-01-16T08:59:23Z</time>
      </trkpt>
      <trkpt lat="46.53788" lon="0.37867">
        <ele>135.4</ele>
        <time>2022-01-16T08:59:27Z</time>
      </trkpt>
      <trkpt lat="46.53789" lon="0.37863">
        <ele>135.8</ele>
        <time>2022-01-16T08:59:28Z</time>
      </trkpt>
      <trkpt lat="46.53791" lon="0.37857">
        <ele>136.4</ele>
        <time>2022-01-16T08:59:30Z</time>
      </trkpt>
      <trkpt lat="46.53795" lon="0.3784">
        <ele>137.4</ele>
        <time>2022-01-16T08:59:35Z</time>
      </trkpt>
      <trkpt lat="46.53797" lon="0.37836">
        <ele>137.6</ele>
        <time>2022-01-16T08:59:36Z</time>
      </trkpt>
      <trkpt lat="46.53802" lon="0.37818">
        <ele>138.6</ele>
        <time>2022-01-16T08:59:41Z</time>
      </trkpt>
      <trkpt lat="46.53805" lon="0.37811">
        <ele>139</ele>
        <time>2022-01-16T08:59:43Z</time>
      </trkpt>
      <trkpt lat="46.53814" lon="0.37784">
        <ele>139.8</ele>
        <time>2022-01-16T08:59:51Z</time>
      </trkpt>
      <trkpt lat="46.53825" lon="0.37747">
        <ele>141</ele>
        <time>2022-01-16T09:00:00Z</time>
      </trkpt>
      <trkpt lat="46.53837" lon="0.37708">
        <ele>141.4</ele>
        <time>2022-01-16T09:00:08Z</time>
      </trkpt>
      <trkpt lat="46.53854" lon="0.37675">
        <ele>141.8</ele>
        <time>2022-01-16T09:00:15Z</time>
      </trkpt>
      <trkpt lat="46.53862" lon="0.37663">
        <ele>142</ele>
        <time>2022-01-16T09:00:18Z</time>
      </trkpt>
      <trkpt lat="46.53877" lon="0.37643">
        <ele>142.6</ele>
        <time>2022-01-16T09:00:23Z</time>
      </trkpt>
      <trkpt lat="46.53886" lon="0.3763">
        <ele>142.8</ele>
        <time>2022-01-16T09:00:26Z</time>
      </trkpt>
      <trkpt lat="46.53894" lon="0.37614">
        <ele>143</ele>
        <time>2022-01-16T09:00:29Z</time>
      </trkpt>
      <trkpt lat="46.53896" lon="0.37609">
        <ele>143.2</ele>
        <time>2022-01-16T09:00:30Z</time>
      </trkpt>
      <trkpt lat="46.53913" lon="0.37566">
        <ele>143.4</ele>
        <time>2022-01-16T09:00:38Z</time>
      </trkpt>
      <trkpt lat="46.53927" lon="0.37537">
        <ele>143.6</ele>
        <time>2022-01-16T09:00:43Z</time>
      </trkpt>
      <trkpt lat="46.53934" lon="0.37527">
        <ele>143.8</ele>
        <time>2022-01-16T09:00:45Z</time>
      </trkpt>
      <trkpt lat="46.53963" lon="0.37487">
        <ele>143.8</ele>
        <time>2022-01-16T09:00:53Z</time>
      </trkpt>
      <trkpt lat="46.53966" lon="0.37481">
        <ele>144</ele>
        <time>2022-01-16T09:00:54Z</time>
      </trkpt>
      <trkpt lat="46.53979" lon="0.37448">
        <ele>143.8</ele>
        <time>2022-01-16T09:00:59Z</time>
      </trkpt>
      <trkpt lat="46.53999" lon="0.37398">
        <ele>142.6</ele>
        <time>2022-01-16T09:01:06Z</time>
      </trkpt>
      <trkpt lat="46.54002" lon="0.37391">
        <ele>142.6</ele>
        <time>2022-01-16T09:01:07Z</time>
      </trkpt>
      <trkpt lat="46.54012" lon="0.37372">
        <ele>141.8</ele>
        <time>2022-01-16T09:01:10Z</time>
      </trkpt>
      <trkpt lat="46.54025" lon="0.37354">
        <ele>140.8</ele>
        <time>2022-01-16T09:01:13Z</time>
      </trkpt>
      <trkpt lat="46.5403" lon="0.37348">
        <ele>140.6</ele>
        <time>2022-01-16T09:01:14Z</time>
      </trkpt>
      <trkpt lat="46.54044" lon="0.37329">
        <ele>139.8</ele>
        <time>2022-01-16T09:01:17Z</time>
      </trkpt>
      <trkpt lat="46.54067" lon="0.37299">
        <ele>139</ele>
        <time>2022-01-16T09:01:22Z</time>
      </trkpt>
      <trkpt lat="46.54078" lon="0.37287">
        <ele>138.8</ele>
        <time>2022-01-16T09:01:25Z</time>
      </trkpt>
      <trkpt lat="46.54081" lon="0.37285">
        <ele>138.8</ele>
        <time>2022-01-16T09:01:26Z</time>
      </trkpt>
      <trkpt lat="46.54086" lon="0.37287">
        <ele>138.4</ele>
        <time>2022-01-16T09:01:28Z</time>
      </trkpt>
      <trkpt lat="46.54088" lon="0.3729">
        <ele>138.2</ele>
        <time>2022-01-16T09:01:29Z</time>
      </trkpt>
      <trkpt lat="46.54096" lon="0.37309">
        <ele>138</ele>
        <time>2022-01-16T09:01:33Z</time>
      </trkpt>
      <trkpt lat="46.54101" lon="0.37314">
        <ele>138.2</ele>
        <time>2022-01-16T09:01:35Z</time>
      </trkpt>
      <trkpt lat="46.54103" lon="0.37312">
        <ele>138.4</ele>
        <time>2022-01-16T09:01:36Z</time>
      </trkpt>
      <trkpt lat="46.54114" lon="0.37301">
        <ele>138.6</ele>
        <time>2022-01-16T09:01:40Z</time>
      </trkpt>
      <trkpt lat="46.54144" lon="0.37273">
        <ele>137.8</ele>
        <time>2022-01-16T09:01:48Z</time>
      </trkpt>
      <trkpt lat="46.54153" lon="0.37265">
        <ele>137.4</ele>
        <time>2022-01-16T09:01:50Z</time>
      </trkpt>
      <trkpt lat="46.54158" lon="0.37261">
        <ele>137</ele>
        <time>2022-01-16T09:01:51Z</time>
      </trkpt>
      <trkpt lat="46.54167" lon="0.37254">
        <ele>136.6</ele>
        <time>2022-01-16T09:01:53Z</time>
      </trkpt>
      <trkpt lat="46.54171" lon="0.37249">
        <ele>136</ele>
        <time>2022-01-16T09:01:54Z</time>
      </trkpt>
      <trkpt lat="46.54184" lon="0.37233">
        <ele>134.2</ele>
        <time>2022-01-16T09:01:58Z</time>
      </trkpt>
      <trkpt lat="46.54189" lon="0.37228">
        <ele>133.4</ele>
        <time>2022-01-16T09:02:00Z</time>
      </trkpt>
      <trkpt lat="46.54191" lon="0.37225">
        <ele>132.2</ele>
        <time>2022-01-16T09:02:01Z</time>
      </trkpt>
      <trkpt lat="46.54196" lon="0.37219">
        <ele>131</ele>
        <time>2022-01-16T09:02:03Z</time>
      </trkpt>
      <trkpt lat="46.54197" lon="0.37217">
        <ele>129.6</ele>
        <time>2022-01-16T09:02:04Z</time>
      </trkpt>
      <trkpt lat="46.542" lon="0.37214">
        <ele>128.2</ele>
        <time>2022-01-16T09:02:06Z</time>
      </trkpt>
      <trkpt lat="46.54205" lon="0.3721">
        <ele>127</ele>
        <time>2022-01-16T09:02:08Z</time>
      </trkpt>
      <trkpt lat="46.54211" lon="0.37203">
        <ele>125.2</ele>
        <time>2022-01-16T09:02:10Z</time>
      </trkpt>
      <trkpt lat="46.54215" lon="0.37198">
        <ele>124.6</ele>
        <time>2022-01-16T09:02:11Z</time>
      </trkpt>
      <trkpt lat="46.54218" lon="0.37194">
        <ele>124</ele>
        <time>2022-01-16T09:02:12Z</time>
      </trkpt>
      <trkpt lat="46.54223" lon="0.37187">
        <ele>123</ele>
        <time>2022-01-16T09:02:14Z</time>
      </trkpt>
      <trkpt lat="46.54228" lon="0.3718">
        <ele>122.4</ele>
        <time>2022-01-16T09:02:16Z</time>
      </trkpt>
      <trkpt lat="46.54235" lon="0.37167">
        <ele>123</ele>
        <time>2022-01-16T09:02:21Z</time>
      </trkpt>
      <trkpt lat="46.54239" lon="0.37157">
        <ele>124</ele>
        <time>2022-01-16T09:02:26Z</time>
      </trkpt>
      <trkpt lat="46.5424" lon="0.37153">
        <ele>124.6</ele>
        <time>2022-01-16T09:02:28Z</time>
      </trkpt>
      <trkpt lat="46.54241" lon="0.37145">
        <ele>125</ele>
        <time>2022-01-16T09:02:32Z</time>
      </trkpt>
      <trkpt lat="46.54243" lon="0.37135">
        <ele>125.8</ele>
        <time>2022-01-16T09:02:36Z</time>
      </trkpt>
      <trkpt lat="46.54243" lon="0.37133">
        <ele>126</ele>
        <time>2022-01-16T09:02:37Z</time>
      </trkpt>
      <trkpt lat="46.54243" lon="0.37131">
        <ele>126.4</ele>
        <time>2022-01-16T09:02:38Z</time>
      </trkpt>
      <trkpt lat="46.54244" lon="0.37121">
        <ele>127.2</ele>
        <time>2022-01-16T09:02:42Z</time>
      </trkpt>
      <trkpt lat="46.54244" lon="0.37115">
        <ele>127.4</ele>
        <time>2022-01-16T09:02:44Z</time>
      </trkpt>
      <trkpt lat="46.54246" lon="0.37103">
        <ele>128.6</ele>
        <time>2022-01-16T09:02:48Z</time>
      </trkpt>
      <trkpt lat="46.54245" lon="0.37085">
        <ele>129.6</ele>
        <time>2022-01-16T09:02:54Z</time>
      </trkpt>
      <trkpt lat="46.54245" lon="0.37082">
        <ele>130</ele>
        <time>2022-01-16T09:02:55Z</time>
      </trkpt>
      <trkpt lat="46.54242" lon="0.37068">
        <ele>131</ele>
        <time>2022-01-16T09:02:59Z</time>
      </trkpt>
      <trkpt lat="46.5424" lon="0.37062">
        <ele>131.4</ele>
        <time>2022-01-16T09:03:01Z</time>
      </trkpt>
      <trkpt lat="46.54238" lon="0.37053">
        <ele>132.2</ele>
        <time>2022-01-16T09:03:04Z</time>
      </trkpt>
      <trkpt lat="46.54238" lon="0.3705">
        <ele>132.6</ele>
        <time>2022-01-16T09:03:05Z</time>
      </trkpt>
      <trkpt lat="46.5424" lon="0.37043">
        <ele>133.2</ele>
        <time>2022-01-16T09:03:07Z</time>
      </trkpt>
      <trkpt lat="46.54241" lon="0.37041">
        <ele>133.6</ele>
        <time>2022-01-16T09:03:08Z</time>
      </trkpt>
      <trkpt lat="46.54249" lon="0.37035">
        <ele>134.4</ele>
        <time>2022-01-16T09:03:12Z</time>
      </trkpt>
      <trkpt lat="46.54251" lon="0.37033">
        <ele>134.6</ele>
        <time>2022-01-16T09:03:13Z</time>
      </trkpt>
      <trkpt lat="46.54259" lon="0.37026">
        <ele>135.8</ele>
        <time>2022-01-16T09:03:17Z</time>
      </trkpt>
      <trkpt lat="46.5426" lon="0.37023">
        <ele>136.2</ele>
        <time>2022-01-16T09:03:18Z</time>
      </trkpt>
      <trkpt lat="46.54264" lon="0.37015">
        <ele>137</ele>
        <time>2022-01-16T09:03:21Z</time>
      </trkpt>
      <trkpt lat="46.54268" lon="0.37002">
        <ele>137.4</ele>
        <time>2022-01-16T09:03:24Z</time>
      </trkpt>
      <trkpt lat="46.54265" lon="0.36981">
        <ele>138</ele>
        <time>2022-01-16T09:03:30Z</time>
      </trkpt>
      <trkpt lat="46.54257" lon="0.3696">
        <ele>138</ele>
        <time>2022-01-16T09:03:35Z</time>
      </trkpt>
      <trkpt lat="46.54255" lon="0.36955">
        <ele>138.2</ele>
        <time>2022-01-16T09:03:36Z</time>
      </trkpt>
      <trkpt lat="46.54241" lon="0.36921">
        <ele>137.8</ele>
        <time>2022-01-16T09:03:43Z</time>
      </trkpt>
      <trkpt lat="46.54237" lon="0.3691">
        <ele>138</ele>
        <time>2022-01-16T09:03:45Z</time>
      </trkpt>
      <trkpt lat="46.54235" lon="0.369">
        <ele>138.2</ele>
        <time>2022-01-16T09:03:47Z</time>
      </trkpt>
      <trkpt lat="46.54235" lon="0.36894">
        <ele>138.2</ele>
        <time>2022-01-16T09:03:48Z</time>
      </trkpt>
      <trkpt lat="46.54236" lon="0.3689">
        <ele>138.2</ele>
        <time>2022-01-16T09:03:49Z</time>
      </trkpt>
      <trkpt lat="46.54242" lon="0.36884">
        <ele>138.2</ele>
        <time>2022-01-16T09:03:51Z</time>
      </trkpt>
      <trkpt lat="46.5425" lon="0.36882">
        <ele>138.4</ele>
        <time>2022-01-16T09:03:53Z</time>
      </trkpt>
      <trkpt lat="46.54258" lon="0.36884">
        <ele>138.6</ele>
        <time>2022-01-16T09:03:55Z</time>
      </trkpt>
      <trkpt lat="46.54281" lon="0.36885">
        <ele>139.2</ele>
        <time>2022-01-16T09:04:00Z</time>
      </trkpt>
      <trkpt lat="46.54294" lon="0.36886">
        <ele>139.4</ele>
        <time>2022-01-16T09:04:03Z</time>
      </trkpt>
      <trkpt lat="46.54319" lon="0.36886">
        <ele>140.2</ele>
        <time>2022-01-16T09:04:09Z</time>
      </trkpt>
      <trkpt lat="46.54332" lon="0.36886">
        <ele>140.8</ele>
        <time>2022-01-16T09:04:12Z</time>
      </trkpt>
      <trkpt lat="46.54355" lon="0.36889">
        <ele>141</ele>
        <time>2022-01-16T09:04:18Z</time>
      </trkpt>
      <trkpt lat="46.54364" lon="0.3689">
        <ele>141.4</ele>
        <time>2022-01-16T09:04:20Z</time>
      </trkpt>
      <trkpt lat="46.54389" lon="0.36893">
        <ele>142</ele>
        <time>2022-01-16T09:04:26Z</time>
      </trkpt>
      <trkpt lat="46.54394" lon="0.36893">
        <ele>142</ele>
        <time>2022-01-16T09:04:27Z</time>
      </trkpt>
      <trkpt lat="46.54402" lon="0.3689">
        <ele>142</ele>
        <time>2022-01-16T09:04:29Z</time>
      </trkpt>
      <trkpt lat="46.54411" lon="0.36886">
        <ele>142.2</ele>
        <time>2022-01-16T09:04:31Z</time>
      </trkpt>
      <trkpt lat="46.54439" lon="0.36875">
        <ele>142.2</ele>
        <time>2022-01-16T09:04:37Z</time>
      </trkpt>
      <trkpt lat="46.54483" lon="0.36856">
        <ele>142.2</ele>
        <time>2022-01-16T09:04:46Z</time>
      </trkpt>
      <trkpt lat="46.54528" lon="0.36837">
        <ele>141.2</ele>
        <time>2022-01-16T09:04:54Z</time>
      </trkpt>
      <trkpt lat="46.54561" lon="0.36824">
        <ele>140.2</ele>
        <time>2022-01-16T09:04:59Z</time>
      </trkpt>
      <trkpt lat="46.54581" lon="0.36815">
        <ele>139</ele>
        <time>2022-01-16T09:05:02Z</time>
      </trkpt>
      <trkpt lat="46.54607" lon="0.36803">
        <ele>137.8</ele>
        <time>2022-01-16T09:05:06Z</time>
      </trkpt>
      <trkpt lat="46.54627" lon="0.36794">
        <ele>137.4</ele>
        <time>2022-01-16T09:05:09Z</time>
      </trkpt>
      <trkpt lat="46.5466" lon="0.3678">
        <ele>136.6</ele>
        <time>2022-01-16T09:05:14Z</time>
      </trkpt>
      <trkpt lat="46.54665" lon="0.36778">
        <ele>136.6</ele>
        <time>2022-01-16T09:05:15Z</time>
      </trkpt>
      <trkpt lat="46.5468" lon="0.3677">
        <ele>136.2</ele>
        <time>2022-01-16T09:05:18Z</time>
      </trkpt>
      <trkpt lat="46.54687" lon="0.3676">
        <ele>136.2</ele>
        <time>2022-01-16T09:05:20Z</time>
      </trkpt>
      <trkpt lat="46.54697" lon="0.36727">
        <ele>137.8</ele>
        <time>2022-01-16T09:05:26Z</time>
      </trkpt>
      <trkpt lat="46.54705" lon="0.36691">
        <ele>138.8</ele>
        <time>2022-01-16T09:05:33Z</time>
      </trkpt>
      <trkpt lat="46.54716" lon="0.36655">
        <ele>139.8</ele>
        <time>2022-01-16T09:05:39Z</time>
      </trkpt>
      <trkpt lat="46.54718" lon="0.36649">
        <ele>139.8</ele>
        <time>2022-01-16T09:05:40Z</time>
      </trkpt>
      <trkpt lat="46.54733" lon="0.36616">
        <ele>140.8</ele>
        <time>2022-01-16T09:05:46Z</time>
      </trkpt>
      <trkpt lat="46.54735" lon="0.36611">
        <ele>140.8</ele>
        <time>2022-01-16T09:05:47Z</time>
      </trkpt>
      <trkpt lat="46.54752" lon="0.36578">
        <ele>141.2</ele>
        <time>2022-01-16T09:05:53Z</time>
      </trkpt>
      <trkpt lat="46.54756" lon="0.36574">
        <ele>141.2</ele>
        <time>2022-01-16T09:05:54Z</time>
      </trkpt>
      <trkpt lat="46.54763" lon="0.36568">
        <ele>141.2</ele>
        <time>2022-01-16T09:05:56Z</time>
      </trkpt>
      <trkpt lat="46.54767" lon="0.36567">
        <ele>141.4</ele>
        <time>2022-01-16T09:05:57Z</time>
      </trkpt>
      <trkpt lat="46.54774" lon="0.36563">
        <ele>141.6</ele>
        <time>2022-01-16T09:06:00Z</time>
      </trkpt>
      <trkpt lat="46.54776" lon="0.36558">
        <ele>141.6</ele>
        <time>2022-01-16T09:06:01Z</time>
      </trkpt>
      <trkpt lat="46.54777" lon="0.36553">
        <ele>141.6</ele>
        <time>2022-01-16T09:06:02Z</time>
      </trkpt>
      <trkpt lat="46.5478" lon="0.36533">
        <ele>141.4</ele>
        <time>2022-01-16T09:06:05Z</time>
      </trkpt>
      <trkpt lat="46.5478" lon="0.36526">
        <ele>141.2</ele>
        <time>2022-01-16T09:06:06Z</time>
      </trkpt>
      <trkpt lat="46.54785" lon="0.36496">
        <ele>140.6</ele>
        <time>2022-01-16T09:06:10Z</time>
      </trkpt>
      <trkpt lat="46.54789" lon="0.3649">
        <ele>140.4</ele>
        <time>2022-01-16T09:06:11Z</time>
      </trkpt>
      <trkpt lat="46.54793" lon="0.36487">
        <ele>140.4</ele>
        <time>2022-01-16T09:06:12Z</time>
      </trkpt>
      <trkpt lat="46.54804" lon="0.36484">
        <ele>140</ele>
        <time>2022-01-16T09:06:14Z</time>
      </trkpt>
      <trkpt lat="46.5481" lon="0.36482">
        <ele>139.8</ele>
        <time>2022-01-16T09:06:15Z</time>
      </trkpt>
      <trkpt lat="46.54835" lon="0.36473">
        <ele>139.4</ele>
        <time>2022-01-16T09:06:20Z</time>
      </trkpt>
      <trkpt lat="46.5484" lon="0.36473">
        <ele>139.2</ele>
        <time>2022-01-16T09:06:21Z</time>
      </trkpt>
      <trkpt lat="46.54853" lon="0.36473">
        <ele>138.8</ele>
        <time>2022-01-16T09:06:23Z</time>
      </trkpt>
      <trkpt lat="46.5486" lon="0.36473">
        <ele>138.6</ele>
        <time>2022-01-16T09:06:24Z</time>
      </trkpt>
      <trkpt lat="46.5489" lon="0.3648">
        <ele>137.6</ele>
        <time>2022-01-16T09:06:28Z</time>
      </trkpt>
      <trkpt lat="46.54897" lon="0.36482">
        <ele>137.2</ele>
        <time>2022-01-16T09:06:29Z</time>
      </trkpt>
      <trkpt lat="46.54912" lon="0.36487">
        <ele>136.6</ele>
        <time>2022-01-16T09:06:31Z</time>
      </trkpt>
      <trkpt lat="46.54925" lon="0.36492">
        <ele>136</ele>
        <time>2022-01-16T09:06:33Z</time>
      </trkpt>
      <trkpt lat="46.5493" lon="0.36495">
        <ele>134.6</ele>
        <time>2022-01-16T09:06:34Z</time>
      </trkpt>
      <trkpt lat="46.54937" lon="0.36501">
        <ele>133</ele>
        <time>2022-01-16T09:06:36Z</time>
      </trkpt>
      <trkpt lat="46.54938" lon="0.36503">
        <ele>132.4</ele>
        <time>2022-01-16T09:06:37Z</time>
      </trkpt>
      <trkpt lat="46.54939" lon="0.36504">
        <ele>131.8</ele>
        <time>2022-01-16T09:06:38Z</time>
      </trkpt>
      <trkpt lat="46.54941" lon="0.36504">
        <ele>131.6</ele>
        <time>2022-01-16T09:06:39Z</time>
      </trkpt>
      <trkpt lat="46.54945" lon="0.36505">
        <ele>131.4</ele>
        <time>2022-01-16T09:06:41Z</time>
      </trkpt>
      <trkpt lat="46.54957" lon="0.36514">
        <ele>131</ele>
        <time>2022-01-16T09:06:45Z</time>
      </trkpt>
      <trkpt lat="46.54961" lon="0.36519">
        <ele>130.4</ele>
        <time>2022-01-16T09:06:46Z</time>
      </trkpt>
      <trkpt lat="46.5497" lon="0.3653">
        <ele>129.6</ele>
        <time>2022-01-16T09:06:48Z</time>
      </trkpt>
      <trkpt lat="46.54976" lon="0.36536">
        <ele>128.8</ele>
        <time>2022-01-16T09:06:49Z</time>
      </trkpt>
      <trkpt lat="46.54981" lon="0.36542">
        <ele>128.4</ele>
        <time>2022-01-16T09:06:50Z</time>
      </trkpt>
      <trkpt lat="46.54988" lon="0.36548">
        <ele>128</ele>
        <time>2022-01-16T09:06:51Z</time>
      </trkpt>
      <trkpt lat="46.54995" lon="0.36553">
        <ele>127.8</ele>
        <time>2022-01-16T09:06:52Z</time>
      </trkpt>
      <trkpt lat="46.55011" lon="0.36562">
        <ele>125</ele>
        <time>2022-01-16T09:06:54Z</time>
      </trkpt>
      <trkpt lat="46.5502" lon="0.36567">
        <ele>123.4</ele>
        <time>2022-01-16T09:06:55Z</time>
      </trkpt>
      <trkpt lat="46.5504" lon="0.36576">
        <ele>122</ele>
        <time>2022-01-16T09:06:57Z</time>
      </trkpt>
      <trkpt lat="46.5506" lon="0.36586">
        <ele>120.2</ele>
        <time>2022-01-16T09:06:59Z</time>
      </trkpt>
      <trkpt lat="46.55077" lon="0.36596">
        <ele>118.4</ele>
        <time>2022-01-16T09:07:01Z</time>
      </trkpt>
      <trkpt lat="46.55084" lon="0.36602">
        <ele>117.8</ele>
        <time>2022-01-16T09:07:02Z</time>
      </trkpt>
      <trkpt lat="46.5509" lon="0.36607">
        <ele>117</ele>
        <time>2022-01-16T09:07:03Z</time>
      </trkpt>
      <trkpt lat="46.55096" lon="0.3661">
        <ele>116</ele>
        <time>2022-01-16T09:07:04Z</time>
      </trkpt>
      <trkpt lat="46.55101" lon="0.36612">
        <ele>115.6</ele>
        <time>2022-01-16T09:07:05Z</time>
      </trkpt>
      <trkpt lat="46.55105" lon="0.36613">
        <ele>115</ele>
        <time>2022-01-16T09:07:06Z</time>
      </trkpt>
      <trkpt lat="46.5511" lon="0.36615">
        <ele>114.2</ele>
        <time>2022-01-16T09:07:08Z</time>
      </trkpt>
      <trkpt lat="46.55111" lon="0.36615">
        <ele>113.8</ele>
        <time>2022-01-16T09:07:09Z</time>
      </trkpt>
      <trkpt lat="46.55112" lon="0.36615">
        <ele>113.6</ele>
        <time>2022-01-16T09:07:10Z</time>
      </trkpt>
      <trkpt lat="46.55114" lon="0.36616">
        <ele>113.4</ele>
        <time>2022-01-16T09:07:12Z</time>
      </trkpt>
      <trkpt lat="46.55119" lon="0.36611">
        <ele>113.2</ele>
        <time>2022-01-16T09:07:15Z</time>
      </trkpt>
      <trkpt lat="46.55119" lon="0.36607">
        <ele>113.2</ele>
        <time>2022-01-16T09:07:16Z</time>
      </trkpt>
      <trkpt lat="46.55118" lon="0.36602">
        <ele>113</ele>
        <time>2022-01-16T09:07:17Z</time>
      </trkpt>
      <trkpt lat="46.55117" lon="0.36591">
        <ele>112.6</ele>
        <time>2022-01-16T09:07:19Z</time>
      </trkpt>
      <trkpt lat="46.55112" lon="0.36579">
        <ele>112</ele>
        <time>2022-01-16T09:07:21Z</time>
      </trkpt>
      <trkpt lat="46.55095" lon="0.36559">
        <ele>110.8</ele>
        <time>2022-01-16T09:07:25Z</time>
      </trkpt>
      <trkpt lat="46.55081" lon="0.36548">
        <ele>109.6</ele>
        <time>2022-01-16T09:07:28Z</time>
      </trkpt>
      <trkpt lat="46.55073" lon="0.36538">
        <ele>108.8</ele>
        <time>2022-01-16T09:07:30Z</time>
      </trkpt>
      <trkpt lat="46.55069" lon="0.36532">
        <ele>108.2</ele>
        <time>2022-01-16T09:07:31Z</time>
      </trkpt>
      <trkpt lat="46.55061" lon="0.36518">
        <ele>106.6</ele>
        <time>2022-01-16T09:07:33Z</time>
      </trkpt>
      <trkpt lat="46.55058" lon="0.3651">
        <ele>106.2</ele>
        <time>2022-01-16T09:07:34Z</time>
      </trkpt>
      <trkpt lat="46.55053" lon="0.36491">
        <ele>105.4</ele>
        <time>2022-01-16T09:07:36Z</time>
      </trkpt>
      <trkpt lat="46.55053" lon="0.36482">
        <ele>104.8</ele>
        <time>2022-01-16T09:07:37Z</time>
      </trkpt>
      <trkpt lat="46.55052" lon="0.36472">
        <ele>104.2</ele>
        <time>2022-01-16T09:07:38Z</time>
      </trkpt>
      <trkpt lat="46.5505" lon="0.36442">
        <ele>102.6</ele>
        <time>2022-01-16T09:07:41Z</time>
      </trkpt>
      <trkpt lat="46.55048" lon="0.3641">
        <ele>101</ele>
        <time>2022-01-16T09:07:44Z</time>
      </trkpt>
      <trkpt lat="46.55049" lon="0.36391">
        <ele>100</ele>
        <time>2022-01-16T09:07:46Z</time>
      </trkpt>
      <trkpt lat="46.5505" lon="0.36381">
        <ele>99.8</ele>
        <time>2022-01-16T09:07:47Z</time>
      </trkpt>
      <trkpt lat="46.55051" lon="0.36372">
        <ele>99.4</ele>
        <time>2022-01-16T09:07:48Z</time>
      </trkpt>
      <trkpt lat="46.55053" lon="0.36366">
        <ele>98.6</ele>
        <time>2022-01-16T09:07:49Z</time>
      </trkpt>
      <trkpt lat="46.55054" lon="0.36353">
        <ele>97.8</ele>
        <time>2022-01-16T09:07:51Z</time>
      </trkpt>
      <trkpt lat="46.55055" lon="0.36348">
        <ele>97.4</ele>
        <time>2022-01-16T09:07:52Z</time>
      </trkpt>
      <trkpt lat="46.55055" lon="0.36344">
        <ele>97.4</ele>
        <time>2022-01-16T09:07:53Z</time>
      </trkpt>
      <trkpt lat="46.55053" lon="0.36327">
        <ele>97</ele>
        <time>2022-01-16T09:07:57Z</time>
      </trkpt>
      <trkpt lat="46.55051" lon="0.36325">
        <ele>97</ele>
        <time>2022-01-16T09:07:58Z</time>
      </trkpt>
      <trkpt lat="46.55042" lon="0.3632">
        <ele>96.8</ele>
        <time>2022-01-16T09:08:01Z</time>
      </trkpt>
      <trkpt lat="46.55039" lon="0.36317">
        <ele>96.8</ele>
        <time>2022-01-16T09:08:02Z</time>
      </trkpt>
      <trkpt lat="46.55036" lon="0.36314">
        <ele>97</ele>
        <time>2022-01-16T09:08:03Z</time>
      </trkpt>
      <trkpt lat="46.55025" lon="0.36301">
        <ele>98</ele>
        <time>2022-01-16T09:08:07Z</time>
      </trkpt>
      <trkpt lat="46.5502" lon="0.36296">
        <ele>98.6</ele>
        <time>2022-01-16T09:08:09Z</time>
      </trkpt>
      <trkpt lat="46.55014" lon="0.3629">
        <ele>100.2</ele>
        <time>2022-01-16T09:08:12Z</time>
      </trkpt>
      <trkpt lat="46.55013" lon="0.36288">
        <ele>100.6</ele>
        <time>2022-01-16T09:08:13Z</time>
      </trkpt>
      <trkpt lat="46.5501" lon="0.36283">
        <ele>101.4</ele>
        <time>2022-01-16T09:08:15Z</time>
      </trkpt>
      <trkpt lat="46.55002" lon="0.36272">
        <ele>102.8</ele>
        <time>2022-01-16T09:08:19Z</time>
      </trkpt>
      <trkpt lat="46.55" lon="0.36269">
        <ele>103.2</ele>
        <time>2022-01-16T09:08:20Z</time>
      </trkpt>
      <trkpt lat="46.54989" lon="0.36256">
        <ele>103.8</ele>
        <time>2022-01-16T09:08:25Z</time>
      </trkpt>
      <trkpt lat="46.54987" lon="0.36253">
        <ele>104</ele>
        <time>2022-01-16T09:08:26Z</time>
      </trkpt>
      <trkpt lat="46.54974" lon="0.36243">
        <ele>105</ele>
        <time>2022-01-16T09:08:32Z</time>
      </trkpt>
      <trkpt lat="46.54954" lon="0.36227">
        <ele>105.6</ele>
        <time>2022-01-16T09:08:38Z</time>
      </trkpt>
      <trkpt lat="46.54941" lon="0.36213">
        <ele>106</ele>
        <time>2022-01-16T09:08:43Z</time>
      </trkpt>
      <trkpt lat="46.54925" lon="0.36196">
        <ele>107.2</ele>
        <time>2022-01-16T09:08:50Z</time>
      </trkpt>
      <trkpt lat="46.54923" lon="0.36193">
        <ele>107.6</ele>
        <time>2022-01-16T09:08:51Z</time>
      </trkpt>
      <trkpt lat="46.54916" lon="0.36184">
        <ele>108.6</ele>
        <time>2022-01-16T09:08:55Z</time>
      </trkpt>
      <trkpt lat="46.54909" lon="0.36178">
        <ele>109.4</ele>
        <time>2022-01-16T09:08:58Z</time>
      </trkpt>
      <trkpt lat="46.54905" lon="0.36173">
        <ele>109.6</ele>
        <time>2022-01-16T09:09:00Z</time>
      </trkpt>
      <trkpt lat="46.54896" lon="0.36162">
        <ele>110.2</ele>
        <time>2022-01-16T09:09:05Z</time>
      </trkpt>
      <trkpt lat="46.54887" lon="0.36152">
        <ele>110.8</ele>
        <time>2022-01-16T09:09:09Z</time>
      </trkpt>
      <trkpt lat="46.54881" lon="0.36145">
        <ele>111.6</ele>
        <time>2022-01-16T09:09:12Z</time>
      </trkpt>
      <trkpt lat="46.54879" lon="0.36143">
        <ele>111.8</ele>
        <time>2022-01-16T09:09:13Z</time>
      </trkpt>
      <trkpt lat="46.54868" lon="0.36131">
        <ele>112.8</ele>
        <time>2022-01-16T09:09:19Z</time>
      </trkpt>
      <trkpt lat="46.54866" lon="0.36129">
        <ele>113</ele>
        <time>2022-01-16T09:09:20Z</time>
      </trkpt>
      <trkpt lat="46.54854" lon="0.36115">
        <ele>113.8</ele>
        <time>2022-01-16T09:09:27Z</time>
      </trkpt>
      <trkpt lat="46.54852" lon="0.36112">
        <ele>114</ele>
        <time>2022-01-16T09:09:28Z</time>
      </trkpt>
      <trkpt lat="46.54841" lon="0.36102">
        <ele>114.6</ele>
        <time>2022-01-16T09:09:33Z</time>
      </trkpt>
      <trkpt lat="46.54821" lon="0.36081">
        <ele>115.2</ele>
        <time>2022-01-16T09:09:41Z</time>
      </trkpt>
      <trkpt lat="46.54805" lon="0.36055">
        <ele>115.2</ele>
        <time>2022-01-16T09:09:48Z</time>
      </trkpt>
      <trkpt lat="46.54801" lon="0.36046">
        <ele>115.2</ele>
        <time>2022-01-16T09:09:50Z</time>
      </trkpt>
      <trkpt lat="46.54794" lon="0.3603">
        <ele>114.6</ele>
        <time>2022-01-16T09:09:53Z</time>
      </trkpt>
      <trkpt lat="46.54791" lon="0.36024">
        <ele>114.2</ele>
        <time>2022-01-16T09:09:54Z</time>
      </trkpt>
      <trkpt lat="46.54789" lon="0.36019">
        <ele>113.8</ele>
        <time>2022-01-16T09:09:55Z</time>
      </trkpt>
      <trkpt lat="46.54784" lon="0.36004">
        <ele>113.4</ele>
        <time>2022-01-16T09:09:58Z</time>
      </trkpt>
      <trkpt lat="46.54781" lon="0.35999">
        <ele>113.2</ele>
        <time>2022-01-16T09:09:59Z</time>
      </trkpt>
      <trkpt lat="46.54762" lon="0.35969">
        <ele>113.4</ele>
        <time>2022-01-16T09:10:05Z</time>
      </trkpt>
      <trkpt lat="46.54749" lon="0.35948">
        <ele>113.8</ele>
        <time>2022-01-16T09:10:09Z</time>
      </trkpt>
      <trkpt lat="46.54745" lon="0.35938">
        <ele>114.2</ele>
        <time>2022-01-16T09:10:11Z</time>
      </trkpt>
      <trkpt lat="46.54738" lon="0.35916">
        <ele>114.8</ele>
        <time>2022-01-16T09:10:16Z</time>
      </trkpt>
      <trkpt lat="46.54737" lon="0.35911">
        <ele>115.4</ele>
        <time>2022-01-16T09:10:17Z</time>
      </trkpt>
      <trkpt lat="46.54737" lon="0.35911">
        <ele>116</ele>
        <time>2022-01-16T09:10:18Z</time>
      </trkpt>
      <trkpt lat="46.54727" lon="0.35888">
        <ele>117</ele>
        <time>2022-01-16T09:10:24Z</time>
      </trkpt>
      <trkpt lat="46.54726" lon="0.35885">
        <ele>117.2</ele>
        <time>2022-01-16T09:10:25Z</time>
      </trkpt>
      <trkpt lat="46.54721" lon="0.35876">
        <ele>118.2</ele>
        <time>2022-01-16T09:10:28Z</time>
      </trkpt>
      <trkpt lat="46.54719" lon="0.35871">
        <ele>118.8</ele>
        <time>2022-01-16T09:10:30Z</time>
      </trkpt>
      <trkpt lat="46.54716" lon="0.35862">
        <ele>119.4</ele>
        <time>2022-01-16T09:10:33Z</time>
      </trkpt>
      <trkpt lat="46.54712" lon="0.3585">
        <ele>120.4</ele>
        <time>2022-01-16T09:10:37Z</time>
      </trkpt>
      <trkpt lat="46.54711" lon="0.35848">
        <ele>120.6</ele>
        <time>2022-01-16T09:10:38Z</time>
      </trkpt>
      <trkpt lat="46.54706" lon="0.35832">
        <ele>121.6</ele>
        <time>2022-01-16T09:10:43Z</time>
      </trkpt>
      <trkpt lat="46.54705" lon="0.35829">
        <ele>121.8</ele>
        <time>2022-01-16T09:10:44Z</time>
      </trkpt>
      <trkpt lat="46.54704" lon="0.35813">
        <ele>122</ele>
        <time>2022-01-16T09:10:49Z</time>
      </trkpt>
      <trkpt lat="46.54699" lon="0.35791">
        <ele>120.8</ele>
        <time>2022-01-16T09:10:55Z</time>
      </trkpt>
      <trkpt lat="46.54697" lon="0.35786">
        <ele>120.6</ele>
        <time>2022-01-16T09:10:56Z</time>
      </trkpt>
      <trkpt lat="46.54685" lon="0.35763">
        <ele>120.2</ele>
        <time>2022-01-16T09:11:01Z</time>
      </trkpt>
      <trkpt lat="46.54667" lon="0.35732">
        <ele>120.8</ele>
        <time>2022-01-16T09:11:08Z</time>
      </trkpt>
      <trkpt lat="46.54656" lon="0.35717">
        <ele>121.6</ele>
        <time>2022-01-16T09:11:12Z</time>
      </trkpt>
      <trkpt lat="46.54651" lon="0.3571">
        <ele>122</ele>
        <time>2022-01-16T09:11:14Z</time>
      </trkpt>
      <trkpt lat="46.54629" lon="0.35683">
        <ele>122.6</ele>
        <time>2022-01-16T09:11:21Z</time>
      </trkpt>
      <trkpt lat="46.54626" lon="0.3568">
        <ele>122.8</ele>
        <time>2022-01-16T09:11:22Z</time>
      </trkpt>
      <trkpt lat="46.54609" lon="0.35661">
        <ele>123</ele>
        <time>2022-01-16T09:11:28Z</time>
      </trkpt>
      <trkpt lat="46.54596" lon="0.35647">
        <ele>123</ele>
        <time>2022-01-16T09:11:32Z</time>
      </trkpt>
      <trkpt lat="46.5459" lon="0.3564">
        <ele>123</ele>
        <time>2022-01-16T09:11:34Z</time>
      </trkpt>
      <trkpt lat="46.54583" lon="0.35632">
        <ele>123.8</ele>
        <time>2022-01-16T09:11:37Z</time>
      </trkpt>
      <trkpt lat="46.54579" lon="0.35629">
        <ele>124.2</ele>
        <time>2022-01-16T09:11:39Z</time>
      </trkpt>
      <trkpt lat="46.54573" lon="0.35622">
        <ele>125</ele>
        <time>2022-01-16T09:11:42Z</time>
      </trkpt>
      <trkpt lat="46.54567" lon="0.35613">
        <ele>125.8</ele>
        <time>2022-01-16T09:11:45Z</time>
      </trkpt>
      <trkpt lat="46.54565" lon="0.3561">
        <ele>126.2</ele>
        <time>2022-01-16T09:11:46Z</time>
      </trkpt>
      <trkpt lat="46.54553" lon="0.35593">
        <ele>127</ele>
        <time>2022-01-16T09:11:52Z</time>
      </trkpt>
      <trkpt lat="46.54551" lon="0.35591">
        <ele>127.2</ele>
        <time>2022-01-16T09:11:53Z</time>
      </trkpt>
      <trkpt lat="46.5454" lon="0.35576">
        <ele>128.4</ele>
        <time>2022-01-16T09:11:59Z</time>
      </trkpt>
      <trkpt lat="46.54529" lon="0.3556">
        <ele>129.4</ele>
        <time>2022-01-16T09:12:05Z</time>
      </trkpt>
      <trkpt lat="46.54528" lon="0.35557">
        <ele>129.6</ele>
        <time>2022-01-16T09:12:06Z</time>
      </trkpt>
      <trkpt lat="46.54518" lon="0.35548">
        <ele>130.4</ele>
        <time>2022-01-16T09:12:11Z</time>
      </trkpt>
      <trkpt lat="46.54514" lon="0.35547">
        <ele>130.6</ele>
        <time>2022-01-16T09:12:13Z</time>
      </trkpt>
      <trkpt lat="46.54506" lon="0.3555">
        <ele>131.6</ele>
        <time>2022-01-16T09:12:17Z</time>
      </trkpt>
      <trkpt lat="46.54504" lon="0.35551">
        <ele>131.8</ele>
        <time>2022-01-16T09:12:18Z</time>
      </trkpt>
      <trkpt lat="46.54497" lon="0.35552">
        <ele>132.2</ele>
        <time>2022-01-16T09:12:22Z</time>
      </trkpt>
      <trkpt lat="46.54488" lon="0.35551">
        <ele>132.8</ele>
        <time>2022-01-16T09:12:27Z</time>
      </trkpt>
      <trkpt lat="46.54483" lon="0.35551">
        <ele>133</ele>
        <time>2022-01-16T09:12:29Z</time>
      </trkpt>
      <trkpt lat="46.5447" lon="0.35548">
        <ele>134</ele>
        <time>2022-01-16T09:12:35Z</time>
      </trkpt>
      <trkpt lat="46.54457" lon="0.35543">
        <ele>134.6</ele>
        <time>2022-01-16T09:12:41Z</time>
      </trkpt>
      <trkpt lat="46.54445" lon="0.35537">
        <ele>135</ele>
        <time>2022-01-16T09:12:45Z</time>
      </trkpt>
      <trkpt lat="46.54442" lon="0.35534">
        <ele>135</ele>
        <time>2022-01-16T09:12:46Z</time>
      </trkpt>
      <trkpt lat="46.54439" lon="0.35529">
        <ele>135</ele>
        <time>2022-01-16T09:12:48Z</time>
      </trkpt>
      <trkpt lat="46.54432" lon="0.35524">
        <ele>135</ele>
        <time>2022-01-16T09:12:51Z</time>
      </trkpt>
      <trkpt lat="46.54417" lon="0.35514">
        <ele>135.8</ele>
        <time>2022-01-16T09:12:57Z</time>
      </trkpt>
      <trkpt lat="46.54409" lon="0.35503">
        <ele>136</ele>
        <time>2022-01-16T09:13:02Z</time>
      </trkpt>
      <trkpt lat="46.54403" lon="0.35496">
        <ele>136</ele>
        <time>2022-01-16T09:13:03Z</time>
      </trkpt>
      <trkpt lat="46.54386" lon="0.35485">
        <ele>136.4</ele>
        <time>2022-01-16T09:13:09Z</time>
      </trkpt>
      <trkpt lat="46.54377" lon="0.35476">
        <ele>136.8</ele>
        <time>2022-01-16T09:13:13Z</time>
      </trkpt>
      <trkpt lat="46.54375" lon="0.35472">
        <ele>136.8</ele>
        <time>2022-01-16T09:13:14Z</time>
      </trkpt>
      <trkpt lat="46.54369" lon="0.35461">
        <ele>137</ele>
        <time>2022-01-16T09:13:17Z</time>
      </trkpt>
      <trkpt lat="46.54365" lon="0.35457">
        <ele>137</ele>
        <time>2022-01-16T09:13:19Z</time>
      </trkpt>
      <trkpt lat="46.54355" lon="0.35432">
        <ele>136.8</ele>
        <time>2022-01-16T09:13:24Z</time>
      </trkpt>
      <trkpt lat="46.54354" lon="0.35419">
        <ele>137</ele>
        <time>2022-01-16T09:13:28Z</time>
      </trkpt>
      <trkpt lat="46.54354" lon="0.35416">
        <ele>137</ele>
        <time>2022-01-16T09:13:29Z</time>
      </trkpt>
      <trkpt lat="46.54353" lon="0.35412">
        <ele>137.2</ele>
        <time>2022-01-16T09:13:33Z</time>
      </trkpt>
      <trkpt lat="46.54352" lon="0.35412">
        <ele>137.2</ele>
        <time>2022-01-16T09:13:34Z</time>
      </trkpt>
      <trkpt lat="46.54352" lon="0.35417">
        <ele>136.8</ele>
        <time>2022-01-16T09:13:38Z</time>
      </trkpt>
      <trkpt lat="46.54354" lon="0.35418">
        <ele>136.8</ele>
        <time>2022-01-16T09:13:40Z</time>
      </trkpt>
      <trkpt lat="46.54354" lon="0.35421">
        <ele>136.8</ele>
        <time>2022-01-16T09:13:42Z</time>
      </trkpt>
      <trkpt lat="46.54356" lon="0.35422">
        <ele>136.6</ele>
        <time>2022-01-16T09:13:44Z</time>
      </trkpt>
      <trkpt lat="46.5436" lon="0.35424">
        <ele>136.6</ele>
        <time>2022-01-16T09:13:46Z</time>
      </trkpt>
      <trkpt lat="46.54374" lon="0.35431">
        <ele>136.4</ele>
        <time>2022-01-16T09:13:51Z</time>
      </trkpt>
      <trkpt lat="46.54379" lon="0.35433">
        <ele>136.4</ele>
        <time>2022-01-16T09:13:53Z</time>
      </trkpt>
      <trkpt lat="46.54386" lon="0.35438">
        <ele>136.2</ele>
        <time>2022-01-16T09:13:56Z</time>
      </trkpt>
      <trkpt lat="46.54387" lon="0.35441">
        <ele>136</ele>
        <time>2022-01-16T09:13:57Z</time>
      </trkpt>
      <trkpt lat="46.54387" lon="0.35444">
        <ele>136</ele>
        <time>2022-01-16T09:13:58Z</time>
      </trkpt>
      <trkpt lat="46.54389" lon="0.35449">
        <ele>135.6</ele>
        <time>2022-01-16T09:14:00Z</time>
      </trkpt>
      <trkpt lat="46.54394" lon="0.35452">
        <ele>135.4</ele>
        <time>2022-01-16T09:14:02Z</time>
      </trkpt>
      <trkpt lat="46.54406" lon="0.35455">
        <ele>135.2</ele>
        <time>2022-01-16T09:14:07Z</time>
      </trkpt>
      <trkpt lat="46.54409" lon="0.35458">
        <ele>135</ele>
        <time>2022-01-16T09:14:09Z</time>
      </trkpt>
      <trkpt lat="46.54413" lon="0.35458">
        <ele>135</ele>
        <time>2022-01-16T09:14:11Z</time>
      </trkpt>
      <trkpt lat="46.54415" lon="0.35459">
        <ele>134.8</ele>
        <time>2022-01-16T09:14:12Z</time>
      </trkpt>
      <trkpt lat="46.54427" lon="0.35466">
        <ele>134.2</ele>
        <time>2022-01-16T09:14:16Z</time>
      </trkpt>
      <trkpt lat="46.54433" lon="0.35465">
        <ele>134</ele>
        <time>2022-01-16T09:14:19Z</time>
      </trkpt>
      <trkpt lat="46.54435" lon="0.35462">
        <ele>134</ele>
        <time>2022-01-16T09:14:20Z</time>
      </trkpt>
      <trkpt lat="46.54437" lon="0.35456">
        <ele>133.8</ele>
        <time>2022-01-16T09:14:22Z</time>
      </trkpt>
      <trkpt lat="46.54439" lon="0.35448">
        <ele>133.2</ele>
        <time>2022-01-16T09:14:25Z</time>
      </trkpt>
      <trkpt lat="46.54443" lon="0.35447">
        <ele>132.6</ele>
        <time>2022-01-16T09:14:27Z</time>
      </trkpt>
      <trkpt lat="46.54447" lon="0.35449">
        <ele>132.2</ele>
        <time>2022-01-16T09:14:29Z</time>
      </trkpt>
      <trkpt lat="46.54463" lon="0.35463">
        <ele>131.8</ele>
        <time>2022-01-16T09:14:35Z</time>
      </trkpt>
      <trkpt lat="46.54466" lon="0.35466">
        <ele>131.4</ele>
        <time>2022-01-16T09:14:37Z</time>
      </trkpt>
      <trkpt lat="46.54468" lon="0.3547">
        <ele>131.4</ele>
        <time>2022-01-16T09:14:39Z</time>
      </trkpt>
      <trkpt lat="46.5447" lon="0.35471">
        <ele>131.4</ele>
        <time>2022-01-16T09:14:40Z</time>
      </trkpt>
      <trkpt lat="46.54477" lon="0.35473">
        <ele>131</ele>
        <time>2022-01-16T09:14:43Z</time>
      </trkpt>
      <trkpt lat="46.54479" lon="0.35476">
        <ele>131</ele>
        <time>2022-01-16T09:14:44Z</time>
      </trkpt>
      <trkpt lat="46.54481" lon="0.35478">
        <ele>130.8</ele>
        <time>2022-01-16T09:14:45Z</time>
      </trkpt>
      <trkpt lat="46.54486" lon="0.35478">
        <ele>130.2</ele>
        <time>2022-01-16T09:14:48Z</time>
      </trkpt>
      <trkpt lat="46.54488" lon="0.35477">
        <ele>130.2</ele>
        <time>2022-01-16T09:14:49Z</time>
      </trkpt>
      <trkpt lat="46.54491" lon="0.35468">
        <ele>129.8</ele>
        <time>2022-01-16T09:14:52Z</time>
      </trkpt>
      <trkpt lat="46.54492" lon="0.35463">
        <ele>129.2</ele>
        <time>2022-01-16T09:14:54Z</time>
      </trkpt>
      <trkpt lat="46.54494" lon="0.35455">
        <ele>128.4</ele>
        <time>2022-01-16T09:14:58Z</time>
      </trkpt>
      <trkpt lat="46.54494" lon="0.35453">
        <ele>128.2</ele>
        <time>2022-01-16T09:15:00Z</time>
      </trkpt>
      <trkpt lat="46.54496" lon="0.35448">
        <ele>128.2</ele>
        <time>2022-01-16T09:15:03Z</time>
      </trkpt>
      <trkpt lat="46.54498" lon="0.35446">
        <ele>128.2</ele>
        <time>2022-01-16T09:15:04Z</time>
      </trkpt>
      <trkpt lat="46.54503" lon="0.35442">
        <ele>127.6</ele>
        <time>2022-01-16T09:15:07Z</time>
      </trkpt>
      <trkpt lat="46.54505" lon="0.35439">
        <ele>127.4</ele>
        <time>2022-01-16T09:15:08Z</time>
      </trkpt>
      <trkpt lat="46.5451" lon="0.35424">
        <ele>127.4</ele>
        <time>2022-01-16T09:15:13Z</time>
      </trkpt>
      <trkpt lat="46.54515" lon="0.35406">
        <ele>127.8</ele>
        <time>2022-01-16T09:15:18Z</time>
      </trkpt>
      <trkpt lat="46.54528" lon="0.354">
        <ele>127.8</ele>
        <time>2022-01-16T09:15:22Z</time>
      </trkpt>
      <trkpt lat="46.54534" lon="0.35395">
        <ele>126.8</ele>
        <time>2022-01-16T09:15:25Z</time>
      </trkpt>
      <trkpt lat="46.54536" lon="0.3539">
        <ele>126.6</ele>
        <time>2022-01-16T09:15:26Z</time>
      </trkpt>
      <trkpt lat="46.54543" lon="0.35358">
        <ele>126</ele>
        <time>2022-01-16T09:15:32Z</time>
      </trkpt>
      <trkpt lat="46.54544" lon="0.35355">
        <ele>126</ele>
        <time>2022-01-16T09:15:33Z</time>
      </trkpt>
      <trkpt lat="46.54551" lon="0.35353">
        <ele>126.2</ele>
        <time>2022-01-16T09:15:35Z</time>
      </trkpt>
      <trkpt lat="46.54562" lon="0.3535">
        <ele>125.2</ele>
        <time>2022-01-16T09:15:39Z</time>
      </trkpt>
      <trkpt lat="46.54569" lon="0.35349">
        <ele>123.8</ele>
        <time>2022-01-16T09:15:41Z</time>
      </trkpt>
      <trkpt lat="46.54579" lon="0.35349">
        <ele>122.2</ele>
        <time>2022-01-16T09:15:44Z</time>
      </trkpt>
      <trkpt lat="46.54583" lon="0.35352">
        <ele>120</ele>
        <time>2022-01-16T09:15:46Z</time>
      </trkpt>
      <trkpt lat="46.54585" lon="0.35353">
        <ele>118.8</ele>
        <time>2022-01-16T09:15:47Z</time>
      </trkpt>
      <trkpt lat="46.54591" lon="0.35354">
        <ele>117.4</ele>
        <time>2022-01-16T09:15:49Z</time>
      </trkpt>
      <trkpt lat="46.54597" lon="0.35355">
        <ele>116</ele>
        <time>2022-01-16T09:15:51Z</time>
      </trkpt>
      <trkpt lat="46.54605" lon="0.35361">
        <ele>114</ele>
        <time>2022-01-16T09:15:53Z</time>
      </trkpt>
      <trkpt lat="46.54613" lon="0.35365">
        <ele>112.8</ele>
        <time>2022-01-16T09:15:55Z</time>
      </trkpt>
      <trkpt lat="46.5462" lon="0.35369">
        <ele>111.4</ele>
        <time>2022-01-16T09:15:57Z</time>
      </trkpt>
      <trkpt lat="46.5463" lon="0.35378">
        <ele>110.4</ele>
        <time>2022-01-16T09:16:00Z</time>
      </trkpt>
      <trkpt lat="46.54633" lon="0.35381">
        <ele>110</ele>
        <time>2022-01-16T09:16:01Z</time>
      </trkpt>
      <trkpt lat="46.54646" lon="0.35395">
        <ele>108.8</ele>
        <time>2022-01-16T09:16:05Z</time>
      </trkpt>
      <trkpt lat="46.54655" lon="0.35401">
        <ele>107.8</ele>
        <time>2022-01-16T09:16:07Z</time>
      </trkpt>
      <trkpt lat="46.54659" lon="0.35404">
        <ele>107.4</ele>
        <time>2022-01-16T09:16:08Z</time>
      </trkpt>
      <trkpt lat="46.54667" lon="0.35409">
        <ele>107.2</ele>
        <time>2022-01-16T09:16:09Z</time>
      </trkpt>
      <trkpt lat="46.5467" lon="0.35413">
        <ele>106.8</ele>
        <time>2022-01-16T09:16:11Z</time>
      </trkpt>
      <trkpt lat="46.54675" lon="0.35417">
        <ele>106.4</ele>
        <time>2022-01-16T09:16:12Z</time>
      </trkpt>
      <trkpt lat="46.54681" lon="0.35425">
        <ele>105.8</ele>
        <time>2022-01-16T09:16:14Z</time>
      </trkpt>
      <trkpt lat="46.54683" lon="0.35429">
        <ele>105.4</ele>
        <time>2022-01-16T09:16:15Z</time>
      </trkpt>
      <trkpt lat="46.54688" lon="0.35444">
        <ele>104.8</ele>
        <time>2022-01-16T09:16:19Z</time>
      </trkpt>
      <trkpt lat="46.54689" lon="0.35465">
        <ele>104.8</ele>
        <time>2022-01-16T09:16:23Z</time>
      </trkpt>
      <trkpt lat="46.54693" lon="0.35483">
        <ele>104.4</ele>
        <time>2022-01-16T09:16:27Z</time>
      </trkpt>
      <trkpt lat="46.54695" lon="0.35492">
        <ele>104.2</ele>
        <time>2022-01-16T09:16:29Z</time>
      </trkpt>
      <trkpt lat="46.54696" lon="0.35496">
        <ele>103.8</ele>
        <time>2022-01-16T09:16:30Z</time>
      </trkpt>
      <trkpt lat="46.54697" lon="0.35504">
        <ele>103.2</ele>
        <time>2022-01-16T09:16:32Z</time>
      </trkpt>
      <trkpt lat="46.54699" lon="0.35506">
        <ele>103</ele>
        <time>2022-01-16T09:16:33Z</time>
      </trkpt>
      <trkpt lat="46.54701" lon="0.35509">
        <ele>102.8</ele>
        <time>2022-01-16T09:16:34Z</time>
      </trkpt>
      <trkpt lat="46.54706" lon="0.35514">
        <ele>102</ele>
        <time>2022-01-16T09:16:36Z</time>
      </trkpt>
      <trkpt lat="46.54711" lon="0.3552">
        <ele>101</ele>
        <time>2022-01-16T09:16:38Z</time>
      </trkpt>
      <trkpt lat="46.54716" lon="0.35524">
        <ele>100</ele>
        <time>2022-01-16T09:16:40Z</time>
      </trkpt>
      <trkpt lat="46.5472" lon="0.35531">
        <ele>98.6</ele>
        <time>2022-01-16T09:16:42Z</time>
      </trkpt>
      <trkpt lat="46.54724" lon="0.35535">
        <ele>98</ele>
        <time>2022-01-16T09:16:43Z</time>
      </trkpt>
      <trkpt lat="46.5473" lon="0.35538">
        <ele>95.8</ele>
        <time>2022-01-16T09:16:45Z</time>
      </trkpt>
      <trkpt lat="46.54736" lon="0.35538">
        <ele>94.2</ele>
        <time>2022-01-16T09:16:47Z</time>
      </trkpt>
      <trkpt lat="46.5474" lon="0.35538">
        <ele>93.8</ele>
        <time>2022-01-16T09:16:48Z</time>
      </trkpt>
      <trkpt lat="46.54751" lon="0.3554">
        <ele>93</ele>
        <time>2022-01-16T09:16:51Z</time>
      </trkpt>
      <trkpt lat="46.54755" lon="0.3554">
        <ele>92.8</ele>
        <time>2022-01-16T09:16:52Z</time>
      </trkpt>
      <trkpt lat="46.54771" lon="0.35541">
        <ele>92.2</ele>
        <time>2022-01-16T09:16:57Z</time>
      </trkpt>
      <trkpt lat="46.54786" lon="0.35545">
        <ele>92.2</ele>
        <time>2022-01-16T09:17:02Z</time>
      </trkpt>
      <trkpt lat="46.54796" lon="0.35561">
        <ele>93</ele>
        <time>2022-01-16T09:17:07Z</time>
      </trkpt>
      <trkpt lat="46.54801" lon="0.3558">
        <ele>93.8</ele>
        <time>2022-01-16T09:17:12Z</time>
      </trkpt>
      <trkpt lat="46.54802" lon="0.35584">
        <ele>94</ele>
        <time>2022-01-16T09:17:13Z</time>
      </trkpt>
      <trkpt lat="46.54809" lon="0.35597">
        <ele>95</ele>
        <time>2022-01-16T09:17:17Z</time>
      </trkpt>
      <trkpt lat="46.54811" lon="0.356">
        <ele>95.4</ele>
        <time>2022-01-16T09:17:18Z</time>
      </trkpt>
      <trkpt lat="46.54817" lon="0.3561">
        <ele>96.8</ele>
        <time>2022-01-16T09:17:22Z</time>
      </trkpt>
      <trkpt lat="46.54818" lon="0.35613">
        <ele>97</ele>
        <time>2022-01-16T09:17:23Z</time>
      </trkpt>
      <trkpt lat="46.54821" lon="0.35618">
        <ele>97.8</ele>
        <time>2022-01-16T09:17:25Z</time>
      </trkpt>
      <trkpt lat="46.5483" lon="0.35637">
        <ele>99</ele>
        <time>2022-01-16T09:17:31Z</time>
      </trkpt>
      <trkpt lat="46.54831" lon="0.3564">
        <ele>99.2</ele>
        <time>2022-01-16T09:17:32Z</time>
      </trkpt>
      <trkpt lat="46.54845" lon="0.35661">
        <ele>100.2</ele>
        <time>2022-01-16T09:17:39Z</time>
      </trkpt>
      <trkpt lat="46.54847" lon="0.35664">
        <ele>100.6</ele>
        <time>2022-01-16T09:17:40Z</time>
      </trkpt>
      <trkpt lat="46.54857" lon="0.35673">
        <ele>101.2</ele>
        <time>2022-01-16T09:17:44Z</time>
      </trkpt>
      <trkpt lat="46.54864" lon="0.35677">
        <ele>101.4</ele>
        <time>2022-01-16T09:17:47Z</time>
      </trkpt>
      <trkpt lat="46.54871" lon="0.35677">
        <ele>102.4</ele>
        <time>2022-01-16T09:17:51Z</time>
      </trkpt>
      <trkpt lat="46.54876" lon="0.35675">
        <ele>103.4</ele>
        <time>2022-01-16T09:17:54Z</time>
      </trkpt>
      <trkpt lat="46.54877" lon="0.35674">
        <ele>103.6</ele>
        <time>2022-01-16T09:17:55Z</time>
      </trkpt>
      <trkpt lat="46.54885" lon="0.35672">
        <ele>104.6</ele>
        <time>2022-01-16T09:18:00Z</time>
      </trkpt>
      <trkpt lat="46.54886" lon="0.35671">
        <ele>104.8</ele>
        <time>2022-01-16T09:18:01Z</time>
      </trkpt>
      <trkpt lat="46.54887" lon="0.35671">
        <ele>105.2</ele>
        <time>2022-01-16T09:18:02Z</time>
      </trkpt>
      <trkpt lat="46.54892" lon="0.35669">
        <ele>105.8</ele>
        <time>2022-01-16T09:18:06Z</time>
      </trkpt>
      <trkpt lat="46.54894" lon="0.35668">
        <ele>106</ele>
        <time>2022-01-16T09:18:07Z</time>
      </trkpt>
      <trkpt lat="46.54902" lon="0.35665">
        <ele>107.2</ele>
        <time>2022-01-16T09:18:12Z</time>
      </trkpt>
      <trkpt lat="46.54905" lon="0.35664">
        <ele>107.8</ele>
        <time>2022-01-16T09:18:14Z</time>
      </trkpt>
      <trkpt lat="46.54908" lon="0.35663">
        <ele>108.2</ele>
        <time>2022-01-16T09:18:16Z</time>
      </trkpt>
      <trkpt lat="46.54913" lon="0.35661">
        <ele>109.4</ele>
        <time>2022-01-16T09:18:21Z</time>
      </trkpt>
      <trkpt lat="46.54914" lon="0.3566">
        <ele>109.6</ele>
        <time>2022-01-16T09:18:22Z</time>
      </trkpt>
      <trkpt lat="46.54919" lon="0.35658">
        <ele>110.4</ele>
        <time>2022-01-16T09:18:25Z</time>
      </trkpt>
      <trkpt lat="46.54929" lon="0.35655">
        <ele>111.6</ele>
        <time>2022-01-16T09:18:31Z</time>
      </trkpt>
      <trkpt lat="46.54934" lon="0.35653">
        <ele>112.2</ele>
        <time>2022-01-16T09:18:34Z</time>
      </trkpt>
      <trkpt lat="46.54937" lon="0.35652">
        <ele>112.6</ele>
        <time>2022-01-16T09:18:36Z</time>
      </trkpt>
      <trkpt lat="46.54947" lon="0.35649">
        <ele>113.8</ele>
        <time>2022-01-16T09:18:42Z</time>
      </trkpt>
      <trkpt lat="46.54963" lon="0.35646">
        <ele>114.8</ele>
        <time>2022-01-16T09:18:50Z</time>
      </trkpt>
      <trkpt lat="46.54965" lon="0.35646">
        <ele>114.8</ele>
        <time>2022-01-16T09:18:51Z</time>
      </trkpt>
      <trkpt lat="46.54977" lon="0.35643">
        <ele>115.6</ele>
        <time>2022-01-16T09:18:58Z</time>
      </trkpt>
      <trkpt lat="46.54977" lon="0.35643">
        <ele>116</ele>
        <time>2022-01-16T09:19:02Z</time>
      </trkpt>
      <trkpt lat="46.54996" lon="0.35643">
        <ele>116.4</ele>
        <time>2022-01-16T09:19:06Z</time>
      </trkpt>
      <trkpt lat="46.55011" lon="0.35641">
        <ele>117</ele>
        <time>2022-01-16T09:19:11Z</time>
      </trkpt>
      <trkpt lat="46.5502" lon="0.3564">
        <ele>117.2</ele>
        <time>2022-01-16T09:19:14Z</time>
      </trkpt>
      <trkpt lat="46.55048" lon="0.35638">
        <ele>118</ele>
        <time>2022-01-16T09:19:23Z</time>
      </trkpt>
      <trkpt lat="46.55051" lon="0.35638">
        <ele>118</ele>
        <time>2022-01-16T09:19:24Z</time>
      </trkpt>
      <trkpt lat="46.55074" lon="0.35643">
        <ele>118.8</ele>
        <time>2022-01-16T09:19:31Z</time>
      </trkpt>
      <trkpt lat="46.5508" lon="0.35646">
        <ele>119</ele>
        <time>2022-01-16T09:19:33Z</time>
      </trkpt>
      <trkpt lat="46.55097" lon="0.35655">
        <ele>119.8</ele>
        <time>2022-01-16T09:19:39Z</time>
      </trkpt>
      <trkpt lat="46.55106" lon="0.35659">
        <ele>120</ele>
        <time>2022-01-16T09:19:42Z</time>
      </trkpt>
      <trkpt lat="46.55126" lon="0.35671">
        <ele>121.2</ele>
        <time>2022-01-16T09:19:49Z</time>
      </trkpt>
      <trkpt lat="46.55128" lon="0.35673">
        <ele>121.4</ele>
        <time>2022-01-16T09:19:50Z</time>
      </trkpt>
      <trkpt lat="46.55136" lon="0.35677">
        <ele>122.4</ele>
        <time>2022-01-16T09:19:53Z</time>
      </trkpt>
      <trkpt lat="46.55151" lon="0.35683">
        <ele>123.4</ele>
        <time>2022-01-16T09:19:58Z</time>
      </trkpt>
      <trkpt lat="46.55174" lon="0.35692">
        <ele>123.2</ele>
        <time>2022-01-16T09:20:04Z</time>
      </trkpt>
      <trkpt lat="46.55177" lon="0.35692">
        <ele>123.2</ele>
        <time>2022-01-16T09:20:05Z</time>
      </trkpt>
      <trkpt lat="46.55185" lon="0.35692">
        <ele>123.2</ele>
        <time>2022-01-16T09:20:07Z</time>
      </trkpt>
      <trkpt lat="46.55191" lon="0.35689">
        <ele>123.4</ele>
        <time>2022-01-16T09:20:09Z</time>
      </trkpt>
      <trkpt lat="46.55197" lon="0.35685">
        <ele>123.6</ele>
        <time>2022-01-16T09:20:11Z</time>
      </trkpt>
      <trkpt lat="46.55204" lon="0.35676">
        <ele>124</ele>
        <time>2022-01-16T09:20:14Z</time>
      </trkpt>
      <trkpt lat="46.55209" lon="0.35667">
        <ele>124.6</ele>
        <time>2022-01-16T09:20:17Z</time>
      </trkpt>
      <trkpt lat="46.55217" lon="0.35656">
        <ele>125.6</ele>
        <time>2022-01-16T09:20:21Z</time>
      </trkpt>
      <trkpt lat="46.55219" lon="0.35654">
        <ele>125.8</ele>
        <time>2022-01-16T09:20:22Z</time>
      </trkpt>
      <trkpt lat="46.55228" lon="0.35648">
        <ele>127</ele>
        <time>2022-01-16T09:20:26Z</time>
      </trkpt>
      <trkpt lat="46.55233" lon="0.35645">
        <ele>127.6</ele>
        <time>2022-01-16T09:20:28Z</time>
      </trkpt>
      <trkpt lat="46.55239" lon="0.35642">
        <ele>128</ele>
        <time>2022-01-16T09:20:30Z</time>
      </trkpt>
      <trkpt lat="46.55251" lon="0.35639">
        <ele>129</ele>
        <time>2022-01-16T09:20:34Z</time>
      </trkpt>
      <trkpt lat="46.55257" lon="0.35637">
        <ele>129.4</ele>
        <time>2022-01-16T09:20:36Z</time>
      </trkpt>
      <trkpt lat="46.55268" lon="0.35637">
        <ele>130</ele>
        <time>2022-01-16T09:20:40Z</time>
      </trkpt>
      <trkpt lat="46.55277" lon="0.35638">
        <ele>130.8</ele>
        <time>2022-01-16T09:20:43Z</time>
      </trkpt>
      <trkpt lat="46.55281" lon="0.35639">
        <ele>131.2</ele>
        <time>2022-01-16T09:20:44Z</time>
      </trkpt>
      <trkpt lat="46.55301" lon="0.3564">
        <ele>132.2</ele>
        <time>2022-01-16T09:20:50Z</time>
      </trkpt>
      <trkpt lat="46.55304" lon="0.3564">
        <ele>132.4</ele>
        <time>2022-01-16T09:20:51Z</time>
      </trkpt>
      <trkpt lat="46.55314" lon="0.35641">
        <ele>133.2</ele>
        <time>2022-01-16T09:20:54Z</time>
      </trkpt>
      <trkpt lat="46.5533" lon="0.35644">
        <ele>134.2</ele>
        <time>2022-01-16T09:20:59Z</time>
      </trkpt>
      <trkpt lat="46.55333" lon="0.35644">
        <ele>134.4</ele>
        <time>2022-01-16T09:21:00Z</time>
      </trkpt>
      <trkpt lat="46.55351" lon="0.35646">
        <ele>135.4</ele>
        <time>2022-01-16T09:21:06Z</time>
      </trkpt>
      <trkpt lat="46.55358" lon="0.35648">
        <ele>135.6</ele>
        <time>2022-01-16T09:21:08Z</time>
      </trkpt>
      <trkpt lat="46.55382" lon="0.35652">
        <ele>136.4</ele>
        <time>2022-01-16T09:21:15Z</time>
      </trkpt>
      <trkpt lat="46.55386" lon="0.35652">
        <ele>136.6</ele>
        <time>2022-01-16T09:21:16Z</time>
      </trkpt>
      <trkpt lat="46.55407" lon="0.35657">
        <ele>137.6</ele>
        <time>2022-01-16T09:21:22Z</time>
      </trkpt>
      <trkpt lat="46.55419" lon="0.35661">
        <ele>138</ele>
        <time>2022-01-16T09:21:25Z</time>
      </trkpt>
      <trkpt lat="46.55455" lon="0.35668">
        <ele>138.4</ele>
        <time>2022-01-16T09:21:34Z</time>
      </trkpt>
      <trkpt lat="46.55483" lon="0.35671">
        <ele>138.2</ele>
        <time>2022-01-16T09:21:40Z</time>
      </trkpt>
      <trkpt lat="46.55522" lon="0.35669">
        <ele>136.6</ele>
        <time>2022-01-16T09:21:47Z</time>
      </trkpt>
      <trkpt lat="46.55527" lon="0.35668">
        <ele>136.4</ele>
        <time>2022-01-16T09:21:48Z</time>
      </trkpt>
      <trkpt lat="46.55531" lon="0.35665">
        <ele>136.2</ele>
        <time>2022-01-16T09:21:49Z</time>
      </trkpt>
      <trkpt lat="46.55533" lon="0.35662">
        <ele>136</ele>
        <time>2022-01-16T09:21:50Z</time>
      </trkpt>
      <trkpt lat="46.55535" lon="0.35659">
        <ele>135.6</ele>
        <time>2022-01-16T09:21:51Z</time>
      </trkpt>
      <trkpt lat="46.55536" lon="0.35654">
        <ele>135.4</ele>
        <time>2022-01-16T09:21:52Z</time>
      </trkpt>
      <trkpt lat="46.55537" lon="0.35649">
        <ele>135.2</ele>
        <time>2022-01-16T09:21:53Z</time>
      </trkpt>
      <trkpt lat="46.55537" lon="0.35644">
        <ele>134.8</ele>
        <time>2022-01-16T09:21:54Z</time>
      </trkpt>
      <trkpt lat="46.55537" lon="0.35633">
        <ele>134.2</ele>
        <time>2022-01-16T09:21:56Z</time>
      </trkpt>
      <trkpt lat="46.55537" lon="0.35603">
        <ele>133.4</ele>
        <time>2022-01-16T09:22:00Z</time>
      </trkpt>
      <trkpt lat="46.55537" lon="0.35595">
        <ele>133.2</ele>
        <time>2022-01-16T09:22:01Z</time>
      </trkpt>
      <trkpt lat="46.55536" lon="0.35554">
        <ele>132.2</ele>
        <time>2022-01-16T09:22:06Z</time>
      </trkpt>
      <trkpt lat="46.55536" lon="0.35545">
        <ele>131.8</ele>
        <time>2022-01-16T09:22:07Z</time>
      </trkpt>
      <trkpt lat="46.55535" lon="0.35526">
        <ele>130.8</ele>
        <time>2022-01-16T09:22:09Z</time>
      </trkpt>
      <trkpt lat="46.55534" lon="0.35505">
        <ele>129.8</ele>
        <time>2022-01-16T09:22:11Z</time>
      </trkpt>
      <trkpt lat="46.55534" lon="0.35494">
        <ele>129.4</ele>
        <time>2022-01-16T09:22:12Z</time>
      </trkpt>
      <trkpt lat="46.55534" lon="0.35494">
        <ele>127.8</ele>
        <time>2022-01-16T09:22:13Z</time>
      </trkpt>
      <trkpt lat="46.55532" lon="0.35456">
        <ele>126.6</ele>
        <time>2022-01-16T09:22:16Z</time>
      </trkpt>
      <trkpt lat="46.55531" lon="0.35449">
        <ele>126.2</ele>
        <time>2022-01-16T09:22:17Z</time>
      </trkpt>
      <trkpt lat="46.55531" lon="0.35445">
        <ele>124.8</ele>
        <time>2022-01-16T09:22:18Z</time>
      </trkpt>
      <trkpt lat="46.55529" lon="0.35438">
        <ele>123.4</ele>
        <time>2022-01-16T09:22:20Z</time>
      </trkpt>
      <trkpt lat="46.55526" lon="0.35436">
        <ele>123</ele>
        <time>2022-01-16T09:22:21Z</time>
      </trkpt>
      <trkpt lat="46.55519" lon="0.3543">
        <ele>121.4</ele>
        <time>2022-01-16T09:22:23Z</time>
      </trkpt>
      <trkpt lat="46.55511" lon="0.35425">
        <ele>119.8</ele>
        <time>2022-01-16T09:22:25Z</time>
      </trkpt>
      <trkpt lat="46.55507" lon="0.35423">
        <ele>118.6</ele>
        <time>2022-01-16T09:22:26Z</time>
      </trkpt>
      <trkpt lat="46.55503" lon="0.35423">
        <ele>117.2</ele>
        <time>2022-01-16T09:22:27Z</time>
      </trkpt>
      <trkpt lat="46.55498" lon="0.35423">
        <ele>116.4</ele>
        <time>2022-01-16T09:22:28Z</time>
      </trkpt>
      <trkpt lat="46.55493" lon="0.35425">
        <ele>116</ele>
        <time>2022-01-16T09:22:29Z</time>
      </trkpt>
      <trkpt lat="46.55487" lon="0.35426">
        <ele>114.8</ele>
        <time>2022-01-16T09:22:30Z</time>
      </trkpt>
      <trkpt lat="46.55481" lon="0.35427">
        <ele>113.4</ele>
        <time>2022-01-16T09:22:31Z</time>
      </trkpt>
      <trkpt lat="46.55476" lon="0.35427">
        <ele>112.4</ele>
        <time>2022-01-16T09:22:32Z</time>
      </trkpt>
      <trkpt lat="46.55471" lon="0.35428">
        <ele>110.8</ele>
        <time>2022-01-16T09:22:33Z</time>
      </trkpt>
      <trkpt lat="46.55466" lon="0.35429">
        <ele>109.8</ele>
        <time>2022-01-16T09:22:34Z</time>
      </trkpt>
      <trkpt lat="46.5546" lon="0.35429">
        <ele>108.2</ele>
        <time>2022-01-16T09:22:35Z</time>
      </trkpt>
      <trkpt lat="46.55452" lon="0.3543">
        <ele>106.8</ele>
        <time>2022-01-16T09:22:36Z</time>
      </trkpt>
      <trkpt lat="46.55436" lon="0.35431">
        <ele>104.6</ele>
        <time>2022-01-16T09:22:38Z</time>
      </trkpt>
      <trkpt lat="46.55429" lon="0.35432">
        <ele>103.6</ele>
        <time>2022-01-16T09:22:39Z</time>
      </trkpt>
      <trkpt lat="46.55424" lon="0.35432">
        <ele>102.4</ele>
        <time>2022-01-16T09:22:40Z</time>
      </trkpt>
      <trkpt lat="46.55418" lon="0.35431">
        <ele>101.4</ele>
        <time>2022-01-16T09:22:41Z</time>
      </trkpt>
      <trkpt lat="46.55413" lon="0.35432">
        <ele>100</ele>
        <time>2022-01-16T09:22:42Z</time>
      </trkpt>
      <trkpt lat="46.55407" lon="0.35431">
        <ele>99</ele>
        <time>2022-01-16T09:22:43Z</time>
      </trkpt>
      <trkpt lat="46.55403" lon="0.35431">
        <ele>97.6</ele>
        <time>2022-01-16T09:22:44Z</time>
      </trkpt>
      <trkpt lat="46.55399" lon="0.35431">
        <ele>96.6</ele>
        <time>2022-01-16T09:22:45Z</time>
      </trkpt>
      <trkpt lat="46.55396" lon="0.35429">
        <ele>95.6</ele>
        <time>2022-01-16T09:22:46Z</time>
      </trkpt>
      <trkpt lat="46.55394" lon="0.35428">
        <ele>94.6</ele>
        <time>2022-01-16T09:22:47Z</time>
      </trkpt>
      <trkpt lat="46.55392" lon="0.35424">
        <ele>94</ele>
        <time>2022-01-16T09:22:48Z</time>
      </trkpt>
      <trkpt lat="46.55392" lon="0.3542">
        <ele>93.2</ele>
        <time>2022-01-16T09:22:49Z</time>
      </trkpt>
      <trkpt lat="46.55393" lon="0.35418">
        <ele>92.8</ele>
        <time>2022-01-16T09:22:50Z</time>
      </trkpt>
      <trkpt lat="46.55394" lon="0.35415">
        <ele>92.8</ele>
        <time>2022-01-16T09:22:51Z</time>
      </trkpt>
      <trkpt lat="46.55398" lon="0.35412">
        <ele>92.2</ele>
        <time>2022-01-16T09:22:53Z</time>
      </trkpt>
      <trkpt lat="46.55407" lon="0.35407">
        <ele>91.8</ele>
        <time>2022-01-16T09:22:56Z</time>
      </trkpt>
      <trkpt lat="46.55415" lon="0.35403">
        <ele>91.8</ele>
        <time>2022-01-16T09:22:58Z</time>
      </trkpt>
      <trkpt lat="46.55444" lon="0.35379">
        <ele>92.2</ele>
        <time>2022-01-16T09:23:05Z</time>
      </trkpt>
      <trkpt lat="46.55463" lon="0.35347">
        <ele>92.4</ele>
        <time>2022-01-16T09:23:11Z</time>
      </trkpt>
      <trkpt lat="46.55479" lon="0.35317">
        <ele>92.4</ele>
        <time>2022-01-16T09:23:16Z</time>
      </trkpt>
      <trkpt lat="46.55486" lon="0.353">
        <ele>92.2</ele>
        <time>2022-01-16T09:23:19Z</time>
      </trkpt>
      <trkpt lat="46.55494" lon="0.35281">
        <ele>92.2</ele>
        <time>2022-01-16T09:23:22Z</time>
      </trkpt>
      <trkpt lat="46.55496" lon="0.35268">
        <ele>92.2</ele>
        <time>2022-01-16T09:23:24Z</time>
      </trkpt>
      <trkpt lat="46.55496" lon="0.3526">
        <ele>92.4</ele>
        <time>2022-01-16T09:23:25Z</time>
      </trkpt>
      <trkpt lat="46.55495" lon="0.35239">
        <ele>92.4</ele>
        <time>2022-01-16T09:23:28Z</time>
      </trkpt>
      <trkpt lat="46.55492" lon="0.35224">
        <ele>92.4</ele>
        <time>2022-01-16T09:23:30Z</time>
      </trkpt>
      <trkpt lat="46.55478" lon="0.35178">
        <ele>92.6</ele>
        <time>2022-01-16T09:23:37Z</time>
      </trkpt>
      <trkpt lat="46.55461" lon="0.35127">
        <ele>91.6</ele>
        <time>2022-01-16T09:23:44Z</time>
      </trkpt>
      <trkpt lat="46.55444" lon="0.35077">
        <ele>91.2</ele>
        <time>2022-01-16T09:23:51Z</time>
      </trkpt>
      <trkpt lat="46.55433" lon="0.35035">
        <ele>92</ele>
        <time>2022-01-16T09:23:58Z</time>
      </trkpt>
      <trkpt lat="46.55427" lon="0.35016">
        <ele>92.8</ele>
        <time>2022-01-16T09:24:04Z</time>
      </trkpt>
      <trkpt lat="46.55425" lon="0.35012">
        <ele>93</ele>
        <time>2022-01-16T09:24:05Z</time>
      </trkpt>
      <trkpt lat="46.55413" lon="0.35002">
        <ele>93.2</ele>
        <time>2022-01-16T09:24:08Z</time>
      </trkpt>
      <trkpt lat="46.55397" lon="0.34994">
        <ele>93</ele>
        <time>2022-01-16T09:24:11Z</time>
      </trkpt>
      <trkpt lat="46.55387" lon="0.34985">
        <ele>92.4</ele>
        <time>2022-01-16T09:24:13Z</time>
      </trkpt>
      <trkpt lat="46.55383" lon="0.3498">
        <ele>92</ele>
        <time>2022-01-16T09:24:14Z</time>
      </trkpt>
      <trkpt lat="46.55379" lon="0.34974">
        <ele>91.8</ele>
        <time>2022-01-16T09:24:15Z</time>
      </trkpt>
      <trkpt lat="46.55376" lon="0.34967">
        <ele>91.6</ele>
        <time>2022-01-16T09:24:16Z</time>
      </trkpt>
      <trkpt lat="46.55373" lon="0.3496">
        <ele>91.4</ele>
        <time>2022-01-16T09:24:17Z</time>
      </trkpt>
      <trkpt lat="46.55357" lon="0.34912">
        <ele>90.8</ele>
        <time>2022-01-16T09:24:23Z</time>
      </trkpt>
      <trkpt lat="46.55353" lon="0.34888">
        <ele>90.6</ele>
        <time>2022-01-16T09:24:26Z</time>
      </trkpt>
      <trkpt lat="46.55352" lon="0.34863">
        <ele>90.8</ele>
        <time>2022-01-16T09:24:29Z</time>
      </trkpt>
      <trkpt lat="46.55357" lon="0.34796">
        <ele>91</ele>
        <time>2022-01-16T09:24:37Z</time>
      </trkpt>
      <trkpt lat="46.55369" lon="0.34756">
        <ele>90.6</ele>
        <time>2022-01-16T09:24:43Z</time>
      </trkpt>
      <trkpt lat="46.55377" lon="0.34723">
        <ele>90.4</ele>
        <time>2022-01-16T09:24:48Z</time>
      </trkpt>
      <trkpt lat="46.55379" lon="0.34716">
        <ele>90.4</ele>
        <time>2022-01-16T09:24:49Z</time>
      </trkpt>
      <trkpt lat="46.55381" lon="0.3471">
        <ele>90.4</ele>
        <time>2022-01-16T09:24:50Z</time>
      </trkpt>
      <trkpt lat="46.55394" lon="0.3468">
        <ele>90.8</ele>
        <time>2022-01-16T09:24:55Z</time>
      </trkpt>
      <trkpt lat="46.5541" lon="0.34635">
        <ele>91.8</ele>
        <time>2022-01-16T09:25:02Z</time>
      </trkpt>
      <trkpt lat="46.55425" lon="0.3458">
        <ele>92</ele>
        <time>2022-01-16T09:25:10Z</time>
      </trkpt>
      <trkpt lat="46.55435" lon="0.34532">
        <ele>91.8</ele>
        <time>2022-01-16T09:25:17Z</time>
      </trkpt>
      <trkpt lat="46.55434" lon="0.34515">
        <ele>91.8</ele>
        <time>2022-01-16T09:25:20Z</time>
      </trkpt>
      <trkpt lat="46.55434" lon="0.3451">
        <ele>91.8</ele>
        <time>2022-01-16T09:25:22Z</time>
      </trkpt>
      <trkpt lat="46.55433" lon="0.34495">
        <ele>91.4</ele>
        <time>2022-01-16T09:25:26Z</time>
      </trkpt>
      <trkpt lat="46.55423" lon="0.34471">
        <ele>91.6</ele>
        <time>2022-01-16T09:25:31Z</time>
      </trkpt>
      <trkpt lat="46.55404" lon="0.34444">
        <ele>91.8</ele>
        <time>2022-01-16T09:25:37Z</time>
      </trkpt>
      <trkpt lat="46.55396" lon="0.34439">
        <ele>91.8</ele>
        <time>2022-01-16T09:25:39Z</time>
      </trkpt>
      <trkpt lat="46.55388" lon="0.34435">
        <ele>91.8</ele>
        <time>2022-01-16T09:25:41Z</time>
      </trkpt>
      <trkpt lat="46.55365" lon="0.34423">
        <ele>92.2</ele>
        <time>2022-01-16T09:25:47Z</time>
      </trkpt>
      <trkpt lat="46.55348" lon="0.3442">
        <ele>93</ele>
        <time>2022-01-16T09:25:51Z</time>
      </trkpt>
      <trkpt lat="46.55341" lon="0.34419">
        <ele>93.4</ele>
        <time>2022-01-16T09:25:53Z</time>
      </trkpt>
      <trkpt lat="46.5531" lon="0.34418">
        <ele>93.8</ele>
        <time>2022-01-16T09:26:00Z</time>
      </trkpt>
      <trkpt lat="46.55278" lon="0.34416">
        <ele>93.4</ele>
        <time>2022-01-16T09:26:06Z</time>
      </trkpt>
      <trkpt lat="46.55239" lon="0.34408">
        <ele>92.6</ele>
        <time>2022-01-16T09:26:13Z</time>
      </trkpt>
      <trkpt lat="46.55215" lon="0.34404">
        <ele>92</ele>
        <time>2022-01-16T09:26:18Z</time>
      </trkpt>
      <trkpt lat="46.55207" lon="0.34403">
        <ele>91.8</ele>
        <time>2022-01-16T09:26:20Z</time>
      </trkpt>
      <trkpt lat="46.55176" lon="0.34392">
        <ele>92</ele>
        <time>2022-01-16T09:26:27Z</time>
      </trkpt>
      <trkpt lat="46.55155" lon="0.34389">
        <ele>91.8</ele>
        <time>2022-01-16T09:26:32Z</time>
      </trkpt>
      <trkpt lat="46.55128" lon="0.34384">
        <ele>92</ele>
        <time>2022-01-16T09:26:38Z</time>
      </trkpt>
      <trkpt lat="46.55124" lon="0.34381">
        <ele>92.2</ele>
        <time>2022-01-16T09:26:39Z</time>
      </trkpt>
      <trkpt lat="46.55103" lon="0.34368">
        <ele>92.4</ele>
        <time>2022-01-16T09:26:44Z</time>
      </trkpt>
      <trkpt lat="46.55087" lon="0.34356">
        <ele>92</ele>
        <time>2022-01-16T09:26:48Z</time>
      </trkpt>
      <trkpt lat="46.55078" lon="0.34351">
        <ele>91.8</ele>
        <time>2022-01-16T09:26:50Z</time>
      </trkpt>
      <trkpt lat="46.55035" lon="0.34331">
        <ele>90.8</ele>
        <time>2022-01-16T09:26:58Z</time>
      </trkpt>
      <trkpt lat="46.55031" lon="0.34327">
        <ele>90.6</ele>
        <time>2022-01-16T09:26:59Z</time>
      </trkpt>
      <trkpt lat="46.55024" lon="0.34317">
        <ele>90.4</ele>
        <time>2022-01-16T09:27:01Z</time>
      </trkpt>
      <trkpt lat="46.55018" lon="0.34304">
        <ele>90</ele>
        <time>2022-01-16T09:27:03Z</time>
      </trkpt>
      <trkpt lat="46.55011" lon="0.34283">
        <ele>90</ele>
        <time>2022-01-16T09:27:06Z</time>
      </trkpt>
      <trkpt lat="46.55006" lon="0.34263">
        <ele>90</ele>
        <time>2022-01-16T09:27:09Z</time>
      </trkpt>
      <trkpt lat="46.55002" lon="0.34245">
        <ele>90.2</ele>
        <time>2022-01-16T09:27:12Z</time>
      </trkpt>
      <trkpt lat="46.55001" lon="0.34228">
        <ele>90.4</ele>
        <time>2022-01-16T09:27:15Z</time>
      </trkpt>
      <trkpt lat="46.55005" lon="0.3421">
        <ele>91</ele>
        <time>2022-01-16T09:27:19Z</time>
      </trkpt>
      <trkpt lat="46.55007" lon="0.34196">
        <ele>91.8</ele>
        <time>2022-01-16T09:27:22Z</time>
      </trkpt>
      <trkpt lat="46.55008" lon="0.34172">
        <ele>93</ele>
        <time>2022-01-16T09:27:27Z</time>
      </trkpt>
      <trkpt lat="46.55007" lon="0.34154">
        <ele>94</ele>
        <time>2022-01-16T09:27:31Z</time>
      </trkpt>
      <trkpt lat="46.55008" lon="0.34143">
        <ele>94.6</ele>
        <time>2022-01-16T09:27:34Z</time>
      </trkpt>
      <trkpt lat="46.55011" lon="0.34136">
        <ele>95.2</ele>
        <time>2022-01-16T09:27:36Z</time>
      </trkpt>
      <trkpt lat="46.55017" lon="0.34136">
        <ele>96.2</ele>
        <time>2022-01-16T09:27:38Z</time>
      </trkpt>
      <trkpt lat="46.55019" lon="0.34136">
        <ele>96.4</ele>
        <time>2022-01-16T09:27:39Z</time>
      </trkpt>
      <trkpt lat="46.55028" lon="0.34135">
        <ele>97.8</ele>
        <time>2022-01-16T09:27:44Z</time>
      </trkpt>
      <trkpt lat="46.5503" lon="0.34135">
        <ele>98</ele>
        <time>2022-01-16T09:27:45Z</time>
      </trkpt>
      <trkpt lat="46.55036" lon="0.34136">
        <ele>98.8</ele>
        <time>2022-01-16T09:27:48Z</time>
      </trkpt>
      <trkpt lat="46.55046" lon="0.34133">
        <ele>99.8</ele>
        <time>2022-01-16T09:27:53Z</time>
      </trkpt>
      <trkpt lat="46.55047" lon="0.34132">
        <ele>100</ele>
        <time>2022-01-16T09:27:54Z</time>
      </trkpt>
      <trkpt lat="46.55057" lon="0.34128">
        <ele>101.2</ele>
        <time>2022-01-16T09:27:59Z</time>
      </trkpt>
      <trkpt lat="46.55058" lon="0.34127">
        <ele>101.4</ele>
        <time>2022-01-16T09:28:00Z</time>
      </trkpt>
      <trkpt lat="46.55066" lon="0.34125">
        <ele>102.4</ele>
        <time>2022-01-16T09:28:04Z</time>
      </trkpt>
      <trkpt lat="46.5507" lon="0.34125">
        <ele>102.8</ele>
        <time>2022-01-16T09:28:06Z</time>
      </trkpt>
      <trkpt lat="46.55075" lon="0.34126">
        <ele>103.6</ele>
        <time>2022-01-16T09:28:09Z</time>
      </trkpt>
      <trkpt lat="46.55086" lon="0.3413">
        <ele>104.6</ele>
        <time>2022-01-16T09:28:14Z</time>
      </trkpt>
      <trkpt lat="46.5509" lon="0.34132">
        <ele>104.8</ele>
        <time>2022-01-16T09:28:15Z</time>
      </trkpt>
      <trkpt lat="46.55102" lon="0.34135">
        <ele>105.8</ele>
        <time>2022-01-16T09:28:20Z</time>
      </trkpt>
      <trkpt lat="46.55112" lon="0.34135">
        <ele>106.8</ele>
        <time>2022-01-16T09:28:24Z</time>
      </trkpt>
      <trkpt lat="46.55123" lon="0.34138">
        <ele>107.8</ele>
        <time>2022-01-16T09:28:30Z</time>
      </trkpt>
      <trkpt lat="46.55126" lon="0.34139">
        <ele>108.4</ele>
        <time>2022-01-16T09:28:32Z</time>
      </trkpt>
      <trkpt lat="46.55132" lon="0.34139">
        <ele>108.8</ele>
        <time>2022-01-16T09:28:35Z</time>
      </trkpt>
      <trkpt lat="46.55142" lon="0.34141">
        <ele>109.6</ele>
        <time>2022-01-16T09:28:39Z</time>
      </trkpt>
      <trkpt lat="46.55147" lon="0.34142">
        <ele>110</ele>
        <time>2022-01-16T09:28:41Z</time>
      </trkpt>
      <trkpt lat="46.55157" lon="0.34146">
        <ele>111</ele>
        <time>2022-01-16T09:28:45Z</time>
      </trkpt>
      <trkpt lat="46.55162" lon="0.34147">
        <ele>111.2</ele>
        <time>2022-01-16T09:28:47Z</time>
      </trkpt>
      <trkpt lat="46.55172" lon="0.34149">
        <ele>112</ele>
        <time>2022-01-16T09:28:51Z</time>
      </trkpt>
      <trkpt lat="46.55184" lon="0.34153">
        <ele>113</ele>
        <time>2022-01-16T09:28:56Z</time>
      </trkpt>
      <trkpt lat="46.55186" lon="0.34154">
        <ele>113.2</ele>
        <time>2022-01-16T09:28:57Z</time>
      </trkpt>
      <trkpt lat="46.55197" lon="0.34158">
        <ele>114.4</ele>
        <time>2022-01-16T09:29:02Z</time>
      </trkpt>
      <trkpt lat="46.55209" lon="0.34162">
        <ele>115</ele>
        <time>2022-01-16T09:29:07Z</time>
      </trkpt>
      <trkpt lat="46.55216" lon="0.34163">
        <ele>115.6</ele>
        <time>2022-01-16T09:29:10Z</time>
      </trkpt>
      <trkpt lat="46.55225" lon="0.34166">
        <ele>116.2</ele>
        <time>2022-01-16T09:29:14Z</time>
      </trkpt>
      <trkpt lat="46.55228" lon="0.34166">
        <ele>116.6</ele>
        <time>2022-01-16T09:29:16Z</time>
      </trkpt>
      <trkpt lat="46.55236" lon="0.34169">
        <ele>117</ele>
        <time>2022-01-16T09:29:20Z</time>
      </trkpt>
      <trkpt lat="46.55245" lon="0.34171">
        <ele>117.6</ele>
        <time>2022-01-16T09:29:24Z</time>
      </trkpt>
      <trkpt lat="46.55254" lon="0.34173">
        <ele>118.2</ele>
        <time>2022-01-16T09:29:28Z</time>
      </trkpt>
      <trkpt lat="46.55259" lon="0.34174">
        <ele>118.6</ele>
        <time>2022-01-16T09:29:30Z</time>
      </trkpt>
      <trkpt lat="46.55274" lon="0.34177">
        <ele>119.6</ele>
        <time>2022-01-16T09:29:37Z</time>
      </trkpt>
      <trkpt lat="46.55289" lon="0.34179">
        <ele>120.6</ele>
        <time>2022-01-16T09:29:44Z</time>
      </trkpt>
      <trkpt lat="46.55292" lon="0.34179">
        <ele>120.8</ele>
        <time>2022-01-16T09:29:45Z</time>
      </trkpt>
      <trkpt lat="46.55301" lon="0.34183">
        <ele>122</ele>
        <time>2022-01-16T09:29:49Z</time>
      </trkpt>
      <trkpt lat="46.55308" lon="0.34186">
        <ele>122.2</ele>
        <time>2022-01-16T09:29:52Z</time>
      </trkpt>
      <trkpt lat="46.55321" lon="0.3419">
        <ele>123</ele>
        <time>2022-01-16T09:29:57Z</time>
      </trkpt>
      <trkpt lat="46.55329" lon="0.34192">
        <ele>123.6</ele>
        <time>2022-01-16T09:30:00Z</time>
      </trkpt>
      <trkpt lat="46.5534" lon="0.34195">
        <ele>124</ele>
        <time>2022-01-16T09:30:04Z</time>
      </trkpt>
      <trkpt lat="46.55355" lon="0.342">
        <ele>125.2</ele>
        <time>2022-01-16T09:30:10Z</time>
      </trkpt>
      <trkpt lat="46.55373" lon="0.34205">
        <ele>126.4</ele>
        <time>2022-01-16T09:30:17Z</time>
      </trkpt>
      <trkpt lat="46.55378" lon="0.34206">
        <ele>126.8</ele>
        <time>2022-01-16T09:30:19Z</time>
      </trkpt>
      <trkpt lat="46.55388" lon="0.34209">
        <ele>127.6</ele>
        <time>2022-01-16T09:30:23Z</time>
      </trkpt>
      <trkpt lat="46.554" lon="0.34212">
        <ele>128.6</ele>
        <time>2022-01-16T09:30:28Z</time>
      </trkpt>
      <trkpt lat="46.55403" lon="0.34213">
        <ele>128.8</ele>
        <time>2022-01-16T09:30:29Z</time>
      </trkpt>
      <trkpt lat="46.55416" lon="0.34217">
        <ele>129.8</ele>
        <time>2022-01-16T09:30:34Z</time>
      </trkpt>
      <trkpt lat="46.55427" lon="0.3422">
        <ele>130.6</ele>
        <time>2022-01-16T09:30:38Z</time>
      </trkpt>
      <trkpt lat="46.55432" lon="0.34221">
        <ele>131</ele>
        <time>2022-01-16T09:30:40Z</time>
      </trkpt>
      <trkpt lat="46.55448" lon="0.34224">
        <ele>132</ele>
        <time>2022-01-16T09:30:46Z</time>
      </trkpt>
      <trkpt lat="46.55459" lon="0.34226">
        <ele>133.2</ele>
        <time>2022-01-16T09:30:51Z</time>
      </trkpt>
      <trkpt lat="46.55462" lon="0.34227">
        <ele>133.4</ele>
        <time>2022-01-16T09:30:52Z</time>
      </trkpt>
      <trkpt lat="46.5548" lon="0.34227">
        <ele>134.2</ele>
        <time>2022-01-16T09:30:58Z</time>
      </trkpt>
      <trkpt lat="46.55486" lon="0.34226">
        <ele>134.4</ele>
        <time>2022-01-16T09:31:00Z</time>
      </trkpt>
      <trkpt lat="46.5552" lon="0.34221">
        <ele>135.2</ele>
        <time>2022-01-16T09:31:09Z</time>
      </trkpt>
      <trkpt lat="46.55558" lon="0.34215">
        <ele>135.6</ele>
        <time>2022-01-16T09:31:18Z</time>
      </trkpt>
      <trkpt lat="46.55601" lon="0.34211">
        <ele>136</ele>
        <time>2022-01-16T09:31:28Z</time>
      </trkpt>
      <trkpt lat="46.55615" lon="0.34211">
        <ele>136.2</ele>
        <time>2022-01-16T09:31:31Z</time>
      </trkpt>
      <trkpt lat="46.55634" lon="0.34213">
        <ele>136.4</ele>
        <time>2022-01-16T09:31:35Z</time>
      </trkpt>
      <trkpt lat="46.55659" lon="0.34219">
        <ele>136.6</ele>
        <time>2022-01-16T09:31:41Z</time>
      </trkpt>
      <trkpt lat="46.55663" lon="0.3422">
        <ele>136.6</ele>
        <time>2022-01-16T09:31:42Z</time>
      </trkpt>
      <trkpt lat="46.55671" lon="0.34225">
        <ele>136.6</ele>
        <time>2022-01-16T09:31:44Z</time>
      </trkpt>
      <trkpt lat="46.55674" lon="0.34228">
        <ele>136.6</ele>
        <time>2022-01-16T09:31:45Z</time>
      </trkpt>
      <trkpt lat="46.55677" lon="0.34232">
        <ele>136.6</ele>
        <time>2022-01-16T09:31:46Z</time>
      </trkpt>
      <trkpt lat="46.55687" lon="0.34253">
        <ele>137</ele>
        <time>2022-01-16T09:31:50Z</time>
      </trkpt>
      <trkpt lat="46.55697" lon="0.34266">
        <ele>137</ele>
        <time>2022-01-16T09:31:54Z</time>
      </trkpt>
      <trkpt lat="46.55714" lon="0.34278">
        <ele>137</ele>
        <time>2022-01-16T09:32:00Z</time>
      </trkpt>
      <trkpt lat="46.55719" lon="0.34284">
        <ele>137.4</ele>
        <time>2022-01-16T09:32:02Z</time>
      </trkpt>
      <trkpt lat="46.55722" lon="0.34291">
        <ele>137.6</ele>
        <time>2022-01-16T09:32:04Z</time>
      </trkpt>
      <trkpt lat="46.55726" lon="0.343">
        <ele>137.6</ele>
        <time>2022-01-16T09:32:06Z</time>
      </trkpt>
      <trkpt lat="46.55733" lon="0.34305">
        <ele>137.8</ele>
        <time>2022-01-16T09:32:08Z</time>
      </trkpt>
      <trkpt lat="46.55756" lon="0.34311">
        <ele>137.8</ele>
        <time>2022-01-16T09:32:13Z</time>
      </trkpt>
      <trkpt lat="46.55784" lon="0.34316">
        <ele>137.6</ele>
        <time>2022-01-16T09:32:19Z</time>
      </trkpt>
      <trkpt lat="46.55788" lon="0.34316">
        <ele>137.6</ele>
        <time>2022-01-16T09:32:20Z</time>
      </trkpt>
      <trkpt lat="46.55811" lon="0.34321">
        <ele>137.2</ele>
        <time>2022-01-16T09:32:26Z</time>
      </trkpt>
      <trkpt lat="46.55816" lon="0.34322">
        <ele>137</ele>
        <time>2022-01-16T09:32:30Z</time>
      </trkpt>
      <trkpt lat="46.55816" lon="0.34319">
        <ele>137.2</ele>
        <time>2022-01-16T09:32:36Z</time>
      </trkpt>
      <trkpt lat="46.55818" lon="0.3432">
        <ele>136.8</ele>
        <time>2022-01-16T09:40:17Z</time>
      </trkpt>
      <trkpt lat="46.55818" lon="0.34318">
        <ele>137</ele>
        <time>2022-01-16T09:40:23Z</time>
      </trkpt>
      <trkpt lat="46.55818" lon="0.34301">
        <ele>137</ele>
        <time>2022-01-16T09:40:27Z</time>
      </trkpt>
      <trkpt lat="46.5582" lon="0.34284">
        <ele>137</ele>
        <time>2022-01-16T09:40:30Z</time>
      </trkpt>
      <trkpt lat="46.55819" lon="0.34271">
        <ele>137.2</ele>
        <time>2022-01-16T09:40:33Z</time>
      </trkpt>
      <trkpt lat="46.55811" lon="0.34263">
        <ele>137</ele>
        <time>2022-01-16T09:40:36Z</time>
      </trkpt>
      <trkpt lat="46.55786" lon="0.34257">
        <ele>137</ele>
        <time>2022-01-16T09:40:42Z</time>
      </trkpt>
      <trkpt lat="46.5575" lon="0.34249">
        <ele>137.2</ele>
        <time>2022-01-16T09:40:50Z</time>
      </trkpt>
      <trkpt lat="46.55731" lon="0.34247">
        <ele>137</ele>
        <time>2022-01-16T09:40:54Z</time>
      </trkpt>
      <trkpt lat="46.55721" lon="0.3425">
        <ele>137</ele>
        <time>2022-01-16T09:40:56Z</time>
      </trkpt>
      <trkpt lat="46.5571" lon="0.34257">
        <ele>137</ele>
        <time>2022-01-16T09:40:59Z</time>
      </trkpt>
      <trkpt lat="46.55707" lon="0.34256">
        <ele>137</ele>
        <time>2022-01-16T09:41:00Z</time>
      </trkpt>
      <trkpt lat="46.55704" lon="0.34254">
        <ele>137</ele>
        <time>2022-01-16T09:41:01Z</time>
      </trkpt>
      <trkpt lat="46.55701" lon="0.34245">
        <ele>136.8</ele>
        <time>2022-01-16T09:41:03Z</time>
      </trkpt>
      <trkpt lat="46.55695" lon="0.34237">
        <ele>136.8</ele>
        <time>2022-01-16T09:41:05Z</time>
      </trkpt>
      <trkpt lat="46.55691" lon="0.34234">
        <ele>136.8</ele>
        <time>2022-01-16T09:41:06Z</time>
      </trkpt>
      <trkpt lat="46.55654" lon="0.34215">
        <ele>136.8</ele>
        <time>2022-01-16T09:41:14Z</time>
      </trkpt>
      <trkpt lat="46.55617" lon="0.34207">
        <ele>136.8</ele>
        <time>2022-01-16T09:41:21Z</time>
      </trkpt>
      <trkpt lat="46.55574" lon="0.34208">
        <ele>136.6</ele>
        <time>2022-01-16T09:41:29Z</time>
      </trkpt>
      <trkpt lat="46.55539" lon="0.34213">
        <ele>136.2</ele>
        <time>2022-01-16T09:41:35Z</time>
      </trkpt>
      <trkpt lat="46.55527" lon="0.34215">
        <ele>136.2</ele>
        <time>2022-01-16T09:41:37Z</time>
      </trkpt>
      <trkpt lat="46.55473" lon="0.34222">
        <ele>135.6</ele>
        <time>2022-01-16T09:41:46Z</time>
      </trkpt>
      <trkpt lat="46.55461" lon="0.34221">
        <ele>135.2</ele>
        <time>2022-01-16T09:41:48Z</time>
      </trkpt>
      <trkpt lat="46.55442" lon="0.34217">
        <ele>134.4</ele>
        <time>2022-01-16T09:41:51Z</time>
      </trkpt>
      <trkpt lat="46.55436" lon="0.34215">
        <ele>134</ele>
        <time>2022-01-16T09:41:52Z</time>
      </trkpt>
      <trkpt lat="46.55408" lon="0.34208">
        <ele>132.6</ele>
        <time>2022-01-16T09:41:56Z</time>
      </trkpt>
      <trkpt lat="46.55394" lon="0.34203">
        <ele>131.8</ele>
        <time>2022-01-16T09:41:58Z</time>
      </trkpt>
      <trkpt lat="46.55386" lon="0.34201">
        <ele>131.2</ele>
        <time>2022-01-16T09:41:59Z</time>
      </trkpt>
      <trkpt lat="46.55362" lon="0.34193">
        <ele>129.4</ele>
        <time>2022-01-16T09:42:02Z</time>
      </trkpt>
      <trkpt lat="46.55337" lon="0.34189">
        <ele>127.8</ele>
        <time>2022-01-16T09:42:05Z</time>
      </trkpt>
      <trkpt lat="46.55313" lon="0.34182">
        <ele>126.6</ele>
        <time>2022-01-16T09:42:08Z</time>
      </trkpt>
      <trkpt lat="46.55288" lon="0.34175">
        <ele>125</ele>
        <time>2022-01-16T09:42:11Z</time>
      </trkpt>
      <trkpt lat="46.55271" lon="0.34171">
        <ele>123.8</ele>
        <time>2022-01-16T09:42:13Z</time>
      </trkpt>
      <trkpt lat="46.55254" lon="0.34168">
        <ele>122.6</ele>
        <time>2022-01-16T09:42:15Z</time>
      </trkpt>
      <trkpt lat="46.55236" lon="0.34164">
        <ele>121.2</ele>
        <time>2022-01-16T09:42:17Z</time>
      </trkpt>
      <trkpt lat="46.55228" lon="0.34163">
        <ele>120.8</ele>
        <time>2022-01-16T09:42:18Z</time>
      </trkpt>
      <trkpt lat="46.55212" lon="0.34158">
        <ele>119.6</ele>
        <time>2022-01-16T09:42:20Z</time>
      </trkpt>
      <trkpt lat="46.55196" lon="0.34152">
        <ele>118.4</ele>
        <time>2022-01-16T09:42:22Z</time>
      </trkpt>
      <trkpt lat="46.55179" lon="0.34146">
        <ele>117.2</ele>
        <time>2022-01-16T09:42:24Z</time>
      </trkpt>
      <trkpt lat="46.55171" lon="0.34143">
        <ele>116.4</ele>
        <time>2022-01-16T09:42:25Z</time>
      </trkpt>
      <trkpt lat="46.55162" lon="0.3414">
        <ele>115.6</ele>
        <time>2022-01-16T09:42:26Z</time>
      </trkpt>
      <trkpt lat="46.55136" lon="0.34134">
        <ele>114</ele>
        <time>2022-01-16T09:42:29Z</time>
      </trkpt>
      <trkpt lat="46.5512" lon="0.34131">
        <ele>112.4</ele>
        <time>2022-01-16T09:42:31Z</time>
      </trkpt>
      <trkpt lat="46.55112" lon="0.34129">
        <ele>111.8</ele>
        <time>2022-01-16T09:42:32Z</time>
      </trkpt>
      <trkpt lat="46.55105" lon="0.34128">
        <ele>111</ele>
        <time>2022-01-16T09:42:33Z</time>
      </trkpt>
      <trkpt lat="46.55089" lon="0.34125">
        <ele>109.2</ele>
        <time>2022-01-16T09:42:35Z</time>
      </trkpt>
      <trkpt lat="46.55074" lon="0.34123">
        <ele>108</ele>
        <time>2022-01-16T09:42:37Z</time>
      </trkpt>
      <trkpt lat="46.55068" lon="0.34123">
        <ele>107.4</ele>
        <time>2022-01-16T09:42:38Z</time>
      </trkpt>
      <trkpt lat="46.55061" lon="0.34123">
        <ele>106.2</ele>
        <time>2022-01-16T09:42:39Z</time>
      </trkpt>
      <trkpt lat="46.55049" lon="0.34126">
        <ele>104.6</ele>
        <time>2022-01-16T09:42:41Z</time>
      </trkpt>
      <trkpt lat="46.55038" lon="0.34128">
        <ele>103.2</ele>
        <time>2022-01-16T09:42:43Z</time>
      </trkpt>
      <trkpt lat="46.55026" lon="0.34127">
        <ele>102</ele>
        <time>2022-01-16T09:42:45Z</time>
      </trkpt>
      <trkpt lat="46.55021" lon="0.34124">
        <ele>101</ele>
        <time>2022-01-16T09:42:46Z</time>
      </trkpt>
      <trkpt lat="46.55016" lon="0.34121">
        <ele>100.2</ele>
        <time>2022-01-16T09:42:47Z</time>
      </trkpt>
      <trkpt lat="46.55012" lon="0.34117">
        <ele>99.4</ele>
        <time>2022-01-16T09:42:48Z</time>
      </trkpt>
      <trkpt lat="46.55009" lon="0.34113">
        <ele>98.8</ele>
        <time>2022-01-16T09:42:49Z</time>
      </trkpt>
      <trkpt lat="46.55006" lon="0.34101">
        <ele>98</ele>
        <time>2022-01-16T09:42:51Z</time>
      </trkpt>
      <trkpt lat="46.55006" lon="0.34087">
        <ele>96.8</ele>
        <time>2022-01-16T09:42:53Z</time>
      </trkpt>
      <trkpt lat="46.55006" lon="0.34081">
        <ele>96.2</ele>
        <time>2022-01-16T09:42:54Z</time>
      </trkpt>
      <trkpt lat="46.55005" lon="0.34077">
        <ele>95.4</ele>
        <time>2022-01-16T09:42:55Z</time>
      </trkpt>
      <trkpt lat="46.55003" lon="0.34074">
        <ele>95</ele>
        <time>2022-01-16T09:42:56Z</time>
      </trkpt>
      <trkpt lat="46.54996" lon="0.34067">
        <ele>94.2</ele>
        <time>2022-01-16T09:42:58Z</time>
      </trkpt>
      <trkpt lat="46.54988" lon="0.34058">
        <ele>93.6</ele>
        <time>2022-01-16T09:43:00Z</time>
      </trkpt>
      <trkpt lat="46.54986" lon="0.34053">
        <ele>93</ele>
        <time>2022-01-16T09:43:01Z</time>
      </trkpt>
      <trkpt lat="46.54984" lon="0.34047">
        <ele>92.4</ele>
        <time>2022-01-16T09:43:02Z</time>
      </trkpt>
      <trkpt lat="46.54982" lon="0.34032">
        <ele>91.8</ele>
        <time>2022-01-16T09:43:04Z</time>
      </trkpt>
      <trkpt lat="46.54983" lon="0.33996">
        <ele>90.8</ele>
        <time>2022-01-16T09:43:08Z</time>
      </trkpt>
      <trkpt lat="46.54984" lon="0.33986">
        <ele>90.4</ele>
        <time>2022-01-16T09:43:09Z</time>
      </trkpt>
      <trkpt lat="46.54986" lon="0.33976">
        <ele>90</ele>
        <time>2022-01-16T09:43:10Z</time>
      </trkpt>
      <trkpt lat="46.54987" lon="0.33967">
        <ele>89.6</ele>
        <time>2022-01-16T09:43:11Z</time>
      </trkpt>
      <trkpt lat="46.54992" lon="0.33931">
        <ele>88.4</ele>
        <time>2022-01-16T09:43:15Z</time>
      </trkpt>
      <trkpt lat="46.54994" lon="0.33914">
        <ele>88</ele>
        <time>2022-01-16T09:43:17Z</time>
      </trkpt>
      <trkpt lat="46.54997" lon="0.33884">
        <ele>87.4</ele>
        <time>2022-01-16T09:43:21Z</time>
      </trkpt>
      <trkpt lat="46.54998" lon="0.33869">
        <ele>87.2</ele>
        <time>2022-01-16T09:43:23Z</time>
      </trkpt>
      <trkpt lat="46.54995" lon="0.33823">
        <ele>87.6</ele>
        <time>2022-01-16T09:43:29Z</time>
      </trkpt>
      <trkpt lat="46.54994" lon="0.33786">
        <ele>87</ele>
        <time>2022-01-16T09:43:34Z</time>
      </trkpt>
      <trkpt lat="46.54995" lon="0.33779">
        <ele>87</ele>
        <time>2022-01-16T09:43:35Z</time>
      </trkpt>
      <trkpt lat="46.54997" lon="0.33735">
        <ele>87.2</ele>
        <time>2022-01-16T09:43:41Z</time>
      </trkpt>
      <trkpt lat="46.55" lon="0.33698">
        <ele>87</ele>
        <time>2022-01-16T09:43:46Z</time>
      </trkpt>
      <trkpt lat="46.55001" lon="0.33691">
        <ele>87</ele>
        <time>2022-01-16T09:43:47Z</time>
      </trkpt>
      <trkpt lat="46.55002" lon="0.33684">
        <ele>86.8</ele>
        <time>2022-01-16T09:43:48Z</time>
      </trkpt>
      <trkpt lat="46.55003" lon="0.33671">
        <ele>86.8</ele>
        <time>2022-01-16T09:43:50Z</time>
      </trkpt>
      <trkpt lat="46.55007" lon="0.3366">
        <ele>87</ele>
        <time>2022-01-16T09:43:52Z</time>
      </trkpt>
      <trkpt lat="46.55012" lon="0.3364">
        <ele>87.2</ele>
        <time>2022-01-16T09:43:55Z</time>
      </trkpt>
      <trkpt lat="46.55014" lon="0.33625">
        <ele>87.4</ele>
        <time>2022-01-16T09:43:57Z</time>
      </trkpt>
      <trkpt lat="46.55015" lon="0.33618">
        <ele>87.4</ele>
        <time>2022-01-16T09:43:58Z</time>
      </trkpt>
      <trkpt lat="46.55013" lon="0.33583">
        <ele>87.6</ele>
        <time>2022-01-16T09:44:03Z</time>
      </trkpt>
      <trkpt lat="46.55003" lon="0.33529">
        <ele>87.6</ele>
        <time>2022-01-16T09:44:11Z</time>
      </trkpt>
      <trkpt lat="46.54994" lon="0.33485">
        <ele>87.6</ele>
        <time>2022-01-16T09:44:18Z</time>
      </trkpt>
      <trkpt lat="46.54989" lon="0.33453">
        <ele>87.4</ele>
        <time>2022-01-16T09:44:23Z</time>
      </trkpt>
      <trkpt lat="46.54989" lon="0.33447">
        <ele>87.2</ele>
        <time>2022-01-16T09:44:24Z</time>
      </trkpt>
      <trkpt lat="46.54986" lon="0.33428">
        <ele>87.6</ele>
        <time>2022-01-16T09:44:29Z</time>
      </trkpt>
      <trkpt lat="46.54972" lon="0.33417">
        <ele>87.6</ele>
        <time>2022-01-16T09:44:34Z</time>
      </trkpt>
      <trkpt lat="46.54962" lon="0.33408">
        <ele>87.6</ele>
        <time>2022-01-16T09:44:37Z</time>
      </trkpt>
      <trkpt lat="46.54955" lon="0.33404">
        <ele>87.8</ele>
        <time>2022-01-16T09:44:39Z</time>
      </trkpt>
      <trkpt lat="46.54952" lon="0.33401">
        <ele>87.8</ele>
        <time>2022-01-16T09:44:40Z</time>
      </trkpt>
      <trkpt lat="46.54945" lon="0.33396">
        <ele>88</ele>
        <time>2022-01-16T09:44:42Z</time>
      </trkpt>
      <trkpt lat="46.54934" lon="0.33391">
        <ele>88</ele>
        <time>2022-01-16T09:44:45Z</time>
      </trkpt>
      <trkpt lat="46.5493" lon="0.33389">
        <ele>88</ele>
        <time>2022-01-16T09:44:46Z</time>
      </trkpt>
      <trkpt lat="46.54908" lon="0.33376">
        <ele>88</ele>
        <time>2022-01-16T09:44:52Z</time>
      </trkpt>
      <trkpt lat="46.54897" lon="0.3337">
        <ele>88</ele>
        <time>2022-01-16T09:44:55Z</time>
      </trkpt>
      <trkpt lat="46.54882" lon="0.33355">
        <ele>88</ele>
        <time>2022-01-16T09:44:59Z</time>
      </trkpt>
      <trkpt lat="46.54851" lon="0.33335">
        <ele>88.2</ele>
        <time>2022-01-16T09:45:05Z</time>
      </trkpt>
      <trkpt lat="46.54823" lon="0.33317">
        <ele>87.8</ele>
        <time>2022-01-16T09:45:11Z</time>
      </trkpt>
      <trkpt lat="46.54795" lon="0.33296">
        <ele>87.8</ele>
        <time>2022-01-16T09:45:17Z</time>
      </trkpt>
      <trkpt lat="46.54767" lon="0.33275">
        <ele>87.8</ele>
        <time>2022-01-16T09:45:23Z</time>
      </trkpt>
      <trkpt lat="46.54752" lon="0.33264">
        <ele>87.8</ele>
        <time>2022-01-16T09:45:27Z</time>
      </trkpt>
      <trkpt lat="46.54748" lon="0.33262">
        <ele>87.8</ele>
        <time>2022-01-16T09:45:28Z</time>
      </trkpt>
      <trkpt lat="46.54728" lon="0.3324">
        <ele>87.8</ele>
        <time>2022-01-16T09:45:34Z</time>
      </trkpt>
      <trkpt lat="46.547" lon="0.33215">
        <ele>87.6</ele>
        <time>2022-01-16T09:45:41Z</time>
      </trkpt>
      <trkpt lat="46.54693" lon="0.33207">
        <ele>87.6</ele>
        <time>2022-01-16T09:45:43Z</time>
      </trkpt>
      <trkpt lat="46.54677" lon="0.33187">
        <ele>87.8</ele>
        <time>2022-01-16T09:45:47Z</time>
      </trkpt>
      <trkpt lat="46.54651" lon="0.3316">
        <ele>87.8</ele>
        <time>2022-01-16T09:45:53Z</time>
      </trkpt>
      <trkpt lat="46.54625" lon="0.33135">
        <ele>87.8</ele>
        <time>2022-01-16T09:45:59Z</time>
      </trkpt>
      <trkpt lat="46.54604" lon="0.33114">
        <ele>87.8</ele>
        <time>2022-01-16T09:46:04Z</time>
      </trkpt>
      <trkpt lat="46.54587" lon="0.33096">
        <ele>88</ele>
        <time>2022-01-16T09:46:08Z</time>
      </trkpt>
      <trkpt lat="46.54578" lon="0.33082">
        <ele>88</ele>
        <time>2022-01-16T09:46:11Z</time>
      </trkpt>
      <trkpt lat="46.54555" lon="0.33052">
        <ele>88</ele>
        <time>2022-01-16T09:46:17Z</time>
      </trkpt>
      <trkpt lat="46.54527" lon="0.33016">
        <ele>88</ele>
        <time>2022-01-16T09:46:24Z</time>
      </trkpt>
      <trkpt lat="46.54502" lon="0.32984">
        <ele>88</ele>
        <time>2022-01-16T09:46:30Z</time>
      </trkpt>
      <trkpt lat="46.54475" lon="0.32942">
        <ele>88</ele>
        <time>2022-01-16T09:46:37Z</time>
      </trkpt>
      <trkpt lat="46.54456" lon="0.32909">
        <ele>88</ele>
        <time>2022-01-16T09:46:43Z</time>
      </trkpt>
      <trkpt lat="46.54432" lon="0.32876">
        <ele>87.6</ele>
        <time>2022-01-16T09:46:50Z</time>
      </trkpt>
      <trkpt lat="46.54423" lon="0.32863">
        <ele>87.8</ele>
        <time>2022-01-16T09:46:53Z</time>
      </trkpt>
      <trkpt lat="46.54417" lon="0.32855">
        <ele>88</ele>
        <time>2022-01-16T09:46:55Z</time>
      </trkpt>
      <trkpt lat="46.5439" lon="0.32816">
        <ele>88</ele>
        <time>2022-01-16T09:47:01Z</time>
      </trkpt>
      <trkpt lat="46.54346" lon="0.32772">
        <ele>88</ele>
        <time>2022-01-16T09:47:09Z</time>
      </trkpt>
      <trkpt lat="46.5433" lon="0.32762">
        <ele>87.8</ele>
        <time>2022-01-16T09:47:12Z</time>
      </trkpt>
      <trkpt lat="46.5432" lon="0.32756">
        <ele>87.8</ele>
        <time>2022-01-16T09:47:14Z</time>
      </trkpt>
      <trkpt lat="46.54287" lon="0.32739">
        <ele>88.2</ele>
        <time>2022-01-16T09:47:20Z</time>
      </trkpt>
      <trkpt lat="46.54273" lon="0.3273">
        <ele>88.2</ele>
        <time>2022-01-16T09:47:23Z</time>
      </trkpt>
      <trkpt lat="46.54264" lon="0.32725">
        <ele>88.2</ele>
        <time>2022-01-16T09:47:25Z</time>
      </trkpt>
      <trkpt lat="46.54231" lon="0.32708">
        <ele>88</ele>
        <time>2022-01-16T09:47:32Z</time>
      </trkpt>
      <trkpt lat="46.54213" lon="0.32701">
        <ele>87.6</ele>
        <time>2022-01-16T09:47:37Z</time>
      </trkpt>
      <trkpt lat="46.5421" lon="0.32702">
        <ele>87.2</ele>
        <time>2022-01-16T09:47:39Z</time>
      </trkpt>
      <trkpt lat="46.54209" lon="0.32705">
        <ele>87</ele>
        <time>2022-01-16T09:47:41Z</time>
      </trkpt>
      <trkpt lat="46.54209" lon="0.32725">
        <ele>87</ele>
        <time>2022-01-16T09:47:46Z</time>
      </trkpt>
      <trkpt lat="46.54201" lon="0.32746">
        <ele>86.8</ele>
        <time>2022-01-16T09:47:51Z</time>
      </trkpt>
      <trkpt lat="46.54185" lon="0.3276">
        <ele>86.2</ele>
        <time>2022-01-16T09:47:56Z</time>
      </trkpt>
      <trkpt lat="46.54168" lon="0.32767">
        <ele>86.2</ele>
        <time>2022-01-16T09:48:01Z</time>
      </trkpt>
      <trkpt lat="46.54153" lon="0.3278">
        <ele>86.2</ele>
        <time>2022-01-16T09:48:06Z</time>
      </trkpt>
      <trkpt lat="46.54139" lon="0.32787">
        <ele>86.2</ele>
        <time>2022-01-16T09:48:10Z</time>
      </trkpt>
      <trkpt lat="46.54135" lon="0.32789">
        <ele>86.2</ele>
        <time>2022-01-16T09:48:11Z</time>
      </trkpt>
      <trkpt lat="46.54127" lon="0.32792">
        <ele>87</ele>
        <time>2022-01-16T09:48:13Z</time>
      </trkpt>
      <trkpt lat="46.54124" lon="0.32795">
        <ele>87.4</ele>
        <time>2022-01-16T09:48:14Z</time>
      </trkpt>
      <trkpt lat="46.54117" lon="0.328">
        <ele>87.6</ele>
        <time>2022-01-16T09:48:16Z</time>
      </trkpt>
      <trkpt lat="46.54113" lon="0.32803">
        <ele>87.6</ele>
        <time>2022-01-16T09:48:17Z</time>
      </trkpt>
      <trkpt lat="46.54101" lon="0.32814">
        <ele>88.4</ele>
        <time>2022-01-16T09:48:21Z</time>
      </trkpt>
      <trkpt lat="46.541" lon="0.32818">
        <ele>88.6</ele>
        <time>2022-01-16T09:48:22Z</time>
      </trkpt>
      <trkpt lat="46.54095" lon="0.32828">
        <ele>89.4</ele>
        <time>2022-01-16T09:48:25Z</time>
      </trkpt>
      <trkpt lat="46.5409" lon="0.32833">
        <ele>89.8</ele>
        <time>2022-01-16T09:48:28Z</time>
      </trkpt>
      <trkpt lat="46.54088" lon="0.32834">
        <ele>89.8</ele>
        <time>2022-01-16T09:48:29Z</time>
      </trkpt>
      <trkpt lat="46.54077" lon="0.32845">
        <ele>89.2</ele>
        <time>2022-01-16T09:48:33Z</time>
      </trkpt>
      <trkpt lat="46.5406" lon="0.32855">
        <ele>88.2</ele>
        <time>2022-01-16T09:48:38Z</time>
      </trkpt>
      <trkpt lat="46.54047" lon="0.3286">
        <ele>87.4</ele>
        <time>2022-01-16T09:48:44Z</time>
      </trkpt>
      <trkpt lat="46.5404" lon="0.32863">
        <ele>87.2</ele>
        <time>2022-01-16T09:48:46Z</time>
      </trkpt>
      <trkpt lat="46.54036" lon="0.32865">
        <ele>86.8</ele>
        <time>2022-01-16T09:48:47Z</time>
      </trkpt>
      <trkpt lat="46.54029" lon="0.3287">
        <ele>86.4</ele>
        <time>2022-01-16T09:48:49Z</time>
      </trkpt>
      <trkpt lat="46.54025" lon="0.32873">
        <ele>86.4</ele>
        <time>2022-01-16T09:48:50Z</time>
      </trkpt>
      <trkpt lat="46.54015" lon="0.32879">
        <ele>86.2</ele>
        <time>2022-01-16T09:48:53Z</time>
      </trkpt>
      <trkpt lat="46.54006" lon="0.32884">
        <ele>86.2</ele>
        <time>2022-01-16T09:48:56Z</time>
      </trkpt>
      <trkpt lat="46.54" lon="0.3289">
        <ele>86.2</ele>
        <time>2022-01-16T09:48:58Z</time>
      </trkpt>
      <trkpt lat="46.53981" lon="0.32905">
        <ele>86.6</ele>
        <time>2022-01-16T09:49:04Z</time>
      </trkpt>
      <trkpt lat="46.53964" lon="0.32914">
        <ele>87.2</ele>
        <time>2022-01-16T09:49:10Z</time>
      </trkpt>
      <trkpt lat="46.53952" lon="0.32925">
        <ele>87.6</ele>
        <time>2022-01-16T09:49:16Z</time>
      </trkpt>
      <trkpt lat="46.53938" lon="0.32945">
        <ele>87.6</ele>
        <time>2022-01-16T09:49:23Z</time>
      </trkpt>
      <trkpt lat="46.5393" lon="0.32957">
        <ele>87.2</ele>
        <time>2022-01-16T09:49:28Z</time>
      </trkpt>
      <trkpt lat="46.53926" lon="0.32965">
        <ele>87.2</ele>
        <time>2022-01-16T09:49:30Z</time>
      </trkpt>
      <trkpt lat="46.53914" lon="0.32987">
        <ele>87</ele>
        <time>2022-01-16T09:49:37Z</time>
      </trkpt>
      <trkpt lat="46.539" lon="0.33015">
        <ele>87</ele>
        <time>2022-01-16T09:49:44Z</time>
      </trkpt>
      <trkpt lat="46.53893" lon="0.33032">
        <ele>87.8</ele>
        <time>2022-01-16T09:49:49Z</time>
      </trkpt>
      <trkpt lat="46.5389" lon="0.33038">
        <ele>88.2</ele>
        <time>2022-01-16T09:49:51Z</time>
      </trkpt>
      <trkpt lat="46.53888" lon="0.33042">
        <ele>88.4</ele>
        <time>2022-01-16T09:49:52Z</time>
      </trkpt>
      <trkpt lat="46.53881" lon="0.33059">
        <ele>88.8</ele>
        <time>2022-01-16T09:49:58Z</time>
      </trkpt>
      <trkpt lat="46.5388" lon="0.33062">
        <ele>88.8</ele>
        <time>2022-01-16T09:49:59Z</time>
      </trkpt>
      <trkpt lat="46.53875" lon="0.33079">
        <ele>88.2</ele>
        <time>2022-01-16T09:50:04Z</time>
      </trkpt>
      <trkpt lat="46.53868" lon="0.33113">
        <ele>88.8</ele>
        <time>2022-01-16T09:50:11Z</time>
      </trkpt>
      <trkpt lat="46.53864" lon="0.33128">
        <ele>89.4</ele>
        <time>2022-01-16T09:50:14Z</time>
      </trkpt>
      <trkpt lat="46.53862" lon="0.33141">
        <ele>90</ele>
        <time>2022-01-16T09:50:17Z</time>
      </trkpt>
      <trkpt lat="46.53859" lon="0.3315">
        <ele>90.4</ele>
        <time>2022-01-16T09:50:19Z</time>
      </trkpt>
      <trkpt lat="46.53857" lon="0.33171">
        <ele>91.4</ele>
        <time>2022-01-16T09:50:24Z</time>
      </trkpt>
      <trkpt lat="46.5385" lon="0.33197">
        <ele>92.4</ele>
        <time>2022-01-16T09:50:30Z</time>
      </trkpt>
      <trkpt lat="46.53846" lon="0.33206">
        <ele>92.8</ele>
        <time>2022-01-16T09:50:32Z</time>
      </trkpt>
      <trkpt lat="46.53838" lon="0.33225">
        <ele>93.6</ele>
        <time>2022-01-16T09:50:37Z</time>
      </trkpt>
      <trkpt lat="46.53834" lon="0.33231">
        <ele>94.2</ele>
        <time>2022-01-16T09:50:39Z</time>
      </trkpt>
      <trkpt lat="46.53831" lon="0.33239">
        <ele>94.6</ele>
        <time>2022-01-16T09:50:41Z</time>
      </trkpt>
      <trkpt lat="46.53825" lon="0.33254">
        <ele>95.8</ele>
        <time>2022-01-16T09:50:46Z</time>
      </trkpt>
      <trkpt lat="46.53823" lon="0.33262">
        <ele>96.2</ele>
        <time>2022-01-16T09:50:48Z</time>
      </trkpt>
      <trkpt lat="46.53818" lon="0.3328">
        <ele>96.8</ele>
        <time>2022-01-16T09:50:52Z</time>
      </trkpt>
      <trkpt lat="46.53816" lon="0.3329">
        <ele>97</ele>
        <time>2022-01-16T09:50:54Z</time>
      </trkpt>
      <trkpt lat="46.53808" lon="0.3332">
        <ele>97.8</ele>
        <time>2022-01-16T09:51:01Z</time>
      </trkpt>
      <trkpt lat="46.53807" lon="0.33324">
        <ele>98</ele>
        <time>2022-01-16T09:51:02Z</time>
      </trkpt>
      <trkpt lat="46.538" lon="0.33347">
        <ele>98.8</ele>
        <time>2022-01-16T09:51:07Z</time>
      </trkpt>
      <trkpt lat="46.538" lon="0.33351">
        <ele>98.8</ele>
        <time>2022-01-16T09:51:08Z</time>
      </trkpt>
      <trkpt lat="46.53793" lon="0.33372">
        <ele>99.2</ele>
        <time>2022-01-16T09:51:12Z</time>
      </trkpt>
      <trkpt lat="46.53786" lon="0.33394">
        <ele>99.4</ele>
        <time>2022-01-16T09:51:17Z</time>
      </trkpt>
      <trkpt lat="46.5378" lon="0.33421">
        <ele>99.8</ele>
        <time>2022-01-16T09:51:23Z</time>
      </trkpt>
      <trkpt lat="46.53779" lon="0.33425">
        <ele>100</ele>
        <time>2022-01-16T09:51:24Z</time>
      </trkpt>
      <trkpt lat="46.53771" lon="0.33453">
        <ele>100.8</ele>
        <time>2022-01-16T09:51:31Z</time>
      </trkpt>
      <trkpt lat="46.5377" lon="0.33456">
        <ele>101</ele>
        <time>2022-01-16T09:51:32Z</time>
      </trkpt>
      <trkpt lat="46.53765" lon="0.33474">
        <ele>101.8</ele>
        <time>2022-01-16T09:51:37Z</time>
      </trkpt>
      <trkpt lat="46.53755" lon="0.33504">
        <ele>102</ele>
        <time>2022-01-16T09:51:43Z</time>
      </trkpt>
      <trkpt lat="46.53749" lon="0.33522">
        <ele>102</ele>
        <time>2022-01-16T09:51:46Z</time>
      </trkpt>
      <trkpt lat="46.53747" lon="0.33532">
        <ele>102</ele>
        <time>2022-01-16T09:51:48Z</time>
      </trkpt>
      <trkpt lat="46.53744" lon="0.33538">
        <ele>102</ele>
        <time>2022-01-16T09:51:49Z</time>
      </trkpt>
      <trkpt lat="46.5374" lon="0.33547">
        <ele>102</ele>
        <time>2022-01-16T09:51:51Z</time>
      </trkpt>
      <trkpt lat="46.53737" lon="0.33557">
        <ele>102</ele>
        <time>2022-01-16T09:51:53Z</time>
      </trkpt>
      <trkpt lat="46.53735" lon="0.33562">
        <ele>102</ele>
        <time>2022-01-16T09:51:54Z</time>
      </trkpt>
      <trkpt lat="46.53726" lon="0.33586">
        <ele>102.6</ele>
        <time>2022-01-16T09:52:00Z</time>
      </trkpt>
      <trkpt lat="46.53723" lon="0.33594">
        <ele>103.4</ele>
        <time>2022-01-16T09:52:02Z</time>
      </trkpt>
      <trkpt lat="46.53716" lon="0.3361">
        <ele>104.4</ele>
        <time>2022-01-16T09:52:07Z</time>
      </trkpt>
      <trkpt lat="46.53709" lon="0.33621">
        <ele>105.8</ele>
        <time>2022-01-16T09:52:11Z</time>
      </trkpt>
      <trkpt lat="46.53704" lon="0.33626">
        <ele>106.4</ele>
        <time>2022-01-16T09:52:13Z</time>
      </trkpt>
      <trkpt lat="46.537" lon="0.33631">
        <ele>106.8</ele>
        <time>2022-01-16T09:52:15Z</time>
      </trkpt>
      <trkpt lat="46.53688" lon="0.33642">
        <ele>107.6</ele>
        <time>2022-01-16T09:52:20Z</time>
      </trkpt>
      <trkpt lat="46.53686" lon="0.33644">
        <ele>107.8</ele>
        <time>2022-01-16T09:52:21Z</time>
      </trkpt>
      <trkpt lat="46.53673" lon="0.33645">
        <ele>108.8</ele>
        <time>2022-01-16T09:52:26Z</time>
      </trkpt>
      <trkpt lat="46.53671" lon="0.33645">
        <ele>109</ele>
        <time>2022-01-16T09:52:27Z</time>
      </trkpt>
      <trkpt lat="46.5366" lon="0.33644">
        <ele>110.2</ele>
        <time>2022-01-16T09:52:33Z</time>
      </trkpt>
      <trkpt lat="46.53653" lon="0.33641">
        <ele>111.4</ele>
        <time>2022-01-16T09:52:38Z</time>
      </trkpt>
      <trkpt lat="46.53648" lon="0.33638">
        <ele>112</ele>
        <time>2022-01-16T09:52:41Z</time>
      </trkpt>
      <trkpt lat="46.53645" lon="0.33637">
        <ele>112.4</ele>
        <time>2022-01-16T09:52:43Z</time>
      </trkpt>
      <trkpt lat="46.53638" lon="0.3363">
        <ele>113</ele>
        <time>2022-01-16T09:52:47Z</time>
      </trkpt>
      <trkpt lat="46.53632" lon="0.33627">
        <ele>113.6</ele>
        <time>2022-01-16T09:52:50Z</time>
      </trkpt>
      <trkpt lat="46.53625" lon="0.33622">
        <ele>114.8</ele>
        <time>2022-01-16T09:52:55Z</time>
      </trkpt>
      <trkpt lat="46.53618" lon="0.33612">
        <ele>115.8</ele>
        <time>2022-01-16T09:53:00Z</time>
      </trkpt>
      <trkpt lat="46.53615" lon="0.33609">
        <ele>116.2</ele>
        <time>2022-01-16T09:53:02Z</time>
      </trkpt>
      <trkpt lat="46.53613" lon="0.33605">
        <ele>116.8</ele>
        <time>2022-01-16T09:53:04Z</time>
      </trkpt>
      <trkpt lat="46.53607" lon="0.33599">
        <ele>117.4</ele>
        <time>2022-01-16T09:53:08Z</time>
      </trkpt>
      <trkpt lat="46.53604" lon="0.33596">
        <ele>118</ele>
        <time>2022-01-16T09:53:10Z</time>
      </trkpt>
      <trkpt lat="46.53597" lon="0.3359">
        <ele>119</ele>
        <time>2022-01-16T09:53:15Z</time>
      </trkpt>
      <trkpt lat="46.53596" lon="0.33589">
        <ele>119</ele>
        <time>2022-01-16T09:53:16Z</time>
      </trkpt>
      <trkpt lat="46.53591" lon="0.33583">
        <ele>120</ele>
        <time>2022-01-16T09:53:21Z</time>
      </trkpt>
      <trkpt lat="46.5359" lon="0.33581">
        <ele>120.2</ele>
        <time>2022-01-16T09:53:22Z</time>
      </trkpt>
      <trkpt lat="46.53586" lon="0.33575">
        <ele>120.8</ele>
        <time>2022-01-16T09:53:25Z</time>
      </trkpt>
      <trkpt lat="46.53583" lon="0.3357">
        <ele>121.2</ele>
        <time>2022-01-16T09:53:27Z</time>
      </trkpt>
      <trkpt lat="46.53577" lon="0.33563">
        <ele>122.2</ele>
        <time>2022-01-16T09:53:31Z</time>
      </trkpt>
      <trkpt lat="46.53572" lon="0.33557">
        <ele>122.8</ele>
        <time>2022-01-16T09:53:34Z</time>
      </trkpt>
      <trkpt lat="46.53566" lon="0.3355">
        <ele>123.4</ele>
        <time>2022-01-16T09:53:38Z</time>
      </trkpt>
      <trkpt lat="46.53561" lon="0.33544">
        <ele>123.6</ele>
        <time>2022-01-16T09:53:41Z</time>
      </trkpt>
      <trkpt lat="46.53553" lon="0.33533">
        <ele>124.4</ele>
        <time>2022-01-16T09:53:48Z</time>
      </trkpt>
      <trkpt lat="46.53549" lon="0.3353">
        <ele>124.8</ele>
        <time>2022-01-16T09:53:50Z</time>
      </trkpt>
      <trkpt lat="46.53545" lon="0.33522">
        <ele>125.2</ele>
        <time>2022-01-16T09:53:53Z</time>
      </trkpt>
      <trkpt lat="46.53541" lon="0.33518">
        <ele>125.6</ele>
        <time>2022-01-16T09:53:55Z</time>
      </trkpt>
      <trkpt lat="46.53531" lon="0.33504">
        <ele>126.2</ele>
        <time>2022-01-16T09:54:00Z</time>
      </trkpt>
      <trkpt lat="46.53516" lon="0.33487">
        <ele>126.8</ele>
        <time>2022-01-16T09:54:07Z</time>
      </trkpt>
      <trkpt lat="46.53514" lon="0.33483">
        <ele>126.8</ele>
        <time>2022-01-16T09:54:08Z</time>
      </trkpt>
      <trkpt lat="46.53508" lon="0.33473">
        <ele>127</ele>
        <time>2022-01-16T09:54:11Z</time>
      </trkpt>
      <trkpt lat="46.53503" lon="0.33462">
        <ele>127.4</ele>
        <time>2022-01-16T09:54:14Z</time>
      </trkpt>
      <trkpt lat="46.53493" lon="0.33439">
        <ele>127.8</ele>
        <time>2022-01-16T09:54:20Z</time>
      </trkpt>
      <trkpt lat="46.53491" lon="0.33432">
        <ele>128.2</ele>
        <time>2022-01-16T09:54:22Z</time>
      </trkpt>
      <trkpt lat="46.53482" lon="0.33401">
        <ele>128.6</ele>
        <time>2022-01-16T09:54:27Z</time>
      </trkpt>
      <trkpt lat="46.53477" lon="0.3337">
        <ele>128.8</ele>
        <time>2022-01-16T09:54:33Z</time>
      </trkpt>
      <trkpt lat="46.53471" lon="0.33348">
        <ele>129.2</ele>
        <time>2022-01-16T09:54:37Z</time>
      </trkpt>
      <trkpt lat="46.53467" lon="0.33327">
        <ele>129.4</ele>
        <time>2022-01-16T09:54:41Z</time>
      </trkpt>
      <trkpt lat="46.53467" lon="0.33322">
        <ele>129.4</ele>
        <time>2022-01-16T09:54:42Z</time>
      </trkpt>
      <trkpt lat="46.53466" lon="0.33309">
        <ele>129.4</ele>
        <time>2022-01-16T09:54:44Z</time>
      </trkpt>
      <trkpt lat="46.53465" lon="0.33299">
        <ele>129.4</ele>
        <time>2022-01-16T09:54:46Z</time>
      </trkpt>
      <trkpt lat="46.53464" lon="0.33293">
        <ele>129.4</ele>
        <time>2022-01-16T09:54:47Z</time>
      </trkpt>
      <trkpt lat="46.53462" lon="0.33288">
        <ele>129.6</ele>
        <time>2022-01-16T09:54:48Z</time>
      </trkpt>
      <trkpt lat="46.5346" lon="0.33278">
        <ele>129.8</ele>
        <time>2022-01-16T09:54:50Z</time>
      </trkpt>
      <trkpt lat="46.53458" lon="0.3327">
        <ele>130</ele>
        <time>2022-01-16T09:54:52Z</time>
      </trkpt>
      <trkpt lat="46.53457" lon="0.33266">
        <ele>130</ele>
        <time>2022-01-16T09:54:53Z</time>
      </trkpt>
      <trkpt lat="46.53453" lon="0.33232">
        <ele>130.2</ele>
        <time>2022-01-16T09:54:59Z</time>
      </trkpt>
      <trkpt lat="46.53447" lon="0.33197">
        <ele>130.6</ele>
        <time>2022-01-16T09:55:05Z</time>
      </trkpt>
      <trkpt lat="46.5344" lon="0.33169">
        <ele>130</ele>
        <time>2022-01-16T09:55:10Z</time>
      </trkpt>
      <trkpt lat="46.53437" lon="0.33164">
        <ele>129.8</ele>
        <time>2022-01-16T09:55:11Z</time>
      </trkpt>
      <trkpt lat="46.53433" lon="0.33155">
        <ele>129.4</ele>
        <time>2022-01-16T09:55:13Z</time>
      </trkpt>
      <trkpt lat="46.53431" lon="0.33144">
        <ele>128.6</ele>
        <time>2022-01-16T09:55:15Z</time>
      </trkpt>
      <trkpt lat="46.53432" lon="0.33126">
        <ele>127.6</ele>
        <time>2022-01-16T09:55:19Z</time>
      </trkpt>
      <trkpt lat="46.53431" lon="0.3312">
        <ele>127.4</ele>
        <time>2022-01-16T09:55:20Z</time>
      </trkpt>
      <trkpt lat="46.5343" lon="0.33115">
        <ele>127.4</ele>
        <time>2022-01-16T09:55:21Z</time>
      </trkpt>
      <trkpt lat="46.53427" lon="0.33104">
        <ele>127.6</ele>
        <time>2022-01-16T09:55:24Z</time>
      </trkpt>
      <trkpt lat="46.53425" lon="0.33097">
        <ele>127.8</ele>
        <time>2022-01-16T09:55:26Z</time>
      </trkpt>
      <trkpt lat="46.53422" lon="0.33093">
        <ele>128.2</ele>
        <time>2022-01-16T09:55:28Z</time>
      </trkpt>
      <trkpt lat="46.53418" lon="0.3309">
        <ele>128.6</ele>
        <time>2022-01-16T09:55:30Z</time>
      </trkpt>
      <trkpt lat="46.5341" lon="0.33083">
        <ele>129.6</ele>
        <time>2022-01-16T09:55:33Z</time>
      </trkpt>
      <trkpt lat="46.53407" lon="0.33082">
        <ele>130</ele>
        <time>2022-01-16T09:55:34Z</time>
      </trkpt>
      <trkpt lat="46.534" lon="0.33079">
        <ele>130.6</ele>
        <time>2022-01-16T09:55:37Z</time>
      </trkpt>
      <trkpt lat="46.53398" lon="0.33077">
        <ele>130.8</ele>
        <time>2022-01-16T09:55:38Z</time>
      </trkpt>
      <trkpt lat="46.53396" lon="0.33076">
        <ele>131</ele>
        <time>2022-01-16T09:55:39Z</time>
      </trkpt>
      <trkpt lat="46.53393" lon="0.33072">
        <ele>131.6</ele>
        <time>2022-01-16T09:55:42Z</time>
      </trkpt>
      <trkpt lat="46.5339" lon="0.33067">
        <ele>131.8</ele>
        <time>2022-01-16T09:55:44Z</time>
      </trkpt>
      <trkpt lat="46.53387" lon="0.33064">
        <ele>132.2</ele>
        <time>2022-01-16T09:55:46Z</time>
      </trkpt>
      <trkpt lat="46.53386" lon="0.3306">
        <ele>133.2</ele>
        <time>2022-01-16T09:55:48Z</time>
      </trkpt>
      <trkpt lat="46.53386" lon="0.33058">
        <ele>133.6</ele>
        <time>2022-01-16T09:55:49Z</time>
      </trkpt>
      <trkpt lat="46.53385" lon="0.33055">
        <ele>133.8</ele>
        <time>2022-01-16T09:55:50Z</time>
      </trkpt>
      <trkpt lat="46.53382" lon="0.33043">
        <ele>134.8</ele>
        <time>2022-01-16T09:55:54Z</time>
      </trkpt>
      <trkpt lat="46.53379" lon="0.33034">
        <ele>135.6</ele>
        <time>2022-01-16T09:55:57Z</time>
      </trkpt>
      <trkpt lat="46.53377" lon="0.33032">
        <ele>135.6</ele>
        <time>2022-01-16T09:55:58Z</time>
      </trkpt>
      <trkpt lat="46.53374" lon="0.33027">
        <ele>136</ele>
        <time>2022-01-16T09:56:00Z</time>
      </trkpt>
      <trkpt lat="46.53372" lon="0.3302">
        <ele>136.6</ele>
        <time>2022-01-16T09:56:03Z</time>
      </trkpt>
      <trkpt lat="46.53369" lon="0.33007">
        <ele>137.4</ele>
        <time>2022-01-16T09:56:08Z</time>
      </trkpt>
      <trkpt lat="46.53367" lon="0.33">
        <ele>138.2</ele>
        <time>2022-01-16T09:56:11Z</time>
      </trkpt>
      <trkpt lat="46.53366" lon="0.32998">
        <ele>138.4</ele>
        <time>2022-01-16T09:56:12Z</time>
      </trkpt>
      <trkpt lat="46.53362" lon="0.32988">
        <ele>138.6</ele>
        <time>2022-01-16T09:56:15Z</time>
      </trkpt>
      <trkpt lat="46.53362" lon="0.32985">
        <ele>138.6</ele>
        <time>2022-01-16T09:56:16Z</time>
      </trkpt>
      <trkpt lat="46.53362" lon="0.32976">
        <ele>138.8</ele>
        <time>2022-01-16T09:56:18Z</time>
      </trkpt>
      <trkpt lat="46.53363" lon="0.32968">
        <ele>139</ele>
        <time>2022-01-16T09:56:20Z</time>
      </trkpt>
      <trkpt lat="46.53362" lon="0.32965">
        <ele>139.2</ele>
        <time>2022-01-16T09:56:21Z</time>
      </trkpt>
      <trkpt lat="46.53354" lon="0.32962">
        <ele>139.2</ele>
        <time>2022-01-16T09:56:25Z</time>
      </trkpt>
      <trkpt lat="46.53353" lon="0.32963">
        <ele>139.4</ele>
        <time>2022-01-16T09:56:26Z</time>
      </trkpt>
      <trkpt lat="46.53352" lon="0.32964">
        <ele>139.4</ele>
        <time>2022-01-16T09:56:27Z</time>
      </trkpt>
      <trkpt lat="46.53344" lon="0.32965">
        <ele>139.2</ele>
        <time>2022-01-16T09:56:30Z</time>
      </trkpt>
      <trkpt lat="46.53335" lon="0.32973">
        <ele>139.2</ele>
        <time>2022-01-16T09:56:34Z</time>
      </trkpt>
      <trkpt lat="46.53334" lon="0.32975">
        <ele>139.4</ele>
        <time>2022-01-16T09:56:35Z</time>
      </trkpt>
      <trkpt lat="46.53324" lon="0.3299">
        <ele>139.2</ele>
        <time>2022-01-16T09:56:40Z</time>
      </trkpt>
      <trkpt lat="46.53307" lon="0.33001">
        <ele>139</ele>
        <time>2022-01-16T09:56:45Z</time>
      </trkpt>
      <trkpt lat="46.53292" lon="0.33008">
        <ele>139.2</ele>
        <time>2022-01-16T09:56:50Z</time>
      </trkpt>
      <trkpt lat="46.53267" lon="0.33009">
        <ele>139.2</ele>
        <time>2022-01-16T09:56:57Z</time>
      </trkpt>
      <trkpt lat="46.53263" lon="0.33006">
        <ele>139.4</ele>
        <time>2022-01-16T09:56:59Z</time>
      </trkpt>
      <trkpt lat="46.53258" lon="0.33004">
        <ele>139.6</ele>
        <time>2022-01-16T09:57:01Z</time>
      </trkpt>
      <trkpt lat="46.53255" lon="0.33001">
        <ele>139.6</ele>
        <time>2022-01-16T09:57:02Z</time>
      </trkpt>
      <trkpt lat="46.53251" lon="0.33001">
        <ele>139.4</ele>
        <time>2022-01-16T09:57:03Z</time>
      </trkpt>
      <trkpt lat="46.53244" lon="0.33002">
        <ele>139.2</ele>
        <time>2022-01-16T09:57:05Z</time>
      </trkpt>
      <trkpt lat="46.53241" lon="0.33003">
        <ele>139.2</ele>
        <time>2022-01-16T09:57:06Z</time>
      </trkpt>
      <trkpt lat="46.53238" lon="0.33005">
        <ele>139.4</ele>
        <time>2022-01-16T09:57:07Z</time>
      </trkpt>
      <trkpt lat="46.53231" lon="0.33008">
        <ele>139.4</ele>
        <time>2022-01-16T09:57:09Z</time>
      </trkpt>
      <trkpt lat="46.53223" lon="0.33009">
        <ele>139.4</ele>
        <time>2022-01-16T09:57:11Z</time>
      </trkpt>
      <trkpt lat="46.53202" lon="0.33014">
        <ele>139.4</ele>
        <time>2022-01-16T09:57:16Z</time>
      </trkpt>
      <trkpt lat="46.53193" lon="0.33014">
        <ele>139.4</ele>
        <time>2022-01-16T09:57:19Z</time>
      </trkpt>
      <trkpt lat="46.53191" lon="0.33011">
        <ele>139.4</ele>
        <time>2022-01-16T09:57:20Z</time>
      </trkpt>
      <trkpt lat="46.53189" lon="0.33006">
        <ele>139.6</ele>
        <time>2022-01-16T09:57:21Z</time>
      </trkpt>
      <trkpt lat="46.53186" lon="0.32994">
        <ele>139.6</ele>
        <time>2022-01-16T09:57:23Z</time>
      </trkpt>
      <trkpt lat="46.53184" lon="0.32987">
        <ele>139.2</ele>
        <time>2022-01-16T09:57:24Z</time>
      </trkpt>
      <trkpt lat="46.53174" lon="0.32956">
        <ele>139</ele>
        <time>2022-01-16T09:57:28Z</time>
      </trkpt>
      <trkpt lat="46.53171" lon="0.32946">
        <ele>139</ele>
        <time>2022-01-16T09:57:29Z</time>
      </trkpt>
      <trkpt lat="46.53159" lon="0.32927">
        <ele>138.8</ele>
        <time>2022-01-16T09:57:32Z</time>
      </trkpt>
      <trkpt lat="46.53153" lon="0.32913">
        <ele>138.4</ele>
        <time>2022-01-16T09:57:34Z</time>
      </trkpt>
      <trkpt lat="46.53145" lon="0.3289">
        <ele>138.4</ele>
        <time>2022-01-16T09:57:37Z</time>
      </trkpt>
      <trkpt lat="46.53137" lon="0.32867">
        <ele>138.6</ele>
        <time>2022-01-16T09:57:40Z</time>
      </trkpt>
      <trkpt lat="46.53131" lon="0.3285">
        <ele>139</ele>
        <time>2022-01-16T09:57:43Z</time>
      </trkpt>
      <trkpt lat="46.53129" lon="0.32842">
        <ele>139.4</ele>
        <time>2022-01-16T09:57:44Z</time>
      </trkpt>
      <trkpt lat="46.53119" lon="0.32813">
        <ele>140.2</ele>
        <time>2022-01-16T09:57:49Z</time>
      </trkpt>
      <trkpt lat="46.53114" lon="0.32804">
        <ele>140.4</ele>
        <time>2022-01-16T09:57:51Z</time>
      </trkpt>
      <trkpt lat="46.53112" lon="0.32797">
        <ele>140.4</ele>
        <time>2022-01-16T09:57:52Z</time>
      </trkpt>
      <trkpt lat="46.53106" lon="0.32786">
        <ele>140.6</ele>
        <time>2022-01-16T09:57:54Z</time>
      </trkpt>
      <trkpt lat="46.53102" lon="0.32781">
        <ele>140.8</ele>
        <time>2022-01-16T09:57:55Z</time>
      </trkpt>
      <trkpt lat="46.53084" lon="0.32745">
        <ele>140.8</ele>
        <time>2022-01-16T09:58:01Z</time>
      </trkpt>
      <trkpt lat="46.53068" lon="0.32713">
        <ele>141</ele>
        <time>2022-01-16T09:58:06Z</time>
      </trkpt>
      <trkpt lat="46.5306" lon="0.32697">
        <ele>140.8</ele>
        <time>2022-01-16T09:58:09Z</time>
      </trkpt>
      <trkpt lat="46.53041" lon="0.32666">
        <ele>140.6</ele>
        <time>2022-01-16T09:58:15Z</time>
      </trkpt>
      <trkpt lat="46.53021" lon="0.32642">
        <ele>140.4</ele>
        <time>2022-01-16T09:58:20Z</time>
      </trkpt>
      <trkpt lat="46.53017" lon="0.32638">
        <ele>140.4</ele>
        <time>2022-01-16T09:58:21Z</time>
      </trkpt>
      <trkpt lat="46.53007" lon="0.32632">
        <ele>140.2</ele>
        <time>2022-01-16T09:58:23Z</time>
      </trkpt>
      <trkpt lat="46.53003" lon="0.32629">
        <ele>140.4</ele>
        <time>2022-01-16T09:58:24Z</time>
      </trkpt>
      <trkpt lat="46.52998" lon="0.32626">
        <ele>140.4</ele>
        <time>2022-01-16T09:58:25Z</time>
      </trkpt>
      <trkpt lat="46.52988" lon="0.32623">
        <ele>140.6</ele>
        <time>2022-01-16T09:58:27Z</time>
      </trkpt>
      <trkpt lat="46.52982" lon="0.32624">
        <ele>140.8</ele>
        <time>2022-01-16T09:58:28Z</time>
      </trkpt>
      <trkpt lat="46.52949" lon="0.32622">
        <ele>141.2</ele>
        <time>2022-01-16T09:58:34Z</time>
      </trkpt>
      <trkpt lat="46.5292" lon="0.32623">
        <ele>141</ele>
        <time>2022-01-16T09:58:40Z</time>
      </trkpt>
      <trkpt lat="46.52889" lon="0.3263">
        <ele>141</ele>
        <time>2022-01-16T09:58:46Z</time>
      </trkpt>
      <trkpt lat="46.52872" lon="0.32631">
        <ele>140.8</ele>
        <time>2022-01-16T09:58:49Z</time>
      </trkpt>
      <trkpt lat="46.52855" lon="0.32633">
        <ele>140.8</ele>
        <time>2022-01-16T09:58:52Z</time>
      </trkpt>
      <trkpt lat="46.52832" lon="0.32637">
        <ele>140.4</ele>
        <time>2022-01-16T09:58:56Z</time>
      </trkpt>
      <trkpt lat="46.52821" lon="0.32641">
        <ele>140.2</ele>
        <time>2022-01-16T09:58:58Z</time>
      </trkpt>
      <trkpt lat="46.52787" lon="0.32654">
        <ele>139</ele>
        <time>2022-01-16T09:59:04Z</time>
      </trkpt>
      <trkpt lat="46.52758" lon="0.32666">
        <ele>137.8</ele>
        <time>2022-01-16T09:59:09Z</time>
      </trkpt>
      <trkpt lat="46.52753" lon="0.32666">
        <ele>137.2</ele>
        <time>2022-01-16T09:59:10Z</time>
      </trkpt>
      <trkpt lat="46.5275" lon="0.32665">
        <ele>136.8</ele>
        <time>2022-01-16T09:59:11Z</time>
      </trkpt>
      <trkpt lat="46.52748" lon="0.32662">
        <ele>136.4</ele>
        <time>2022-01-16T09:59:12Z</time>
      </trkpt>
      <trkpt lat="46.52747" lon="0.32657">
        <ele>136.4</ele>
        <time>2022-01-16T09:59:13Z</time>
      </trkpt>
      <trkpt lat="46.52746" lon="0.32653">
        <ele>136.2</ele>
        <time>2022-01-16T09:59:14Z</time>
      </trkpt>
      <trkpt lat="46.52745" lon="0.32637">
        <ele>136.2</ele>
        <time>2022-01-16T09:59:17Z</time>
      </trkpt>
      <trkpt lat="46.52743" lon="0.32624">
        <ele>136.2</ele>
        <time>2022-01-16T09:59:19Z</time>
      </trkpt>
      <trkpt lat="46.5274" lon="0.32611">
        <ele>136.2</ele>
        <time>2022-01-16T09:59:21Z</time>
      </trkpt>
      <trkpt lat="46.52734" lon="0.32602">
        <ele>136.4</ele>
        <time>2022-01-16T09:59:23Z</time>
      </trkpt>
      <trkpt lat="46.52717" lon="0.32602">
        <ele>136.2</ele>
        <time>2022-01-16T09:59:27Z</time>
      </trkpt>
      <trkpt lat="46.52709" lon="0.32599">
        <ele>135.8</ele>
        <time>2022-01-16T09:59:29Z</time>
      </trkpt>
      <trkpt lat="46.52707" lon="0.32598">
        <ele>135.2</ele>
        <time>2022-01-16T09:59:30Z</time>
      </trkpt>
      <trkpt lat="46.5269" lon="0.32584">
        <ele>134.6</ele>
        <time>2022-01-16T09:59:36Z</time>
      </trkpt>
      <trkpt lat="46.52667" lon="0.32573">
        <ele>134.8</ele>
        <time>2022-01-16T09:59:41Z</time>
      </trkpt>
      <trkpt lat="46.52653" lon="0.32567">
        <ele>134.6</ele>
        <time>2022-01-16T09:59:44Z</time>
      </trkpt>
      <trkpt lat="46.52648" lon="0.32562">
        <ele>134.4</ele>
        <time>2022-01-16T09:59:46Z</time>
      </trkpt>
      <trkpt lat="46.52642" lon="0.32558">
        <ele>134.2</ele>
        <time>2022-01-16T09:59:48Z</time>
      </trkpt>
      <trkpt lat="46.52639" lon="0.32557">
        <ele>134.2</ele>
        <time>2022-01-16T09:59:49Z</time>
      </trkpt>
      <trkpt lat="46.5263" lon="0.32553">
        <ele>134.2</ele>
        <time>2022-01-16T09:59:51Z</time>
      </trkpt>
      <trkpt lat="46.52624" lon="0.32551">
        <ele>134.2</ele>
        <time>2022-01-16T09:59:52Z</time>
      </trkpt>
      <trkpt lat="46.52619" lon="0.32547">
        <ele>134.2</ele>
        <time>2022-01-16T09:59:53Z</time>
      </trkpt>
      <trkpt lat="46.52614" lon="0.3254">
        <ele>133.8</ele>
        <time>2022-01-16T09:59:55Z</time>
      </trkpt>
      <trkpt lat="46.52613" lon="0.32531">
        <ele>133.4</ele>
        <time>2022-01-16T09:59:58Z</time>
      </trkpt>
      <trkpt lat="46.52613" lon="0.32527">
        <ele>133.6</ele>
        <time>2022-01-16T09:59:59Z</time>
      </trkpt>
      <trkpt lat="46.52615" lon="0.3252">
        <ele>133.8</ele>
        <time>2022-01-16T10:00:01Z</time>
      </trkpt>
      <trkpt lat="46.52619" lon="0.32513">
        <ele>134.6</ele>
        <time>2022-01-16T10:00:03Z</time>
      </trkpt>
      <trkpt lat="46.52622" lon="0.3251">
        <ele>134.6</ele>
        <time>2022-01-16T10:00:04Z</time>
      </trkpt>
      <trkpt lat="46.52626" lon="0.32502">
        <ele>135</ele>
        <time>2022-01-16T10:00:06Z</time>
      </trkpt>
      <trkpt lat="46.52627" lon="0.32496">
        <ele>135.2</ele>
        <time>2022-01-16T10:00:07Z</time>
      </trkpt>
      <trkpt lat="46.52628" lon="0.32491">
        <ele>135.4</ele>
        <time>2022-01-16T10:00:08Z</time>
      </trkpt>
      <trkpt lat="46.52629" lon="0.32486">
        <ele>135.6</ele>
        <time>2022-01-16T10:00:09Z</time>
      </trkpt>
      <trkpt lat="46.52631" lon="0.32473">
        <ele>136.4</ele>
        <time>2022-01-16T10:00:12Z</time>
      </trkpt>
      <trkpt lat="46.52631" lon="0.32468">
        <ele>136.6</ele>
        <time>2022-01-16T10:00:13Z</time>
      </trkpt>
      <trkpt lat="46.52632" lon="0.32463">
        <ele>136.8</ele>
        <time>2022-01-16T10:00:14Z</time>
      </trkpt>
      <trkpt lat="46.52637" lon="0.32441">
        <ele>137.2</ele>
        <time>2022-01-16T10:00:19Z</time>
      </trkpt>
      <trkpt lat="46.52638" lon="0.32422">
        <ele>137.6</ele>
        <time>2022-01-16T10:00:23Z</time>
      </trkpt>
      <trkpt lat="46.52638" lon="0.32409">
        <ele>138.2</ele>
        <time>2022-01-16T10:00:25Z</time>
      </trkpt>
      <trkpt lat="46.52639" lon="0.32394">
        <ele>138.8</ele>
        <time>2022-01-16T10:00:28Z</time>
      </trkpt>
      <trkpt lat="46.5264" lon="0.32386">
        <ele>139.2</ele>
        <time>2022-01-16T10:00:30Z</time>
      </trkpt>
      <trkpt lat="46.52641" lon="0.32355">
        <ele>139.8</ele>
        <time>2022-01-16T10:00:36Z</time>
      </trkpt>
      <trkpt lat="46.5264" lon="0.32328">
        <ele>140.4</ele>
        <time>2022-01-16T10:00:41Z</time>
      </trkpt>
      <trkpt lat="46.52638" lon="0.323">
        <ele>140.8</ele>
        <time>2022-01-16T10:00:46Z</time>
      </trkpt>
      <trkpt lat="46.52638" lon="0.32296">
        <ele>140.8</ele>
        <time>2022-01-16T10:00:47Z</time>
      </trkpt>
      <trkpt lat="46.52633" lon="0.32288">
        <ele>140.8</ele>
        <time>2022-01-16T10:00:49Z</time>
      </trkpt>
      <trkpt lat="46.52622" lon="0.32286">
        <ele>140.8</ele>
        <time>2022-01-16T10:00:52Z</time>
      </trkpt>
      <trkpt lat="46.52615" lon="0.32285">
        <ele>141</ele>
        <time>2022-01-16T10:00:54Z</time>
      </trkpt>
      <trkpt lat="46.52599" lon="0.32284">
        <ele>141</ele>
        <time>2022-01-16T10:00:58Z</time>
      </trkpt>
      <trkpt lat="46.5259" lon="0.32283">
        <ele>141</ele>
        <time>2022-01-16T10:01:00Z</time>
      </trkpt>
      <trkpt lat="46.52586" lon="0.32283">
        <ele>140.8</ele>
        <time>2022-01-16T10:01:01Z</time>
      </trkpt>
      <trkpt lat="46.52572" lon="0.32283">
        <ele>140.8</ele>
        <time>2022-01-16T10:01:04Z</time>
      </trkpt>
      <trkpt lat="46.52562" lon="0.32285">
        <ele>140.6</ele>
        <time>2022-01-16T10:01:06Z</time>
      </trkpt>
      <trkpt lat="46.52555" lon="0.32284">
        <ele>140.2</ele>
        <time>2022-01-16T10:01:08Z</time>
      </trkpt>
      <trkpt lat="46.52551" lon="0.32281">
        <ele>140.2</ele>
        <time>2022-01-16T10:01:10Z</time>
      </trkpt>
      <trkpt lat="46.5255" lon="0.32265">
        <ele>140.6</ele>
        <time>2022-01-16T10:01:14Z</time>
      </trkpt>
      <trkpt lat="46.52553" lon="0.32245">
        <ele>140.8</ele>
        <time>2022-01-16T10:01:18Z</time>
      </trkpt>
      <trkpt lat="46.52541" lon="0.32231">
        <ele>141.2</ele>
        <time>2022-01-16T10:01:22Z</time>
      </trkpt>
      <trkpt lat="46.52528" lon="0.32219">
        <ele>141.2</ele>
        <time>2022-01-16T10:01:27Z</time>
      </trkpt>
      <trkpt lat="46.52524" lon="0.32213">
        <ele>141.2</ele>
        <time>2022-01-16T10:01:29Z</time>
      </trkpt>
      <trkpt lat="46.52523" lon="0.32205">
        <ele>141.6</ele>
        <time>2022-01-16T10:01:31Z</time>
      </trkpt>
      <trkpt lat="46.52531" lon="0.32181">
        <ele>142</ele>
        <time>2022-01-16T10:01:36Z</time>
      </trkpt>
      <trkpt lat="46.52544" lon="0.32141">
        <ele>142.2</ele>
        <time>2022-01-16T10:01:43Z</time>
      </trkpt>
      <trkpt lat="46.52545" lon="0.32122">
        <ele>142.2</ele>
        <time>2022-01-16T10:01:47Z</time>
      </trkpt>
      <trkpt lat="46.52549" lon="0.32111">
        <ele>142</ele>
        <time>2022-01-16T10:01:50Z</time>
      </trkpt>
      <trkpt lat="46.52551" lon="0.3211">
        <ele>142</ele>
        <time>2022-01-16T10:01:51Z</time>
      </trkpt>
      <trkpt lat="46.5257" lon="0.32109">
        <ele>142</ele>
        <time>2022-01-16T10:01:56Z</time>
      </trkpt>
      <trkpt lat="46.52585" lon="0.3211">
        <ele>141.6</ele>
        <time>2022-01-16T10:02:00Z</time>
      </trkpt>
      <trkpt lat="46.52593" lon="0.3211">
        <ele>141.4</ele>
        <time>2022-01-16T10:02:02Z</time>
      </trkpt>
      <trkpt lat="46.52595" lon="0.32106">
        <ele>141.4</ele>
        <time>2022-01-16T10:02:04Z</time>
      </trkpt>
      <trkpt lat="46.52596" lon="0.32104">
        <ele>141.4</ele>
        <time>2022-01-16T10:02:05Z</time>
      </trkpt>
      <trkpt lat="46.52598" lon="0.32098">
        <ele>140.8</ele>
        <time>2022-01-16T10:02:09Z</time>
      </trkpt>
      <trkpt lat="46.52599" lon="0.32095">
        <ele>140.6</ele>
        <time>2022-01-16T10:02:10Z</time>
      </trkpt>
      <trkpt lat="46.52601" lon="0.32086">
        <ele>140.6</ele>
        <time>2022-01-16T10:02:12Z</time>
      </trkpt>
      <trkpt lat="46.52603" lon="0.32072">
        <ele>140.6</ele>
        <time>2022-01-16T10:02:14Z</time>
      </trkpt>
      <trkpt lat="46.52609" lon="0.32046">
        <ele>140.4</ele>
        <time>2022-01-16T10:02:18Z</time>
      </trkpt>
      <trkpt lat="46.52613" lon="0.32032">
        <ele>140.2</ele>
        <time>2022-01-16T10:02:20Z</time>
      </trkpt>
      <trkpt lat="46.52618" lon="0.3202">
        <ele>139.4</ele>
        <time>2022-01-16T10:02:22Z</time>
      </trkpt>
      <trkpt lat="46.52621" lon="0.32008">
        <ele>138.4</ele>
        <time>2022-01-16T10:02:24Z</time>
      </trkpt>
      <trkpt lat="46.52625" lon="0.31999">
        <ele>137.8</ele>
        <time>2022-01-16T10:02:26Z</time>
      </trkpt>
      <trkpt lat="46.52632" lon="0.31988">
        <ele>137.4</ele>
        <time>2022-01-16T10:02:28Z</time>
      </trkpt>
      <trkpt lat="46.52636" lon="0.31982">
        <ele>137.2</ele>
        <time>2022-01-16T10:02:29Z</time>
      </trkpt>
      <trkpt lat="46.52639" lon="0.31977">
        <ele>137</ele>
        <time>2022-01-16T10:02:30Z</time>
      </trkpt>
      <trkpt lat="46.52649" lon="0.31961">
        <ele>136.4</ele>
        <time>2022-01-16T10:02:33Z</time>
      </trkpt>
      <trkpt lat="46.52652" lon="0.31958">
        <ele>135.6</ele>
        <time>2022-01-16T10:02:34Z</time>
      </trkpt>
      <trkpt lat="46.52652" lon="0.31955">
        <ele>135</ele>
        <time>2022-01-16T10:02:35Z</time>
      </trkpt>
      <trkpt lat="46.52652" lon="0.31953">
        <ele>134.4</ele>
        <time>2022-01-16T10:02:37Z</time>
      </trkpt>
      <trkpt lat="46.52654" lon="0.31953">
        <ele>134</ele>
        <time>2022-01-16T10:02:40Z</time>
      </trkpt>
      <trkpt lat="46.52655" lon="0.31952">
        <ele>134</ele>
        <time>2022-01-16T10:02:41Z</time>
      </trkpt>
      <trkpt lat="46.52656" lon="0.3195">
        <ele>134</ele>
        <time>2022-01-16T10:02:42Z</time>
      </trkpt>
      <trkpt lat="46.52654" lon="0.31944">
        <ele>134</ele>
        <time>2022-01-16T10:02:45Z</time>
      </trkpt>
      <trkpt lat="46.52649" lon="0.31935">
        <ele>134</ele>
        <time>2022-01-16T10:02:48Z</time>
      </trkpt>
      <trkpt lat="46.52648" lon="0.31931">
        <ele>134.2</ele>
        <time>2022-01-16T10:02:49Z</time>
      </trkpt>
      <trkpt lat="46.52645" lon="0.31917">
        <ele>134</ele>
        <time>2022-01-16T10:02:52Z</time>
      </trkpt>
      <trkpt lat="46.5264" lon="0.31907">
        <ele>134</ele>
        <time>2022-01-16T10:02:54Z</time>
      </trkpt>
      <trkpt lat="46.52628" lon="0.31883">
        <ele>133.2</ele>
        <time>2022-01-16T10:02:58Z</time>
      </trkpt>
      <trkpt lat="46.52622" lon="0.3187">
        <ele>132.8</ele>
        <time>2022-01-16T10:03:00Z</time>
      </trkpt>
      <trkpt lat="46.52617" lon="0.31862">
        <ele>132.8</ele>
        <time>2022-01-16T10:03:01Z</time>
      </trkpt>
      <trkpt lat="46.52613" lon="0.31855">
        <ele>132.2</ele>
        <time>2022-01-16T10:03:02Z</time>
      </trkpt>
      <trkpt lat="46.52605" lon="0.31841">
        <ele>131.2</ele>
        <time>2022-01-16T10:03:04Z</time>
      </trkpt>
      <trkpt lat="46.52603" lon="0.31833">
        <ele>131</ele>
        <time>2022-01-16T10:03:05Z</time>
      </trkpt>
      <trkpt lat="46.52599" lon="0.31821">
        <ele>131</ele>
        <time>2022-01-16T10:03:07Z</time>
      </trkpt>
      <trkpt lat="46.52596" lon="0.31814">
        <ele>131</ele>
        <time>2022-01-16T10:03:08Z</time>
      </trkpt>
      <trkpt lat="46.52589" lon="0.318">
        <ele>131.8</ele>
        <time>2022-01-16T10:03:11Z</time>
      </trkpt>
      <trkpt lat="46.52587" lon="0.31795">
        <ele>132.4</ele>
        <time>2022-01-16T10:03:12Z</time>
      </trkpt>
      <trkpt lat="46.52585" lon="0.31791">
        <ele>133</ele>
        <time>2022-01-16T10:03:13Z</time>
      </trkpt>
      <trkpt lat="46.52579" lon="0.3178">
        <ele>133.6</ele>
        <time>2022-01-16T10:03:15Z</time>
      </trkpt>
      <trkpt lat="46.52573" lon="0.31771">
        <ele>133.8</ele>
        <time>2022-01-16T10:03:17Z</time>
      </trkpt>
      <trkpt lat="46.52569" lon="0.31761">
        <ele>133.8</ele>
        <time>2022-01-16T10:03:19Z</time>
      </trkpt>
      <trkpt lat="46.52561" lon="0.31746">
        <ele>133.8</ele>
        <time>2022-01-16T10:03:22Z</time>
      </trkpt>
      <trkpt lat="46.52556" lon="0.3174">
        <ele>134</ele>
        <time>2022-01-16T10:03:24Z</time>
      </trkpt>
      <trkpt lat="46.52548" lon="0.31733">
        <ele>134</ele>
        <time>2022-01-16T10:03:26Z</time>
      </trkpt>
      <trkpt lat="46.52542" lon="0.31726">
        <ele>134</ele>
        <time>2022-01-16T10:03:28Z</time>
      </trkpt>
      <trkpt lat="46.52539" lon="0.31718">
        <ele>133.8</ele>
        <time>2022-01-16T10:03:30Z</time>
      </trkpt>
      <trkpt lat="46.52538" lon="0.31713">
        <ele>133.6</ele>
        <time>2022-01-16T10:03:31Z</time>
      </trkpt>
      <trkpt lat="46.52536" lon="0.31702">
        <ele>133.2</ele>
        <time>2022-01-16T10:03:33Z</time>
      </trkpt>
      <trkpt lat="46.52532" lon="0.31688">
        <ele>132.4</ele>
        <time>2022-01-16T10:03:35Z</time>
      </trkpt>
      <trkpt lat="46.52531" lon="0.31682">
        <ele>132.2</ele>
        <time>2022-01-16T10:03:36Z</time>
      </trkpt>
      <trkpt lat="46.5253" lon="0.31678">
        <ele>131.4</ele>
        <time>2022-01-16T10:03:37Z</time>
      </trkpt>
      <trkpt lat="46.52529" lon="0.31666">
        <ele>130.4</ele>
        <time>2022-01-16T10:03:40Z</time>
      </trkpt>
      <trkpt lat="46.52528" lon="0.31663">
        <ele>130.2</ele>
        <time>2022-01-16T10:03:41Z</time>
      </trkpt>
      <trkpt lat="46.52525" lon="0.3165">
        <ele>128.8</ele>
        <time>2022-01-16T10:03:43Z</time>
      </trkpt>
      <trkpt lat="46.52524" lon="0.31646">
        <ele>127.6</ele>
        <time>2022-01-16T10:03:44Z</time>
      </trkpt>
      <trkpt lat="46.52523" lon="0.31642">
        <ele>126.8</ele>
        <time>2022-01-16T10:03:45Z</time>
      </trkpt>
      <trkpt lat="46.52522" lon="0.31638">
        <ele>126</ele>
        <time>2022-01-16T10:03:46Z</time>
      </trkpt>
      <trkpt lat="46.52522" lon="0.31634">
        <ele>125.4</ele>
        <time>2022-01-16T10:03:47Z</time>
      </trkpt>
      <trkpt lat="46.52521" lon="0.31621">
        <ele>125.2</ele>
        <time>2022-01-16T10:03:49Z</time>
      </trkpt>
      <trkpt lat="46.52521" lon="0.31614">
        <ele>125</ele>
        <time>2022-01-16T10:03:51Z</time>
      </trkpt>
      <trkpt lat="46.52514" lon="0.31603">
        <ele>125.4</ele>
        <time>2022-01-16T10:03:53Z</time>
      </trkpt>
      <trkpt lat="46.52509" lon="0.31593">
        <ele>125.6</ele>
        <time>2022-01-16T10:03:55Z</time>
      </trkpt>
      <trkpt lat="46.52505" lon="0.31586">
        <ele>125.6</ele>
        <time>2022-01-16T10:03:57Z</time>
      </trkpt>
      <trkpt lat="46.52502" lon="0.3158">
        <ele>125.6</ele>
        <time>2022-01-16T10:03:59Z</time>
      </trkpt>
      <trkpt lat="46.52495" lon="0.31561">
        <ele>125.8</ele>
        <time>2022-01-16T10:04:03Z</time>
      </trkpt>
      <trkpt lat="46.52493" lon="0.31556">
        <ele>126</ele>
        <time>2022-01-16T10:04:04Z</time>
      </trkpt>
      <trkpt lat="46.52489" lon="0.31546">
        <ele>126</ele>
        <time>2022-01-16T10:04:06Z</time>
      </trkpt>
      <trkpt lat="46.52486" lon="0.31534">
        <ele>126</ele>
        <time>2022-01-16T10:04:08Z</time>
      </trkpt>
      <trkpt lat="46.52473" lon="0.31509">
        <ele>126.4</ele>
        <time>2022-01-16T10:04:14Z</time>
      </trkpt>
      <trkpt lat="46.52467" lon="0.31495">
        <ele>127.2</ele>
        <time>2022-01-16T10:04:17Z</time>
      </trkpt>
      <trkpt lat="46.52463" lon="0.31484">
        <ele>127.2</ele>
        <time>2022-01-16T10:04:19Z</time>
      </trkpt>
      <trkpt lat="46.52459" lon="0.31473">
        <ele>127.6</ele>
        <time>2022-01-16T10:04:21Z</time>
      </trkpt>
      <trkpt lat="46.52456" lon="0.31465">
        <ele>127.6</ele>
        <time>2022-01-16T10:04:22Z</time>
      </trkpt>
      <trkpt lat="46.52451" lon="0.31452">
        <ele>127.8</ele>
        <time>2022-01-16T10:04:24Z</time>
      </trkpt>
      <trkpt lat="46.52446" lon="0.31439">
        <ele>128.2</ele>
        <time>2022-01-16T10:04:26Z</time>
      </trkpt>
      <trkpt lat="46.52444" lon="0.31434">
        <ele>128.4</ele>
        <time>2022-01-16T10:04:27Z</time>
      </trkpt>
      <trkpt lat="46.52434" lon="0.314">
        <ele>129</ele>
        <time>2022-01-16T10:04:33Z</time>
      </trkpt>
      <trkpt lat="46.52429" lon="0.31368">
        <ele>129.4</ele>
        <time>2022-01-16T10:04:39Z</time>
      </trkpt>
      <trkpt lat="46.52427" lon="0.31356">
        <ele>129.8</ele>
        <time>2022-01-16T10:04:41Z</time>
      </trkpt>
      <trkpt lat="46.52427" lon="0.31349">
        <ele>130.6</ele>
        <time>2022-01-16T10:04:43Z</time>
      </trkpt>
      <trkpt lat="46.52427" lon="0.31336">
        <ele>131</ele>
        <time>2022-01-16T10:04:46Z</time>
      </trkpt>
      <trkpt lat="46.52428" lon="0.31333">
        <ele>131</ele>
        <time>2022-01-16T10:04:47Z</time>
      </trkpt>
      <trkpt lat="46.52431" lon="0.31327">
        <ele>131.6</ele>
        <time>2022-01-16T10:04:49Z</time>
      </trkpt>
      <trkpt lat="46.52435" lon="0.31323">
        <ele>132.6</ele>
        <time>2022-01-16T10:04:53Z</time>
      </trkpt>
      <trkpt lat="46.52436" lon="0.31322">
        <ele>132.6</ele>
        <time>2022-01-16T10:04:54Z</time>
      </trkpt>
      <trkpt lat="46.52443" lon="0.31322">
        <ele>133.6</ele>
        <time>2022-01-16T10:04:59Z</time>
      </trkpt>
      <trkpt lat="46.52445" lon="0.31322">
        <ele>133.8</ele>
        <time>2022-01-16T10:05:00Z</time>
      </trkpt>
      <trkpt lat="46.52453" lon="0.3132">
        <ele>134.8</ele>
        <time>2022-01-16T10:05:05Z</time>
      </trkpt>
      <trkpt lat="46.52455" lon="0.3132">
        <ele>135.4</ele>
        <time>2022-01-16T10:05:06Z</time>
      </trkpt>
      <trkpt lat="46.52459" lon="0.3132">
        <ele>136</ele>
        <time>2022-01-16T10:05:08Z</time>
      </trkpt>
      <trkpt lat="46.5246" lon="0.31321">
        <ele>136.2</ele>
        <time>2022-01-16T10:05:09Z</time>
      </trkpt>
      <trkpt lat="46.52465" lon="0.31325">
        <ele>136.4</ele>
        <time>2022-01-16T10:05:12Z</time>
      </trkpt>
      <trkpt lat="46.52481" lon="0.31335">
        <ele>137</ele>
        <time>2022-01-16T10:05:20Z</time>
      </trkpt>
      <trkpt lat="46.52493" lon="0.31347">
        <ele>137.4</ele>
        <time>2022-01-16T10:05:26Z</time>
      </trkpt>
      <trkpt lat="46.52503" lon="0.31357">
        <ele>138</ele>
        <time>2022-01-16T10:05:32Z</time>
      </trkpt>
      <trkpt lat="46.52508" lon="0.31361">
        <ele>138</ele>
        <time>2022-01-16T10:05:34Z</time>
      </trkpt>
      <trkpt lat="46.52526" lon="0.31373">
        <ele>138.8</ele>
        <time>2022-01-16T10:05:41Z</time>
      </trkpt>
      <trkpt lat="46.52539" lon="0.31382">
        <ele>138.8</ele>
        <time>2022-01-16T10:05:45Z</time>
      </trkpt>
      <trkpt lat="46.52551" lon="0.31387">
        <ele>139.2</ele>
        <time>2022-01-16T10:05:48Z</time>
      </trkpt>
      <trkpt lat="46.52576" lon="0.31397">
        <ele>140</ele>
        <time>2022-01-16T10:05:54Z</time>
      </trkpt>
      <trkpt lat="46.52593" lon="0.31402">
        <ele>140</ele>
        <time>2022-01-16T10:05:58Z</time>
      </trkpt>
      <trkpt lat="46.52601" lon="0.31405">
        <ele>140.4</ele>
        <time>2022-01-16T10:06:00Z</time>
      </trkpt>
      <trkpt lat="46.52605" lon="0.31406">
        <ele>140.4</ele>
        <time>2022-01-16T10:06:01Z</time>
      </trkpt>
      <trkpt lat="46.52609" lon="0.31407">
        <ele>140.4</ele>
        <time>2022-01-16T10:06:02Z</time>
      </trkpt>
      <trkpt lat="46.52629" lon="0.3141">
        <ele>141</ele>
        <time>2022-01-16T10:06:07Z</time>
      </trkpt>
      <trkpt lat="46.52636" lon="0.31411">
        <ele>141</ele>
        <time>2022-01-16T10:06:09Z</time>
      </trkpt>
      <trkpt lat="46.5265" lon="0.31411">
        <ele>141.2</ele>
        <time>2022-01-16T10:06:12Z</time>
      </trkpt>
      <trkpt lat="46.5266" lon="0.31411">
        <ele>141.2</ele>
        <time>2022-01-16T10:06:15Z</time>
      </trkpt>
      <trkpt lat="46.52668" lon="0.31415">
        <ele>141.2</ele>
        <time>2022-01-16T10:06:17Z</time>
      </trkpt>
      <trkpt lat="46.52679" lon="0.3142">
        <ele>141</ele>
        <time>2022-01-16T10:06:19Z</time>
      </trkpt>
      <trkpt lat="46.5269" lon="0.31419">
        <ele>141</ele>
        <time>2022-01-16T10:06:21Z</time>
      </trkpt>
      <trkpt lat="46.52699" lon="0.31415">
        <ele>141</ele>
        <time>2022-01-16T10:06:23Z</time>
      </trkpt>
      <trkpt lat="46.52712" lon="0.31411">
        <ele>141.2</ele>
        <time>2022-01-16T10:06:26Z</time>
      </trkpt>
      <trkpt lat="46.52739" lon="0.31403">
        <ele>141.2</ele>
        <time>2022-01-16T10:06:31Z</time>
      </trkpt>
      <trkpt lat="46.52747" lon="0.314">
        <ele>141.2</ele>
        <time>2022-01-16T10:06:33Z</time>
      </trkpt>
      <trkpt lat="46.52762" lon="0.31396">
        <ele>141</ele>
        <time>2022-01-16T10:06:36Z</time>
      </trkpt>
      <trkpt lat="46.52767" lon="0.31394">
        <ele>140.8</ele>
        <time>2022-01-16T10:06:37Z</time>
      </trkpt>
      <trkpt lat="46.52774" lon="0.31388">
        <ele>140.4</ele>
        <time>2022-01-16T10:06:39Z</time>
      </trkpt>
      <trkpt lat="46.52776" lon="0.31384">
        <ele>140.4</ele>
        <time>2022-01-16T10:06:40Z</time>
      </trkpt>
      <trkpt lat="46.52778" lon="0.3138">
        <ele>140.4</ele>
        <time>2022-01-16T10:06:41Z</time>
      </trkpt>
      <trkpt lat="46.52779" lon="0.31371">
        <ele>140.2</ele>
        <time>2022-01-16T10:06:43Z</time>
      </trkpt>
      <trkpt lat="46.52779" lon="0.31367">
        <ele>140.2</ele>
        <time>2022-01-16T10:06:44Z</time>
      </trkpt>
      <trkpt lat="46.52779" lon="0.31359">
        <ele>140.2</ele>
        <time>2022-01-16T10:06:46Z</time>
      </trkpt>
      <trkpt lat="46.5278" lon="0.31349">
        <ele>140.4</ele>
        <time>2022-01-16T10:06:48Z</time>
      </trkpt>
      <trkpt lat="46.52781" lon="0.31341">
        <ele>140.2</ele>
        <time>2022-01-16T10:06:49Z</time>
      </trkpt>
      <trkpt lat="46.52783" lon="0.31334">
        <ele>140.2</ele>
        <time>2022-01-16T10:06:50Z</time>
      </trkpt>
      <trkpt lat="46.52785" lon="0.31322">
        <ele>139.8</ele>
        <time>2022-01-16T10:06:52Z</time>
      </trkpt>
      <trkpt lat="46.52784" lon="0.31317">
        <ele>139.6</ele>
        <time>2022-01-16T10:06:53Z</time>
      </trkpt>
      <trkpt lat="46.52783" lon="0.31305">
        <ele>139.2</ele>
        <time>2022-01-16T10:06:55Z</time>
      </trkpt>
      <trkpt lat="46.5278" lon="0.31283">
        <ele>138.6</ele>
        <time>2022-01-16T10:06:59Z</time>
      </trkpt>
      <trkpt lat="46.52779" lon="0.3127">
        <ele>138.2</ele>
        <time>2022-01-16T10:07:01Z</time>
      </trkpt>
      <trkpt lat="46.52779" lon="0.31264">
        <ele>137.6</ele>
        <time>2022-01-16T10:07:02Z</time>
      </trkpt>
      <trkpt lat="46.52778" lon="0.31256">
        <ele>137.2</ele>
        <time>2022-01-16T10:07:03Z</time>
      </trkpt>
      <trkpt lat="46.52777" lon="0.31251">
        <ele>137</ele>
        <time>2022-01-16T10:07:04Z</time>
      </trkpt>
      <trkpt lat="46.52776" lon="0.31247">
        <ele>136.8</ele>
        <time>2022-01-16T10:07:05Z</time>
      </trkpt>
      <trkpt lat="46.52775" lon="0.31238">
        <ele>136.2</ele>
        <time>2022-01-16T10:07:07Z</time>
      </trkpt>
      <trkpt lat="46.52774" lon="0.31234">
        <ele>135.8</ele>
        <time>2022-01-16T10:07:08Z</time>
      </trkpt>
      <trkpt lat="46.52771" lon="0.31226">
        <ele>135.4</ele>
        <time>2022-01-16T10:07:10Z</time>
      </trkpt>
      <trkpt lat="46.52771" lon="0.3122">
        <ele>135.2</ele>
        <time>2022-01-16T10:07:12Z</time>
      </trkpt>
      <trkpt lat="46.52772" lon="0.31193">
        <ele>134.6</ele>
        <time>2022-01-16T10:07:16Z</time>
      </trkpt>
      <trkpt lat="46.52772" lon="0.31187">
        <ele>134.6</ele>
        <time>2022-01-16T10:07:17Z</time>
      </trkpt>
      <trkpt lat="46.52772" lon="0.31178">
        <ele>133.2</ele>
        <time>2022-01-16T10:07:19Z</time>
      </trkpt>
      <trkpt lat="46.52771" lon="0.31171">
        <ele>132.8</ele>
        <time>2022-01-16T10:07:20Z</time>
      </trkpt>
      <trkpt lat="46.52771" lon="0.3116">
        <ele>132</ele>
        <time>2022-01-16T10:07:22Z</time>
      </trkpt>
      <trkpt lat="46.5277" lon="0.31149">
        <ele>130.8</ele>
        <time>2022-01-16T10:07:24Z</time>
      </trkpt>
      <trkpt lat="46.52769" lon="0.31136">
        <ele>129.4</ele>
        <time>2022-01-16T10:07:26Z</time>
      </trkpt>
      <trkpt lat="46.52766" lon="0.31119">
        <ele>128.6</ele>
        <time>2022-01-16T10:07:28Z</time>
      </trkpt>
      <trkpt lat="46.52765" lon="0.31113">
        <ele>128.4</ele>
        <time>2022-01-16T10:07:29Z</time>
      </trkpt>
      <trkpt lat="46.52763" lon="0.31108">
        <ele>128.2</ele>
        <time>2022-01-16T10:07:30Z</time>
      </trkpt>
      <trkpt lat="46.52759" lon="0.31093">
        <ele>128</ele>
        <time>2022-01-16T10:07:33Z</time>
      </trkpt>
      <trkpt lat="46.52757" lon="0.31078">
        <ele>127.8</ele>
        <time>2022-01-16T10:07:35Z</time>
      </trkpt>
      <trkpt lat="46.52752" lon="0.31056">
        <ele>128</ele>
        <time>2022-01-16T10:07:38Z</time>
      </trkpt>
      <trkpt lat="46.52747" lon="0.31028">
        <ele>128.4</ele>
        <time>2022-01-16T10:07:41Z</time>
      </trkpt>
      <trkpt lat="46.52743" lon="0.30997">
        <ele>128.8</ele>
        <time>2022-01-16T10:07:45Z</time>
      </trkpt>
      <trkpt lat="46.5274" lon="0.30982">
        <ele>129</ele>
        <time>2022-01-16T10:07:47Z</time>
      </trkpt>
      <trkpt lat="46.52735" lon="0.3096">
        <ele>129.4</ele>
        <time>2022-01-16T10:07:50Z</time>
      </trkpt>
      <trkpt lat="46.52734" lon="0.30954">
        <ele>129.4</ele>
        <time>2022-01-16T10:07:51Z</time>
      </trkpt>
      <trkpt lat="46.52733" lon="0.30947">
        <ele>129.6</ele>
        <time>2022-01-16T10:07:52Z</time>
      </trkpt>
      <trkpt lat="46.52731" lon="0.30935">
        <ele>129.8</ele>
        <time>2022-01-16T10:07:54Z</time>
      </trkpt>
      <trkpt lat="46.52725" lon="0.30911">
        <ele>130.6</ele>
        <time>2022-01-16T10:07:58Z</time>
      </trkpt>
      <trkpt lat="46.52723" lon="0.30903">
        <ele>131.2</ele>
        <time>2022-01-16T10:08:00Z</time>
      </trkpt>
      <trkpt lat="46.52723" lon="0.309">
        <ele>131.8</ele>
        <time>2022-01-16T10:08:01Z</time>
      </trkpt>
      <trkpt lat="46.52722" lon="0.30893">
        <ele>132</ele>
        <time>2022-01-16T10:08:02Z</time>
      </trkpt>
      <trkpt lat="46.52717" lon="0.30873">
        <ele>132.8</ele>
        <time>2022-01-16T10:08:06Z</time>
      </trkpt>
      <trkpt lat="46.52715" lon="0.30859">
        <ele>133.2</ele>
        <time>2022-01-16T10:08:10Z</time>
      </trkpt>
      <trkpt lat="46.52715" lon="0.30856">
        <ele>133.2</ele>
        <time>2022-01-16T10:08:11Z</time>
      </trkpt>
      <trkpt lat="46.52712" lon="0.30822">
        <ele>132.6</ele>
        <time>2022-01-16T10:08:20Z</time>
      </trkpt>
      <trkpt lat="46.52713" lon="0.30809">
        <ele>131.4</ele>
        <time>2022-01-16T10:08:23Z</time>
      </trkpt>
      <trkpt lat="46.52713" lon="0.30805">
        <ele>131.2</ele>
        <time>2022-01-16T10:08:24Z</time>
      </trkpt>
      <trkpt lat="46.52713" lon="0.30786">
        <ele>130.6</ele>
        <time>2022-01-16T10:08:29Z</time>
      </trkpt>
      <trkpt lat="46.5271" lon="0.30764">
        <ele>132</ele>
        <time>2022-01-16T10:08:35Z</time>
      </trkpt>
      <trkpt lat="46.52708" lon="0.30758">
        <ele>132.4</ele>
        <time>2022-01-16T10:08:37Z</time>
      </trkpt>
      <trkpt lat="46.52702" lon="0.30744">
        <ele>133</ele>
        <time>2022-01-16T10:08:41Z</time>
      </trkpt>
      <trkpt lat="46.52697" lon="0.30727">
        <ele>132.8</ele>
        <time>2022-01-16T10:08:47Z</time>
      </trkpt>
      <trkpt lat="46.52693" lon="0.30712">
        <ele>132.6</ele>
        <time>2022-01-16T10:08:53Z</time>
      </trkpt>
      <trkpt lat="46.52686" lon="0.30696">
        <ele>132.4</ele>
        <time>2022-01-16T10:08:58Z</time>
      </trkpt>
      <trkpt lat="46.52679" lon="0.30675">
        <ele>133.6</ele>
        <time>2022-01-16T10:09:05Z</time>
      </trkpt>
      <trkpt lat="46.52677" lon="0.30668">
        <ele>133.8</ele>
        <time>2022-01-16T10:09:06Z</time>
      </trkpt>
      <trkpt lat="46.52672" lon="0.30652">
        <ele>134.6</ele>
        <time>2022-01-16T10:09:10Z</time>
      </trkpt>
      <trkpt lat="46.52672" lon="0.30643">
        <ele>134.8</ele>
        <time>2022-01-16T10:09:12Z</time>
      </trkpt>
      <trkpt lat="46.52669" lon="0.30609">
        <ele>133.8</ele>
        <time>2022-01-16T10:09:18Z</time>
      </trkpt>
      <trkpt lat="46.52669" lon="0.30605">
        <ele>133.6</ele>
        <time>2022-01-16T10:09:19Z</time>
      </trkpt>
      <trkpt lat="46.52667" lon="0.30595">
        <ele>132.6</ele>
        <time>2022-01-16T10:09:21Z</time>
      </trkpt>
      <trkpt lat="46.52667" lon="0.30591">
        <ele>132.2</ele>
        <time>2022-01-16T10:09:22Z</time>
      </trkpt>
      <trkpt lat="46.52665" lon="0.30588">
        <ele>132.2</ele>
        <time>2022-01-16T10:09:23Z</time>
      </trkpt>
      <trkpt lat="46.52662" lon="0.3058">
        <ele>132.4</ele>
        <time>2022-01-16T10:09:26Z</time>
      </trkpt>
      <trkpt lat="46.5266" lon="0.30567">
        <ele>132.6</ele>
        <time>2022-01-16T10:09:29Z</time>
      </trkpt>
      <trkpt lat="46.52653" lon="0.30553">
        <ele>132.8</ele>
        <time>2022-01-16T10:09:33Z</time>
      </trkpt>
      <trkpt lat="46.52651" lon="0.30549">
        <ele>133.6</ele>
        <time>2022-01-16T10:09:35Z</time>
      </trkpt>
      <trkpt lat="46.52648" lon="0.30535">
        <ele>133.8</ele>
        <time>2022-01-16T10:09:39Z</time>
      </trkpt>
      <trkpt lat="46.52648" lon="0.30511">
        <ele>134</ele>
        <time>2022-01-16T10:09:44Z</time>
      </trkpt>
      <trkpt lat="46.52648" lon="0.30506">
        <ele>134</ele>
        <time>2022-01-16T10:09:45Z</time>
      </trkpt>
      <trkpt lat="46.52647" lon="0.30495">
        <ele>133.2</ele>
        <time>2022-01-16T10:09:47Z</time>
      </trkpt>
      <trkpt lat="46.52648" lon="0.30486">
        <ele>132.4</ele>
        <time>2022-01-16T10:09:49Z</time>
      </trkpt>
      <trkpt lat="46.52648" lon="0.30476">
        <ele>132</ele>
        <time>2022-01-16T10:09:51Z</time>
      </trkpt>
      <trkpt lat="46.52649" lon="0.30461">
        <ele>131.8</ele>
        <time>2022-01-16T10:09:54Z</time>
      </trkpt>
      <trkpt lat="46.52648" lon="0.30448">
        <ele>131.8</ele>
        <time>2022-01-16T10:09:57Z</time>
      </trkpt>
      <trkpt lat="46.52648" lon="0.30444">
        <ele>132</ele>
        <time>2022-01-16T10:09:58Z</time>
      </trkpt>
      <trkpt lat="46.52648" lon="0.3044">
        <ele>132</ele>
        <time>2022-01-16T10:09:59Z</time>
      </trkpt>
      <trkpt lat="46.52649" lon="0.3043">
        <ele>131.2</ele>
        <time>2022-01-16T10:10:01Z</time>
      </trkpt>
      <trkpt lat="46.52648" lon="0.30405">
        <ele>130.4</ele>
        <time>2022-01-16T10:10:04Z</time>
      </trkpt>
      <trkpt lat="46.52647" lon="0.30399">
        <ele>130.2</ele>
        <time>2022-01-16T10:10:05Z</time>
      </trkpt>
      <trkpt lat="46.52644" lon="0.30387">
        <ele>129.8</ele>
        <time>2022-01-16T10:10:07Z</time>
      </trkpt>
      <trkpt lat="46.52642" lon="0.30375">
        <ele>129.4</ele>
        <time>2022-01-16T10:10:09Z</time>
      </trkpt>
      <trkpt lat="46.52638" lon="0.30362">
        <ele>129</ele>
        <time>2022-01-16T10:10:11Z</time>
      </trkpt>
      <trkpt lat="46.52632" lon="0.30338">
        <ele>128.8</ele>
        <time>2022-01-16T10:10:14Z</time>
      </trkpt>
      <trkpt lat="46.52627" lon="0.30326">
        <ele>128.4</ele>
        <time>2022-01-16T10:10:16Z</time>
      </trkpt>
      <trkpt lat="46.52617" lon="0.30315">
        <ele>128</ele>
        <time>2022-01-16T10:10:19Z</time>
      </trkpt>
      <trkpt lat="46.52613" lon="0.30308">
        <ele>128.2</ele>
        <time>2022-01-16T10:10:20Z</time>
      </trkpt>
      <trkpt lat="46.52605" lon="0.30301">
        <ele>128</ele>
        <time>2022-01-16T10:10:22Z</time>
      </trkpt>
      <trkpt lat="46.52594" lon="0.30291">
        <ele>127.4</ele>
        <time>2022-01-16T10:10:25Z</time>
      </trkpt>
      <trkpt lat="46.52585" lon="0.30282">
        <ele>126.4</ele>
        <time>2022-01-16T10:10:27Z</time>
      </trkpt>
      <trkpt lat="46.52574" lon="0.30268">
        <ele>125.2</ele>
        <time>2022-01-16T10:10:30Z</time>
      </trkpt>
      <trkpt lat="46.5257" lon="0.30263">
        <ele>125</ele>
        <time>2022-01-16T10:10:31Z</time>
      </trkpt>
      <trkpt lat="46.52558" lon="0.3026">
        <ele>124.2</ele>
        <time>2022-01-16T10:10:34Z</time>
      </trkpt>
      <trkpt lat="46.52553" lon="0.3026">
        <ele>124</ele>
        <time>2022-01-16T10:10:35Z</time>
      </trkpt>
      <trkpt lat="46.52549" lon="0.3026">
        <ele>123.6</ele>
        <time>2022-01-16T10:10:36Z</time>
      </trkpt>
      <trkpt lat="46.5254" lon="0.3026">
        <ele>123.2</ele>
        <time>2022-01-16T10:10:38Z</time>
      </trkpt>
      <trkpt lat="46.5253" lon="0.3026">
        <ele>122.6</ele>
        <time>2022-01-16T10:10:40Z</time>
      </trkpt>
      <trkpt lat="46.52521" lon="0.30259">
        <ele>121.8</ele>
        <time>2022-01-16T10:10:42Z</time>
      </trkpt>
      <trkpt lat="46.52516" lon="0.30259">
        <ele>120.8</ele>
        <time>2022-01-16T10:10:43Z</time>
      </trkpt>
      <trkpt lat="46.52505" lon="0.30258">
        <ele>119.2</ele>
        <time>2022-01-16T10:10:45Z</time>
      </trkpt>
      <trkpt lat="46.525" lon="0.30258">
        <ele>118.6</ele>
        <time>2022-01-16T10:10:46Z</time>
      </trkpt>
      <trkpt lat="46.52496" lon="0.30257">
        <ele>118</ele>
        <time>2022-01-16T10:10:47Z</time>
      </trkpt>
      <trkpt lat="46.52492" lon="0.30256">
        <ele>117.6</ele>
        <time>2022-01-16T10:10:48Z</time>
      </trkpt>
      <trkpt lat="46.52489" lon="0.30254">
        <ele>116.6</ele>
        <time>2022-01-16T10:10:49Z</time>
      </trkpt>
      <trkpt lat="46.52486" lon="0.30251">
        <ele>116</ele>
        <time>2022-01-16T10:10:50Z</time>
      </trkpt>
      <trkpt lat="46.52483" lon="0.30249">
        <ele>115.4</ele>
        <time>2022-01-16T10:10:51Z</time>
      </trkpt>
      <trkpt lat="46.52472" lon="0.30248">
        <ele>115.2</ele>
        <time>2022-01-16T10:10:56Z</time>
      </trkpt>
      <trkpt lat="46.52459" lon="0.30252">
        <ele>116.6</ele>
        <time>2022-01-16T10:11:01Z</time>
      </trkpt>
      <trkpt lat="46.52452" lon="0.30251">
        <ele>116.8</ele>
        <time>2022-01-16T10:11:03Z</time>
      </trkpt>
      <trkpt lat="46.52443" lon="0.30251">
        <ele>117.8</ele>
        <time>2022-01-16T10:11:06Z</time>
      </trkpt>
      <trkpt lat="46.52436" lon="0.30253">
        <ele>118.4</ele>
        <time>2022-01-16T10:11:09Z</time>
      </trkpt>
      <trkpt lat="46.52426" lon="0.30256">
        <ele>119</ele>
        <time>2022-01-16T10:11:13Z</time>
      </trkpt>
      <trkpt lat="46.5242" lon="0.30257">
        <ele>119.4</ele>
        <time>2022-01-16T10:11:15Z</time>
      </trkpt>
      <trkpt lat="46.52414" lon="0.30254">
        <ele>120</ele>
        <time>2022-01-16T10:11:18Z</time>
      </trkpt>
      <trkpt lat="46.52407" lon="0.3025">
        <ele>121</ele>
        <time>2022-01-16T10:11:21Z</time>
      </trkpt>
      <trkpt lat="46.52404" lon="0.30249">
        <ele>121.2</ele>
        <time>2022-01-16T10:11:22Z</time>
      </trkpt>
      <trkpt lat="46.52398" lon="0.30246">
        <ele>122.4</ele>
        <time>2022-01-16T10:11:25Z</time>
      </trkpt>
      <trkpt lat="46.52392" lon="0.30245">
        <ele>123.4</ele>
        <time>2022-01-16T10:11:28Z</time>
      </trkpt>
      <trkpt lat="46.52391" lon="0.30245">
        <ele>123.6</ele>
        <time>2022-01-16T10:11:29Z</time>
      </trkpt>
      <trkpt lat="46.52383" lon="0.30245">
        <ele>124.4</ele>
        <time>2022-01-16T10:11:33Z</time>
      </trkpt>
      <trkpt lat="46.52379" lon="0.30244">
        <ele>125</ele>
        <time>2022-01-16T10:11:35Z</time>
      </trkpt>
      <trkpt lat="46.52375" lon="0.30244">
        <ele>125.6</ele>
        <time>2022-01-16T10:11:38Z</time>
      </trkpt>
      <trkpt lat="46.52366" lon="0.30245">
        <ele>126.4</ele>
        <time>2022-01-16T10:11:43Z</time>
      </trkpt>
      <trkpt lat="46.52364" lon="0.30245">
        <ele>126.6</ele>
        <time>2022-01-16T10:11:44Z</time>
      </trkpt>
      <trkpt lat="46.5235" lon="0.30249">
        <ele>127.4</ele>
        <time>2022-01-16T10:11:51Z</time>
      </trkpt>
      <trkpt lat="46.52348" lon="0.3025">
        <ele>127.6</ele>
        <time>2022-01-16T10:11:52Z</time>
      </trkpt>
      <trkpt lat="46.52337" lon="0.30255">
        <ele>128.4</ele>
        <time>2022-01-16T10:11:58Z</time>
      </trkpt>
      <trkpt lat="46.5233" lon="0.30256">
        <ele>128.8</ele>
        <time>2022-01-16T10:12:01Z</time>
      </trkpt>
      <trkpt lat="46.52324" lon="0.30256">
        <ele>130</ele>
        <time>2022-01-16T10:12:04Z</time>
      </trkpt>
      <trkpt lat="46.52319" lon="0.30257">
        <ele>130.4</ele>
        <time>2022-01-16T10:12:06Z</time>
      </trkpt>
      <trkpt lat="46.52313" lon="0.30258">
        <ele>131.2</ele>
        <time>2022-01-16T10:12:09Z</time>
      </trkpt>
      <trkpt lat="46.52304" lon="0.30257">
        <ele>132.2</ele>
        <time>2022-01-16T10:12:13Z</time>
      </trkpt>
      <trkpt lat="46.52302" lon="0.30256">
        <ele>132.4</ele>
        <time>2022-01-16T10:12:14Z</time>
      </trkpt>
      <trkpt lat="46.52294" lon="0.30253">
        <ele>133.6</ele>
        <time>2022-01-16T10:12:19Z</time>
      </trkpt>
      <trkpt lat="46.52292" lon="0.30252">
        <ele>133.8</ele>
        <time>2022-01-16T10:12:20Z</time>
      </trkpt>
      <trkpt lat="46.52284" lon="0.30246">
        <ele>134.8</ele>
        <time>2022-01-16T10:12:25Z</time>
      </trkpt>
      <trkpt lat="46.52281" lon="0.30241">
        <ele>135.6</ele>
        <time>2022-01-16T10:12:28Z</time>
      </trkpt>
      <trkpt lat="46.5228" lon="0.3024">
        <ele>136</ele>
        <time>2022-01-16T10:12:29Z</time>
      </trkpt>
      <trkpt lat="46.52277" lon="0.30233">
        <ele>137</ele>
        <time>2022-01-16T10:12:33Z</time>
      </trkpt>
      <trkpt lat="46.52275" lon="0.30228">
        <ele>137.8</ele>
        <time>2022-01-16T10:12:36Z</time>
      </trkpt>
      <trkpt lat="46.52273" lon="0.30225">
        <ele>138.2</ele>
        <time>2022-01-16T10:12:38Z</time>
      </trkpt>
      <trkpt lat="46.5227" lon="0.30216">
        <ele>139.4</ele>
        <time>2022-01-16T10:12:43Z</time>
      </trkpt>
      <trkpt lat="46.52269" lon="0.30213">
        <ele>139.8</ele>
        <time>2022-01-16T10:12:45Z</time>
      </trkpt>
      <trkpt lat="46.52268" lon="0.30206">
        <ele>140.4</ele>
        <time>2022-01-16T10:12:49Z</time>
      </trkpt>
      <trkpt lat="46.52267" lon="0.30205">
        <ele>140.6</ele>
        <time>2022-01-16T10:12:50Z</time>
      </trkpt>
      <trkpt lat="46.52266" lon="0.30199">
        <ele>141.6</ele>
        <time>2022-01-16T10:12:54Z</time>
      </trkpt>
      <trkpt lat="46.52264" lon="0.30192">
        <ele>142</ele>
        <time>2022-01-16T10:12:57Z</time>
      </trkpt>
      <trkpt lat="46.52261" lon="0.30181">
        <ele>142.6</ele>
        <time>2022-01-16T10:13:02Z</time>
      </trkpt>
      <trkpt lat="46.5226" lon="0.30177">
        <ele>142.8</ele>
        <time>2022-01-16T10:13:04Z</time>
      </trkpt>
      <trkpt lat="46.52257" lon="0.30165">
        <ele>143.8</ele>
        <time>2022-01-16T10:13:09Z</time>
      </trkpt>
      <trkpt lat="46.52256" lon="0.30163">
        <ele>143.8</ele>
        <time>2022-01-16T10:13:10Z</time>
      </trkpt>
      <trkpt lat="46.52249" lon="0.30141">
        <ele>144.6</ele>
        <time>2022-01-16T10:13:19Z</time>
      </trkpt>
      <trkpt lat="46.52249" lon="0.30139">
        <ele>144.8</ele>
        <time>2022-01-16T10:13:20Z</time>
      </trkpt>
      <trkpt lat="46.52249" lon="0.30119">
        <ele>145.4</ele>
        <time>2022-01-16T10:13:26Z</time>
      </trkpt>
      <trkpt lat="46.52257" lon="0.30089">
        <ele>145.8</ele>
        <time>2022-01-16T10:13:33Z</time>
      </trkpt>
      <trkpt lat="46.52264" lon="0.3006">
        <ele>145.8</ele>
        <time>2022-01-16T10:13:39Z</time>
      </trkpt>
      <trkpt lat="46.52267" lon="0.30022">
        <ele>146</ele>
        <time>2022-01-16T10:13:46Z</time>
      </trkpt>
      <trkpt lat="46.52268" lon="0.30011">
        <ele>145.8</ele>
        <time>2022-01-16T10:13:48Z</time>
      </trkpt>
      <trkpt lat="46.52269" lon="0.29988">
        <ele>145.4</ele>
        <time>2022-01-16T10:13:52Z</time>
      </trkpt>
      <trkpt lat="46.52273" lon="0.2996">
        <ele>144.6</ele>
        <time>2022-01-16T10:13:56Z</time>
      </trkpt>
      <trkpt lat="46.52274" lon="0.29946">
        <ele>143</ele>
        <time>2022-01-16T10:13:58Z</time>
      </trkpt>
      <trkpt lat="46.52274" lon="0.29931">
        <ele>142</ele>
        <time>2022-01-16T10:14:00Z</time>
      </trkpt>
      <trkpt lat="46.52274" lon="0.29918">
        <ele>140.6</ele>
        <time>2022-01-16T10:14:02Z</time>
      </trkpt>
      <trkpt lat="46.52273" lon="0.29903">
        <ele>139</ele>
        <time>2022-01-16T10:14:04Z</time>
      </trkpt>
      <trkpt lat="46.52274" lon="0.29897">
        <ele>138.6</ele>
        <time>2022-01-16T10:14:05Z</time>
      </trkpt>
      <trkpt lat="46.52275" lon="0.29891">
        <ele>137.8</ele>
        <time>2022-01-16T10:14:06Z</time>
      </trkpt>
      <trkpt lat="46.52276" lon="0.29884">
        <ele>137.2</ele>
        <time>2022-01-16T10:14:07Z</time>
      </trkpt>
      <trkpt lat="46.52278" lon="0.29879">
        <ele>136.6</ele>
        <time>2022-01-16T10:14:08Z</time>
      </trkpt>
      <trkpt lat="46.52283" lon="0.29867">
        <ele>135.6</ele>
        <time>2022-01-16T10:14:10Z</time>
      </trkpt>
      <trkpt lat="46.52288" lon="0.29858">
        <ele>132.8</ele>
        <time>2022-01-16T10:14:12Z</time>
      </trkpt>
      <trkpt lat="46.5229" lon="0.29854">
        <ele>131.6</ele>
        <time>2022-01-16T10:14:13Z</time>
      </trkpt>
      <trkpt lat="46.52293" lon="0.29851">
        <ele>130.6</ele>
        <time>2022-01-16T10:14:14Z</time>
      </trkpt>
      <trkpt lat="46.52296" lon="0.29848">
        <ele>129.4</ele>
        <time>2022-01-16T10:14:15Z</time>
      </trkpt>
      <trkpt lat="46.52298" lon="0.29844">
        <ele>128</ele>
        <time>2022-01-16T10:14:16Z</time>
      </trkpt>
      <trkpt lat="46.52301" lon="0.2984">
        <ele>127.2</ele>
        <time>2022-01-16T10:14:17Z</time>
      </trkpt>
      <trkpt lat="46.52303" lon="0.29837">
        <ele>126.8</ele>
        <time>2022-01-16T10:14:18Z</time>
      </trkpt>
      <trkpt lat="46.52305" lon="0.29825">
        <ele>124.8</ele>
        <time>2022-01-16T10:14:20Z</time>
      </trkpt>
      <trkpt lat="46.52308" lon="0.29819">
        <ele>122.2</ele>
        <time>2022-01-16T10:14:22Z</time>
      </trkpt>
      <trkpt lat="46.5231" lon="0.29818">
        <ele>120.8</ele>
        <time>2022-01-16T10:14:23Z</time>
      </trkpt>
      <trkpt lat="46.52314" lon="0.29817">
        <ele>119.2</ele>
        <time>2022-01-16T10:14:25Z</time>
      </trkpt>
      <trkpt lat="46.52322" lon="0.29819">
        <ele>117.8</ele>
        <time>2022-01-16T10:14:28Z</time>
      </trkpt>
      <trkpt lat="46.52325" lon="0.29821">
        <ele>116.6</ele>
        <time>2022-01-16T10:14:29Z</time>
      </trkpt>
      <trkpt lat="46.52328" lon="0.29823">
        <ele>115.4</ele>
        <time>2022-01-16T10:14:30Z</time>
      </trkpt>
      <trkpt lat="46.52331" lon="0.29825">
        <ele>114.2</ele>
        <time>2022-01-16T10:14:31Z</time>
      </trkpt>
      <trkpt lat="46.52333" lon="0.29827">
        <ele>113.4</ele>
        <time>2022-01-16T10:14:32Z</time>
      </trkpt>
      <trkpt lat="46.52335" lon="0.29829">
        <ele>112.2</ele>
        <time>2022-01-16T10:14:33Z</time>
      </trkpt>
      <trkpt lat="46.52338" lon="0.29831">
        <ele>111</ele>
        <time>2022-01-16T10:14:34Z</time>
      </trkpt>
      <trkpt lat="46.52341" lon="0.29834">
        <ele>109.6</ele>
        <time>2022-01-16T10:14:35Z</time>
      </trkpt>
      <trkpt lat="46.52344" lon="0.29838">
        <ele>108.8</ele>
        <time>2022-01-16T10:14:36Z</time>
      </trkpt>
      <trkpt lat="46.52344" lon="0.29838">
        <ele>107.6</ele>
        <time>2022-01-16T10:14:37Z</time>
      </trkpt>
      <trkpt lat="46.5235" lon="0.29847">
        <ele>106.8</ele>
        <time>2022-01-16T10:14:38Z</time>
      </trkpt>
      <trkpt lat="46.52353" lon="0.29852">
        <ele>106.4</ele>
        <time>2022-01-16T10:14:39Z</time>
      </trkpt>
      <trkpt lat="46.5236" lon="0.29865">
        <ele>105.2</ele>
        <time>2022-01-16T10:14:42Z</time>
      </trkpt>
      <trkpt lat="46.52362" lon="0.29868">
        <ele>104.8</ele>
        <time>2022-01-16T10:14:43Z</time>
      </trkpt>
      <trkpt lat="46.52374" lon="0.29879">
        <ele>104.6</ele>
        <time>2022-01-16T10:14:46Z</time>
      </trkpt>
      <trkpt lat="46.52384" lon="0.29892">
        <ele>104.8</ele>
        <time>2022-01-16T10:14:49Z</time>
      </trkpt>
      <trkpt lat="46.52386" lon="0.29898">
        <ele>104.8</ele>
        <time>2022-01-16T10:14:50Z</time>
      </trkpt>
      <trkpt lat="46.52394" lon="0.29916">
        <ele>104.6</ele>
        <time>2022-01-16T10:14:53Z</time>
      </trkpt>
      <trkpt lat="46.52398" lon="0.29921">
        <ele>104.4</ele>
        <time>2022-01-16T10:14:54Z</time>
      </trkpt>
      <trkpt lat="46.52413" lon="0.29943">
        <ele>104.2</ele>
        <time>2022-01-16T10:14:58Z</time>
      </trkpt>
      <trkpt lat="46.52419" lon="0.29953">
        <ele>104.2</ele>
        <time>2022-01-16T10:15:00Z</time>
      </trkpt>
      <trkpt lat="46.52431" lon="0.29981">
        <ele>104</ele>
        <time>2022-01-16T10:15:05Z</time>
      </trkpt>
      <trkpt lat="46.52434" lon="0.29989">
        <ele>103.8</ele>
        <time>2022-01-16T10:15:06Z</time>
      </trkpt>
      <trkpt lat="46.52441" lon="0.30022">
        <ele>103.4</ele>
        <time>2022-01-16T10:15:10Z</time>
      </trkpt>
      <trkpt lat="46.52447" lon="0.30031">
        <ele>103.4</ele>
        <time>2022-01-16T10:15:12Z</time>
      </trkpt>
      <trkpt lat="46.52456" lon="0.30037">
        <ele>103.4</ele>
        <time>2022-01-16T10:15:14Z</time>
      </trkpt>
      <trkpt lat="46.52462" lon="0.30041">
        <ele>103.4</ele>
        <time>2022-01-16T10:15:16Z</time>
      </trkpt>
      <trkpt lat="46.5247" lon="0.3005">
        <ele>103.4</ele>
        <time>2022-01-16T10:15:18Z</time>
      </trkpt>
      <trkpt lat="46.52482" lon="0.30061">
        <ele>103.8</ele>
        <time>2022-01-16T10:15:21Z</time>
      </trkpt>
      <trkpt lat="46.52494" lon="0.30075">
        <ele>104.4</ele>
        <time>2022-01-16T10:15:24Z</time>
      </trkpt>
      <trkpt lat="46.52514" lon="0.30092">
        <ele>104.8</ele>
        <time>2022-01-16T10:15:30Z</time>
      </trkpt>
      <trkpt lat="46.52519" lon="0.30098">
        <ele>105.2</ele>
        <time>2022-01-16T10:15:32Z</time>
      </trkpt>
      <trkpt lat="46.52533" lon="0.30116">
        <ele>106</ele>
        <time>2022-01-16T10:15:37Z</time>
      </trkpt>
      <trkpt lat="46.52535" lon="0.30118">
        <ele>106.2</ele>
        <time>2022-01-16T10:15:38Z</time>
      </trkpt>
      <trkpt lat="46.5255" lon="0.3014">
        <ele>107</ele>
        <time>2022-01-16T10:15:44Z</time>
      </trkpt>
      <trkpt lat="46.52556" lon="0.30143">
        <ele>107.2</ele>
        <time>2022-01-16T10:15:45Z</time>
      </trkpt>
      <trkpt lat="46.52568" lon="0.30149">
        <ele>107.4</ele>
        <time>2022-01-16T10:15:49Z</time>
      </trkpt>
      <trkpt lat="46.52585" lon="0.30158">
        <ele>106.6</ele>
        <time>2022-01-16T10:15:54Z</time>
      </trkpt>
      <trkpt lat="46.52589" lon="0.30159">
        <ele>106.6</ele>
        <time>2022-01-16T10:15:55Z</time>
      </trkpt>
      <trkpt lat="46.526" lon="0.30159">
        <ele>106.2</ele>
        <time>2022-01-16T10:15:57Z</time>
      </trkpt>
      <trkpt lat="46.52605" lon="0.30157">
        <ele>106</ele>
        <time>2022-01-16T10:15:58Z</time>
      </trkpt>
      <trkpt lat="46.52621" lon="0.30149">
        <ele>105.2</ele>
        <time>2022-01-16T10:16:01Z</time>
      </trkpt>
      <trkpt lat="46.5263" lon="0.30147">
        <ele>104.6</ele>
        <time>2022-01-16T10:16:03Z</time>
      </trkpt>
      <trkpt lat="46.52636" lon="0.30146">
        <ele>104.2</ele>
        <time>2022-01-16T10:16:04Z</time>
      </trkpt>
      <trkpt lat="46.52643" lon="0.30146">
        <ele>104</ele>
        <time>2022-01-16T10:16:05Z</time>
      </trkpt>
      <trkpt lat="46.52657" lon="0.30147">
        <ele>103.8</ele>
        <time>2022-01-16T10:16:07Z</time>
      </trkpt>
      <trkpt lat="46.52664" lon="0.30149">
        <ele>103.2</ele>
        <time>2022-01-16T10:16:08Z</time>
      </trkpt>
      <trkpt lat="46.5267" lon="0.30153">
        <ele>103</ele>
        <time>2022-01-16T10:16:09Z</time>
      </trkpt>
      <trkpt lat="46.52693" lon="0.30169">
        <ele>102.2</ele>
        <time>2022-01-16T10:16:13Z</time>
      </trkpt>
      <trkpt lat="46.52702" lon="0.30176">
        <ele>102</ele>
        <time>2022-01-16T10:16:15Z</time>
      </trkpt>
      <trkpt lat="46.52706" lon="0.30178">
        <ele>101.8</ele>
        <time>2022-01-16T10:16:16Z</time>
      </trkpt>
      <trkpt lat="46.52711" lon="0.30179">
        <ele>101.6</ele>
        <time>2022-01-16T10:16:17Z</time>
      </trkpt>
      <trkpt lat="46.52726" lon="0.3018">
        <ele>101.2</ele>
        <time>2022-01-16T10:16:20Z</time>
      </trkpt>
      <trkpt lat="46.52734" lon="0.30178">
        <ele>101</ele>
        <time>2022-01-16T10:16:22Z</time>
      </trkpt>
      <trkpt lat="46.52739" lon="0.30176">
        <ele>100.8</ele>
        <time>2022-01-16T10:16:23Z</time>
      </trkpt>
      <trkpt lat="46.52758" lon="0.30164">
        <ele>100.6</ele>
        <time>2022-01-16T10:16:27Z</time>
      </trkpt>
      <trkpt lat="46.52762" lon="0.3016">
        <ele>100.6</ele>
        <time>2022-01-16T10:16:28Z</time>
      </trkpt>
      <trkpt lat="46.52785" lon="0.30135">
        <ele>100.6</ele>
        <time>2022-01-16T10:16:34Z</time>
      </trkpt>
      <trkpt lat="46.52804" lon="0.30119">
        <ele>102</ele>
        <time>2022-01-16T10:16:39Z</time>
      </trkpt>
      <trkpt lat="46.52814" lon="0.30115">
        <ele>102.6</ele>
        <time>2022-01-16T10:16:42Z</time>
      </trkpt>
      <trkpt lat="46.52828" lon="0.30112">
        <ele>103</ele>
        <time>2022-01-16T10:16:46Z</time>
      </trkpt>
      <trkpt lat="46.52836" lon="0.30112">
        <ele>103</ele>
        <time>2022-01-16T10:16:48Z</time>
      </trkpt>
      <trkpt lat="46.52862" lon="0.30115">
        <ele>103</ele>
        <time>2022-01-16T10:16:54Z</time>
      </trkpt>
      <trkpt lat="46.52874" lon="0.30116">
        <ele>102.8</ele>
        <time>2022-01-16T10:16:57Z</time>
      </trkpt>
      <trkpt lat="46.52881" lon="0.30122">
        <ele>102.8</ele>
        <time>2022-01-16T10:16:59Z</time>
      </trkpt>
      <trkpt lat="46.52885" lon="0.30133">
        <ele>103</ele>
        <time>2022-01-16T10:17:01Z</time>
      </trkpt>
      <trkpt lat="46.52887" lon="0.30145">
        <ele>102.8</ele>
        <time>2022-01-16T10:17:03Z</time>
      </trkpt>
      <trkpt lat="46.52894" lon="0.30192">
        <ele>103</ele>
        <time>2022-01-16T10:17:10Z</time>
      </trkpt>
      <trkpt lat="46.529" lon="0.30234">
        <ele>103.4</ele>
        <time>2022-01-16T10:17:17Z</time>
      </trkpt>
      <trkpt lat="46.52902" lon="0.30248">
        <ele>104</ele>
        <time>2022-01-16T10:17:20Z</time>
      </trkpt>
      <trkpt lat="46.52903" lon="0.30264">
        <ele>104.8</ele>
        <time>2022-01-16T10:17:24Z</time>
      </trkpt>
      <trkpt lat="46.52903" lon="0.30264">
        <ele>105.4</ele>
        <time>2022-01-16T10:17:26Z</time>
      </trkpt>
      <trkpt lat="46.52904" lon="0.30298">
        <ele>106.6</ele>
        <time>2022-01-16T10:17:32Z</time>
      </trkpt>
      <trkpt lat="46.52903" lon="0.30328">
        <ele>107.4</ele>
        <time>2022-01-16T10:17:39Z</time>
      </trkpt>
      <trkpt lat="46.52903" lon="0.30332">
        <ele>107.6</ele>
        <time>2022-01-16T10:17:40Z</time>
      </trkpt>
      <trkpt lat="46.52904" lon="0.30347">
        <ele>108.6</ele>
        <time>2022-01-16T10:17:45Z</time>
      </trkpt>
      <trkpt lat="46.52904" lon="0.3035">
        <ele>108.8</ele>
        <time>2022-01-16T10:17:46Z</time>
      </trkpt>
      <trkpt lat="46.52905" lon="0.3036">
        <ele>109.8</ele>
        <time>2022-01-16T10:17:50Z</time>
      </trkpt>
      <trkpt lat="46.52906" lon="0.30362">
        <ele>110.2</ele>
        <time>2022-01-16T10:17:51Z</time>
      </trkpt>
      <trkpt lat="46.52907" lon="0.30372">
        <ele>111.4</ele>
        <time>2022-01-16T10:17:56Z</time>
      </trkpt>
      <trkpt lat="46.52907" lon="0.30374">
        <ele>111.6</ele>
        <time>2022-01-16T10:17:57Z</time>
      </trkpt>
      <trkpt lat="46.52907" lon="0.30384">
        <ele>112.4</ele>
        <time>2022-01-16T10:18:01Z</time>
      </trkpt>
      <trkpt lat="46.52907" lon="0.30386">
        <ele>112.6</ele>
        <time>2022-01-16T10:18:02Z</time>
      </trkpt>
      <trkpt lat="46.52908" lon="0.30389">
        <ele>112.8</ele>
        <time>2022-01-16T10:18:03Z</time>
      </trkpt>
      <trkpt lat="46.5291" lon="0.30396">
        <ele>113.4</ele>
        <time>2022-01-16T10:18:07Z</time>
      </trkpt>
      <trkpt lat="46.52909" lon="0.30407">
        <ele>114</ele>
        <time>2022-01-16T10:18:10Z</time>
      </trkpt>
      <trkpt lat="46.52908" lon="0.30416">
        <ele>114.8</ele>
        <time>2022-01-16T10:18:13Z</time>
      </trkpt>
      <trkpt lat="46.52908" lon="0.30423">
        <ele>115.4</ele>
        <time>2022-01-16T10:18:17Z</time>
      </trkpt>
      <trkpt lat="46.52908" lon="0.30429">
        <ele>115.8</ele>
        <time>2022-01-16T10:18:19Z</time>
      </trkpt>
      <trkpt lat="46.52908" lon="0.30444">
        <ele>117</ele>
        <time>2022-01-16T10:18:25Z</time>
      </trkpt>
      <trkpt lat="46.52907" lon="0.3046">
        <ele>118.2</ele>
        <time>2022-01-16T10:18:32Z</time>
      </trkpt>
      <trkpt lat="46.52909" lon="0.30473">
        <ele>119.2</ele>
        <time>2022-01-16T10:18:37Z</time>
      </trkpt>
      <trkpt lat="46.5291" lon="0.30478">
        <ele>119.8</ele>
        <time>2022-01-16T10:18:39Z</time>
      </trkpt>
      <trkpt lat="46.52911" lon="0.3049">
        <ele>120.4</ele>
        <time>2022-01-16T10:18:44Z</time>
      </trkpt>
      <trkpt lat="46.52912" lon="0.30492">
        <ele>120.6</ele>
        <time>2022-01-16T10:18:45Z</time>
      </trkpt>
      <trkpt lat="46.52914" lon="0.30501">
        <ele>121.4</ele>
        <time>2022-01-16T10:18:49Z</time>
      </trkpt>
      <trkpt lat="46.52916" lon="0.30504">
        <ele>121.8</ele>
        <time>2022-01-16T10:18:51Z</time>
      </trkpt>
      <trkpt lat="46.52917" lon="0.30512">
        <ele>122.6</ele>
        <time>2022-01-16T10:18:55Z</time>
      </trkpt>
      <trkpt lat="46.5292" lon="0.3052">
        <ele>123.4</ele>
        <time>2022-01-16T10:18:59Z</time>
      </trkpt>
      <trkpt lat="46.52922" lon="0.30525">
        <ele>123.8</ele>
        <time>2022-01-16T10:19:02Z</time>
      </trkpt>
      <trkpt lat="46.52923" lon="0.30529">
        <ele>124</ele>
        <time>2022-01-16T10:19:04Z</time>
      </trkpt>
      <trkpt lat="46.52924" lon="0.30534">
        <ele>124.4</ele>
        <time>2022-01-16T10:19:06Z</time>
      </trkpt>
      <trkpt lat="46.52925" lon="0.30537">
        <ele>124.8</ele>
        <time>2022-01-16T10:19:08Z</time>
      </trkpt>
      <trkpt lat="46.52926" lon="0.30541">
        <ele>125.2</ele>
        <time>2022-01-16T10:19:10Z</time>
      </trkpt>
      <trkpt lat="46.52928" lon="0.30549">
        <ele>125.8</ele>
        <time>2022-01-16T10:19:13Z</time>
      </trkpt>
      <trkpt lat="46.52928" lon="0.30552">
        <ele>126</ele>
        <time>2022-01-16T10:19:14Z</time>
      </trkpt>
      <trkpt lat="46.5293" lon="0.30567">
        <ele>127.2</ele>
        <time>2022-01-16T10:19:20Z</time>
      </trkpt>
      <trkpt lat="46.5293" lon="0.30569">
        <ele>127.4</ele>
        <time>2022-01-16T10:19:21Z</time>
      </trkpt>
      <trkpt lat="46.52934" lon="0.30584">
        <ele>128.4</ele>
        <time>2022-01-16T10:19:28Z</time>
      </trkpt>
      <trkpt lat="46.52934" lon="0.30587">
        <ele>128.6</ele>
        <time>2022-01-16T10:19:29Z</time>
      </trkpt>
      <trkpt lat="46.52941" lon="0.30588">
        <ele>129.4</ele>
        <time>2022-01-16T10:19:34Z</time>
      </trkpt>
      <trkpt lat="46.52942" lon="0.30586">
        <ele>129.6</ele>
        <time>2022-01-16T10:19:35Z</time>
      </trkpt>
      <trkpt lat="46.52945" lon="0.30577">
        <ele>130.4</ele>
        <time>2022-01-16T10:19:41Z</time>
      </trkpt>
      <trkpt lat="46.52945" lon="0.30575">
        <ele>130.6</ele>
        <time>2022-01-16T10:19:42Z</time>
      </trkpt>
      <trkpt lat="46.52946" lon="0.30562">
        <ele>131.4</ele>
        <time>2022-01-16T10:19:49Z</time>
      </trkpt>
      <trkpt lat="46.52946" lon="0.30558">
        <ele>132</ele>
        <time>2022-01-16T10:19:51Z</time>
      </trkpt>
      <trkpt lat="46.52947" lon="0.30547">
        <ele>132.6</ele>
        <time>2022-01-16T10:19:56Z</time>
      </trkpt>
      <trkpt lat="46.52948" lon="0.30545">
        <ele>132.8</ele>
        <time>2022-01-16T10:19:57Z</time>
      </trkpt>
      <trkpt lat="46.52949" lon="0.30529">
        <ele>133.4</ele>
        <time>2022-01-16T10:20:03Z</time>
      </trkpt>
      <trkpt lat="46.5295" lon="0.30526">
        <ele>133.6</ele>
        <time>2022-01-16T10:20:04Z</time>
      </trkpt>
      <trkpt lat="46.52954" lon="0.30508">
        <ele>134.6</ele>
        <time>2022-01-16T10:20:11Z</time>
      </trkpt>
      <trkpt lat="46.52955" lon="0.30503">
        <ele>134.6</ele>
        <time>2022-01-16T10:20:13Z</time>
      </trkpt>
      <trkpt lat="46.52959" lon="0.30489">
        <ele>135.6</ele>
        <time>2022-01-16T10:20:18Z</time>
      </trkpt>
      <trkpt lat="46.52959" lon="0.30487">
        <ele>135.8</ele>
        <time>2022-01-16T10:20:19Z</time>
      </trkpt>
      <trkpt lat="46.52963" lon="0.30479">
        <ele>136.8</ele>
        <time>2022-01-16T10:20:23Z</time>
      </trkpt>
      <trkpt lat="46.52967" lon="0.30474">
        <ele>137.4</ele>
        <time>2022-01-16T10:20:26Z</time>
      </trkpt>
      <trkpt lat="46.52968" lon="0.30471">
        <ele>137.8</ele>
        <time>2022-01-16T10:20:28Z</time>
      </trkpt>
      <trkpt lat="46.52973" lon="0.30462">
        <ele>139</ele>
        <time>2022-01-16T10:20:33Z</time>
      </trkpt>
      <trkpt lat="46.52981" lon="0.30449">
        <ele>139.8</ele>
        <time>2022-01-16T10:20:40Z</time>
      </trkpt>
      <trkpt lat="46.52983" lon="0.30444">
        <ele>140.2</ele>
        <time>2022-01-16T10:20:42Z</time>
      </trkpt>
      <trkpt lat="46.52989" lon="0.30434">
        <ele>141.2</ele>
        <time>2022-01-16T10:20:47Z</time>
      </trkpt>
      <trkpt lat="46.52999" lon="0.30416">
        <ele>142.2</ele>
        <time>2022-01-16T10:20:55Z</time>
      </trkpt>
      <trkpt lat="46.53" lon="0.30414">
        <ele>142.4</ele>
        <time>2022-01-16T10:20:56Z</time>
      </trkpt>
      <trkpt lat="46.53009" lon="0.30402">
        <ele>143.2</ele>
        <time>2022-01-16T10:21:03Z</time>
      </trkpt>
      <trkpt lat="46.53012" lon="0.30398">
        <ele>143.6</ele>
        <time>2022-01-16T10:21:05Z</time>
      </trkpt>
      <trkpt lat="46.53024" lon="0.3039">
        <ele>144.8</ele>
        <time>2022-01-16T10:21:11Z</time>
      </trkpt>
      <trkpt lat="46.53037" lon="0.30386">
        <ele>145.6</ele>
        <time>2022-01-16T10:21:17Z</time>
      </trkpt>
      <trkpt lat="46.53039" lon="0.30386">
        <ele>145.8</ele>
        <time>2022-01-16T10:21:18Z</time>
      </trkpt>
      <trkpt lat="46.53053" lon="0.30383">
        <ele>146.2</ele>
        <time>2022-01-16T10:21:23Z</time>
      </trkpt>
      <trkpt lat="46.53065" lon="0.3038">
        <ele>147</ele>
        <time>2022-01-16T10:21:28Z</time>
      </trkpt>
      <trkpt lat="46.53071" lon="0.30379">
        <ele>147.2</ele>
        <time>2022-01-16T10:21:31Z</time>
      </trkpt>
      <trkpt lat="46.53089" lon="0.30376">
        <ele>148</ele>
        <time>2022-01-16T10:21:38Z</time>
      </trkpt>
      <trkpt lat="46.53107" lon="0.30372">
        <ele>148.4</ele>
        <time>2022-01-16T10:21:44Z</time>
      </trkpt>
      <trkpt lat="46.53126" lon="0.30367">
        <ele>149</ele>
        <time>2022-01-16T10:21:50Z</time>
      </trkpt>
      <trkpt lat="46.53131" lon="0.30365">
        <ele>149</ele>
        <time>2022-01-16T10:21:51Z</time>
      </trkpt>
      <trkpt lat="46.53144" lon="0.30355">
        <ele>149.2</ele>
        <time>2022-01-16T10:21:55Z</time>
      </trkpt>
      <trkpt lat="46.53163" lon="0.30329">
        <ele>149.2</ele>
        <time>2022-01-16T10:22:01Z</time>
      </trkpt>
      <trkpt lat="46.53187" lon="0.30287">
        <ele>149.8</ele>
        <time>2022-01-16T10:22:09Z</time>
      </trkpt>
      <trkpt lat="46.53203" lon="0.30251">
        <ele>149.6</ele>
        <time>2022-01-16T10:22:16Z</time>
      </trkpt>
      <trkpt lat="46.53215" lon="0.30217">
        <ele>150.2</ele>
        <time>2022-01-16T10:22:22Z</time>
      </trkpt>
      <trkpt lat="46.53217" lon="0.30211">
        <ele>150.2</ele>
        <time>2022-01-16T10:22:23Z</time>
      </trkpt>
      <trkpt lat="46.53224" lon="0.30189">
        <ele>150.4</ele>
        <time>2022-01-16T10:22:27Z</time>
      </trkpt>
      <trkpt lat="46.5323" lon="0.30179">
        <ele>150.4</ele>
        <time>2022-01-16T10:22:29Z</time>
      </trkpt>
      <trkpt lat="46.53249" lon="0.30151">
        <ele>150.4</ele>
        <time>2022-01-16T10:22:35Z</time>
      </trkpt>
      <trkpt lat="46.53252" lon="0.30147">
        <ele>150.4</ele>
        <time>2022-01-16T10:22:36Z</time>
      </trkpt>
      <trkpt lat="46.5326" lon="0.30135">
        <ele>150.6</ele>
        <time>2022-01-16T10:22:39Z</time>
      </trkpt>
      <trkpt lat="46.53267" lon="0.30128">
        <ele>150.8</ele>
        <time>2022-01-16T10:22:41Z</time>
      </trkpt>
      <trkpt lat="46.53289" lon="0.30098">
        <ele>151.2</ele>
        <time>2022-01-16T10:22:47Z</time>
      </trkpt>
      <trkpt lat="46.53292" lon="0.30094">
        <ele>151.4</ele>
        <time>2022-01-16T10:22:48Z</time>
      </trkpt>
      <trkpt lat="46.53314" lon="0.30068">
        <ele>152</ele>
        <time>2022-01-16T10:22:55Z</time>
      </trkpt>
      <trkpt lat="46.53333" lon="0.30049">
        <ele>152.2</ele>
        <time>2022-01-16T10:23:01Z</time>
      </trkpt>
      <trkpt lat="46.53335" lon="0.30046">
        <ele>152.2</ele>
        <time>2022-01-16T10:23:02Z</time>
      </trkpt>
      <trkpt lat="46.53339" lon="0.30038">
        <ele>152.4</ele>
        <time>2022-01-16T10:23:04Z</time>
      </trkpt>
      <trkpt lat="46.53343" lon="0.30029">
        <ele>152.8</ele>
        <time>2022-01-16T10:23:06Z</time>
      </trkpt>
      <trkpt lat="46.53348" lon="0.30019">
        <ele>153</ele>
        <time>2022-01-16T10:23:08Z</time>
      </trkpt>
      <trkpt lat="46.53352" lon="0.30014">
        <ele>153</ele>
        <time>2022-01-16T10:23:09Z</time>
      </trkpt>
      <trkpt lat="46.53364" lon="0.29993">
        <ele>153</ele>
        <time>2022-01-16T10:23:13Z</time>
      </trkpt>
      <trkpt lat="46.53372" lon="0.29978">
        <ele>153.2</ele>
        <time>2022-01-16T10:23:16Z</time>
      </trkpt>
      <trkpt lat="46.5338" lon="0.29964">
        <ele>153.4</ele>
        <time>2022-01-16T10:23:19Z</time>
      </trkpt>
      <trkpt lat="46.53383" lon="0.29959">
        <ele>153.4</ele>
        <time>2022-01-16T10:23:20Z</time>
      </trkpt>
      <trkpt lat="46.53405" lon="0.29924">
        <ele>154</ele>
        <time>2022-01-16T10:23:28Z</time>
      </trkpt>
      <trkpt lat="46.53416" lon="0.29902">
        <ele>154.2</ele>
        <time>2022-01-16T10:23:33Z</time>
      </trkpt>
      <trkpt lat="46.53422" lon="0.29893">
        <ele>154.4</ele>
        <time>2022-01-16T10:23:35Z</time>
      </trkpt>
      <trkpt lat="46.53425" lon="0.29889">
        <ele>154.4</ele>
        <time>2022-01-16T10:23:36Z</time>
      </trkpt>
      <trkpt lat="46.53445" lon="0.29861">
        <ele>154.8</ele>
        <time>2022-01-16T10:23:42Z</time>
      </trkpt>
      <trkpt lat="46.53469" lon="0.29827">
        <ele>155</ele>
        <time>2022-01-16T10:23:49Z</time>
      </trkpt>
      <trkpt lat="46.53493" lon="0.29793">
        <ele>155</ele>
        <time>2022-01-16T10:23:56Z</time>
      </trkpt>
      <trkpt lat="46.53517" lon="0.29757">
        <ele>155.2</ele>
        <time>2022-01-16T10:24:04Z</time>
      </trkpt>
      <trkpt lat="46.53518" lon="0.29749">
        <ele>155</ele>
        <time>2022-01-16T10:24:06Z</time>
      </trkpt>
      <trkpt lat="46.53517" lon="0.29745">
        <ele>155.2</ele>
        <time>2022-01-16T10:24:07Z</time>
      </trkpt>
      <trkpt lat="46.53511" lon="0.29737">
        <ele>155.2</ele>
        <time>2022-01-16T10:24:09Z</time>
      </trkpt>
      <trkpt lat="46.53505" lon="0.29729">
        <ele>155.4</ele>
        <time>2022-01-16T10:24:11Z</time>
      </trkpt>
      <trkpt lat="46.53479" lon="0.29701">
        <ele>155.2</ele>
        <time>2022-01-16T10:24:18Z</time>
      </trkpt>
      <trkpt lat="46.5345" lon="0.2968">
        <ele>155</ele>
        <time>2022-01-16T10:24:24Z</time>
      </trkpt>
      <trkpt lat="46.53429" lon="0.29666">
        <ele>154.6</ele>
        <time>2022-01-16T10:24:28Z</time>
      </trkpt>
      <trkpt lat="46.53425" lon="0.29665">
        <ele>154.2</ele>
        <time>2022-01-16T10:24:29Z</time>
      </trkpt>
      <trkpt lat="46.53421" lon="0.29662">
        <ele>154.2</ele>
        <time>2022-01-16T10:24:30Z</time>
      </trkpt>
      <trkpt lat="46.53417" lon="0.29655">
        <ele>154</ele>
        <time>2022-01-16T10:24:32Z</time>
      </trkpt>
      <trkpt lat="46.53415" lon="0.29649">
        <ele>153.8</ele>
        <time>2022-01-16T10:24:34Z</time>
      </trkpt>
      <trkpt lat="46.53414" lon="0.29644">
        <ele>153.6</ele>
        <time>2022-01-16T10:24:36Z</time>
      </trkpt>
      <trkpt lat="46.53414" lon="0.29641">
        <ele>153.6</ele>
        <time>2022-01-16T10:24:37Z</time>
      </trkpt>
      <trkpt lat="46.53415" lon="0.29635">
        <ele>153.2</ele>
        <time>2022-01-16T10:24:39Z</time>
      </trkpt>
      <trkpt lat="46.53417" lon="0.29627">
        <ele>153.4</ele>
        <time>2022-01-16T10:24:41Z</time>
      </trkpt>
      <trkpt lat="46.5342" lon="0.29607">
        <ele>153.6</ele>
        <time>2022-01-16T10:24:45Z</time>
      </trkpt>
      <trkpt lat="46.53422" lon="0.29583">
        <ele>153.6</ele>
        <time>2022-01-16T10:24:49Z</time>
      </trkpt>
      <trkpt lat="46.53425" lon="0.29552">
        <ele>153</ele>
        <time>2022-01-16T10:24:54Z</time>
      </trkpt>
      <trkpt lat="46.53425" lon="0.29546">
        <ele>153</ele>
        <time>2022-01-16T10:24:55Z</time>
      </trkpt>
      <trkpt lat="46.53426" lon="0.29538">
        <ele>152.8</ele>
        <time>2022-01-16T10:24:57Z</time>
      </trkpt>
      <trkpt lat="46.53427" lon="0.29535">
        <ele>152.6</ele>
        <time>2022-01-16T10:24:58Z</time>
      </trkpt>
      <trkpt lat="46.53429" lon="0.29532">
        <ele>152.8</ele>
        <time>2022-01-16T10:25:02Z</time>
      </trkpt>
      <trkpt lat="46.53431" lon="0.29531">
        <ele>152.8</ele>
        <time>2022-01-16T10:25:04Z</time>
      </trkpt>
      <trkpt lat="46.5344" lon="0.29523">
        <ele>153</ele>
        <time>2022-01-16T10:25:09Z</time>
      </trkpt>
      <trkpt lat="46.53446" lon="0.29514">
        <ele>153.2</ele>
        <time>2022-01-16T10:25:12Z</time>
      </trkpt>
      <trkpt lat="46.53449" lon="0.29506">
        <ele>153.6</ele>
        <time>2022-01-16T10:25:14Z</time>
      </trkpt>
      <trkpt lat="46.53452" lon="0.295">
        <ele>153.8</ele>
        <time>2022-01-16T10:25:16Z</time>
      </trkpt>
      <trkpt lat="46.53457" lon="0.29499">
        <ele>153.6</ele>
        <time>2022-01-16T10:25:18Z</time>
      </trkpt>
      <trkpt lat="46.53465" lon="0.29495">
        <ele>153.6</ele>
        <time>2022-01-16T10:25:22Z</time>
      </trkpt>
      <trkpt lat="46.53467" lon="0.29493">
        <ele>153.8</ele>
        <time>2022-01-16T10:25:23Z</time>
      </trkpt>
      <trkpt lat="46.53476" lon="0.29476">
        <ele>154.2</ele>
        <time>2022-01-16T10:25:29Z</time>
      </trkpt>
      <trkpt lat="46.53487" lon="0.29453">
        <ele>154.2</ele>
        <time>2022-01-16T10:25:36Z</time>
      </trkpt>
      <trkpt lat="46.53489" lon="0.29452">
        <ele>154.2</ele>
        <time>2022-01-16T10:25:37Z</time>
      </trkpt>
      <trkpt lat="46.535" lon="0.29443">
        <ele>154.4</ele>
        <time>2022-01-16T10:25:41Z</time>
      </trkpt>
      <trkpt lat="46.5352" lon="0.29428">
        <ele>154.8</ele>
        <time>2022-01-16T10:25:48Z</time>
      </trkpt>
      <trkpt lat="46.53539" lon="0.29415">
        <ele>155</ele>
        <time>2022-01-16T10:25:54Z</time>
      </trkpt>
      <trkpt lat="46.53542" lon="0.29412">
        <ele>155</ele>
        <time>2022-01-16T10:25:55Z</time>
      </trkpt>
      <trkpt lat="46.53567" lon="0.29398">
        <ele>155.2</ele>
        <time>2022-01-16T10:26:01Z</time>
      </trkpt>
      <trkpt lat="46.53571" lon="0.29396">
        <ele>155.4</ele>
        <time>2022-01-16T10:26:02Z</time>
      </trkpt>
      <trkpt lat="46.53577" lon="0.29387">
        <ele>155.4</ele>
        <time>2022-01-16T10:26:04Z</time>
      </trkpt>
      <trkpt lat="46.53579" lon="0.29383">
        <ele>155.4</ele>
        <time>2022-01-16T10:26:05Z</time>
      </trkpt>
      <trkpt lat="46.5359" lon="0.29371">
        <ele>155.4</ele>
        <time>2022-01-16T10:26:08Z</time>
      </trkpt>
      <trkpt lat="46.53597" lon="0.29363">
        <ele>155.6</ele>
        <time>2022-01-16T10:26:10Z</time>
      </trkpt>
      <trkpt lat="46.53602" lon="0.29359">
        <ele>155.8</ele>
        <time>2022-01-16T10:26:11Z</time>
      </trkpt>
      <trkpt lat="46.5361" lon="0.29351">
        <ele>155.6</ele>
        <time>2022-01-16T10:26:13Z</time>
      </trkpt>
      <trkpt lat="46.5362" lon="0.2934">
        <ele>155.6</ele>
        <time>2022-01-16T10:26:16Z</time>
      </trkpt>
      <trkpt lat="46.53646" lon="0.29323">
        <ele>155.6</ele>
        <time>2022-01-16T10:26:23Z</time>
      </trkpt>
      <trkpt lat="46.53651" lon="0.29323">
        <ele>156</ele>
        <time>2022-01-16T10:26:25Z</time>
      </trkpt>
      <trkpt lat="46.53655" lon="0.29325">
        <ele>156</ele>
        <time>2022-01-16T10:26:27Z</time>
      </trkpt>
      <trkpt lat="46.53667" lon="0.29324">
        <ele>156.2</ele>
        <time>2022-01-16T10:26:32Z</time>
      </trkpt>
      <trkpt lat="46.53668" lon="0.29325">
        <ele>156.4</ele>
        <time>2022-01-16T10:26:33Z</time>
      </trkpt>
      <trkpt lat="46.53673" lon="0.2933">
        <ele>157</ele>
        <time>2022-01-16T10:26:35Z</time>
      </trkpt>
      <trkpt lat="46.53675" lon="0.29333">
        <ele>157</ele>
        <time>2022-01-16T10:26:36Z</time>
      </trkpt>
      <trkpt lat="46.53676" lon="0.29336">
        <ele>157.2</ele>
        <time>2022-01-16T10:26:37Z</time>
      </trkpt>
      <trkpt lat="46.53672" lon="0.29344">
        <ele>157</ele>
        <time>2022-01-16T10:26:40Z</time>
      </trkpt>
      <trkpt lat="46.53655" lon="0.29373">
        <ele>157</ele>
        <time>2022-01-16T10:26:48Z</time>
      </trkpt>
      <trkpt lat="46.5363" lon="0.29407">
        <ele>156.6</ele>
        <time>2022-01-16T10:26:56Z</time>
      </trkpt>
      <trkpt lat="46.53606" lon="0.29442">
        <ele>156.2</ele>
        <time>2022-01-16T10:27:03Z</time>
      </trkpt>
      <trkpt lat="46.53601" lon="0.29458">
        <ele>156.2</ele>
        <time>2022-01-16T10:27:06Z</time>
      </trkpt>
      <trkpt lat="46.53598" lon="0.29471">
        <ele>156.2</ele>
        <time>2022-01-16T10:27:08Z</time>
      </trkpt>
      <trkpt lat="46.53593" lon="0.29516">
        <ele>155.8</ele>
        <time>2022-01-16T10:27:14Z</time>
      </trkpt>
      <trkpt lat="46.53596" lon="0.29555">
        <ele>155.6</ele>
        <time>2022-01-16T10:27:19Z</time>
      </trkpt>
      <trkpt lat="46.53598" lon="0.29562">
        <ele>155.6</ele>
        <time>2022-01-16T10:27:20Z</time>
      </trkpt>
      <trkpt lat="46.53614" lon="0.29601">
        <ele>155.4</ele>
        <time>2022-01-16T10:27:26Z</time>
      </trkpt>
      <trkpt lat="46.53618" lon="0.29608">
        <ele>155.4</ele>
        <time>2022-01-16T10:27:27Z</time>
      </trkpt>
      <trkpt lat="46.53649" lon="0.29658">
        <ele>155.4</ele>
        <time>2022-01-16T10:27:36Z</time>
      </trkpt>
      <trkpt lat="46.53675" lon="0.297">
        <ele>155</ele>
        <time>2022-01-16T10:27:43Z</time>
      </trkpt>
      <trkpt lat="46.53683" lon="0.29714">
        <ele>154.6</ele>
        <time>2022-01-16T10:27:45Z</time>
      </trkpt>
      <trkpt lat="46.53692" lon="0.29727">
        <ele>154.4</ele>
        <time>2022-01-16T10:27:47Z</time>
      </trkpt>
      <trkpt lat="46.53702" lon="0.29738">
        <ele>154.2</ele>
        <time>2022-01-16T10:27:49Z</time>
      </trkpt>
      <trkpt lat="46.53708" lon="0.29743">
        <ele>154</ele>
        <time>2022-01-16T10:27:50Z</time>
      </trkpt>
      <trkpt lat="46.5372" lon="0.2975">
        <ele>153.4</ele>
        <time>2022-01-16T10:27:52Z</time>
      </trkpt>
      <trkpt lat="46.53727" lon="0.29752">
        <ele>153.2</ele>
        <time>2022-01-16T10:27:53Z</time>
      </trkpt>
      <trkpt lat="46.5374" lon="0.29753">
        <ele>152.8</ele>
        <time>2022-01-16T10:27:55Z</time>
      </trkpt>
      <trkpt lat="46.53759" lon="0.29749">
        <ele>152.6</ele>
        <time>2022-01-16T10:27:58Z</time>
      </trkpt>
      <trkpt lat="46.5378" lon="0.29745">
        <ele>152</ele>
        <time>2022-01-16T10:28:01Z</time>
      </trkpt>
      <trkpt lat="46.53814" lon="0.29737">
        <ele>150.8</ele>
        <time>2022-01-16T10:28:06Z</time>
      </trkpt>
      <trkpt lat="46.53821" lon="0.29735">
        <ele>150.8</ele>
        <time>2022-01-16T10:28:07Z</time>
      </trkpt>
      <trkpt lat="46.53858" lon="0.29733">
        <ele>150.4</ele>
        <time>2022-01-16T10:28:13Z</time>
      </trkpt>
      <trkpt lat="46.53883" lon="0.29743">
        <ele>150.4</ele>
        <time>2022-01-16T10:28:18Z</time>
      </trkpt>
      <trkpt lat="46.539" lon="0.29755">
        <ele>151.2</ele>
        <time>2022-01-16T10:28:22Z</time>
      </trkpt>
      <trkpt lat="46.53907" lon="0.29764">
        <ele>151.4</ele>
        <time>2022-01-16T10:28:24Z</time>
      </trkpt>
      <trkpt lat="46.53916" lon="0.29776">
        <ele>151.6</ele>
        <time>2022-01-16T10:28:27Z</time>
      </trkpt>
      <trkpt lat="46.53923" lon="0.29783">
        <ele>151.8</ele>
        <time>2022-01-16T10:28:29Z</time>
      </trkpt>
      <trkpt lat="46.53926" lon="0.29786">
        <ele>152</ele>
        <time>2022-01-16T10:28:30Z</time>
      </trkpt>
      <trkpt lat="46.53944" lon="0.29805">
        <ele>152.8</ele>
        <time>2022-01-16T10:28:36Z</time>
      </trkpt>
      <trkpt lat="46.53949" lon="0.29813">
        <ele>153</ele>
        <time>2022-01-16T10:28:38Z</time>
      </trkpt>
      <trkpt lat="46.53967" lon="0.29835">
        <ele>153.4</ele>
        <time>2022-01-16T10:28:44Z</time>
      </trkpt>
      <trkpt lat="46.53972" lon="0.29844">
        <ele>153.6</ele>
        <time>2022-01-16T10:28:47Z</time>
      </trkpt>
      <trkpt lat="46.53972" lon="0.29847">
        <ele>153.8</ele>
        <time>2022-01-16T10:28:48Z</time>
      </trkpt>
      <trkpt lat="46.53972" lon="0.29849">
        <ele>153.8</ele>
        <time>2022-01-16T10:28:49Z</time>
      </trkpt>
      <trkpt lat="46.5397" lon="0.29854">
        <ele>154</ele>
        <time>2022-01-16T10:28:51Z</time>
      </trkpt>
      <trkpt lat="46.53967" lon="0.2986">
        <ele>154.4</ele>
        <time>2022-01-16T10:28:53Z</time>
      </trkpt>
      <trkpt lat="46.53965" lon="0.29883">
        <ele>154.6</ele>
        <time>2022-01-16T10:28:58Z</time>
      </trkpt>
      <trkpt lat="46.53964" lon="0.29891">
        <ele>154.6</ele>
        <time>2022-01-16T10:29:00Z</time>
      </trkpt>
      <trkpt lat="46.5396" lon="0.29912">
        <ele>154.6</ele>
        <time>2022-01-16T10:29:04Z</time>
      </trkpt>
      <trkpt lat="46.53946" lon="0.29959">
        <ele>154.6</ele>
        <time>2022-01-16T10:29:11Z</time>
      </trkpt>
      <trkpt lat="46.53924" lon="0.30021">
        <ele>153.8</ele>
        <time>2022-01-16T10:29:19Z</time>
      </trkpt>
      <trkpt lat="46.53912" lon="0.30062">
        <ele>153.4</ele>
        <time>2022-01-16T10:29:25Z</time>
      </trkpt>
      <trkpt lat="46.5391" lon="0.30075">
        <ele>152.8</ele>
        <time>2022-01-16T10:29:27Z</time>
      </trkpt>
      <trkpt lat="46.53903" lon="0.30102">
        <ele>152.6</ele>
        <time>2022-01-16T10:29:32Z</time>
      </trkpt>
      <trkpt lat="46.53896" lon="0.30124">
        <ele>152.4</ele>
        <time>2022-01-16T10:29:36Z</time>
      </trkpt>
      <trkpt lat="46.53892" lon="0.30137">
        <ele>151.8</ele>
        <time>2022-01-16T10:29:38Z</time>
      </trkpt>
      <trkpt lat="46.53884" lon="0.30178">
        <ele>151</ele>
        <time>2022-01-16T10:29:43Z</time>
      </trkpt>
      <trkpt lat="46.53883" lon="0.30188">
        <ele>150.8</ele>
        <time>2022-01-16T10:29:44Z</time>
      </trkpt>
      <trkpt lat="46.53883" lon="0.30196">
        <ele>150.4</ele>
        <time>2022-01-16T10:29:45Z</time>
      </trkpt>
      <trkpt lat="46.53882" lon="0.30222">
        <ele>150</ele>
        <time>2022-01-16T10:29:48Z</time>
      </trkpt>
      <trkpt lat="46.53877" lon="0.30261">
        <ele>150.2</ele>
        <time>2022-01-16T10:29:53Z</time>
      </trkpt>
      <trkpt lat="46.53876" lon="0.30267">
        <ele>150.2</ele>
        <time>2022-01-16T10:29:54Z</time>
      </trkpt>
      <trkpt lat="46.53872" lon="0.30333">
        <ele>150.8</ele>
        <time>2022-01-16T10:30:03Z</time>
      </trkpt>
      <trkpt lat="46.53863" lon="0.30386">
        <ele>151.2</ele>
        <time>2022-01-16T10:30:10Z</time>
      </trkpt>
      <trkpt lat="46.53862" lon="0.30394">
        <ele>151.4</ele>
        <time>2022-01-16T10:30:11Z</time>
      </trkpt>
      <trkpt lat="46.53852" lon="0.30453">
        <ele>151.4</ele>
        <time>2022-01-16T10:30:19Z</time>
      </trkpt>
      <trkpt lat="46.5384" lon="0.30501">
        <ele>150.6</ele>
        <time>2022-01-16T10:30:26Z</time>
      </trkpt>
      <trkpt lat="46.53833" lon="0.30528">
        <ele>150.4</ele>
        <time>2022-01-16T10:30:30Z</time>
      </trkpt>
      <trkpt lat="46.5383" lon="0.30541">
        <ele>150.4</ele>
        <time>2022-01-16T10:30:32Z</time>
      </trkpt>
      <trkpt lat="46.53829" lon="0.30553">
        <ele>150.2</ele>
        <time>2022-01-16T10:30:34Z</time>
      </trkpt>
      <trkpt lat="46.53831" lon="0.30564">
        <ele>150.2</ele>
        <time>2022-01-16T10:30:36Z</time>
      </trkpt>
      <trkpt lat="46.53836" lon="0.30568">
        <ele>150</ele>
        <time>2022-01-16T10:30:38Z</time>
      </trkpt>
      <trkpt lat="46.53839" lon="0.30569">
        <ele>149.6</ele>
        <time>2022-01-16T10:30:39Z</time>
      </trkpt>
      <trkpt lat="46.53846" lon="0.30571">
        <ele>149.6</ele>
        <time>2022-01-16T10:30:41Z</time>
      </trkpt>
      <trkpt lat="46.53853" lon="0.30572">
        <ele>149.6</ele>
        <time>2022-01-16T10:30:43Z</time>
      </trkpt>
      <trkpt lat="46.53857" lon="0.30573">
        <ele>149.6</ele>
        <time>2022-01-16T10:30:44Z</time>
      </trkpt>
      <trkpt lat="46.53875" lon="0.30576">
        <ele>149.8</ele>
        <time>2022-01-16T10:30:48Z</time>
      </trkpt>
      <trkpt lat="46.53884" lon="0.30578">
        <ele>150.2</ele>
        <time>2022-01-16T10:30:50Z</time>
      </trkpt>
      <trkpt lat="46.53897" lon="0.3058">
        <ele>149.8</ele>
        <time>2022-01-16T10:30:53Z</time>
      </trkpt>
      <trkpt lat="46.53906" lon="0.30582">
        <ele>149.6</ele>
        <time>2022-01-16T10:30:55Z</time>
      </trkpt>
      <trkpt lat="46.53941" lon="0.30591">
        <ele>149.6</ele>
        <time>2022-01-16T10:31:01Z</time>
      </trkpt>
      <trkpt lat="46.53962" lon="0.30595">
        <ele>149.6</ele>
        <time>2022-01-16T10:31:06Z</time>
      </trkpt>
      <trkpt lat="46.53966" lon="0.30595">
        <ele>149.4</ele>
        <time>2022-01-16T10:31:07Z</time>
      </trkpt>
      <trkpt lat="46.53985" lon="0.30598">
        <ele>149.2</ele>
        <time>2022-01-16T10:31:12Z</time>
      </trkpt>
      <trkpt lat="46.5401" lon="0.30601">
        <ele>149.6</ele>
        <time>2022-01-16T10:31:17Z</time>
      </trkpt>
      <trkpt lat="46.54045" lon="0.30599">
        <ele>150</ele>
        <time>2022-01-16T10:31:24Z</time>
      </trkpt>
      <trkpt lat="46.54049" lon="0.30598">
        <ele>150.4</ele>
        <time>2022-01-16T10:31:25Z</time>
      </trkpt>
      <trkpt lat="46.54057" lon="0.30597">
        <ele>150.8</ele>
        <time>2022-01-16T10:31:27Z</time>
      </trkpt>
      <trkpt lat="46.54071" lon="0.30593">
        <ele>151</ele>
        <time>2022-01-16T10:31:30Z</time>
      </trkpt>
      <trkpt lat="46.54075" lon="0.30592">
        <ele>151</ele>
        <time>2022-01-16T10:31:31Z</time>
      </trkpt>
      <trkpt lat="46.5409" lon="0.30587">
        <ele>151</ele>
        <time>2022-01-16T10:31:35Z</time>
      </trkpt>
      <trkpt lat="46.54099" lon="0.30585">
        <ele>151.2</ele>
        <time>2022-01-16T10:31:37Z</time>
      </trkpt>
      <trkpt lat="46.54103" lon="0.30584">
        <ele>151.6</ele>
        <time>2022-01-16T10:31:38Z</time>
      </trkpt>
      <trkpt lat="46.54126" lon="0.30576">
        <ele>151.8</ele>
        <time>2022-01-16T10:31:43Z</time>
      </trkpt>
      <trkpt lat="46.54158" lon="0.30566">
        <ele>152</ele>
        <time>2022-01-16T10:31:49Z</time>
      </trkpt>
      <trkpt lat="46.54186" lon="0.30556">
        <ele>152.4</ele>
        <time>2022-01-16T10:31:54Z</time>
      </trkpt>
      <trkpt lat="46.54207" lon="0.30549">
        <ele>152.4</ele>
        <time>2022-01-16T10:31:58Z</time>
      </trkpt>
      <trkpt lat="46.54218" lon="0.30548">
        <ele>152.4</ele>
        <time>2022-01-16T10:32:00Z</time>
      </trkpt>
      <trkpt lat="46.5423" lon="0.30546">
        <ele>152.4</ele>
        <time>2022-01-16T10:32:03Z</time>
      </trkpt>
      <trkpt lat="46.54234" lon="0.30547">
        <ele>152.6</ele>
        <time>2022-01-16T10:32:04Z</time>
      </trkpt>
      <trkpt lat="46.54237" lon="0.30547">
        <ele>152.8</ele>
        <time>2022-01-16T10:32:05Z</time>
      </trkpt>
      <trkpt lat="46.54261" lon="0.30554">
        <ele>153</ele>
        <time>2022-01-16T10:32:11Z</time>
      </trkpt>
      <trkpt lat="46.54286" lon="0.30566">
        <ele>152.8</ele>
        <time>2022-01-16T10:32:17Z</time>
      </trkpt>
      <trkpt lat="46.54315" lon="0.30578">
        <ele>152.6</ele>
        <time>2022-01-16T10:32:23Z</time>
      </trkpt>
      <trkpt lat="46.54344" lon="0.30588">
        <ele>152</ele>
        <time>2022-01-16T10:32:28Z</time>
      </trkpt>
      <trkpt lat="46.54351" lon="0.3059">
        <ele>151.6</ele>
        <time>2022-01-16T10:32:29Z</time>
      </trkpt>
      <trkpt lat="46.54384" lon="0.30602">
        <ele>151</ele>
        <time>2022-01-16T10:32:35Z</time>
      </trkpt>
      <trkpt lat="46.5439" lon="0.30601">
        <ele>150.8</ele>
        <time>2022-01-16T10:32:36Z</time>
      </trkpt>
      <trkpt lat="46.54402" lon="0.306">
        <ele>150.6</ele>
        <time>2022-01-16T10:32:38Z</time>
      </trkpt>
      <trkpt lat="46.5442" lon="0.30603">
        <ele>149.8</ele>
        <time>2022-01-16T10:32:41Z</time>
      </trkpt>
      <trkpt lat="46.54426" lon="0.30604">
        <ele>149.4</ele>
        <time>2022-01-16T10:32:42Z</time>
      </trkpt>
      <trkpt lat="46.54447" lon="0.30603">
        <ele>148</ele>
        <time>2022-01-16T10:32:45Z</time>
      </trkpt>
      <trkpt lat="46.54461" lon="0.30602">
        <ele>147.6</ele>
        <time>2022-01-16T10:32:47Z</time>
      </trkpt>
      <trkpt lat="46.54483" lon="0.30601">
        <ele>146.6</ele>
        <time>2022-01-16T10:32:51Z</time>
      </trkpt>
      <trkpt lat="46.54494" lon="0.30601">
        <ele>145.8</ele>
        <time>2022-01-16T10:32:53Z</time>
      </trkpt>
      <trkpt lat="46.54498" lon="0.30601">
        <ele>145.6</ele>
        <time>2022-01-16T10:32:54Z</time>
      </trkpt>
      <trkpt lat="46.54517" lon="0.30604">
        <ele>144.4</ele>
        <time>2022-01-16T10:32:58Z</time>
      </trkpt>
      <trkpt lat="46.54558" lon="0.30614">
        <ele>144.2</ele>
        <time>2022-01-16T10:33:06Z</time>
      </trkpt>
      <trkpt lat="46.54563" lon="0.30616">
        <ele>144.6</ele>
        <time>2022-01-16T10:33:07Z</time>
      </trkpt>
      <trkpt lat="46.54575" lon="0.30625">
        <ele>145</ele>
        <time>2022-01-16T10:33:10Z</time>
      </trkpt>
      <trkpt lat="46.54585" lon="0.30634">
        <ele>145.6</ele>
        <time>2022-01-16T10:33:13Z</time>
      </trkpt>
      <trkpt lat="46.54593" lon="0.3064">
        <ele>146</ele>
        <time>2022-01-16T10:33:15Z</time>
      </trkpt>
      <trkpt lat="46.54614" lon="0.30668">
        <ele>146.4</ele>
        <time>2022-01-16T10:33:22Z</time>
      </trkpt>
      <trkpt lat="46.54626" lon="0.30681">
        <ele>146.2</ele>
        <time>2022-01-16T10:33:25Z</time>
      </trkpt>
      <trkpt lat="46.5464" lon="0.30695">
        <ele>146.4</ele>
        <time>2022-01-16T10:33:29Z</time>
      </trkpt>
      <trkpt lat="46.54651" lon="0.30705">
        <ele>146.6</ele>
        <time>2022-01-16T10:33:32Z</time>
      </trkpt>
      <trkpt lat="46.54664" lon="0.30715">
        <ele>146.6</ele>
        <time>2022-01-16T10:33:35Z</time>
      </trkpt>
      <trkpt lat="46.54688" lon="0.30737">
        <ele>146.8</ele>
        <time>2022-01-16T10:33:41Z</time>
      </trkpt>
      <trkpt lat="46.54716" lon="0.30767">
        <ele>146</ele>
        <time>2022-01-16T10:33:48Z</time>
      </trkpt>
      <trkpt lat="46.54734" lon="0.30785">
        <ele>145.6</ele>
        <time>2022-01-16T10:33:52Z</time>
      </trkpt>
      <trkpt lat="46.54742" lon="0.30795">
        <ele>145</ele>
        <time>2022-01-16T10:33:54Z</time>
      </trkpt>
      <trkpt lat="46.54765" lon="0.30817">
        <ele>144.6</ele>
        <time>2022-01-16T10:33:59Z</time>
      </trkpt>
      <trkpt lat="46.54775" lon="0.30826">
        <ele>144.4</ele>
        <time>2022-01-16T10:34:01Z</time>
      </trkpt>
      <trkpt lat="46.54797" lon="0.30841">
        <ele>143.6</ele>
        <time>2022-01-16T10:34:05Z</time>
      </trkpt>
      <trkpt lat="46.54818" lon="0.30855">
        <ele>142.6</ele>
        <time>2022-01-16T10:34:09Z</time>
      </trkpt>
      <trkpt lat="46.54823" lon="0.30857">
        <ele>142.4</ele>
        <time>2022-01-16T10:34:10Z</time>
      </trkpt>
      <trkpt lat="46.54828" lon="0.30859">
        <ele>142</ele>
        <time>2022-01-16T10:34:11Z</time>
      </trkpt>
      <trkpt lat="46.54839" lon="0.3086">
        <ele>141.8</ele>
        <time>2022-01-16T10:34:13Z</time>
      </trkpt>
      <trkpt lat="46.54843" lon="0.30861">
        <ele>141.2</ele>
        <time>2022-01-16T10:34:14Z</time>
      </trkpt>
      <trkpt lat="46.54847" lon="0.30864">
        <ele>140.8</ele>
        <time>2022-01-16T10:34:15Z</time>
      </trkpt>
      <trkpt lat="46.54858" lon="0.30874">
        <ele>140.4</ele>
        <time>2022-01-16T10:34:17Z</time>
      </trkpt>
      <trkpt lat="46.54885" lon="0.30894">
        <ele>140.2</ele>
        <time>2022-01-16T10:34:21Z</time>
      </trkpt>
      <trkpt lat="46.54892" lon="0.30899">
        <ele>140</ele>
        <time>2022-01-16T10:34:22Z</time>
      </trkpt>
      <trkpt lat="46.54897" lon="0.30902">
        <ele>139.8</ele>
        <time>2022-01-16T10:34:23Z</time>
      </trkpt>
      <trkpt lat="46.54909" lon="0.3091">
        <ele>139.4</ele>
        <time>2022-01-16T10:34:25Z</time>
      </trkpt>
      <trkpt lat="46.54922" lon="0.30914">
        <ele>139.4</ele>
        <time>2022-01-16T10:34:27Z</time>
      </trkpt>
      <trkpt lat="46.54928" lon="0.30915">
        <ele>139.4</ele>
        <time>2022-01-16T10:34:28Z</time>
      </trkpt>
      <trkpt lat="46.54935" lon="0.30915">
        <ele>139.4</ele>
        <time>2022-01-16T10:34:29Z</time>
      </trkpt>
      <trkpt lat="46.54964" lon="0.30914">
        <ele>139.4</ele>
        <time>2022-01-16T10:34:33Z</time>
      </trkpt>
      <trkpt lat="46.54994" lon="0.3091">
        <ele>139.2</ele>
        <time>2022-01-16T10:34:38Z</time>
      </trkpt>
      <trkpt lat="46.54999" lon="0.3091">
        <ele>139</ele>
        <time>2022-01-16T10:34:39Z</time>
      </trkpt>
      <trkpt lat="46.55011" lon="0.3091">
        <ele>139</ele>
        <time>2022-01-16T10:34:41Z</time>
      </trkpt>
      <trkpt lat="46.55016" lon="0.30915">
        <ele>139</ele>
        <time>2022-01-16T10:34:43Z</time>
      </trkpt>
      <trkpt lat="46.55018" lon="0.30921">
        <ele>139</ele>
        <time>2022-01-16T10:34:45Z</time>
      </trkpt>
      <trkpt lat="46.55018" lon="0.30924">
        <ele>139</ele>
        <time>2022-01-16T10:34:46Z</time>
      </trkpt>
      <trkpt lat="46.55012" lon="0.30938">
        <ele>139</ele>
        <time>2022-01-16T10:34:50Z</time>
      </trkpt>
      <trkpt lat="46.55002" lon="0.30961">
        <ele>138.4</ele>
        <time>2022-01-16T10:34:55Z</time>
      </trkpt>
      <trkpt lat="46.54999" lon="0.30967">
        <ele>138.2</ele>
        <time>2022-01-16T10:34:56Z</time>
      </trkpt>
      <trkpt lat="46.5499" lon="0.30991">
        <ele>138.4</ele>
        <time>2022-01-16T10:35:00Z</time>
      </trkpt>
      <trkpt lat="46.54978" lon="0.31022">
        <ele>138.2</ele>
        <time>2022-01-16T10:35:05Z</time>
      </trkpt>
      <trkpt lat="46.54975" lon="0.31028">
        <ele>138</ele>
        <time>2022-01-16T10:35:06Z</time>
      </trkpt>
      <trkpt lat="46.54961" lon="0.31061">
        <ele>137</ele>
        <time>2022-01-16T10:35:11Z</time>
      </trkpt>
      <trkpt lat="46.54958" lon="0.31067">
        <ele>137</ele>
        <time>2022-01-16T10:35:12Z</time>
      </trkpt>
      <trkpt lat="46.54938" lon="0.31114">
        <ele>136</ele>
        <time>2022-01-16T10:35:19Z</time>
      </trkpt>
      <trkpt lat="46.54936" lon="0.3112">
        <ele>136</ele>
        <time>2022-01-16T10:35:20Z</time>
      </trkpt>
      <trkpt lat="46.54924" lon="0.31145">
        <ele>136</ele>
        <time>2022-01-16T10:35:25Z</time>
      </trkpt>
      <trkpt lat="46.54908" lon="0.31174">
        <ele>137</ele>
        <time>2022-01-16T10:35:33Z</time>
      </trkpt>
      <trkpt lat="46.54895" lon="0.312">
        <ele>138</ele>
        <time>2022-01-16T10:35:40Z</time>
      </trkpt>
      <trkpt lat="46.54893" lon="0.31203">
        <ele>138.2</ele>
        <time>2022-01-16T10:35:41Z</time>
      </trkpt>
      <trkpt lat="46.54879" lon="0.31229">
        <ele>139</ele>
        <time>2022-01-16T10:35:49Z</time>
      </trkpt>
      <trkpt lat="46.54873" lon="0.31238">
        <ele>139.4</ele>
        <time>2022-01-16T10:35:52Z</time>
      </trkpt>
      <trkpt lat="46.54865" lon="0.3125">
        <ele>140</ele>
        <time>2022-01-16T10:35:56Z</time>
      </trkpt>
      <trkpt lat="46.54854" lon="0.3127">
        <ele>140.4</ele>
        <time>2022-01-16T10:36:02Z</time>
      </trkpt>
      <trkpt lat="46.54851" lon="0.31277">
        <ele>140.6</ele>
        <time>2022-01-16T10:36:04Z</time>
      </trkpt>
      <trkpt lat="46.5484" lon="0.313">
        <ele>141.2</ele>
        <time>2022-01-16T10:36:11Z</time>
      </trkpt>
      <trkpt lat="46.54835" lon="0.31308">
        <ele>141.4</ele>
        <time>2022-01-16T10:36:14Z</time>
      </trkpt>
      <trkpt lat="46.54833" lon="0.31309">
        <ele>141.4</ele>
        <time>2022-01-16T10:36:15Z</time>
      </trkpt>
      <trkpt lat="46.54832" lon="0.31311">
        <ele>141.4</ele>
        <time>2022-01-16T10:36:16Z</time>
      </trkpt>
      <trkpt lat="46.54831" lon="0.31316">
        <ele>141.6</ele>
        <time>2022-01-16T10:36:20Z</time>
      </trkpt>
      <trkpt lat="46.54832" lon="0.31317">
        <ele>141.6</ele>
        <time>2022-01-16T10:36:21Z</time>
      </trkpt>
      <trkpt lat="46.54842" lon="0.31329">
        <ele>141.2</ele>
        <time>2022-01-16T10:36:28Z</time>
      </trkpt>
      <trkpt lat="46.54857" lon="0.31354">
        <ele>141</ele>
        <time>2022-01-16T10:36:33Z</time>
      </trkpt>
      <trkpt lat="46.54868" lon="0.31378">
        <ele>141</ele>
        <time>2022-01-16T10:36:37Z</time>
      </trkpt>
      <trkpt lat="46.54876" lon="0.31397">
        <ele>141.2</ele>
        <time>2022-01-16T10:36:40Z</time>
      </trkpt>
      <trkpt lat="46.54893" lon="0.31431">
        <ele>140.4</ele>
        <time>2022-01-16T10:36:46Z</time>
      </trkpt>
      <trkpt lat="46.54895" lon="0.31437">
        <ele>140.2</ele>
        <time>2022-01-16T10:36:47Z</time>
      </trkpt>
      <trkpt lat="46.5491" lon="0.31472">
        <ele>140.4</ele>
        <time>2022-01-16T10:36:53Z</time>
      </trkpt>
      <trkpt lat="46.54905" lon="0.31482">
        <ele>140.8</ele>
        <time>2022-01-16T10:36:56Z</time>
      </trkpt>
      <trkpt lat="46.54895" lon="0.31491">
        <ele>141.4</ele>
        <time>2022-01-16T10:37:01Z</time>
      </trkpt>
      <trkpt lat="46.5489" lon="0.31495">
        <ele>141.8</ele>
        <time>2022-01-16T10:37:03Z</time>
      </trkpt>
      <trkpt lat="46.54879" lon="0.31499">
        <ele>142.2</ele>
        <time>2022-01-16T10:37:09Z</time>
      </trkpt>
      <trkpt lat="46.54876" lon="0.31502">
        <ele>142.4</ele>
        <time>2022-01-16T10:37:11Z</time>
      </trkpt>
      <trkpt lat="46.54872" lon="0.31506">
        <ele>142.4</ele>
        <time>2022-01-16T10:37:12Z</time>
      </trkpt>
      <trkpt lat="46.54868" lon="0.31513">
        <ele>142.4</ele>
        <time>2022-01-16T10:37:14Z</time>
      </trkpt>
      <trkpt lat="46.54865" lon="0.31533">
        <ele>142.8</ele>
        <time>2022-01-16T10:37:19Z</time>
      </trkpt>
      <trkpt lat="46.54868" lon="0.31558">
        <ele>143</ele>
        <time>2022-01-16T10:37:23Z</time>
      </trkpt>
      <trkpt lat="46.54869" lon="0.31564">
        <ele>143</ele>
        <time>2022-01-16T10:37:24Z</time>
      </trkpt>
      <trkpt lat="46.5487" lon="0.31589">
        <ele>142.8</ele>
        <time>2022-01-16T10:37:28Z</time>
      </trkpt>
      <trkpt lat="46.5487" lon="0.31595">
        <ele>142.8</ele>
        <time>2022-01-16T10:37:29Z</time>
      </trkpt>
      <trkpt lat="46.54867" lon="0.31609">
        <ele>142.8</ele>
        <time>2022-01-16T10:37:31Z</time>
      </trkpt>
      <trkpt lat="46.54865" lon="0.31615">
        <ele>142.8</ele>
        <time>2022-01-16T10:37:32Z</time>
      </trkpt>
      <trkpt lat="46.54861" lon="0.3162">
        <ele>142.8</ele>
        <time>2022-01-16T10:37:33Z</time>
      </trkpt>
      <trkpt lat="46.54848" lon="0.31634">
        <ele>142.8</ele>
        <time>2022-01-16T10:37:36Z</time>
      </trkpt>
      <trkpt lat="46.54821" lon="0.31651">
        <ele>142.6</ele>
        <time>2022-01-16T10:37:42Z</time>
      </trkpt>
      <trkpt lat="46.54812" lon="0.31655">
        <ele>142.6</ele>
        <time>2022-01-16T10:37:44Z</time>
      </trkpt>
      <trkpt lat="46.54792" lon="0.31662">
        <ele>142.6</ele>
        <time>2022-01-16T10:37:48Z</time>
      </trkpt>
      <trkpt lat="46.54762" lon="0.31677">
        <ele>142</ele>
        <time>2022-01-16T10:37:54Z</time>
      </trkpt>
      <trkpt lat="46.54756" lon="0.31687">
        <ele>141.6</ele>
        <time>2022-01-16T10:37:56Z</time>
      </trkpt>
      <trkpt lat="46.54754" lon="0.31692">
        <ele>141.4</ele>
        <time>2022-01-16T10:37:57Z</time>
      </trkpt>
      <trkpt lat="46.54753" lon="0.31697">
        <ele>140.8</ele>
        <time>2022-01-16T10:37:58Z</time>
      </trkpt>
      <trkpt lat="46.54754" lon="0.31708">
        <ele>139.4</ele>
        <time>2022-01-16T10:38:00Z</time>
      </trkpt>
      <trkpt lat="46.54756" lon="0.31714">
        <ele>139.2</ele>
        <time>2022-01-16T10:38:01Z</time>
      </trkpt>
      <trkpt lat="46.54767" lon="0.3175">
        <ele>138.2</ele>
        <time>2022-01-16T10:38:06Z</time>
      </trkpt>
      <trkpt lat="46.5477" lon="0.31757">
        <ele>138</ele>
        <time>2022-01-16T10:38:07Z</time>
      </trkpt>
      <trkpt lat="46.54778" lon="0.3178">
        <ele>137.6</ele>
        <time>2022-01-16T10:38:10Z</time>
      </trkpt>
      <trkpt lat="46.54785" lon="0.31803">
        <ele>137.2</ele>
        <time>2022-01-16T10:38:13Z</time>
      </trkpt>
      <trkpt lat="46.54802" lon="0.31848">
        <ele>136.6</ele>
        <time>2022-01-16T10:38:19Z</time>
      </trkpt>
      <trkpt lat="46.54805" lon="0.31855">
        <ele>136.6</ele>
        <time>2022-01-16T10:38:20Z</time>
      </trkpt>
      <trkpt lat="46.54823" lon="0.31904">
        <ele>136</ele>
        <time>2022-01-16T10:38:26Z</time>
      </trkpt>
      <trkpt lat="46.54837" lon="0.31954">
        <ele>136</ele>
        <time>2022-01-16T10:38:32Z</time>
      </trkpt>
      <trkpt lat="46.54852" lon="0.31994">
        <ele>135.8</ele>
        <time>2022-01-16T10:38:38Z</time>
      </trkpt>
      <trkpt lat="46.5487" lon="0.32043">
        <ele>136.8</ele>
        <time>2022-01-16T10:38:45Z</time>
      </trkpt>
      <trkpt lat="46.54881" lon="0.32069">
        <ele>137.2</ele>
        <time>2022-01-16T10:38:49Z</time>
      </trkpt>
      <trkpt lat="46.54888" lon="0.32088">
        <ele>137.2</ele>
        <time>2022-01-16T10:38:52Z</time>
      </trkpt>
      <trkpt lat="46.54897" lon="0.32115">
        <ele>137.8</ele>
        <time>2022-01-16T10:38:56Z</time>
      </trkpt>
      <trkpt lat="46.54898" lon="0.32127">
        <ele>138</ele>
        <time>2022-01-16T10:38:58Z</time>
      </trkpt>
      <trkpt lat="46.54895" lon="0.32137">
        <ele>138.2</ele>
        <time>2022-01-16T10:39:00Z</time>
      </trkpt>
      <trkpt lat="46.54892" lon="0.32141">
        <ele>138.4</ele>
        <time>2022-01-16T10:39:01Z</time>
      </trkpt>
      <trkpt lat="46.54889" lon="0.32145">
        <ele>138.4</ele>
        <time>2022-01-16T10:39:02Z</time>
      </trkpt>
      <trkpt lat="46.54868" lon="0.32166">
        <ele>138.4</ele>
        <time>2022-01-16T10:39:07Z</time>
      </trkpt>
      <trkpt lat="46.54833" lon="0.32197">
        <ele>137.8</ele>
        <time>2022-01-16T10:39:14Z</time>
      </trkpt>
      <trkpt lat="46.54809" lon="0.32209">
        <ele>137.2</ele>
        <time>2022-01-16T10:39:18Z</time>
      </trkpt>
      <trkpt lat="46.54803" lon="0.32212">
        <ele>137</ele>
        <time>2022-01-16T10:39:19Z</time>
      </trkpt>
      <trkpt lat="46.54769" lon="0.32231">
        <ele>136.4</ele>
        <time>2022-01-16T10:39:24Z</time>
      </trkpt>
      <trkpt lat="46.54757" lon="0.3224">
        <ele>136</ele>
        <time>2022-01-16T10:39:26Z</time>
      </trkpt>
      <trkpt lat="46.54727" lon="0.32267">
        <ele>135.2</ele>
        <time>2022-01-16T10:39:31Z</time>
      </trkpt>
      <trkpt lat="46.54709" lon="0.32284">
        <ele>134.8</ele>
        <time>2022-01-16T10:39:34Z</time>
      </trkpt>
      <trkpt lat="46.54693" lon="0.32302">
        <ele>134.8</ele>
        <time>2022-01-16T10:39:37Z</time>
      </trkpt>
      <trkpt lat="46.54665" lon="0.32334">
        <ele>134.2</ele>
        <time>2022-01-16T10:39:43Z</time>
      </trkpt>
      <trkpt lat="46.54641" lon="0.32358">
        <ele>134</ele>
        <time>2022-01-16T10:39:48Z</time>
      </trkpt>
      <trkpt lat="46.54609" lon="0.32382">
        <ele>134</ele>
        <time>2022-01-16T10:39:54Z</time>
      </trkpt>
      <trkpt lat="46.54605" lon="0.32385">
        <ele>134</ele>
        <time>2022-01-16T10:39:55Z</time>
      </trkpt>
      <trkpt lat="46.54587" lon="0.32403">
        <ele>134.2</ele>
        <time>2022-01-16T10:40:00Z</time>
      </trkpt>
      <trkpt lat="46.54573" lon="0.32432">
        <ele>134.2</ele>
        <time>2022-01-16T10:40:05Z</time>
      </trkpt>
      <trkpt lat="46.5457" lon="0.32437">
        <ele>134.2</ele>
        <time>2022-01-16T10:40:06Z</time>
      </trkpt>
      <trkpt lat="46.54563" lon="0.32441">
        <ele>133.8</ele>
        <time>2022-01-16T10:40:08Z</time>
      </trkpt>
      <trkpt lat="46.5456" lon="0.32442">
        <ele>133.8</ele>
        <time>2022-01-16T10:40:09Z</time>
      </trkpt>
      <trkpt lat="46.54554" lon="0.32447">
        <ele>133.6</ele>
        <time>2022-01-16T10:40:11Z</time>
      </trkpt>
      <trkpt lat="46.54548" lon="0.32451">
        <ele>133.2</ele>
        <time>2022-01-16T10:40:13Z</time>
      </trkpt>
      <trkpt lat="46.54541" lon="0.32456">
        <ele>133.2</ele>
        <time>2022-01-16T10:40:16Z</time>
      </trkpt>
      <trkpt lat="46.54538" lon="0.32458">
        <ele>133.2</ele>
        <time>2022-01-16T10:40:18Z</time>
      </trkpt>
      <trkpt lat="46.54536" lon="0.3246">
        <ele>133.2</ele>
        <time>2022-01-16T10:40:20Z</time>
      </trkpt>
      <trkpt lat="46.54537" lon="0.32465">
        <ele>133.2</ele>
        <time>2022-01-16T10:40:24Z</time>
      </trkpt>
      <trkpt lat="46.54537" lon="0.32468">
        <ele>133.2</ele>
        <time>2022-01-16T10:40:25Z</time>
      </trkpt>
      <trkpt lat="46.54539" lon="0.3248">
        <ele>133</ele>
        <time>2022-01-16T10:40:29Z</time>
      </trkpt>
      <trkpt lat="46.54538" lon="0.32483">
        <ele>133</ele>
        <time>2022-01-16T10:40:30Z</time>
      </trkpt>
      <trkpt lat="46.54536" lon="0.32486">
        <ele>132.8</ele>
        <time>2022-01-16T10:40:31Z</time>
      </trkpt>
      <trkpt lat="46.54535" lon="0.32489">
        <ele>132.8</ele>
        <time>2022-01-16T10:40:32Z</time>
      </trkpt>
      <trkpt lat="46.54533" lon="0.32492">
        <ele>132.6</ele>
        <time>2022-01-16T10:40:33Z</time>
      </trkpt>
      <trkpt lat="46.54531" lon="0.32495">
        <ele>132.6</ele>
        <time>2022-01-16T10:40:34Z</time>
      </trkpt>
      <trkpt lat="46.54527" lon="0.32498">
        <ele>132.2</ele>
        <time>2022-01-16T10:40:37Z</time>
      </trkpt>
      <trkpt lat="46.54528" lon="0.32501">
        <ele>132.2</ele>
        <time>2022-01-16T10:40:38Z</time>
      </trkpt>
      <trkpt lat="46.54528" lon="0.32511">
        <ele>131.8</ele>
        <time>2022-01-16T10:40:41Z</time>
      </trkpt>
      <trkpt lat="46.54529" lon="0.32516">
        <ele>131.8</ele>
        <time>2022-01-16T10:40:42Z</time>
      </trkpt>
      <trkpt lat="46.54531" lon="0.32527">
        <ele>131.4</ele>
        <time>2022-01-16T10:40:44Z</time>
      </trkpt>
      <trkpt lat="46.54533" lon="0.32539">
        <ele>130.4</ele>
        <time>2022-01-16T10:40:46Z</time>
      </trkpt>
      <trkpt lat="46.54534" lon="0.32546">
        <ele>130.2</ele>
        <time>2022-01-16T10:40:47Z</time>
      </trkpt>
      <trkpt lat="46.54535" lon="0.32553">
        <ele>130</ele>
        <time>2022-01-16T10:40:48Z</time>
      </trkpt>
      <trkpt lat="46.54538" lon="0.32569">
        <ele>128.8</ele>
        <time>2022-01-16T10:40:50Z</time>
      </trkpt>
      <trkpt lat="46.5454" lon="0.32575">
        <ele>128.2</ele>
        <time>2022-01-16T10:40:51Z</time>
      </trkpt>
      <trkpt lat="46.54543" lon="0.3259">
        <ele>127.2</ele>
        <time>2022-01-16T10:40:53Z</time>
      </trkpt>
      <trkpt lat="46.54544" lon="0.3261">
        <ele>126</ele>
        <time>2022-01-16T10:40:55Z</time>
      </trkpt>
      <trkpt lat="46.54545" lon="0.32622">
        <ele>125.2</ele>
        <time>2022-01-16T10:40:57Z</time>
      </trkpt>
      <trkpt lat="46.54546" lon="0.32628">
        <ele>124.8</ele>
        <time>2022-01-16T10:40:58Z</time>
      </trkpt>
      <trkpt lat="46.54552" lon="0.32635">
        <ele>124.4</ele>
        <time>2022-01-16T10:41:01Z</time>
      </trkpt>
      <trkpt lat="46.54554" lon="0.32635">
        <ele>124.2</ele>
        <time>2022-01-16T10:41:02Z</time>
      </trkpt>
      <trkpt lat="46.54556" lon="0.32634">
        <ele>124.4</ele>
        <time>2022-01-16T10:41:03Z</time>
      </trkpt>
      <trkpt lat="46.54575" lon="0.32625">
        <ele>124.4</ele>
        <time>2022-01-16T10:41:08Z</time>
      </trkpt>
      <trkpt lat="46.54596" lon="0.32612">
        <ele>125.4</ele>
        <time>2022-01-16T10:41:14Z</time>
      </trkpt>
      <trkpt lat="46.54598" lon="0.3261">
        <ele>125.8</ele>
        <time>2022-01-16T10:41:15Z</time>
      </trkpt>
      <trkpt lat="46.54602" lon="0.32608">
        <ele>126.2</ele>
        <time>2022-01-16T10:41:16Z</time>
      </trkpt>
      <trkpt lat="46.54609" lon="0.32604">
        <ele>127</ele>
        <time>2022-01-16T10:41:18Z</time>
      </trkpt>
      <trkpt lat="46.54619" lon="0.32598">
        <ele>127.6</ele>
        <time>2022-01-16T10:41:21Z</time>
      </trkpt>
      <trkpt lat="46.54623" lon="0.32598">
        <ele>128.2</ele>
        <time>2022-01-16T10:41:22Z</time>
      </trkpt>
      <trkpt lat="46.54635" lon="0.32597">
        <ele>129.4</ele>
        <time>2022-01-16T10:41:26Z</time>
      </trkpt>
      <trkpt lat="46.54637" lon="0.32598">
        <ele>129.6</ele>
        <time>2022-01-16T10:41:27Z</time>
      </trkpt>
      <trkpt lat="46.54642" lon="0.32599">
        <ele>130</ele>
        <time>2022-01-16T10:41:29Z</time>
      </trkpt>
      <trkpt lat="46.54646" lon="0.32593">
        <ele>130.6</ele>
        <time>2022-01-16T10:41:31Z</time>
      </trkpt>
      <trkpt lat="46.54657" lon="0.32578">
        <ele>131.6</ele>
        <time>2022-01-16T10:41:35Z</time>
      </trkpt>
      <trkpt lat="46.54662" lon="0.32571">
        <ele>132</ele>
        <time>2022-01-16T10:41:37Z</time>
      </trkpt>
      <trkpt lat="46.54677" lon="0.32554">
        <ele>132.6</ele>
        <time>2022-01-16T10:41:42Z</time>
      </trkpt>
      <trkpt lat="46.5468" lon="0.32554">
        <ele>132.6</ele>
        <time>2022-01-16T10:41:43Z</time>
      </trkpt>
      <trkpt lat="46.54684" lon="0.32557">
        <ele>132.6</ele>
        <time>2022-01-16T10:41:44Z</time>
      </trkpt>
      <trkpt lat="46.54691" lon="0.32565">
        <ele>132.8</ele>
        <time>2022-01-16T10:41:46Z</time>
      </trkpt>
      <trkpt lat="46.54694" lon="0.3257">
        <ele>132.8</ele>
        <time>2022-01-16T10:41:47Z</time>
      </trkpt>
      <trkpt lat="46.54715" lon="0.32594">
        <ele>133.8</ele>
        <time>2022-01-16T10:41:53Z</time>
      </trkpt>
      <trkpt lat="46.54746" lon="0.32625">
        <ele>134.4</ele>
        <time>2022-01-16T10:42:01Z</time>
      </trkpt>
      <trkpt lat="46.54754" lon="0.32633">
        <ele>134.6</ele>
        <time>2022-01-16T10:42:03Z</time>
      </trkpt>
      <trkpt lat="46.54763" lon="0.3264">
        <ele>134.6</ele>
        <time>2022-01-16T10:42:05Z</time>
      </trkpt>
      <trkpt lat="46.54768" lon="0.32642">
        <ele>134.8</ele>
        <time>2022-01-16T10:42:06Z</time>
      </trkpt>
      <trkpt lat="46.54772" lon="0.32645">
        <ele>134.8</ele>
        <time>2022-01-16T10:42:07Z</time>
      </trkpt>
      <trkpt lat="46.54803" lon="0.32655">
        <ele>135.2</ele>
        <time>2022-01-16T10:42:14Z</time>
      </trkpt>
      <trkpt lat="46.54837" lon="0.32655">
        <ele>135.6</ele>
        <time>2022-01-16T10:42:21Z</time>
      </trkpt>
      <trkpt lat="46.54848" lon="0.32656">
        <ele>135.6</ele>
        <time>2022-01-16T10:42:23Z</time>
      </trkpt>
      <trkpt lat="46.54862" lon="0.32662">
        <ele>135.8</ele>
        <time>2022-01-16T10:42:26Z</time>
      </trkpt>
      <trkpt lat="46.54867" lon="0.32664">
        <ele>135.8</ele>
        <time>2022-01-16T10:42:27Z</time>
      </trkpt>
      <trkpt lat="46.54871" lon="0.32667">
        <ele>136</ele>
        <time>2022-01-16T10:42:28Z</time>
      </trkpt>
      <trkpt lat="46.5489" lon="0.32683">
        <ele>136.2</ele>
        <time>2022-01-16T10:42:32Z</time>
      </trkpt>
      <trkpt lat="46.54924" lon="0.32706">
        <ele>135.6</ele>
        <time>2022-01-16T10:42:38Z</time>
      </trkpt>
      <trkpt lat="46.54964" lon="0.32727">
        <ele>135.2</ele>
        <time>2022-01-16T10:42:45Z</time>
      </trkpt>
      <trkpt lat="46.55013" lon="0.32748">
        <ele>135.2</ele>
        <time>2022-01-16T10:42:53Z</time>
      </trkpt>
      <trkpt lat="46.55029" lon="0.32757">
        <ele>135.2</ele>
        <time>2022-01-16T10:42:56Z</time>
      </trkpt>
      <trkpt lat="46.55033" lon="0.32762">
        <ele>135.2</ele>
        <time>2022-01-16T10:42:57Z</time>
      </trkpt>
      <trkpt lat="46.55037" lon="0.32768">
        <ele>135.2</ele>
        <time>2022-01-16T10:42:58Z</time>
      </trkpt>
      <trkpt lat="46.55042" lon="0.32784">
        <ele>135</ele>
        <time>2022-01-16T10:43:00Z</time>
      </trkpt>
      <trkpt lat="46.55043" lon="0.32792">
        <ele>135</ele>
        <time>2022-01-16T10:43:01Z</time>
      </trkpt>
      <trkpt lat="46.55042" lon="0.328">
        <ele>135</ele>
        <time>2022-01-16T10:43:02Z</time>
      </trkpt>
      <trkpt lat="46.55038" lon="0.32826">
        <ele>134.8</ele>
        <time>2022-01-16T10:43:05Z</time>
      </trkpt>
      <trkpt lat="46.55037" lon="0.32836">
        <ele>134.8</ele>
        <time>2022-01-16T10:43:06Z</time>
      </trkpt>
      <trkpt lat="46.55026" lon="0.32893">
        <ele>134</ele>
        <time>2022-01-16T10:43:12Z</time>
      </trkpt>
      <trkpt lat="46.55023" lon="0.32912">
        <ele>133.6</ele>
        <time>2022-01-16T10:43:14Z</time>
      </trkpt>
      <trkpt lat="46.55016" lon="0.32964">
        <ele>133.4</ele>
        <time>2022-01-16T10:43:20Z</time>
      </trkpt>
      <trkpt lat="46.55021" lon="0.33026">
        <ele>133.2</ele>
        <time>2022-01-16T10:43:27Z</time>
      </trkpt>
      <trkpt lat="46.55036" lon="0.33078">
        <ele>132.6</ele>
        <time>2022-01-16T10:43:33Z</time>
      </trkpt>
      <trkpt lat="46.55061" lon="0.33128">
        <ele>131.8</ele>
        <time>2022-01-16T10:43:39Z</time>
      </trkpt>
      <trkpt lat="46.55066" lon="0.33136">
        <ele>131.4</ele>
        <time>2022-01-16T10:43:40Z</time>
      </trkpt>
      <trkpt lat="46.55093" lon="0.33181">
        <ele>131</ele>
        <time>2022-01-16T10:43:46Z</time>
      </trkpt>
      <trkpt lat="46.55121" lon="0.33219">
        <ele>131.2</ele>
        <time>2022-01-16T10:43:52Z</time>
      </trkpt>
      <trkpt lat="46.55159" lon="0.33261">
        <ele>131.4</ele>
        <time>2022-01-16T10:43:59Z</time>
      </trkpt>
      <trkpt lat="46.55203" lon="0.33308">
        <ele>130.4</ele>
        <time>2022-01-16T10:44:07Z</time>
      </trkpt>
      <trkpt lat="46.55226" lon="0.33333">
        <ele>129.2</ele>
        <time>2022-01-16T10:44:11Z</time>
      </trkpt>
      <trkpt lat="46.55239" lon="0.33348">
        <ele>128.4</ele>
        <time>2022-01-16T10:44:13Z</time>
      </trkpt>
      <trkpt lat="46.55247" lon="0.33356">
        <ele>127.8</ele>
        <time>2022-01-16T10:44:14Z</time>
      </trkpt>
      <trkpt lat="46.55261" lon="0.33371">
        <ele>126</ele>
        <time>2022-01-16T10:44:16Z</time>
      </trkpt>
      <trkpt lat="46.55276" lon="0.33388">
        <ele>124.8</ele>
        <time>2022-01-16T10:44:18Z</time>
      </trkpt>
      <trkpt lat="46.55293" lon="0.33406">
        <ele>123.6</ele>
        <time>2022-01-16T10:44:20Z</time>
      </trkpt>
      <trkpt lat="46.55301" lon="0.33415">
        <ele>122.6</ele>
        <time>2022-01-16T10:44:21Z</time>
      </trkpt>
      <trkpt lat="46.55317" lon="0.33433">
        <ele>121.4</ele>
        <time>2022-01-16T10:44:23Z</time>
      </trkpt>
      <trkpt lat="46.55325" lon="0.33441">
        <ele>120</ele>
        <time>2022-01-16T10:44:24Z</time>
      </trkpt>
      <trkpt lat="46.55333" lon="0.33448">
        <ele>119</ele>
        <time>2022-01-16T10:44:25Z</time>
      </trkpt>
      <trkpt lat="46.55339" lon="0.33454">
        <ele>118.2</ele>
        <time>2022-01-16T10:44:26Z</time>
      </trkpt>
      <trkpt lat="46.55344" lon="0.33458">
        <ele>116.8</ele>
        <time>2022-01-16T10:44:27Z</time>
      </trkpt>
      <trkpt lat="46.55348" lon="0.33462">
        <ele>115.8</ele>
        <time>2022-01-16T10:44:28Z</time>
      </trkpt>
      <trkpt lat="46.55349" lon="0.33466">
        <ele>114.6</ele>
        <time>2022-01-16T10:44:29Z</time>
      </trkpt>
      <trkpt lat="46.5535" lon="0.33471">
        <ele>113.6</ele>
        <time>2022-01-16T10:44:31Z</time>
      </trkpt>
      <trkpt lat="46.55348" lon="0.33474">
        <ele>113.4</ele>
        <time>2022-01-16T10:44:32Z</time>
      </trkpt>
      <trkpt lat="46.55336" lon="0.33483">
        <ele>113</ele>
        <time>2022-01-16T10:44:36Z</time>
      </trkpt>
      <trkpt lat="46.55311" lon="0.33499">
        <ele>113.2</ele>
        <time>2022-01-16T10:44:42Z</time>
      </trkpt>
      <trkpt lat="46.55307" lon="0.33502">
        <ele>113</ele>
        <time>2022-01-16T10:44:43Z</time>
      </trkpt>
      <trkpt lat="46.55286" lon="0.33509">
        <ele>113</ele>
        <time>2022-01-16T10:44:47Z</time>
      </trkpt>
      <trkpt lat="46.5527" lon="0.33511">
        <ele>112.8</ele>
        <time>2022-01-16T10:44:50Z</time>
      </trkpt>
      <trkpt lat="46.55263" lon="0.33511">
        <ele>112.6</ele>
        <time>2022-01-16T10:44:51Z</time>
      </trkpt>
      <trkpt lat="46.55257" lon="0.33509">
        <ele>112.4</ele>
        <time>2022-01-16T10:44:52Z</time>
      </trkpt>
      <trkpt lat="46.55251" lon="0.33507">
        <ele>112.6</ele>
        <time>2022-01-16T10:44:53Z</time>
      </trkpt>
      <trkpt lat="46.55214" lon="0.33495">
        <ele>112</ele>
        <time>2022-01-16T10:44:58Z</time>
      </trkpt>
      <trkpt lat="46.55186" lon="0.33484">
        <ele>111.6</ele>
        <time>2022-01-16T10:45:02Z</time>
      </trkpt>
      <trkpt lat="46.55178" lon="0.3348">
        <ele>111.4</ele>
        <time>2022-01-16T10:45:03Z</time>
      </trkpt>
      <trkpt lat="46.55133" lon="0.33457">
        <ele>110.4</ele>
        <time>2022-01-16T10:45:09Z</time>
      </trkpt>
      <trkpt lat="46.55126" lon="0.33454">
        <ele>110</ele>
        <time>2022-01-16T10:45:10Z</time>
      </trkpt>
      <trkpt lat="46.55104" lon="0.33441">
        <ele>109.2</ele>
        <time>2022-01-16T10:45:13Z</time>
      </trkpt>
      <trkpt lat="46.55076" lon="0.33423">
        <ele>108</ele>
        <time>2022-01-16T10:45:17Z</time>
      </trkpt>
      <trkpt lat="46.55042" lon="0.33404">
        <ele>107</ele>
        <time>2022-01-16T10:45:22Z</time>
      </trkpt>
      <trkpt lat="46.55026" lon="0.33395">
        <ele>106.4</ele>
        <time>2022-01-16T10:45:24Z</time>
      </trkpt>
      <trkpt lat="46.55" lon="0.33378">
        <ele>106</ele>
        <time>2022-01-16T10:45:28Z</time>
      </trkpt>
      <trkpt lat="46.54993" lon="0.33375">
        <ele>105.4</ele>
        <time>2022-01-16T10:45:29Z</time>
      </trkpt>
      <trkpt lat="46.54981" lon="0.33368">
        <ele>104.6</ele>
        <time>2022-01-16T10:45:31Z</time>
      </trkpt>
      <trkpt lat="46.54961" lon="0.33355">
        <ele>103.6</ele>
        <time>2022-01-16T10:45:35Z</time>
      </trkpt>
      <trkpt lat="46.54957" lon="0.33353">
        <ele>103.6</ele>
        <time>2022-01-16T10:45:36Z</time>
      </trkpt>
      <trkpt lat="46.54946" lon="0.33347">
        <ele>103.2</ele>
        <time>2022-01-16T10:45:38Z</time>
      </trkpt>
      <trkpt lat="46.5494" lon="0.33345">
        <ele>103.2</ele>
        <time>2022-01-16T10:45:39Z</time>
      </trkpt>
      <trkpt lat="46.54934" lon="0.33344">
        <ele>103.2</ele>
        <time>2022-01-16T10:45:40Z</time>
      </trkpt>
      <trkpt lat="46.54921" lon="0.33346">
        <ele>103</ele>
        <time>2022-01-16T10:45:42Z</time>
      </trkpt>
      <trkpt lat="46.54907" lon="0.33349">
        <ele>102.8</ele>
        <time>2022-01-16T10:45:44Z</time>
      </trkpt>
      <trkpt lat="46.54887" lon="0.33362">
        <ele>102.6</ele>
        <time>2022-01-16T10:45:47Z</time>
      </trkpt>
      <trkpt lat="46.54882" lon="0.33367">
        <ele>102.4</ele>
        <time>2022-01-16T10:45:48Z</time>
      </trkpt>
      <trkpt lat="46.5486" lon="0.33387">
        <ele>102</ele>
        <time>2022-01-16T10:45:53Z</time>
      </trkpt>
      <trkpt lat="46.5484" lon="0.33407">
        <ele>102</ele>
        <time>2022-01-16T10:45:59Z</time>
      </trkpt>
      <trkpt lat="46.54821" lon="0.33436">
        <ele>102.4</ele>
        <time>2022-01-16T10:46:04Z</time>
      </trkpt>
      <trkpt lat="46.54799" lon="0.33474">
        <ele>102.2</ele>
        <time>2022-01-16T10:46:11Z</time>
      </trkpt>
      <trkpt lat="46.54785" lon="0.335">
        <ele>102</ele>
        <time>2022-01-16T10:46:15Z</time>
      </trkpt>
      <trkpt lat="46.54777" lon="0.33512">
        <ele>102.2</ele>
        <time>2022-01-16T10:46:17Z</time>
      </trkpt>
      <trkpt lat="46.54755" lon="0.33552">
        <ele>102</ele>
        <time>2022-01-16T10:46:24Z</time>
      </trkpt>
      <trkpt lat="46.54741" lon="0.33575">
        <ele>102.2</ele>
        <time>2022-01-16T10:46:30Z</time>
      </trkpt>
      <trkpt lat="46.54728" lon="0.336">
        <ele>102</ele>
        <time>2022-01-16T10:46:36Z</time>
      </trkpt>
      <trkpt lat="46.54714" lon="0.33618">
        <ele>102.2</ele>
        <time>2022-01-16T10:46:40Z</time>
      </trkpt>
      <trkpt lat="46.5471" lon="0.33622">
        <ele>102.2</ele>
        <time>2022-01-16T10:46:41Z</time>
      </trkpt>
      <trkpt lat="46.54702" lon="0.33629">
        <ele>102.2</ele>
        <time>2022-01-16T10:46:43Z</time>
      </trkpt>
      <trkpt lat="46.54698" lon="0.33635">
        <ele>102</ele>
        <time>2022-01-16T10:46:45Z</time>
      </trkpt>
      <trkpt lat="46.54682" lon="0.33641">
        <ele>101.8</ele>
        <time>2022-01-16T10:46:49Z</time>
      </trkpt>
      <trkpt lat="46.54661" lon="0.33645">
        <ele>102.4</ele>
        <time>2022-01-16T10:46:53Z</time>
      </trkpt>
      <trkpt lat="46.54656" lon="0.33644">
        <ele>102.6</ele>
        <time>2022-01-16T10:46:54Z</time>
      </trkpt>
      <trkpt lat="46.54645" lon="0.33639">
        <ele>102.8</ele>
        <time>2022-01-16T10:46:56Z</time>
      </trkpt>
      <trkpt lat="46.5463" lon="0.33627">
        <ele>103</ele>
        <time>2022-01-16T10:46:59Z</time>
      </trkpt>
      <trkpt lat="46.54625" lon="0.33624">
        <ele>103.2</ele>
        <time>2022-01-16T10:47:00Z</time>
      </trkpt>
      <trkpt lat="46.54621" lon="0.33622">
        <ele>103.4</ele>
        <time>2022-01-16T10:47:01Z</time>
      </trkpt>
      <trkpt lat="46.54609" lon="0.33611">
        <ele>103.8</ele>
        <time>2022-01-16T10:47:04Z</time>
      </trkpt>
      <trkpt lat="46.546" lon="0.33606">
        <ele>104.2</ele>
        <time>2022-01-16T10:47:06Z</time>
      </trkpt>
      <trkpt lat="46.54597" lon="0.33606">
        <ele>104.4</ele>
        <time>2022-01-16T10:47:07Z</time>
      </trkpt>
      <trkpt lat="46.54594" lon="0.33608">
        <ele>104.6</ele>
        <time>2022-01-16T10:47:08Z</time>
      </trkpt>
      <trkpt lat="46.5459" lon="0.3362">
        <ele>105.6</ele>
        <time>2022-01-16T10:47:12Z</time>
      </trkpt>
      <trkpt lat="46.5459" lon="0.3362">
        <ele>106.8</ele>
        <time>2022-01-16T10:47:14Z</time>
      </trkpt>
      <trkpt lat="46.54586" lon="0.33637">
        <ele>107.8</ele>
        <time>2022-01-16T10:47:17Z</time>
      </trkpt>
      <trkpt lat="46.54584" lon="0.33644">
        <ele>109.2</ele>
        <time>2022-01-16T10:47:19Z</time>
      </trkpt>
      <trkpt lat="46.54583" lon="0.33647">
        <ele>109.6</ele>
        <time>2022-01-16T10:47:20Z</time>
      </trkpt>
      <trkpt lat="46.54583" lon="0.33651">
        <ele>110.2</ele>
        <time>2022-01-16T10:47:21Z</time>
      </trkpt>
      <trkpt lat="46.54583" lon="0.33654">
        <ele>110.8</ele>
        <time>2022-01-16T10:47:22Z</time>
      </trkpt>
      <trkpt lat="46.54587" lon="0.33661">
        <ele>111.2</ele>
        <time>2022-01-16T10:47:24Z</time>
      </trkpt>
      <trkpt lat="46.5459" lon="0.33664">
        <ele>111.4</ele>
        <time>2022-01-16T10:47:25Z</time>
      </trkpt>
      <trkpt lat="46.54604" lon="0.33675">
        <ele>111.8</ele>
        <time>2022-01-16T10:47:29Z</time>
      </trkpt>
      <trkpt lat="46.54632" lon="0.33694">
        <ele>112.2</ele>
        <time>2022-01-16T10:47:36Z</time>
      </trkpt>
      <trkpt lat="46.54641" lon="0.337">
        <ele>112.6</ele>
        <time>2022-01-16T10:47:38Z</time>
      </trkpt>
      <trkpt lat="46.54658" lon="0.33712">
        <ele>113</ele>
        <time>2022-01-16T10:47:42Z</time>
      </trkpt>
      <trkpt lat="46.54662" lon="0.33714">
        <ele>113</ele>
        <time>2022-01-16T10:47:43Z</time>
      </trkpt>
      <trkpt lat="46.54689" lon="0.33723">
        <ele>112.6</ele>
        <time>2022-01-16T10:47:48Z</time>
      </trkpt>
      <trkpt lat="46.54717" lon="0.3373">
        <ele>111.4</ele>
        <time>2022-01-16T10:47:52Z</time>
      </trkpt>
      <trkpt lat="46.54732" lon="0.33735">
        <ele>110.4</ele>
        <time>2022-01-16T10:47:54Z</time>
      </trkpt>
      <trkpt lat="46.5474" lon="0.33738">
        <ele>110</ele>
        <time>2022-01-16T10:47:55Z</time>
      </trkpt>
      <trkpt lat="46.54755" lon="0.33744">
        <ele>109</ele>
        <time>2022-01-16T10:47:57Z</time>
      </trkpt>
      <trkpt lat="46.54778" lon="0.33759">
        <ele>107.6</ele>
        <time>2022-01-16T10:48:00Z</time>
      </trkpt>
      <trkpt lat="46.54793" lon="0.33771">
        <ele>106</ele>
        <time>2022-01-16T10:48:02Z</time>
      </trkpt>
      <trkpt lat="46.54811" lon="0.33783">
        <ele>103.4</ele>
        <time>2022-01-16T10:48:04Z</time>
      </trkpt>
      <trkpt lat="46.5482" lon="0.33789">
        <ele>101.8</ele>
        <time>2022-01-16T10:48:05Z</time>
      </trkpt>
      <trkpt lat="46.5483" lon="0.33794">
        <ele>100.2</ele>
        <time>2022-01-16T10:48:06Z</time>
      </trkpt>
      <trkpt lat="46.54839" lon="0.338">
        <ele>99</ele>
        <time>2022-01-16T10:48:07Z</time>
      </trkpt>
      <trkpt lat="46.54849" lon="0.33806">
        <ele>97.6</ele>
        <time>2022-01-16T10:48:08Z</time>
      </trkpt>
      <trkpt lat="46.54858" lon="0.33812">
        <ele>96.2</ele>
        <time>2022-01-16T10:48:09Z</time>
      </trkpt>
      <trkpt lat="46.54877" lon="0.33823">
        <ele>94.6</ele>
        <time>2022-01-16T10:48:11Z</time>
      </trkpt>
      <trkpt lat="46.54885" lon="0.33829">
        <ele>92.8</ele>
        <time>2022-01-16T10:48:12Z</time>
      </trkpt>
      <trkpt lat="46.54893" lon="0.33834">
        <ele>91.8</ele>
        <time>2022-01-16T10:48:13Z</time>
      </trkpt>
      <trkpt lat="46.54901" lon="0.33842">
        <ele>89.6</ele>
        <time>2022-01-16T10:48:14Z</time>
      </trkpt>
      <trkpt lat="46.54909" lon="0.3385">
        <ele>87.8</ele>
        <time>2022-01-16T10:48:15Z</time>
      </trkpt>
      <trkpt lat="46.54916" lon="0.33857">
        <ele>86.8</ele>
        <time>2022-01-16T10:48:16Z</time>
      </trkpt>
      <trkpt lat="46.54932" lon="0.33872">
        <ele>85.4</ele>
        <time>2022-01-16T10:48:18Z</time>
      </trkpt>
      <trkpt lat="46.54956" lon="0.3389">
        <ele>84.2</ele>
        <time>2022-01-16T10:48:21Z</time>
      </trkpt>
      <trkpt lat="46.54975" lon="0.33901">
        <ele>83.6</ele>
        <time>2022-01-16T10:48:24Z</time>
      </trkpt>
      <trkpt lat="46.54979" lon="0.33905">
        <ele>83.4</ele>
        <time>2022-01-16T10:48:25Z</time>
      </trkpt>
      <trkpt lat="46.54981" lon="0.3391">
        <ele>83</ele>
        <time>2022-01-16T10:48:26Z</time>
      </trkpt>
      <trkpt lat="46.54986" lon="0.33931">
        <ele>82.8</ele>
        <time>2022-01-16T10:48:30Z</time>
      </trkpt>
      <trkpt lat="46.54984" lon="0.33943">
        <ele>83</ele>
        <time>2022-01-16T10:48:32Z</time>
      </trkpt>
      <trkpt lat="46.54984" lon="0.3395">
        <ele>83.2</ele>
        <time>2022-01-16T10:48:34Z</time>
      </trkpt>
      <trkpt lat="46.54985" lon="0.33952">
        <ele>83.2</ele>
        <time>2022-01-16T10:48:36Z</time>
      </trkpt>
      <trkpt lat="46.54988" lon="0.3395">
        <ele>83.4</ele>
        <time>2022-01-16T10:48:39Z</time>
      </trkpt>
      <trkpt lat="46.54989" lon="0.33948">
        <ele>83.4</ele>
        <time>2022-01-16T10:48:40Z</time>
      </trkpt>
      <trkpt lat="46.54992" lon="0.33942">
        <ele>83.2</ele>
        <time>2022-01-16T10:48:43Z</time>
      </trkpt>
      <trkpt lat="46.54996" lon="0.33943">
        <ele>83</ele>
        <time>2022-01-16T10:48:46Z</time>
      </trkpt>
      <trkpt lat="46.54997" lon="0.33945">
        <ele>83</ele>
        <time>2022-01-16T10:48:47Z</time>
      </trkpt>
      <trkpt lat="46.55006" lon="0.33952">
        <ele>84</ele>
        <time>2022-01-16T10:48:53Z</time>
      </trkpt>
      <trkpt lat="46.55006" lon="0.33955">
        <ele>84.2</ele>
        <time>2022-01-16T10:48:54Z</time>
      </trkpt>
      <trkpt lat="46.55003" lon="0.33969">
        <ele>85.2</ele>
        <time>2022-01-16T10:48:59Z</time>
      </trkpt>
      <trkpt lat="46.55008" lon="0.33986">
        <ele>86.4</ele>
        <time>2022-01-16T10:49:04Z</time>
      </trkpt>
      <trkpt lat="46.55012" lon="0.33989">
        <ele>86.6</ele>
        <time>2022-01-16T10:49:05Z</time>
      </trkpt>
      <trkpt lat="46.55016" lon="0.33995">
        <ele>87.6</ele>
        <time>2022-01-16T10:49:07Z</time>
      </trkpt>
      <trkpt lat="46.55016" lon="0.33998">
        <ele>88</ele>
        <time>2022-01-16T10:49:08Z</time>
      </trkpt>
      <trkpt lat="46.55017" lon="0.34">
        <ele>88.8</ele>
        <time>2022-01-16T10:49:09Z</time>
      </trkpt>
      <trkpt lat="46.55018" lon="0.34002">
        <ele>89.2</ele>
        <time>2022-01-16T10:49:10Z</time>
      </trkpt>
      <trkpt lat="46.55016" lon="0.34008">
        <ele>90</ele>
        <time>2022-01-16T10:49:12Z</time>
      </trkpt>
      <trkpt lat="46.55015" lon="0.34019">
        <ele>90.8</ele>
        <time>2022-01-16T10:49:15Z</time>
      </trkpt>
      <trkpt lat="46.55015" lon="0.3406">
        <ele>91</ele>
        <time>2022-01-16T10:49:23Z</time>
      </trkpt>
      <trkpt lat="46.5501" lon="0.34085">
        <ele>91</ele>
        <time>2022-01-16T10:49:28Z</time>
      </trkpt>
      <trkpt lat="46.5501" lon="0.34091">
        <ele>91.2</ele>
        <time>2022-01-16T10:49:30Z</time>
      </trkpt>
      <trkpt lat="46.55008" lon="0.34103">
        <ele>91.8</ele>
        <time>2022-01-16T10:49:34Z</time>
      </trkpt>
      <trkpt lat="46.55008" lon="0.34109">
        <ele>92.4</ele>
        <time>2022-01-16T10:49:36Z</time>
      </trkpt>
      <trkpt lat="46.55009" lon="0.34114">
        <ele>92.6</ele>
        <time>2022-01-16T10:49:38Z</time>
      </trkpt>
      <trkpt lat="46.55009" lon="0.34114">
        <ele>92.6</ele>
        <time>2022-01-16T10:49:39Z</time>
      </trkpt>
      <trkpt lat="46.55019" lon="0.34124">
        <ele>93.4</ele>
        <time>2022-01-16T10:49:44Z</time>
      </trkpt>
      <trkpt lat="46.55022" lon="0.34126">
        <ele>94</ele>
        <time>2022-01-16T10:49:45Z</time>
      </trkpt>
      <trkpt lat="46.55026" lon="0.3413">
        <ele>94.6</ele>
        <time>2022-01-16T10:49:48Z</time>
      </trkpt>
      <trkpt lat="46.5503" lon="0.34132">
        <ele>95.2</ele>
        <time>2022-01-16T10:49:50Z</time>
      </trkpt>
      <trkpt lat="46.55036" lon="0.34132">
        <ele>95.8</ele>
        <time>2022-01-16T10:49:53Z</time>
      </trkpt>
      <trkpt lat="46.55047" lon="0.3413">
        <ele>96.8</ele>
        <time>2022-01-16T10:49:57Z</time>
      </trkpt>
      <trkpt lat="46.55049" lon="0.34129">
        <ele>97</ele>
        <time>2022-01-16T10:49:58Z</time>
      </trkpt>
      <trkpt lat="46.55059" lon="0.34127">
        <ele>98</ele>
        <time>2022-01-16T10:50:02Z</time>
      </trkpt>
      <trkpt lat="46.55067" lon="0.34127">
        <ele>98.8</ele>
        <time>2022-01-16T10:50:05Z</time>
      </trkpt>
      <trkpt lat="46.5507" lon="0.34127">
        <ele>99</ele>
        <time>2022-01-16T10:50:06Z</time>
      </trkpt>
      <trkpt lat="46.55084" lon="0.34127">
        <ele>100.2</ele>
        <time>2022-01-16T10:50:12Z</time>
      </trkpt>
      <trkpt lat="46.55098" lon="0.34129">
        <ele>101.4</ele>
        <time>2022-01-16T10:50:17Z</time>
      </trkpt>
      <trkpt lat="46.55101" lon="0.3413">
        <ele>101.6</ele>
        <time>2022-01-16T10:50:18Z</time>
      </trkpt>
      <trkpt lat="46.55109" lon="0.34131">
        <ele>102.4</ele>
        <time>2022-01-16T10:50:21Z</time>
      </trkpt>
      <trkpt lat="46.55122" lon="0.34134">
        <ele>103.8</ele>
        <time>2022-01-16T10:50:26Z</time>
      </trkpt>
      <trkpt lat="46.55124" lon="0.34135">
        <ele>104.2</ele>
        <time>2022-01-16T10:50:27Z</time>
      </trkpt>
      <trkpt lat="46.55138" lon="0.34137">
        <ele>105</ele>
        <time>2022-01-16T10:50:32Z</time>
      </trkpt>
      <trkpt lat="46.55144" lon="0.34141">
        <ele>105.6</ele>
        <time>2022-01-16T10:50:35Z</time>
      </trkpt>
      <trkpt lat="46.55149" lon="0.34142">
        <ele>106</ele>
        <time>2022-01-16T10:50:37Z</time>
      </trkpt>
      <trkpt lat="46.55157" lon="0.34144">
        <ele>107.2</ele>
        <time>2022-01-16T10:50:41Z</time>
      </trkpt>
      <trkpt lat="46.55172" lon="0.3415">
        <ele>108.4</ele>
        <time>2022-01-16T10:50:48Z</time>
      </trkpt>
      <trkpt lat="46.55182" lon="0.34157">
        <ele>109.4</ele>
        <time>2022-01-16T10:50:54Z</time>
      </trkpt>
      <trkpt lat="46.55184" lon="0.34157">
        <ele>109.6</ele>
        <time>2022-01-16T10:50:55Z</time>
      </trkpt>
      <trkpt lat="46.55194" lon="0.3416">
        <ele>110.6</ele>
        <time>2022-01-16T10:50:59Z</time>
      </trkpt>
      <trkpt lat="46.55201" lon="0.34162">
        <ele>110.8</ele>
        <time>2022-01-16T10:51:02Z</time>
      </trkpt>
      <trkpt lat="46.55212" lon="0.34166">
        <ele>111.6</ele>
        <time>2022-01-16T10:51:06Z</time>
      </trkpt>
      <trkpt lat="46.55217" lon="0.34167">
        <ele>111.8</ele>
        <time>2022-01-16T10:51:08Z</time>
      </trkpt>
      <trkpt lat="46.55233" lon="0.34171">
        <ele>112.6</ele>
        <time>2022-01-16T10:51:14Z</time>
      </trkpt>
      <trkpt lat="46.55237" lon="0.34171">
        <ele>113</ele>
        <time>2022-01-16T10:51:16Z</time>
      </trkpt>
      <trkpt lat="46.55251" lon="0.34173">
        <ele>114</ele>
        <time>2022-01-16T10:51:21Z</time>
      </trkpt>
      <trkpt lat="46.55257" lon="0.34175">
        <ele>114.4</ele>
        <time>2022-01-16T10:51:24Z</time>
      </trkpt>
      <trkpt lat="46.5527" lon="0.34178">
        <ele>115</ele>
        <time>2022-01-16T10:51:29Z</time>
      </trkpt>
      <trkpt lat="46.55272" lon="0.34178">
        <ele>115.2</ele>
        <time>2022-01-16T10:51:30Z</time>
      </trkpt>
      <trkpt lat="46.55282" lon="0.34179">
        <ele>116.2</ele>
        <time>2022-01-16T10:51:35Z</time>
      </trkpt>
      <trkpt lat="46.55286" lon="0.3418">
        <ele>116.4</ele>
        <time>2022-01-16T10:51:37Z</time>
      </trkpt>
      <trkpt lat="46.55293" lon="0.34182">
        <ele>117.4</ele>
        <time>2022-01-16T10:51:40Z</time>
      </trkpt>
      <trkpt lat="46.55305" lon="0.34185">
        <ele>118.2</ele>
        <time>2022-01-16T10:51:45Z</time>
      </trkpt>
      <trkpt lat="46.55308" lon="0.34186">
        <ele>118.4</ele>
        <time>2022-01-16T10:51:47Z</time>
      </trkpt>
      <trkpt lat="46.55322" lon="0.34191">
        <ele>119.4</ele>
        <time>2022-01-16T10:51:53Z</time>
      </trkpt>
      <trkpt lat="46.55325" lon="0.34192">
        <ele>119.4</ele>
        <time>2022-01-16T10:51:54Z</time>
      </trkpt>
      <trkpt lat="46.55339" lon="0.34197">
        <ele>120.6</ele>
        <time>2022-01-16T10:52:00Z</time>
      </trkpt>
      <trkpt lat="46.55346" lon="0.34199">
        <ele>120.8</ele>
        <time>2022-01-16T10:52:03Z</time>
      </trkpt>
      <trkpt lat="46.55356" lon="0.34202">
        <ele>121.6</ele>
        <time>2022-01-16T10:52:07Z</time>
      </trkpt>
      <trkpt lat="46.55363" lon="0.34205">
        <ele>122.4</ele>
        <time>2022-01-16T10:52:10Z</time>
      </trkpt>
      <trkpt lat="46.55369" lon="0.34207">
        <ele>122.8</ele>
        <time>2022-01-16T10:52:13Z</time>
      </trkpt>
      <trkpt lat="46.55376" lon="0.3421">
        <ele>123.6</ele>
        <time>2022-01-16T10:52:16Z</time>
      </trkpt>
      <trkpt lat="46.55383" lon="0.34213">
        <ele>124</ele>
        <time>2022-01-16T10:52:19Z</time>
      </trkpt>
      <trkpt lat="46.55392" lon="0.34214">
        <ele>124.6</ele>
        <time>2022-01-16T10:52:23Z</time>
      </trkpt>
      <trkpt lat="46.55399" lon="0.34216">
        <ele>125.2</ele>
        <time>2022-01-16T10:52:26Z</time>
      </trkpt>
      <trkpt lat="46.55408" lon="0.34218">
        <ele>125.6</ele>
        <time>2022-01-16T10:52:29Z</time>
      </trkpt>
      <trkpt lat="46.55416" lon="0.3422">
        <ele>126.2</ele>
        <time>2022-01-16T10:52:32Z</time>
      </trkpt>
      <trkpt lat="46.55433" lon="0.34224">
        <ele>127.2</ele>
        <time>2022-01-16T10:52:38Z</time>
      </trkpt>
      <trkpt lat="46.55446" lon="0.34225">
        <ele>128.4</ele>
        <time>2022-01-16T10:52:43Z</time>
      </trkpt>
      <trkpt lat="46.55449" lon="0.34226">
        <ele>128.4</ele>
        <time>2022-01-16T10:52:44Z</time>
      </trkpt>
      <trkpt lat="46.55469" lon="0.34226">
        <ele>129.6</ele>
        <time>2022-01-16T10:52:50Z</time>
      </trkpt>
      <trkpt lat="46.55499" lon="0.34224">
        <ele>130.4</ele>
        <time>2022-01-16T10:52:58Z</time>
      </trkpt>
      <trkpt lat="46.5551" lon="0.34222">
        <ele>130.6</ele>
        <time>2022-01-16T10:53:01Z</time>
      </trkpt>
      <trkpt lat="46.55528" lon="0.3422">
        <ele>130.6</ele>
        <time>2022-01-16T10:53:06Z</time>
      </trkpt>
      <trkpt lat="46.55557" lon="0.34217">
        <ele>131</ele>
        <time>2022-01-16T10:53:14Z</time>
      </trkpt>
      <trkpt lat="46.55578" lon="0.34219">
        <ele>130.8</ele>
        <time>2022-01-16T10:53:22Z</time>
      </trkpt>
      <trkpt lat="46.55583" lon="0.34221">
        <ele>131</ele>
        <time>2022-01-16T10:53:24Z</time>
      </trkpt>
      <trkpt lat="46.55588" lon="0.34216">
        <ele>131</ele>
        <time>2022-01-16T10:53:26Z</time>
      </trkpt>
      <trkpt lat="46.55602" lon="0.34211">
        <ele>131.2</ele>
        <time>2022-01-16T10:53:30Z</time>
      </trkpt>
      <trkpt lat="46.55637" lon="0.34217">
        <ele>131.4</ele>
        <time>2022-01-16T10:53:38Z</time>
      </trkpt>
      <trkpt lat="46.55664" lon="0.34223">
        <ele>131.6</ele>
        <time>2022-01-16T10:53:45Z</time>
      </trkpt>
      <trkpt lat="46.55668" lon="0.34225">
        <ele>131.6</ele>
        <time>2022-01-16T10:53:46Z</time>
      </trkpt>
      <trkpt lat="46.55672" lon="0.34229">
        <ele>131.6</ele>
        <time>2022-01-16T10:53:47Z</time>
      </trkpt>
      <trkpt lat="46.55678" lon="0.34237">
        <ele>131.8</ele>
        <time>2022-01-16T10:53:49Z</time>
      </trkpt>
      <trkpt lat="46.55688" lon="0.34258">
        <ele>132</ele>
        <time>2022-01-16T10:53:53Z</time>
      </trkpt>
      <trkpt lat="46.55695" lon="0.34265">
        <ele>132</ele>
        <time>2022-01-16T10:53:55Z</time>
      </trkpt>
      <trkpt lat="46.55713" lon="0.34279">
        <ele>132.2</ele>
        <time>2022-01-16T10:54:01Z</time>
      </trkpt>
      <trkpt lat="46.5573" lon="0.3429">
        <ele>132.4</ele>
        <time>2022-01-16T10:54:06Z</time>
      </trkpt>
      <trkpt lat="46.55752" lon="0.34294">
        <ele>132.6</ele>
        <time>2022-01-16T10:54:12Z</time>
      </trkpt>
      <trkpt lat="46.55786" lon="0.34297">
        <ele>132.4</ele>
        <time>2022-01-16T10:54:21Z</time>
      </trkpt>
      <trkpt lat="46.55807" lon="0.34301">
        <ele>132.6</ele>
        <time>2022-01-16T10:54:27Z</time>
      </trkpt>
      <trkpt lat="46.55815" lon="0.3431">
        <ele>132.6</ele>
        <time>2022-01-16T10:54:31Z</time>
      </trkpt>
      <trkpt lat="46.55815" lon="0.34321">
        <ele>132.6</ele>
        <time>2022-01-16T10:54:35Z</time>
      </trkpt>
      <trkpt lat="46.55815" lon="0.34335">
        <ele>132.4</ele>
        <time>2022-01-16T10:54:41Z</time>
      </trkpt>
      <trkpt lat="46.55816" lon="0.34348">
        <ele>132.4</ele>
        <time>2022-01-16T10:54:46Z</time>
      </trkpt>
      <trkpt lat="46.55817" lon="0.34354">
        <ele>132.4</ele>
        <time>2022-01-16T10:54:49Z</time>
      </trkpt>
      <trkpt lat="46.55819" lon="0.34356">
        <ele>132.4</ele>
        <time>2022-01-16T10:54:51Z</time>
      </trkpt>
      <trkpt lat="46.55819" lon="0.34356">
        <ele>132.4</ele>
        <time>2022-01-16T10:54:52Z</time>
      </trkpt>
      <trkpt lat="46.5582" lon="0.34354">
        <ele>132.2</ele>
        <time>2022-01-16T10:54:56Z</time>
      </trkpt>
      <trkpt lat="46.5582" lon="0.34354">
        <ele>132.2</ele>
        <time>2022-01-16T10:54:57Z</time>
      </trkpt>
      <trkpt lat="46.5582" lon="0.34354">
        <ele>132</ele>
        <time>2022-01-16T10:54:59Z</time>
      </trkpt>
    </trkseg>
  </trk>
</gpx>